<
# Wetter Temperatur Luftdruck Luftfeuchtigkeit Sichtweite Windgeschwindigkeit Windrichtung Zeit
1 Clouds 16 1022 67 10000 2.1 300 22:24 24.01.2020
2 Clouds 16 1022 63 10000 2.1 260 21:43 24.01.2020
3 Clouds 17 1021 63 10000 1.5 260 21:20 24.01.2020
4 Clouds 17 1021 63 10000 1 0 20:56 24.01.2020
5 Clouds 17 1021 63 10000 1 0 20:38 24.01.2020
6 Clouds 17 1021 63 10000 1 0 20:19 24.01.2020
7 Clouds 18 1020 63 10000 1 0 19:56 24.01.2020
8 Clouds 18 1020 63 10000 1 0 19:38 24.01.2020
9 Clouds 18 1020 63 10000 1 0 19:20 24.01.2020
10 Clouds 19 1020 59 10000 1.5 100 18:43 24.01.2020
11 Clouds 19 1020 59 10000 2.1 160 18:23 24.01.2020
12 Clouds 19 1020 59 10000 3.1 150 17:46 24.01.2020
13 Clouds 17 1019 59 10000 2.6 140 17:23 24.01.2020
14 Clouds 20 1019 56 10000 2.6 130 16:59 24.01.2020
15 Clouds 20 1019 56 10000 2.6 130 16:39 24.01.2020
16 Clouds 18 1019 59 10000 2.6 130 16:20 24.01.2020
17 Clouds 20 1020 56 10000 3.1 120 15:43 24.01.2020
18 Clouds 19 1020 59 10000 3.1 140 15:22 24.01.2020
19 Clouds 19 1020 59 10000 3.1 140 15:22 24.01.2020
20 Clouds 18 1020 63 10000 3.1 160 14:56 24.01.2020
21 Clouds 19 1020 63 10000 3.1 160 14:38 24.01.2020
22 Clouds 18 1021 52 10000 3.1 160 14:19 24.01.2020
23 Clouds 19 1021 63 10000 3.1 140 13:42 24.01.2020
24 Clouds 20 1022 60 10000 3.1 140 13:23 24.01.2020
25 Clouds 17 1022 52 10000 3.6 150 12:44 24.01.2020
26 Clouds 17 1022 59 10000 3.1 150 12:22 24.01.2020
27 Clouds 19 1022 52 10000 2.1 180 11:45 24.01.2020
28 Clouds 18 1021 55 10000 2.6 200 11:20 24.01.2020
29 Clouds 18 1021 42 10000 1 0 10:59 24.01.2020
30 Clouds 18 1021 42 10000 1 0 10:40 24.01.2020
31 Clouds 16 1021 48 10000 2.6 260 10:19 24.01.2020
32 Clouds 16 1021 51 10000 3.1 260 09:42 24.01.2020
33 Clouds 16 1021 51 10000 3.1 260 09:42 24.01.2020
34 Clouds 15 1020 54 10000 3.6 260 09:24 24.01.2020
35 Clouds 14 1020 62 10000 2.6 270 08:59 24.01.2020
36 Clouds 14 1020 62 10000 2.6 270 08:36 24.01.2020
37 Clear 14 1020 58 10000 2.6 280 08:18 24.01.2020
38 Clear 14 1020 62 10000 2.6 270 07:42 24.01.2020
39 Clear 14 1020 62 10000 3.6 270 07:21 24.01.2020
40 Clear 14 1020 58 10000 3.6 260 06:43 24.01.2020
41 Clear 14 1020 58 10000 3.6 260 06:43 24.01.2020
42 Clear 14 1020 67 10000 3.6 270 06:23 24.01.2020
43 Clear 14 1020 67 10000 3.6 280 05:21 24.01.2020
44 Clear 15 1021 67 10000 3.1 290 03:29 24.01.2020
45 Clear 15 1021 67 10000 3.1 290 02:39 24.01.2020
46 Clouds 15 1021 67 10000 2.6 290 02:19 24.01.2020
47 Clouds 15 1021 67 10000 3.1 300 01:38 24.01.2020
48 Clouds 15 1021 62 10000 1.5 290 00:40 24.01.2020
49 Clouds 15 1021 63 10000 2.6 290 00:18 24.01.2020
50 Clouds 16 1021 63 10000 2.6 290 23:41 23.01.2020
51 Clouds 16 1021 67 10000 2.1 290 23:21 23.01.2020
52 Clouds 16 1021 63 10000 2.1 300 22:58 23.01.2020
53 Clouds 17 1021 63 10000 2.1 300 22:36 23.01.2020
54 Clouds 17 1020 63 10000 2.6 300 22:18 23.01.2020
55 Clouds 17 1020 63 10000 2.1 300 21:55 23.01.2020
56 Clouds 17 1020 63 10000 2.1 300 21:37 23.01.2020
57 Clouds 17 1020 63 10000 2.1 320 21:18 23.01.2020
58 Clouds 18 1020 59 10000 0.5 80 20:41 23.01.2020
59 Clouds 18 1019 63 10000 0.5 0 20:22 23.01.2020
60 Clouds 18 1019 59 10000 1 0 19:57 23.01.2020
61 Clouds 18 1019 59 10000 1 0 19:39 23.01.2020
62 Clouds 18 1019 63 10000 1 0 19:21 23.01.2020
63 Clouds 18 1019 63 10000 1.5 110 18:56 23.01.2020
64 Clouds 18 1019 63 10000 1.5 110 18:37 23.01.2020
65 Clouds 19 1019 59 10000 2.1 80 18:19 23.01.2020
66 Clouds 18 1019 59 10000 2.1 120 17:44 23.01.2020
67 Clouds 18 1019 59 10000 2.1 110 17:21 23.01.2020
68 Clouds 19 1019 59 10000 2.1 80 16:58 23.01.2020
69 Clouds 19 1019 59 10000 2.1 80 16:38 23.01.2020
70 Clouds 19 1019 59 10000 2.6 100 16:19 23.01.2020
71 Clouds 19 1019 63 10000 2.6 90 15:57 23.01.2020
72 Clouds 20 1019 63 10000 2.6 90 15:38 23.01.2020
73 Clouds 19 1019 59 10000 2.6 70 15:19 23.01.2020
74 Clouds 19 1019 59 10000 3.1 100 14:57 23.01.2020
75 Clouds 19 1019 59 10000 3.1 100 14:39 23.01.2020
76 Clouds 18 1020 59 10000 3.1 90 14:21 23.01.2020
77 Clouds 19 1020 56 10000 3.6 80 13:46 23.01.2020
78 Clouds 19 1020 59 10000 3.6 70 13:21 23.01.2020
79 Clouds 19 1021 59 10000 3.1 70 12:56 23.01.2020
80 Clouds 19 1021 59 10000 3.1 70 12:56 23.01.2020
81 Clouds 20 1021 59 10000 3.1 70 12:38 23.01.2020
82 Clouds 18 1020 52 10000 3.1 70 12:20 23.01.2020
83 Clouds 19 1020 48 10000 2.1 80 11:43 23.01.2020
84 Clouds 19 1020 48 10000 1.5 40 11:25 23.01.2020
85 Clouds 18 1020 42 10000 1.5 350 10:59 23.01.2020
86 Clouds 18 1020 42 10000 1.5 350 10:40 23.01.2020
87 Clouds 16 1019 44 10000 2.6 330 10:19 23.01.2020
88 Clouds 15 1019 47 10000 3.1 300 09:41 23.01.2020
89 Clouds 15 1018 47 10000 3.1 300 09:22 23.01.2020
90 Clouds 14 1018 50 10000 3.1 300 08:56 23.01.2020
91 Clouds 14 1018 50 10000 3.1 300 08:38 23.01.2020
92 Clouds 14 1018 50 10000 3.1 310 08:19 23.01.2020
93 Clouds 14 1018 50 10000 2.6 310 07:39 23.01.2020
94 Clouds 13 1018 54 10000 1.03 332 07:18 23.01.2020
95 Clouds 13 1018 54 10000 1.5 250 06:44 23.01.2020
96 Clouds 13 1018 54 10000 2.1 280 06:18 23.01.2020
97 Clouds 14 1018 50 10000 2.6 260 04:25 23.01.2020
98 Clouds 14 1019 50 10000 3.6 260 03:36 23.01.2020
99 Clouds 14 1019 62 10000 2.6 290 01:55 23.01.2020
100 Clouds 14 1019 62 10000 2.6 250 00:44 23.01.2020
101 Clouds 14 1019 62 10000 2.1 0 00:24 23.01.2020
102 Clouds 15 1019 62 10000 2.1 270 23:46 22.01.2020
103 Clouds 15 1019 67 10000 2.1 270 23:28 22.01.2020
104 Clouds 16 1019 63 10000 2.6 260 22:43 22.01.2020
105 Clouds 16 1019 67 10000 2.1 250 22:25 22.01.2020
106 Clouds 16 1019 67 10000 2.6 230 21:59 22.01.2020
107 Clouds 16 1019 67 10000 2.6 230 21:38 22.01.2020
108 Clouds 16 1018 67 10000 2.6 220 21:19 22.01.2020
109 Clouds 17 1018 59 10000 1 0 20:42 22.01.2020
110 Clouds 17 1018 59 10000 1 0 20:42 22.01.2020
111 Clouds 17 1017 59 10000 4.1 220 20:23 22.01.2020
112 Clouds 18 1017 52 10000 3.1 190 19:59 22.01.2020
113 Clouds 18 1017 52 10000 3.1 190 19:41 22.01.2020
114 Clouds 18 1017 55 10000 1.5 190 19:21 22.01.2020
115 Clouds 18 1017 55 10000 0.5 0 18:59 22.01.2020
116 Clouds 18 1017 55 10000 0.5 0 18:40 22.01.2020
117 Clouds 18 1017 55 10000 2.6 80 18:21 22.01.2020
118 Clouds 18 1017 52 10000 2.6 150 17:59 22.01.2020
119 Clouds 18 1017 52 10000 2.6 150 17:39 22.01.2020
120 Clouds 19 1017 48 10000 2.6 0 17:20 22.01.2020
121 Clouds 19 1017 42 10000 2.6 190 16:55 22.01.2020
122 Clouds 19 1017 42 10000 2.6 190 16:55 22.01.2020
123 Clouds 19 1017 42 10000 2.6 190 16:55 22.01.2020
124 Clouds 19 1017 42 10000 2.6 190 16:37 22.01.2020
125 Clouds 19 1018 45 10000 3.1 170 16:18 22.01.2020
126 Clouds 19 1018 45 10000 2.1 0 15:41 22.01.2020
127 Clouds 18 1018 48 10000 2.6 120 15:23 22.01.2020
128 Clouds 18 1018 48 10000 3.1 150 14:58 22.01.2020
129 Clouds 19 1018 48 10000 3.1 150 14:37 22.01.2020
130 Clouds 18 1019 48 10000 3.1 160 14:19 22.01.2020
131 Clouds 16 1019 52 10000 3.1 150 13:56 22.01.2020
132 Clouds 16 1019 52 10000 3.1 150 13:56 22.01.2020
133 Clouds 16 1019 52 10000 3.1 150 13:56 22.01.2020
134 Clouds 19 1019 52 10000 3.1 150 13:37 22.01.2020
135 Clouds 17 1019 48 10000 3.1 140 13:19 22.01.2020
136 Clouds 19 1019 45 10000 3.1 160 12:56 22.01.2020
137 Clouds 18 1019 45 10000 3.1 160 12:38 22.01.2020
138 Clouds 18 1019 48 10000 2.6 130 12:18 22.01.2020
139 Clouds 18 1019 45 10000 2.1 90 11:56 22.01.2020
140 Clouds 18 1019 45 10000 2.1 90 11:38 22.01.2020
141 Clouds 18 1019 45 10000 1.5 120 11:19 22.01.2020
142 Clouds 17 1019 36 10000 0.5 0 10:44 22.01.2020
143 Clouds 15 1018 44 10000 1.77 294 10:21 22.01.2020
144 Clouds 14 1018 44 10000 2.1 290 09:45 22.01.2020
145 Clouds 13 1018 50 10000 2.1 300 09:26 22.01.2020
146 Clouds 13 1018 47 10000 2.6 310 08:59 22.01.2020
147 Clouds 13 1018 47 10000 2.6 310 08:40 22.01.2020
148 Clouds 14 1018 50 10000 2.6 290 08:21 22.01.2020
149 Clouds 13 1017 54 10000 3.1 300 07:58 22.01.2020
150 Clouds 13 1017 54 10000 3.1 300 07:58 22.01.2020
151 Clouds 13 1017 54 10000 3.1 300 07:40 22.01.2020
152 Clouds 13 1017 58 10000 2.6 300 07:21 22.01.2020
153 Clouds 14 1017 58 10000 3.6 310 06:31 22.01.2020
154 Clouds 13 1017 54 10000 3.1 310 05:41 22.01.2020
155 Clouds 14 1017 54 10000 3.1 290 04:20 22.01.2020
156 Clouds 14 1018 58 10000 2.6 290 03:23 22.01.2020
157 Clouds 14 1018 58 10000 2.6 290 03:23 22.01.2020
158 Clouds 14 1018 54 10000 2.1 280 02:27 22.01.2020
159 Clouds 15 1018 54 10000 2.6 310 00:46 22.01.2020
160 Clouds 15 1018 62 10000 4.1 320 00:26 22.01.2020
161 Clouds 16 1017 59 10000 3.1 330 23:39 21.01.2020
162 Clouds 15 1017 58 10000 3.1 340 23:21 21.01.2020
163 Clouds 16 1017 51 10000 3.6 350 22:59 21.01.2020
164 Clouds 16 1017 51 10000 3.6 350 22:39 21.01.2020
165 Clouds 16 1017 55 10000 4.6 350 22:20 21.01.2020
166 Clouds 16 1017 59 10000 4.1 330 21:56 21.01.2020
167 Clouds 16 1017 59 10000 4.1 330 21:38 21.01.2020
168 Clouds 16 1017 59 10000 5.7 320 21:19 21.01.2020
169 Clouds 16 1016 59 10000 5.1 330 20:56 21.01.2020
170 Clouds 15 1016 59 10000 5.1 330 20:37 21.01.2020
171 Clouds 16 1016 51 10000 3.6 330 20:18 21.01.2020
172 Clouds 16 1016 51 10000 3.6 330 20:18 21.01.2020
173 Clouds 16 1016 55 10000 3.6 320 19:56 21.01.2020
174 Clouds 17 1016 55 10000 3.6 320 19:37 21.01.2020
175 Clouds 17 1016 55 10000 3.6 320 19:37 21.01.2020
176 Clouds 17 1016 55 10000 4.1 330 19:18 21.01.2020
177 Clouds 17 1015 55 10000 5.1 320 18:55 21.01.2020
178 Clouds 17 1015 55 10000 5.1 320 18:36 21.01.2020
179 Clouds 17 1015 55 10000 5.7 340 18:18 21.01.2020
180 Clouds 18 1015 52 10000 6.2 350 17:42 21.01.2020
181 Clouds 18 1015 48 10000 5.7 340 17:20 21.01.2020
182 Clouds 18 1015 45 10000 5.7 340 16:57 21.01.2020
183 Clouds 18 1015 45 10000 5.7 340 16:36 21.01.2020
184 Clouds 18 1015 45 10000 5.7 340 16:36 21.01.2020
185 Clouds 18 1015 45 10000 6.7 330 16:18 21.01.2020
186 Clouds 19 1015 39 10000 6.7 350 15:40 21.01.2020
187 Clouds 18 1015 42 10000 5.7 310 15:20 21.01.2020
188 Clouds 18 1016 45 10000 6.2 340 14:57 21.01.2020
189 Clouds 18 1016 45 10000 6.2 340 14:37 21.01.2020
190 Clouds 17 1016 55 10000 4.1 340 14:18 21.01.2020
191 Clouds 17 1017 59 10000 4.1 320 13:39 21.01.2020
192 Clouds 17 1017 63 10000 5.7 330 13:18 21.01.2020
193 Clouds 17 1017 55 10000 6.2 340 12:43 21.01.2020
194 Clouds 18 1017 52 10000 6.2 350 12:25 21.01.2020
195 Clouds 18 1016 48 10000 6.7 340 11:57 21.01.2020
196 Clouds 18 1016 48 10000 6.7 340 11:38 21.01.2020
197 Clouds 18 1016 48 10000 5.7 350 11:19 21.01.2020
198 Clouds 17 1016 45 10000 5.7 350 10:44 21.01.2020
199 Clouds 16 1016 48 10000 4.1 340 10:23 21.01.2020
200 Clouds 16 1016 55 10000 3.1 340 09:59 21.01.2020
201 Clouds 16 1016 55 10000 3.1 340 09:40 21.01.2020
202 Clouds 15 1015 55 10000 3.1 330 09:21 21.01.2020
203 Clouds 15 1015 59 10000 4.1 330 08:47 21.01.2020
204 Clouds 15 1015 59 10000 3.6 330 08:27 21.01.2020
205 Clouds 15 1015 59 10000 5.1 330 07:56 21.01.2020
206 Clouds 15 1015 59 10000 5.1 330 07:37 21.01.2020
207 Clouds 15 1015 59 10000 3.1 330 07:19 21.01.2020
208 Clouds 15 1015 63 10000 3.6 340 06:44 21.01.2020
209 Clouds 15 1015 63 10000 3.6 350 06:23 21.01.2020
210 Clouds 15 1015 59 10000 5.1 340 05:41 21.01.2020
211 Clouds 15 1015 59 10000 4.1 320 04:39 21.01.2020
212 Clouds 15 1015 59 10000 4.1 320 04:39 21.01.2020
213 Clouds 16 1016 67 10000 5.7 330 02:34 21.01.2020
214 Clouds 15 1017 77 10000 5.7 330 01:37 21.01.2020
215 Clouds 16 1017 67 10000 4.6 330 00:52 21.01.2020
216 Clouds 16 1017 72 10000 8.7 350 00:29 21.01.2020
217 Clouds 17 1017 55 10000 5.7 350 23:57 20.01.2020
218 Clouds 17 1017 55 10000 5.7 350 23:36 20.01.2020
219 Clouds 17 1017 59 10000 6.2 350 23:18 20.01.2020
220 Clouds 17 1017 55 10000 8.7 350 22:55 20.01.2020
221 Clouds 17 1017 55 10000 8.7 350 22:36 20.01.2020
222 Clouds 17 1016 59 10000 7.2 350 22:18 20.01.2020
223 Clouds 17 1016 55 10000 6.7 350 21:55 20.01.2020
224 Clouds 17 1016 55 10000 6.7 350 21:36 20.01.2020
225 Clouds 18 1016 55 10000 7.2 350 21:18 20.01.2020
226 Clouds 18 1016 52 10000 6.2 350 20:43 20.01.2020
227 Clouds 18 1016 55 10000 7.7 360 20:20 20.01.2020
228 Clouds 18 1016 59 10000 8.7 360 19:59 20.01.2020
229 Clouds 18 1016 59 10000 8.7 360 19:59 20.01.2020
230 Clouds 18 1016 59 10000 8.7 360 19:41 20.01.2020
231 Clouds 18 1016 59 10000 9.3 360 19:19 20.01.2020
232 Clouds 19 1016 55 10000 8.2 350 18:56 20.01.2020
233 Clouds 19 1016 55 10000 8.2 350 18:38 20.01.2020
234 Clouds 19 1016 55 10000 8.2 350 18:19 20.01.2020
235 Clouds 19 1016 55 10000 8.2 350 18:19 20.01.2020
236 Clouds 19 1016 55 10000 10.3 360 17:38 20.01.2020
237 Clouds 20 1015 56 10000 8.7 350 17:19 20.01.2020
238 Clouds 20 1015 46 10000 9.3 350 16:46 20.01.2020
239 Clouds 20 1015 49 10000 9.8 350 16:26 20.01.2020
240 Clouds 20 1016 49 10000 9.8 340 15:59 20.01.2020
241 Clouds 18 1016 49 10000 9.8 340 15:40 20.01.2020
242 Clouds 18 1016 52 10000 9.8 350 15:22 20.01.2020
243 Clouds 20 1016 49 10000 8.2 350 14:58 20.01.2020
244 Clouds 18 1016 49 10000 8.2 350 14:39 20.01.2020
245 Clouds 19 1017 52 10000 8.7 340 14:20 20.01.2020
246 Clouds 19 1018 59 10000 9.3 330 13:44 20.01.2020
247 Clouds 19 1018 55 10000 9.8 340 13:24 20.01.2020
248 Clouds 19 1019 68 10000 9.3 330 12:58 20.01.2020
249 Clouds 18 1019 68 10000 9.3 330 12:40 20.01.2020
250 Drizzle 18 1019 63 10000 8.7 340 12:21 20.01.2020
251 Clouds 18 1019 63 10000 7.7 340 11:54 20.01.2020
252 Clouds 17 1019 63 10000 7.7 340 11:36 20.01.2020
253 Clouds 18 1019 63 10000 8.2 340 11:18 20.01.2020
254 Clouds 17 1019 67 10000 6.7 320 10:41 20.01.2020
255 Drizzle 17 1019 63 10000 7.2 350 10:20 20.01.2020
256 Clouds 17 1019 55 10000 7.7 340 09:41 20.01.2020
257 Clouds 17 1019 59 10000 6.2 340 09:22 20.01.2020
258 Clouds 17 1019 59 10000 6.2 340 08:54 20.01.2020
259 Clouds 17 1019 59 10000 6.2 350 08:31 20.01.2020
260 Clouds 17 1019 59 10000 6.2 350 07:55 20.01.2020
261 Clouds 17 1019 59 10000 6.2 350 07:36 20.01.2020
262 Clouds 17 1018 59 10000 9.3 340 07:18 20.01.2020
263 Clouds 15 1018 63 10000 8.2 360 06:36 20.01.2020
264 Clouds 16 1018 67 10000 9.8 10 05:56 20.01.2020
265 Clouds 16 1018 67 10000 9.8 10 05:37 20.01.2020
266 Clouds 16 1018 72 10000 7.7 360 05:18 20.01.2020
267 Clouds 16 1019 77 10000 9.8 10 03:47 20.01.2020
268 Drizzle 17 1021 88 8000 7.7 10 01:58 20.01.2020
269 Drizzle 17 1021 88 8000 7.7 10 01:39 20.01.2020
270 Clouds 17 1022 77 10000 8.7 10 00:55 20.01.2020
271 Clouds 17 1022 68 10000 6.2 10 00:28 20.01.2020
272 Clouds 17 1022 72 10000 6.2 360 23:56 19.01.2020
273 Clouds 18 1022 72 10000 6.2 360 23:37 19.01.2020
274 Clouds 18 1023 72 10000 6.2 360 23:18 19.01.2020
275 Clouds 18 1023 72 10000 6.2 360 23:18 19.01.2020
276 Clouds 18 1023 77 10000 7.2 10 22:55 19.01.2020
277 Clouds 18 1023 77 10000 7.2 10 22:36 19.01.2020
278 Clouds 17 1023 77 10000 8.2 20 22:18 19.01.2020
279 Clouds 18 1023 77 10000 7.7 10 21:55 19.01.2020
280 Clouds 17 1023 77 10000 7.7 10 21:55 19.01.2020
281 Clouds 17 1023 77 10000 7.7 10 21:37 19.01.2020
282 Clouds 17 1023 77 10000 7.7 10 21:19 19.01.2020
283 Clouds 18 1023 77 10000 7.2 10 20:55 19.01.2020
284 Clouds 18 1023 77 10000 7.2 10 20:55 19.01.2020
285 Clouds 18 1023 77 10000 7.2 10 20:37 19.01.2020
286 Clouds 18 1023 77 10000 7.2 360 20:18 19.01.2020
287 Clouds 18 1022 77 10000 8.2 20 19:54 19.01.2020
288 Clouds 18 1022 77 10000 8.2 20 19:36 19.01.2020
289 Clouds 19 1023 72 10000 7.7 10 19:18 19.01.2020
290 Clouds 19 1023 68 10000 7.7 10 18:54 19.01.2020
291 Clouds 19 1023 68 10000 7.7 10 18:54 19.01.2020
292 Clouds 19 1023 68 10000 7.7 10 18:36 19.01.2020
293 Clouds 19 1023 68 10000 7.7 10 18:36 19.01.2020
294 Clouds 20 1023 68 10000 9.3 10 18:18 19.01.2020
295 Clouds 19 1023 64 10000 9.8 10 17:56 19.01.2020
296 Clouds 20 1023 64 10000 9.8 10 17:37 19.01.2020
297 Clouds 20 1023 49 10000 8.7 20 17:18 19.01.2020
298 Clouds 22 1023 49 10000 7.7 20 16:54 19.01.2020
299 Clouds 22 1023 49 10000 7.7 20 16:54 19.01.2020
300 Clouds 20 1023 49 10000 7.7 20 16:36 19.01.2020
301 Clouds 21 1023 64 10000 8.7 30 16:18 19.01.2020
302 Clouds 21 1024 64 10000 8.2 20 15:40 19.01.2020
303 Clouds 21 1024 60 10000 7.2 30 15:22 19.01.2020
304 Clouds 21 1025 64 10000 6.2 30 14:59 19.01.2020
305 Clouds 21 1025 64 10000 6.2 30 14:59 19.01.2020
306 Clouds 22 1025 64 10000 6.2 30 14:40 19.01.2020
307 Clear 21 1025 64 10000 6.2 40 14:19 19.01.2020
308 Clear 21 1026 60 10000 6.2 40 13:58 19.01.2020
309 Clear 21 1026 60 10000 6.2 40 13:38 19.01.2020
310 Clear 21 1026 56 10000 5.7 40 13:20 19.01.2020
311 Clear 21 1027 60 10000 5.7 20 12:56 19.01.2020
312 Clear 20 1027 60 10000 5.7 20 12:37 19.01.2020
313 Clear 20 1027 60 10000 5.7 30 12:19 19.01.2020
314 Clear 22 1027 49 10000 4.6 20 11:56 19.01.2020
315 Clear 21 1027 49 10000 4.6 20 11:37 19.01.2020
316 Clear 20 1027 45 10000 5.1 360 11:18 19.01.2020
317 Clear 19 1027 55 10000 5.1 350 10:39 19.01.2020
318 Clear 18 1027 55 10000 5.7 360 10:19 19.01.2020
319 Clear 18 1027 27 10000 4.1 360 09:56 19.01.2020
320 Clear 18 1027 27 10000 4.1 360 09:56 19.01.2020
321 Clear 18 1027 27 10000 4.1 360 09:56 19.01.2020
322 Clear 18 1027 27 10000 4.1 360 09:37 19.01.2020
323 Clear 16 1027 49 10000 4.1 20 09:19 19.01.2020
324 Clear 17 1026 25 10000 2.6 340 08:54 19.01.2020
325 Clear 17 1026 27 10000 3.1 330 08:30 19.01.2020
326 Clear 17 1026 51 10000 3.1 340 07:46 19.01.2020
327 Clear 19 1026 29 10000 3.6 340 07:27 19.01.2020
328 Clear 18 1026 51 10000 3.6 340 06:54 19.01.2020
329 Clear 18 1026 31 10000 4.6 350 06:21 19.01.2020
330 Clear 17 1027 36 10000 3.6 340 03:51 19.01.2020
331 Clear 19 1028 36 10000 4.6 340 02:28 19.01.2020
332 Clear 18 1028 36 10000 5.1 350 01:38 19.01.2020
333 Clear 19 1028 36 10000 4.6 350 01:18 19.01.2020
334 Clear 18 1028 39 10000 5.7 350 00:41 19.01.2020
335 Clear 18 1028 48 10000 6.2 340 00:19 19.01.2020
336 Clear 19 1028 42 10000 7.2 340 23:41 18.01.2020
337 Clear 19 1028 38 10000 5.7 360 23:23 18.01.2020
338 Clear 19 1028 38 10000 5.7 360 23:23 18.01.2020
339 Clear 18 1028 24 10000 5.7 350 22:56 18.01.2020
340 Clear 19 1028 24 10000 5.7 350 22:38 18.01.2020
341 Clear 19 1028 25 10000 5.7 340 22:20 18.01.2020
342 Clear 18 1028 34 10000 5.1 350 21:57 18.01.2020
343 Clear 18 1028 34 10000 5.1 350 21:38 18.01.2020
344 Clear 18 1028 37 10000 5.1 10 21:20 18.01.2020
345 Clear 18 1028 45 10000 4.6 20 20:44 18.01.2020
346 Clear 18 1028 55 10000 4.1 20 20:22 18.01.2020
347 Clear 18 1027 52 10000 4.6 30 19:59 18.01.2020
348 Clear 19 1027 52 10000 4.6 30 19:41 18.01.2020
349 Clear 20 1028 52 10000 5.1 30 19:22 18.01.2020
350 Clear 20 1028 52 10000 4.1 30 18:43 18.01.2020
351 Clear 21 1028 52 10000 3.6 50 18:24 18.01.2020
352 Clear 20 1028 43 10000 3.1 50 17:56 18.01.2020
353 Clear 22 1028 43 10000 3.1 50 17:38 18.01.2020
354 Clear 20 1028 49 10000 2.6 80 17:19 18.01.2020
355 Clear 20 1028 52 10000 3.1 80 16:55 18.01.2020
356 Clear 20 1028 52 10000 3.1 80 16:36 18.01.2020
357 Clear 22 1028 46 10000 2.6 90 16:18 18.01.2020
358 Clear 20 1029 56 10000 2.6 80 15:42 18.01.2020
359 Clear 22 1029 52 10000 2.1 100 15:24 18.01.2020
360 Clear 21 1030 60 10000 2.1 90 14:57 18.01.2020
361 Clear 20 1030 60 10000 2.1 90 14:39 18.01.2020
362 Clear 21 1030 60 10000 2.1 100 14:18 18.01.2020
363 Clear 20 1031 64 10000 2.6 80 13:44 18.01.2020
364 Clear 20 1031 64 10000 2.1 90 13:26 18.01.2020
365 Clear 20 1032 60 10000 2.1 80 12:58 18.01.2020
366 Clear 20 1032 60 10000 2.1 80 12:39 18.01.2020
367 Clear 20 1032 60 10000 1.5 80 12:20 18.01.2020
368 Clear 19 1032 52 10000 2.1 90 11:44 18.01.2020
369 Clear 20 1031 45 10000 2.1 0 11:22 18.01.2020
370 Clear 20 1031 40 10000 1 0 10:57 18.01.2020
371 Clear 19 1031 40 10000 1 0 10:38 18.01.2020
372 Clear 17 1031 39 10000 2.1 320 10:20 18.01.2020
373 Clear 17 1030 42 10000 3.1 310 09:48 18.01.2020
374 Clear 16 1030 44 10000 3.1 310 09:30 18.01.2020
375 Clear 16 1030 51 10000 2.6 310 08:56 18.01.2020
376 Clear 17 1030 51 10000 2.6 310 08:38 18.01.2020
377 Clear 17 1029 48 10000 2.6 290 08:19 18.01.2020
378 Clear 16 1029 44 10000 2.6 320 07:47 18.01.2020
379 Clear 17 1029 38 10000 3.1 320 07:29 18.01.2020
380 Clear 16 1029 65 10000 3.1 340 06:47 18.01.2020
381 Clear 16 1029 38 10000 3.1 340 05:59 18.01.2020
382 Clear 17 1029 38 10000 4.1 320 05:21 18.01.2020
383 Clear 17 1029 67 10000 5.1 340 02:55 18.01.2020
384 Clear 16 1030 59 10000 5.7 350 01:54 18.01.2020
385 Clear 16 1030 55 10000 6.2 350 01:30 18.01.2020
386 Clear 18 1030 48 10000 5.7 350 00:37 18.01.2020
387 Clear 17 1030 48 10000 6.2 340 00:18 18.01.2020
388 Clear 16 1029 48 10000 5.7 350 23:41 17.01.2020
389 Clear 17 1029 42 10000 5.7 350 23:20 17.01.2020
390 Clear 17 1029 39 10000 4.6 350 22:45 17.01.2020
391 Clear 17 1029 42 10000 3.1 340 22:22 17.01.2020
392 Clear 18 1029 39 10000 4.1 340 21:59 17.01.2020
393 Clear 18 1029 39 10000 4.1 340 21:41 17.01.2020
394 Clear 17 1028 42 10000 3.1 330 21:22 17.01.2020
395 Clear 17 1028 59 10000 3.1 340 20:57 17.01.2020
396 Clear 17 1028 59 10000 3.1 340 20:38 17.01.2020
397 Clear 18 1028 63 10000 2.6 350 20:20 17.01.2020
398 Clear 18 1028 59 10000 1.5 20 19:55 17.01.2020
399 Clear 18 1028 59 10000 1.5 20 19:37 17.01.2020
400 Clear 19 1028 55 10000 2.1 70 19:18 17.01.2020
401 Clear 19 1028 59 10000 2.1 80 18:47 17.01.2020
402 Clear 20 1028 56 10000 1.5 80 18:28 17.01.2020
403 Clear 20 1028 59 10000 2.6 80 17:56 17.01.2020
404 Clear 20 1028 59 10000 2.6 80 17:38 17.01.2020
405 Clear 20 1028 52 10000 2.6 80 17:20 17.01.2020
406 Clear 20 1028 52 10000 2.1 80 16:42 17.01.2020
407 Clear 20 1028 52 10000 2.1 80 16:42 17.01.2020
408 Clear 20 1028 52 10000 2.6 90 16:20 17.01.2020
409 Clear 20 1029 56 10000 2.6 80 15:49 17.01.2020
410 Clear 20 1029 52 10000 3.1 90 15:28 17.01.2020
411 Clear 20 1029 56 10000 2.1 80 14:59 17.01.2020
412 Clear 20 1029 56 10000 2.1 80 14:40 17.01.2020
413 Clear 20 1030 56 10000 2.1 90 14:22 17.01.2020
414 Clear 20 1030 52 10000 2.6 90 13:42 17.01.2020
415 Clear 20 1031 49 10000 3.1 90 13:22 17.01.2020
416 Clear 20 1031 45 10000 2.1 0 12:46 17.01.2020
417 Clear 20 1031 42 10000 1.5 10 12:23 17.01.2020
418 Clear 19 1031 42 10000 2.1 30 11:41 17.01.2020
419 Clear 19 1030 45 10000 1.5 350 11:20 17.01.2020
420 Clear 18 1030 48 10000 1.5 320 10:56 17.01.2020
421 Clear 18 1030 48 10000 1.5 320 10:37 17.01.2020
422 Clear 17 1030 51 10000 2.6 300 10:19 17.01.2020
423 Clear 17 1030 51 10000 2.1 290 09:43 17.01.2020
424 Clear 16 1029 51 10000 2.1 300 09:21 17.01.2020
425 Clear 15 1029 51 10000 3.1 300 08:56 17.01.2020
426 Clear 16 1029 51 10000 3.1 300 08:38 17.01.2020
427 Clear 16 1029 62 10000 3.6 300 08:19 17.01.2020
428 Clear 15 1028 62 10000 3.1 310 07:43 17.01.2020
429 Clear 15 1028 62 10000 3.1 320 07:25 17.01.2020
430 Clear 15 1028 62 10000 3.1 320 06:51 17.01.2020
431 Clear 15 1028 54 10000 3.6 330 06:30 17.01.2020
432 Clear 17 1028 36 10000 4.1 350 04:27 17.01.2020
433 Clear 16 1028 45 10000 4.1 340 02:56 17.01.2020
434 Clear 15 1028 45 10000 4.1 340 02:32 17.01.2020
435 Clouds 16 1028 47 10000 4.1 340 01:44 17.01.2020
436 Clouds 16 1028 53 10000 3.6 330 01:22 17.01.2020
437 Clouds 16 1028 53 0 2.24 320 00:37 17.01.2020
438 Clouds 16 1028 44 10000 3.1 330 00:19 17.01.2020
439 Clouds 16 1028 44 10000 3.1 330 23:41 16.01.2020
440 Clouds 16 1028 44 10000 3.1 330 23:22 16.01.2020
441 Clouds 16 1028 48 10000 3.1 320 22:41 16.01.2020
442 Clouds 16 1028 55 10000 2.1 320 22:21 16.01.2020
443 Clouds 17 1028 51 10000 2.6 320 21:57 16.01.2020
444 Clouds 17 1028 51 10000 2.6 320 21:38 16.01.2020
445 Clouds 17 1027 55 10000 2.1 320 21:19 16.01.2020
446 Clouds 17 1027 55 10000 2.1 320 21:19 16.01.2020
447 Clouds 18 1027 52 10000 1 0 20:57 16.01.2020
448 Clouds 18 1027 52 10000 1 0 20:38 16.01.2020
449 Clear 18 1027 52 10000 1.5 40 20:19 16.01.2020
450 Clear 19 1027 48 10000 2.1 30 19:56 16.01.2020
451 Clear 19 1027 48 10000 2.1 30 19:37 16.01.2020
452 Clear 19 1027 52 10000 2.1 70 19:19 16.01.2020
453 Clear 19 1027 52 10000 2.1 70 19:19 16.01.2020
454 Clear 19 1026 52 10000 2.1 90 18:55 16.01.2020
455 Clear 19 1026 52 10000 2.1 90 18:37 16.01.2020
456 Clear 20 1026 49 10000 2.1 90 18:18 16.01.2020
457 Clear 20 1026 52 10000 2.1 110 17:42 16.01.2020
458 Clear 20 1026 45 10000 2.6 110 17:23 16.01.2020
459 Clear 20 1026 49 10000 3.1 130 16:57 16.01.2020
460 Clear 20 1026 49 10000 3.1 130 16:39 16.01.2020
461 Clear 20 1026 42 10000 3.1 140 16:19 16.01.2020
462 Clear 19 1026 49 10000 3.1 140 15:44 16.01.2020
463 Clear 20 1026 52 10000 3.6 140 15:23 16.01.2020
464 Clear 19 1027 52 10000 3.6 130 14:57 16.01.2020
465 Clear 20 1027 52 10000 3.6 130 14:39 16.01.2020
466 Clear 19 1027 52 10000 3.1 140 14:20 16.01.2020
467 Clear 19 1027 60 10000 2.6 130 13:45 16.01.2020
468 Clear 19 1027 60 10000 2.1 110 13:26 16.01.2020
469 Clear 19 1028 60 10000 2.1 110 12:47 16.01.2020
470 Clear 20 1028 60 10000 1.5 100 12:29 16.01.2020
471 Clear 19 1028 60 10000 1.5 100 12:29 16.01.2020
472 Clear 20 1027 56 10000 1 0 11:59 16.01.2020
473 Clear 20 1027 56 10000 1 0 11:41 16.01.2020
474 Clear 19 1027 59 10000 1 0 11:23 16.01.2020
475 Clear 18 1027 63 10000 1 0 10:55 16.01.2020
476 Clear 18 1027 63 10000 1 0 10:36 16.01.2020
477 Clear 17 1026 67 10000 2.6 290 10:18 16.01.2020
478 Clear 16 1026 67 10000 2.1 280 09:42 16.01.2020
479 Clear 15 1025 62 10000 2.6 270 09:24 16.01.2020
480 Clear 15 1025 58 10000 2.6 280 08:56 16.01.2020
481 Clear 15 1025 58 10000 2.6 280 08:36 16.01.2020
482 Clear 15 1025 47 10000 2.6 290 08:18 16.01.2020
483 Clear 15 1025 44 10000 2.6 300 07:42 16.01.2020
484 Clear 15 1025 38 10000 2.6 300 07:23 16.01.2020
485 Clear 14 1024 44 10000 2.1 290 06:46 16.01.2020
486 Clear 15 1024 44 10000 1.5 270 06:28 16.01.2020
487 Clear 15 1024 58 10000 3.1 280 05:46 16.01.2020
488 Clear 15 1024 67 10000 2.1 270 04:46 16.01.2020
489 Clear 15 1024 58 10000 2.1 290 03:29 16.01.2020
490 Clear 15 1024 54 10000 2.1 290 02:44 16.01.2020
491 Clear 16 1024 29 10000 0.5 0 01:24 16.01.2020
492 Clear 16 1024 29 10000 2.6 250 00:41 16.01.2020
493 Clear 16 1024 30 10000 2.6 250 00:19 16.01.2020
494 Clear 16 1024 36 10000 2.6 260 23:40 15.01.2020
495 Clear 16 1024 38 10000 2.1 260 23:20 15.01.2020
496 Clear 16 1024 38 10000 2.1 260 23:19 15.01.2020
497 Clear 16 1024 51 10000 2.1 250 22:56 15.01.2020
498 Clear 16 1024 51 10000 2.1 250 22:36 15.01.2020
499 Clear 16 1024 51 10000 1.5 240 22:18 15.01.2020
500 Clear 17 1024 45 10000 1 0 21:55 15.01.2020
501 Clear 17 1024 45 10000 1 0 21:36 15.01.2020
502 Clear 17 1024 51 10000 1 0 21:18 15.01.2020
503 Clear 17 1023 55 10000 1.86 141 20:54 15.01.2020
504 Clear 17 1023 55 10000 1.86 141 20:36 15.01.2020
505 Clear 18 1023 55 10000 2.29 139 20:18 15.01.2020
506 Clear 18 1023 52 10000 0.5 0 19:54 15.01.2020
507 Clear 17 1023 52 10000 0.5 0 19:36 15.01.2020
508 Clear 19 1023 48 10000 1.5 150 19:18 15.01.2020
509 Clear 17 1023 52 10000 1.5 140 18:54 15.01.2020
510 Clear 17 1023 52 10000 1.5 140 18:36 15.01.2020
511 Clear 20 1022 45 10000 2.6 140 18:18 15.01.2020
512 Clear 18 1022 49 10000 3.1 130 17:40 15.01.2020
513 Clear 18 1022 52 10000 4.1 140 17:21 15.01.2020
514 Clear 18 1022 49 10000 4.1 140 16:56 15.01.2020
515 Clear 20 1022 49 10000 4.1 140 16:38 15.01.2020
516 Clear 19 1022 52 10000 4.1 150 16:20 15.01.2020
517 Clear 21 1022 46 10000 4.1 140 15:43 15.01.2020
518 Clear 19 1022 45 10000 4.6 150 15:20 15.01.2020
519 Clear 18 1023 49 10000 4.1 150 14:55 15.01.2020
520 Clear 18 1023 49 10000 4.1 150 14:37 15.01.2020
521 Clear 18 1023 49 10000 4.1 150 14:37 15.01.2020
522 Clear 20 1023 45 10000 4.1 160 14:18 15.01.2020
523 Clouds 18 1024 52 10000 4.1 150 13:41 15.01.2020
524 Clouds 19 1024 56 10000 3.6 150 13:23 15.01.2020
525 Clear 19 1024 52 10000 3.1 150 12:55 15.01.2020
526 Clear 20 1024 52 10000 3.1 150 12:37 15.01.2020
527 Clear 20 1024 52 10000 2.6 160 12:18 15.01.2020
528 Clear 20 1024 52 10000 2.6 160 12:18 15.01.2020
529 Clear 20 1024 49 10000 2.1 160 11:38 15.01.2020
530 Clear 19 1024 55 10000 1 0 11:20 15.01.2020
531 Clear 19 1023 52 10000 1 0 10:58 15.01.2020
532 Clear 19 1023 52 10000 1 0 10:40 15.01.2020
533 Clear 17 1023 55 10000 2.6 260 10:21 15.01.2020
534 Clear 15 1023 62 10000 3.1 260 09:41 15.01.2020
535 Clear 15 1023 67 10000 3.1 260 09:21 15.01.2020
536 Clear 15 1023 62 10000 3.1 260 08:45 15.01.2020
537 Clear 15 1022 62 10000 3.6 270 08:26 15.01.2020
538 Clouds 15 1022 58 10000 2.6 250 07:56 15.01.2020
539 Clouds 15 1022 54 10000 2.6 250 07:33 15.01.2020
540 Clouds 15 1021 47 10000 3.1 250 06:54 15.01.2020
541 Clouds 15 1021 54 10000 1.5 270 06:32 15.01.2020
542 Clouds 16 1022 36 10000 2.1 240 05:32 15.01.2020
543 Clouds 15 1022 42 10000 1.6 169 03:20 15.01.2020
544 Clear 16 1022 30 10000 1.36 220 01:49 15.01.2020
545 Clear 16 1022 29 10000 2.1 250 01:22 15.01.2020
546 Clear 15 1022 33 10000 1.5 250 00:37 15.01.2020
547 Clear 16 1022 48 10000 1.5 230 00:19 15.01.2020
548 Clear 15 1022 38 10000 1.5 230 23:47 14.01.2020
549 Clear 16 1022 38 10000 2.6 240 23:28 14.01.2020
550 Clear 16 1022 44 10000 2.1 210 22:58 14.01.2020
551 Clear 16 1022 44 10000 2.1 210 22:40 14.01.2020
552 Clear 16 1021 48 10000 2.6 240 22:19 14.01.2020
553 Clear 17 1021 48 10000 2.1 260 21:57 14.01.2020
554 Clear 17 1021 51 10000 2.6 240 21:39 14.01.2020
555 Clear 17 1021 51 10000 2.6 240 21:19 14.01.2020
556 Clear 17 1021 51 10000 3.6 210 20:54 14.01.2020
557 Clear 17 1021 51 10000 3.6 210 20:36 14.01.2020
558 Clear 17 1021 48 10000 4.6 180 20:18 14.01.2020
559 Clear 18 1021 48 10000 4.6 180 19:55 14.01.2020
560 Clear 18 1021 48 10000 4.6 180 19:36 14.01.2020
561 Clear 19 1021 52 10000 5.1 180 19:18 14.01.2020
562 Clear 19 1021 45 10000 6.2 190 18:40 14.01.2020
563 Clear 20 1020 42 10000 6.2 170 18:20 14.01.2020
564 Clear 20 1020 42 10000 6.2 170 17:55 14.01.2020
565 Clear 20 1020 42 10000 5.7 170 17:36 14.01.2020
566 Clear 20 1020 42 10000 5.7 170 17:18 14.01.2020
567 Clear 20 1020 37 10000 6.7 190 16:42 14.01.2020
568 Clear 20 1021 40 10000 7.2 170 16:22 14.01.2020
569 Clear 19 1021 46 10000 7.7 160 15:56 14.01.2020
570 Clear 19 1021 46 10000 7.7 160 15:38 14.01.2020
571 Clear 21 1021 46 10000 7.2 160 15:18 14.01.2020
572 Clear 21 1021 46 10000 7.2 160 15:18 14.01.2020
573 Clear 20 1021 46 10000 6.2 170 14:43 14.01.2020
574 Clear 20 1022 37 10000 6.2 190 14:20 14.01.2020
575 Clear 20 1022 43 10000 6.2 190 13:54 14.01.2020
576 Clear 20 1022 43 10000 6.2 190 13:36 14.01.2020
577 Clear 20 1023 40 10000 6.2 170 13:18 14.01.2020
578 Clear 20 1023 42 10000 6.2 180 12:40 14.01.2020
579 Clear 20 1023 40 10000 5.7 180 12:20 14.01.2020
580 Clear 20 1023 40 10000 5.7 180 12:20 14.01.2020
581 Clear 20 1023 40 10000 5.7 180 12:20 14.01.2020
582 Clear 20 1023 42 10000 5.1 190 11:43 14.01.2020
583 Clear 20 1023 45 10000 4.6 200 11:23 14.01.2020
584 Clear 19 1022 48 10000 3.6 210 10:59 14.01.2020
585 Clear 19 1022 48 10000 3.6 210 10:39 14.01.2020
586 Clear 18 1022 52 10000 3.6 220 10:20 14.01.2020
587 Clear 16 1022 63 10000 3.6 220 09:57 14.01.2020
588 Clear 16 1022 63 10000 3.6 220 09:39 14.01.2020
589 Clouds 16 1022 63 10000 3.6 220 09:20 14.01.2020
590 Clear 16 1021 67 10000 3.1 220 08:46 14.01.2020
591 Clear 16 1021 67 10000 3.6 230 08:24 14.01.2020
592 Clear 16 1020 67 10000 3.1 250 07:53 14.01.2020
593 Clear 16 1020 67 10000 2.6 240 07:33 14.01.2020
594 Clear 16 1020 67 10000 3.1 250 06:54 14.01.2020
595 Clear 16 1020 67 10000 2.6 250 06:33 14.01.2020
596 Clear 16 1020 59 10000 2.6 250 05:27 14.01.2020
597 Clear 15 1021 72 10000 3.1 260 03:52 14.01.2020
598 Clear 16 1022 72 10000 2.6 260 02:43 14.01.2020
599 Clear 16 1022 68 10000 3.1 130 01:53 14.01.2020
600 Clear 17 1022 36 10000 2.6 220 00:51 14.01.2020
601 Clear 16 1022 40 10000 2.6 200 00:32 14.01.2020
602 Clear 18 1022 36 10000 3.1 160 23:55 13.01.2020
603 Clear 18 1022 36 10000 3.1 160 23:37 13.01.2020
604 Clear 17 1022 27 10000 2.1 230 23:18 13.01.2020
605 Clear 17 1022 38 10000 2.1 220 22:42 13.01.2020
606 Clear 17 1022 38 10000 2.1 210 22:21 13.01.2020
607 Clear 17 1022 38 10000 2.1 210 21:56 13.01.2020
608 Clear 18 1022 38 10000 2.1 210 21:38 13.01.2020
609 Clear 18 1022 33 10000 2.6 200 21:19 13.01.2020
610 Clear 18 1022 34 10000 3.1 210 20:58 13.01.2020
611 Clear 18 1022 34 10000 3.1 210 20:40 13.01.2020
612 Clear 19 1022 34 10000 3.6 220 20:22 13.01.2020
613 Clear 20 1021 34 10000 4.1 210 19:58 13.01.2020
614 Clear 20 1021 34 10000 4.1 210 19:39 13.01.2020
615 Clear 20 1021 42 10000 4.6 200 19:19 13.01.2020
616 Clear 20 1021 45 10000 5.1 180 18:56 13.01.2020
617 Clear 20 1021 45 10000 5.1 180 18:37 13.01.2020
618 Clear 20 1021 45 10000 5.1 180 18:37 13.01.2020
619 Clear 20 1021 45 10000 6.2 180 18:18 13.01.2020
620 Clear 20 1021 45 10000 6.2 180 18:18 13.01.2020
621 Clear 19 1021 43 10000 6.2 180 17:40 13.01.2020
622 Clear 19 1021 49 10000 6.2 170 17:22 13.01.2020
623 Clear 19 1021 49 10000 6.2 170 17:22 13.01.2020
624 Clear 19 1022 45 10000 6.7 170 16:56 13.01.2020
625 Clear 20 1022 45 10000 6.7 170 16:38 13.01.2020
626 Clouds 20 1022 49 10000 5.7 160 16:19 13.01.2020
627 Clear 19 1023 46 0 3.58 180 15:44 13.01.2020
628 Clear 21 1013 52 0 5.36 170 15:23 13.01.2020
629 Clear 21 1022 57 0 0.45 156 14:58 13.01.2020
630 Clear 18 1024 50 0 4.47 202 14:38 13.01.2020
631 Clear 18 1024 45 0 3.58 192 14:19 13.01.2020
632 Clear 18 1025 44 0 4.92 212 13:42 13.01.2020
633 Clear 19 1024 67 0 1.79 118 13:24 13.01.2020
634 Clear 18 1024 63 10000 1 0 12:59 13.01.2020
635 Clear 18 1024 63 10000 1 0 12:41 13.01.2020
636 Clear 20 1024 63 10000 1 0 12:22 13.01.2020
637 Clear 20 1024 63 10000 1 0 11:57 13.01.2020
638 Clear 20 1024 63 10000 1 0 11:37 13.01.2020
639 Clear 20 1024 63 10000 0.5 0 11:19 13.01.2020
640 Clear 18 1024 68 10000 1 0 10:55 13.01.2020
641 Clear 18 1024 67 10000 2.6 300 10:37 13.01.2020
642 Clear 18 1024 67 10000 2.6 300 10:19 13.01.2020
643 Clear 17 1024 72 10000 3.1 300 09:43 13.01.2020
644 Clouds 17 1024 72 10000 3.1 320 09:23 13.01.2020
645 Clouds 16 1023 72 10000 3.1 320 08:44 13.01.2020
646 Clouds 16 1023 72 10000 3.1 320 08:24 13.01.2020
647 Clear 16 1023 72 10000 2.6 320 07:59 13.01.2020
648 Clear 16 1023 72 10000 2.6 320 07:59 13.01.2020
649 Clear 16 1023 72 10000 2.6 320 07:41 13.01.2020
650 Clear 16 1023 67 10000 2.6 330 07:19 13.01.2020
651 Clear 17 1022 67 10000 4.1 330 06:37 13.01.2020
652 Clear 15 1023 67 10000 3.6 340 05:37 13.01.2020
653 Clear 15 1023 67 10000 4.1 340 04:26 13.01.2020
654 Clear 15 1023 67 10000 4.1 340 03:35 13.01.2020
655 Clear 18 1024 63 10000 4.6 340 02:49 13.01.2020
656 Clear 16 1023 59 10000 5.7 350 02:30 13.01.2020
657 Clear 16 1023 59 10000 5.7 350 02:30 13.01.2020
658 Clear 18 1024 59 10000 5.1 350 01:33 13.01.2020
659 Clear 18 1024 59 10000 4.1 340 00:44 13.01.2020
660 Clear 16 1024 59 10000 4.6 330 00:25 13.01.2020
661 Clear 18 1025 55 10000 5.1 340 23:57 12.01.2020
662 Clear 16 1025 55 10000 5.1 340 23:38 12.01.2020
663 Clear 16 1024 51 10000 4.6 340 23:20 12.01.2020
664 Clear 18 1024 48 10000 5.1 340 22:43 12.01.2020
665 Clear 18 1024 45 10000 4.1 330 22:24 12.01.2020
666 Clear 17 1024 51 10000 3.1 340 21:59 12.01.2020
667 Clear 17 1024 51 10000 3.1 340 21:59 12.01.2020
668 Clear 17 1024 51 10000 3.1 340 21:40 12.01.2020
669 Clear 17 1025 55 10000 3.1 320 21:20 12.01.2020
670 Clear 17 1025 55 10000 2.6 30 20:57 12.01.2020
671 Clear 17 1025 55 10000 2.6 30 20:39 12.01.2020
672 Clouds 18 1025 59 10000 2.6 50 20:20 12.01.2020
673 Clouds 18 1024 55 10000 3.6 20 19:56 12.01.2020
674 Clouds 18 1024 55 10000 3.6 20 19:38 12.01.2020
675 Clouds 19 1024 52 10000 3.1 50 19:19 12.01.2020
676 Clouds 19 1024 52 10000 3.6 60 18:57 12.01.2020
677 Clouds 19 1024 52 10000 3.6 60 18:39 12.01.2020
678 Clouds 18 1024 55 10000 3.6 80 18:21 12.01.2020
679 Clouds 18 1024 49 10000 2.6 50 17:56 12.01.2020
680 Clouds 18 1024 49 10000 2.6 50 17:37 12.01.2020
681 Clouds 20 1023 52 10000 3.1 60 17:18 12.01.2020
682 Clouds 19 1023 52 10000 3.6 80 16:55 12.01.2020
683 Clouds 19 1023 52 10000 3.6 80 16:55 12.01.2020
684 Clouds 19 1023 56 10000 3.6 40 16:37 12.01.2020
685 Clouds 19 1023 56 10000 3.6 40 16:18 12.01.2020
686 Clouds 19 1023 56 10000 4.1 50 15:42 12.01.2020
687 Clouds 20 1024 56 10000 4.6 60 15:24 12.01.2020
688 Clouds 20 1024 56 10000 4.6 60 15:24 12.01.2020
689 Clouds 19 1025 56 10000 4.6 60 14:56 12.01.2020
690 Clouds 19 1025 56 10000 4.6 60 14:37 12.01.2020
691 Clouds 21 1025 52 10000 6.2 60 14:18 12.01.2020
692 Clouds 20 1026 52 10000 6.7 50 13:42 12.01.2020
693 Clouds 18 1026 59 10000 6.7 50 13:23 12.01.2020
694 Clouds 20 1026 52 10000 7.7 30 12:58 12.01.2020
695 Clouds 20 1027 49 10000 7.2 40 12:38 12.01.2020
696 Clouds 20 1027 49 10000 7.2 40 12:19 12.01.2020
697 Clouds 19 1027 49 10000 6.7 40 11:55 12.01.2020
698 Clouds 19 1027 49 10000 6.7 40 11:36 12.01.2020
699 Clouds 19 1026 52 10000 7.2 30 11:18 12.01.2020
700 Clouds 18 1026 52 10000 5.7 10 10:41 12.01.2020
701 Clouds 17 1025 59 10000 5.7 360 10:21 12.01.2020
702 Clouds 17 1025 52 10000 7.2 10 09:55 12.01.2020
703 Clouds 17 1025 52 10000 7.2 10 09:37 12.01.2020
704 Clouds 17 1025 55 10000 6.7 10 09:18 12.01.2020
705 Clouds 17 1024 55 10000 6.7 10 08:42 12.01.2020
706 Clouds 17 1024 55 10000 10.8 20 08:19 12.01.2020
707 Clouds 17 1024 63 10000 10.3 30 07:39 12.01.2020
708 Clouds 17 1024 63 10000 9.3 20 07:21 12.01.2020
709 Clouds 17 1024 63 10000 7.7 20 06:43 12.01.2020
710 Clouds 17 1024 68 10000 5.1 360 06:19 12.01.2020
711 Clouds 17 1025 68 10000 6.2 10 05:21 12.01.2020
712 Clouds 17 1025 63 10000 7.7 10 03:45 12.01.2020
713 Clouds 17 1025 68 10000 7.7 20 03:22 12.01.2020
714 Clouds 17 1025 77 10000 4.6 350 02:30 12.01.2020
715 Clouds 17 1026 67 10000 5.1 360 01:42 12.01.2020
716 Clouds 18 1026 63 10000 5.7 340 01:21 12.01.2020
717 Clouds 18 1026 63 10000 5.7 340 01:21 12.01.2020
718 Clouds 17 1026 72 10000 4.6 340 00:40 12.01.2020
719 Clouds 17 1026 77 10000 5.7 340 00:19 12.01.2020
720 Clouds 17 1026 77 10000 4.6 360 23:42 11.01.2020
721 Clouds 18 1025 63 10000 6.7 340 23:19 11.01.2020
722 Clouds 17 1025 67 10000 6.2 340 22:57 11.01.2020
723 Clouds 17 1025 67 10000 6.2 340 22:39 11.01.2020
724 Clouds 18 1025 63 10000 7.2 350 22:20 11.01.2020
725 Clouds 18 1025 63 10000 6.7 350 21:55 11.01.2020
726 Clouds 18 1025 63 10000 6.7 350 21:37 11.01.2020
727 Clouds 18 1025 63 10000 8.2 360 21:18 11.01.2020
728 Clouds 18 1025 55 10000 6.7 350 20:40 11.01.2020
729 Clouds 18 1025 59 10000 8.7 10 20:22 11.01.2020
730 Clouds 18 1024 63 10000 8.2 10 19:58 11.01.2020
731 Clouds 18 1024 63 10000 8.2 10 19:38 11.01.2020
732 Clouds 18 1024 63 10000 8.2 10 19:38 11.01.2020
733 Clouds 18 1024 63 10000 8.2 10 19:38 11.01.2020
734 Clouds 18 1024 63 10000 9.8 20 19:20 11.01.2020
735 Clouds 18 1024 68 10000 8.7 10 18:57 11.01.2020
736 Clouds 19 1024 68 10000 8.7 10 18:38 11.01.2020
737 Clouds 18 1024 77 10000 6.7 350 18:19 11.01.2020
738 Clouds 19 1024 63 10000 6.2 350 17:57 11.01.2020
739 Clouds 19 1024 63 10000 6.2 350 17:39 11.01.2020
740 Clouds 19 1024 63 10000 7.7 350 17:19 11.01.2020
741 Clouds 20 1024 60 10000 10.3 10 16:44 11.01.2020
742 Clouds 20 1024 56 10000 9.3 20 16:26 11.01.2020
743 Clouds 16 1025 56 10000 9.8 20 15:58 11.01.2020
744 Clouds 20 1025 56 10000 9.8 20 15:40 11.01.2020
745 Clouds 20 1025 60 10000 9.8 20 15:20 11.01.2020
746 Clouds 20 1025 60 10000 9.8 20 14:56 11.01.2020
747 Clouds 20 1025 60 10000 9.8 20 14:37 11.01.2020
748 Clouds 18 1026 63 10000 8.7 20 14:19 11.01.2020
749 Clouds 20 1026 56 10000 6.7 360 13:39 11.01.2020
750 Clouds 18 1027 52 10000 9.3 10 13:20 11.01.2020
751 Clouds 20 1027 52 10000 10.3 20 12:56 11.01.2020
752 Clouds 20 1027 52 10000 10.3 20 12:38 11.01.2020
753 Clouds 18 1027 56 10000 8.7 20 12:20 11.01.2020
754 Clouds 17 1027 68 10000 7.2 10 11:45 11.01.2020
755 Clouds 17 1027 55 10000 7.2 340 11:24 11.01.2020
756 Clouds 19 1027 55 10000 6.2 350 10:50 11.01.2020
757 Clouds 18 1026 59 10000 7.2 360 10:30 11.01.2020
758 Clouds 16 1026 59 10000 8.2 350 09:44 11.01.2020
759 Clouds 16 1026 59 10000 7.7 350 09:21 11.01.2020
760 Clouds 16 1026 59 10000 7.7 350 09:21 11.01.2020
761 Clouds 16 1026 59 10000 7.7 350 09:21 11.01.2020
762 Clouds 16 1026 59 10000 7.7 350 09:21 11.01.2020
763 Clouds 16 1026 59 10000 7.7 350 09:21 11.01.2020
764 Clouds 17 1026 59 10000 6.7 360 08:59 11.01.2020
765 Clouds 16 1026 59 10000 6.7 360 08:41 11.01.2020
766 Clouds 16 1026 59 10000 7.2 350 08:20 11.01.2020
767 Clouds 16 1026 59 10000 7.7 10 07:43 11.01.2020
768 Clouds 17 1026 55 10000 9.8 10 07:24 11.01.2020
769 Clouds 15 1025 59 10000 8.7 10 06:45 11.01.2020
770 Clouds 17 1026 68 10000 8.2 360 05:31 11.01.2020
771 Clouds 17 1026 72 10000 7.2 360 04:43 11.01.2020
772 Clouds 17 1026 72 10000 7.7 10 04:25 11.01.2020
773 Clouds 17 1027 77 10000 8.2 10 02:48 11.01.2020
774 Clouds 15 1027 82 10000 6.7 350 01:48 11.01.2020
775 Clouds 17 1027 82 10000 7.2 360 01:30 11.01.2020
776 Rain 18 1027 72 10000 7.7 10 00:58 11.01.2020
777 Rain 18 1027 72 10000 7.7 10 00:58 11.01.2020
778 Clouds 17 1028 72 10000 6.7 10 00:29 11.01.2020
779 Clouds 18 1028 68 10000 7.2 10 23:59 10.01.2020
780 Clouds 18 1028 68 10000 7.2 10 23:39 10.01.2020
781 Clouds 18 1028 68 10000 7.2 360 23:20 10.01.2020
782 Clouds 19 1027 68 10000 8.7 10 22:54 10.01.2020
783 Clouds 19 1027 68 10000 8.7 10 22:36 10.01.2020
784 Clouds 19 1027 68 10000 6.7 10 22:18 10.01.2020
785 Clouds 19 1027 72 10000 7.7 10 21:41 10.01.2020
786 Clouds 19 1027 68 10000 6.7 10 21:21 10.01.2020
787 Clouds 19 1027 52 10000 6.7 360 20:59 10.01.2020
788 Clouds 20 1027 52 10000 6.7 360 20:41 10.01.2020
789 Clouds 19 1027 59 10000 7.2 10 20:23 10.01.2020
790 Clouds 19 1027 68 10000 8.2 10 19:41 10.01.2020
791 Clouds 20 1027 64 10000 8.7 10 19:21 10.01.2020
792 Clouds 20 1026 64 10000 9.3 10 18:57 10.01.2020
793 Clouds 20 1026 64 10000 9.3 10 18:39 10.01.2020
794 Clouds 20 1027 64 10000 9.8 360 18:18 10.01.2020
795 Clouds 20 1026 64 10000 7.2 360 17:56 10.01.2020
796 Clouds 20 1026 64 10000 7.2 360 17:38 10.01.2020
797 Clouds 20 1026 64 10000 10.3 10 17:19 10.01.2020
798 Clouds 20 1026 64 10000 10.3 10 17:19 10.01.2020
799 Clouds 21 1026 64 10000 9.8 20 16:43 10.01.2020
800 Clouds 21 1027 60 10000 10.8 20 16:22 10.01.2020
801 Clouds 21 1027 60 10000 11.3 20 15:58 10.01.2020
802 Clouds 21 1027 60 10000 11.3 20 15:39 10.01.2020
803 Clouds 20 1027 64 10000 10.3 20 15:20 10.01.2020
804 Clouds 20 1027 64 10000 10.3 10 14:59 10.01.2020
805 Clouds 21 1027 64 10000 10.3 10 14:41 10.01.2020
806 Clouds 20 1027 64 10000 10.8 20 14:20 10.01.2020
807 Clouds 20 1028 68 10000 9.8 20 13:58 10.01.2020
808 Clouds 20 1028 68 10000 9.8 20 13:39 10.01.2020
809 Clouds 20 1028 72 10000 9.8 20 13:21 10.01.2020
810 Clouds 20 1029 77 10000 10.3 20 12:57 10.01.2020
811 Clouds 20 1029 77 10000 10.3 20 12:38 10.01.2020
812 Clouds 19 1029 82 10000 9.8 10 12:18 10.01.2020
813 Clouds 19 1029 88 10000 9.8 30 11:42 10.01.2020
814 Clouds 19 1029 88 10000 9.8 30 11:42 10.01.2020
815 Clouds 19 1028 77 10000 7.2 360 11:22 10.01.2020
816 Rain 18 1028 88 6000 9.8 30 10:59 10.01.2020
817 Rain 18 1028 88 6000 9.8 30 10:39 10.01.2020
818 Clouds 18 1028 77 10000 7.7 360 10:21 10.01.2020
819 Clouds 17 1027 77 10000 7.7 350 09:56 10.01.2020
820 Clouds 17 1027 77 10000 7.7 350 09:37 10.01.2020
821 Clouds 16 1027 77 10000 7.7 350 09:19 10.01.2020
822 Clouds 16 1027 77 10000 7.7 350 09:19 10.01.2020
823 Clouds 16 1027 82 10000 8.2 340 08:40 10.01.2020
824 Rain 17 1027 72 8000 7.7 360 08:22 10.01.2020
825 Clouds 17 1027 68 10000 7.7 360 07:44 10.01.2020
826 Clouds 17 1027 77 10000 6.2 360 07:23 10.01.2020
827 Clouds 17 1027 77 10000 8.7 20 06:45 10.01.2020
828 Clouds 17 1027 72 10000 7.2 360 06:25 10.01.2020
829 Clouds 17 1027 72 10000 8.2 10 05:44 10.01.2020
830 Clouds 17 1028 63 10000 7.2 10 03:35 10.01.2020
831 Clouds 15 1028 63 10000 8.7 10 02:58 10.01.2020
832 Clouds 14 1028 63 10000 8.7 10 02:37 10.01.2020
833 Clouds 17 1028 63 10000 7.7 360 01:38 10.01.2020
834 Clouds 17 1029 59 10000 7.7 360 00:57 10.01.2020
835 Clouds 17 1029 59 10000 7.7 360 00:38 10.01.2020
836 Clouds 17 1029 59 10000 8.7 10 23:57 09.01.2020
837 Clouds 17 1029 59 10000 8.7 10 23:38 09.01.2020
838 Clouds 17 1029 59 10000 8.7 10 23:38 09.01.2020
839 Clouds 17 1029 59 10000 8.7 10 23:38 09.01.2020
840 Clouds 17 1029 59 10000 8.7 10 23:38 09.01.2020
841 Clouds 17 1029 59 10000 8.7 10 23:38 09.01.2020
842 Clouds 17 1029 59 10000 11.8 20 23:19 09.01.2020
843 Clouds 18 1029 59 10000 9.3 360 22:57 09.01.2020
844 Clouds 18 1029 52 10000 8.2 360 22:37 09.01.2020
845 Clouds 18 1029 52 10000 8.2 360 22:18 09.01.2020
846 Clouds 18 1028 55 10000 9.8 10 21:56 09.01.2020
847 Clouds 18 1028 55 10000 9.8 10 21:37 09.01.2020
848 Clouds 18 1028 55 10000 9.8 10 21:37 09.01.2020
849 Clouds 18 1028 63 10000 10.3 10 21:37 09.01.2020
850 Clouds 18 1028 63 10000 10.3 10 21:18 09.01.2020
851 Clouds 18 1028 59 10000 10.3 10 20:55 09.01.2020
852 Clouds 18 1028 59 10000 10.3 10 20:37 09.01.2020
853 Clouds 19 1028 59 10000 9.8 10 20:19 09.01.2020
854 Clouds 19 1027 63 10000 9.3 10 19:39 09.01.2020
855 Clouds 19 1027 63 10000 9.3 10 19:21 09.01.2020
856 Clouds 19 1027 59 10000 10.3 10 18:59 09.01.2020
857 Clouds 20 1027 52 10000 9.8 10 18:40 09.01.2020
858 Clouds 20 1027 52 10000 9.8 10 18:21 09.01.2020
859 Clouds 20 1027 52 10000 10.8 20 17:57 09.01.2020
860 Clouds 20 1027 52 10000 10.8 10 17:39 09.01.2020
861 Clouds 20 1027 52 10000 10.8 10 17:18 09.01.2020
862 Clouds 20 1027 56 10000 11.8 10 16:42 09.01.2020
863 Clouds 21 1027 49 10000 11.8 20 16:21 09.01.2020
864 Clouds 21 1027 49 10000 11.3 20 15:43 09.01.2020
865 Clouds 21 1027 49 10000 11.3 20 15:23 09.01.2020
866 Clouds 21 1028 49 10000 10.8 10 14:59 09.01.2020
867 Clouds 21 1028 49 10000 10.8 10 14:41 09.01.2020
868 Clouds 20 1028 49 10000 11.3 10 14:19 09.01.2020
869 Clouds 21 1029 46 10000 11.8 10 13:55 09.01.2020
870 Clouds 21 1029 49 10000 10.8 10 13:37 09.01.2020
871 Clouds 20 1029 49 10000 10.8 10 13:19 09.01.2020
872 Clouds 20 1029 49 10000 9.8 20 12:56 09.01.2020
873 Clouds 20 1029 49 10000 9.8 20 12:56 09.01.2020
874 Clouds 20 1029 52 10000 9.8 20 12:38 09.01.2020
875 Clouds 20 1029 52 10000 9.8 20 12:18 09.01.2020
876 Clouds 20 1029 60 10000 9.3 10 11:42 09.01.2020
877 Clouds 20 1029 56 10000 8.7 20 11:24 09.01.2020
878 Clouds 19 1028 59 10000 9.3 10 10:58 09.01.2020
879 Clouds 19 1028 55 10000 8.2 10 10:39 09.01.2020
880 Clouds 18 1028 55 10000 8.2 10 10:21 09.01.2020
881 Clouds 17 1028 63 10000 7.2 10 09:46 09.01.2020
882 Clouds 16 1027 67 10000 5.7 360 09:23 09.01.2020
883 Clouds 16 1027 63 10000 5.7 360 08:57 09.01.2020
884 Clouds 16 1027 72 10000 5.1 360 08:38 09.01.2020
885 Clouds 16 1027 72 10000 5.1 360 08:20 09.01.2020
886 Clouds 16 1027 72 10000 5.1 360 08:20 09.01.2020
887 Clouds 16 1027 72 10000 5.7 360 07:47 09.01.2020
888 Clouds 16 1027 72 10000 5.1 350 07:28 09.01.2020
889 Clouds 16 1027 63 10000 8.7 20 06:40 09.01.2020
890 Clouds 17 1027 63 10000 8.7 20 06:22 09.01.2020
891 Clouds 17 1027 68 10000 7.7 20 05:51 09.01.2020
892 Clouds 17 1027 67 10000 5.1 360 05:18 09.01.2020
893 Clouds 17 1027 67 10000 4.1 340 04:38 09.01.2020
894 Clouds 18 1028 63 10000 5.1 10 03:27 09.01.2020
895 Clouds 17 1028 63 10000 5.7 20 02:46 09.01.2020
896 Clouds 17 1028 63 10000 7.2 20 01:42 09.01.2020
897 Clouds 17 1028 68 10000 8.7 20 00:57 09.01.2020
898 Clouds 17 1028 63 10000 5.1 350 00:37 09.01.2020
899 Clouds 17 1028 63 10000 5.1 350 00:19 09.01.2020
900 Clouds 18 1028 63 10000 7.7 20 23:39 08.01.2020
901 Clouds 17 1028 63 10000 7.7 20 23:20 08.01.2020
902 Clouds 17 1028 59 10000 8.2 20 22:40 08.01.2020
903 Clouds 18 1028 59 10000 8.2 20 22:22 08.01.2020
904 Clouds 18 1028 63 10000 8.2 20 21:59 08.01.2020
905 Clouds 18 1028 63 10000 8.7 20 21:40 08.01.2020
906 Clouds 18 1028 63 10000 8.7 20 21:20 08.01.2020
907 Clouds 18 1027 63 10000 8.2 20 20:59 08.01.2020
908 Clouds 18 1027 63 10000 8.2 20 20:41 08.01.2020
909 Clouds 18 1027 63 10000 8.2 20 20:21 08.01.2020
910 Clouds 19 1027 59 10000 9.3 20 19:58 08.01.2020
911 Clouds 19 1027 63 10000 8.2 20 19:38 08.01.2020
912 Clouds 19 1027 63 10000 8.2 20 19:19 08.01.2020
913 Clouds 19 1027 63 10000 7.7 30 18:57 08.01.2020
914 Clouds 19 1027 59 10000 8.2 20 18:38 08.01.2020
915 Clouds 19 1027 59 10000 8.2 20 18:18 08.01.2020
916 Clouds 20 1026 56 10000 7.7 30 17:56 08.01.2020
917 Clouds 20 1026 60 10000 7.2 30 17:37 08.01.2020
918 Clouds 20 1026 60 10000 7.2 30 17:18 08.01.2020
919 Clouds 20 1026 60 10000 7.2 30 17:18 08.01.2020
920 Clouds 21 1026 60 10000 7.2 30 16:55 08.01.2020
921 Clouds 21 1026 56 10000 6.7 40 16:37 08.01.2020
922 Clouds 21 1026 56 10000 6.7 40 16:18 08.01.2020
923 Clouds 21 1027 52 10000 6.2 30 15:42 08.01.2020
924 Clouds 21 1027 52 10000 6.2 30 15:21 08.01.2020
925 Clouds 21 1027 56 10000 6.2 50 14:57 08.01.2020
926 Clouds 20 1028 64 10000 6.2 40 14:39 08.01.2020
927 Clouds 20 1028 64 10000 6.2 40 14:20 08.01.2020
928 Clouds 19 1029 64 10000 5.7 70 13:40 08.01.2020
929 Clouds 20 1029 64 10000 5.7 70 13:19 08.01.2020
930 Clouds 20 1029 60 10000 5.7 50 12:43 08.01.2020
931 Clouds 19 1029 64 10000 6.2 60 12:20 08.01.2020
932 Clouds 19 1029 60 10000 6.2 60 11:59 08.01.2020
933 Clouds 19 1029 60 10000 6.2 60 11:41 08.01.2020
934 Clouds 19 1028 63 10000 6.2 50 11:19 08.01.2020
935 Clouds 19 1028 59 10000 6.2 40 10:56 08.01.2020
936 Clouds 18 1028 63 10000 6.2 40 10:37 08.01.2020
937 Clouds 18 1028 63 10000 6.2 40 10:19 08.01.2020
938 Clouds 17 1027 68 10000 5.7 40 09:42 08.01.2020
939 Clouds 17 1027 63 10000 6.2 40 09:20 08.01.2020
940 Clouds 17 1027 67 10000 6.2 30 08:57 08.01.2020
941 Clouds 17 1026 63 10000 7.2 20 08:37 08.01.2020
942 Clouds 17 1026 63 10000 7.2 20 08:19 08.01.2020
943 Clouds 17 1026 63 10000 7.7 30 07:49 08.01.2020
944 Clouds 17 1026 67 10000 6.7 20 07:30 08.01.2020
945 Clouds 17 1026 63 10000 7.7 30 06:49 08.01.2020
946 Clouds 17 1026 63 10000 7.7 30 06:25 08.01.2020
947 Clouds 17 1026 63 10000 7.2 20 05:53 08.01.2020
948 Clouds 17 1026 63 10000 7.2 20 05:53 08.01.2020
949 Clouds 17 1027 63 10000 7.7 40 04:59 08.01.2020
950 Clouds 17 1027 68 10000 7.2 40 04:26 08.01.2020
951 Clouds 17 1027 68 10000 6.7 30 02:45 08.01.2020
952 Clouds 17 1027 68 10000 6.7 30 02:45 08.01.2020
953 Clouds 17 1027 68 10000 7.7 20 02:23 08.01.2020
954 Clouds 17 1027 68 10000 7.7 20 01:50 08.01.2020
955 Clouds 17 1027 63 10000 7.2 10 01:23 08.01.2020
956 Clouds 17 1027 68 10000 8.2 20 00:38 08.01.2020
957 Clouds 17 1027 68 10000 8.2 20 00:20 08.01.2020
958 Clouds 18 1027 68 10000 8.2 30 23:43 07.01.2020
959 Clouds 18 1027 68 10000 8.7 20 23:20 07.01.2020
960 Clouds 18 1027 68 10000 8.7 20 23:20 07.01.2020
961 Clouds 18 1027 72 10000 7.7 20 22:40 07.01.2020
962 Clouds 18 1027 72 10000 7.7 20 22:20 07.01.2020
963 Clouds 18 1027 72 10000 8.2 20 21:57 07.01.2020
964 Clouds 18 1026 68 10000 7.7 20 21:38 07.01.2020
965 Clouds 19 1026 68 10000 7.7 20 21:20 07.01.2020
966 Clouds 19 1026 68 10000 6.7 30 20:55 07.01.2020
967 Clouds 19 1026 68 10000 6.2 30 20:37 07.01.2020
968 Clouds 19 1026 68 10000 6.2 30 20:19 07.01.2020
969 Clouds 19 1026 68 10000 6.7 20 19:38 07.01.2020
970 Clouds 19 1026 68 10000 6.7 20 19:20 07.01.2020
971 Clouds 20 1025 64 10000 5.7 20 18:58 07.01.2020
972 Clouds 20 1025 60 10000 5.7 20 18:40 07.01.2020
973 Clouds 20 1025 60 10000 5.7 20 18:19 07.01.2020
974 Clouds 20 1026 60 10000 6.2 30 17:58 07.01.2020
975 Clouds 20 1026 56 10000 5.7 10 17:39 07.01.2020
976 Clouds 20 1026 56 10000 5.7 10 17:39 07.01.2020
977 Clouds 20 1026 56 10000 5.7 10 17:20 07.01.2020
978 Clouds 21 1026 56 10000 5.7 30 16:56 07.01.2020
979 Clouds 21 1026 60 10000 5.7 20 16:37 07.01.2020
980 Clouds 21 1026 60 10000 5.7 20 16:37 07.01.2020
981 Clouds 21 1026 60 10000 5.7 20 16:19 07.01.2020
982 Clouds 21 1026 56 10000 5.7 30 15:57 07.01.2020
983 Clouds 21 1026 60 10000 5.7 20 15:37 07.01.2020
984 Clouds 21 1026 60 10000 5.7 20 15:18 07.01.2020
985 Clouds 20 1026 60 10000 5.1 40 14:42 07.01.2020
986 Clouds 21 1027 56 10000 5.7 40 14:23 07.01.2020
987 Clouds 20 1027 56 10000 5.7 50 13:56 07.01.2020
988 Clouds 20 1027 60 10000 5.7 50 13:38 07.01.2020
989 Clouds 20 1027 60 10000 5.7 50 13:18 07.01.2020
990 Clouds 20 1028 56 10000 6.7 50 12:41 07.01.2020
991 Clouds 19 1028 60 10000 6.2 40 12:19 07.01.2020
992 Clouds 19 1028 59 10000 6.2 60 11:44 07.01.2020
993 Clouds 19 1027 59 10000 6.2 50 11:23 07.01.2020
994 Clouds 19 1027 59 10000 6.2 50 11:23 07.01.2020
995 Clouds 19 1027 59 10000 6.2 60 10:59 07.01.2020
996 Clouds 18 1027 63 10000 6.2 60 10:40 07.01.2020
997 Clouds 18 1027 63 10000 6.2 60 10:22 07.01.2020
998 Clouds 17 1026 59 10000 6.2 60 09:56 07.01.2020
999 Clouds 17 1026 67 10000 6.2 50 09:37 07.01.2020
1000 Clouds 17 1026 67 10000 6.2 50 09:19 07.01.2020
1001 Clouds 17 1025 67 10000 6.2 50 08:41 07.01.2020
1002 Clouds 17 1025 67 10000 6.2 50 08:41 07.01.2020
1003 Clouds 17 1025 67 10000 6.7 40 08:21 07.01.2020
1004 Clouds 17 1024 67 10000 6.7 40 07:51 07.01.2020
1005 Clouds 17 1024 63 10000 6.7 50 07:25 07.01.2020
1006 Clouds 18 1024 63 10000 7.2 40 06:52 07.01.2020
1007 Clouds 17 1024 67 10000 6.2 40 06:32 07.01.2020
1008 Clouds 18 1024 68 10000 6.7 30 05:46 07.01.2020
1009 Clouds 17 1024 72 10000 5.1 350 03:52 07.01.2020
1010 Clouds 18 1024 68 10000 6.7 10 03:25 07.01.2020
1011 Clouds 18 1025 68 10000 7.7 10 02:21 07.01.2020
1012 Clouds 18 1025 68 10000 7.2 10 01:45 07.01.2020
1013 Clouds 18 1025 63 10000 8.2 10 01:21 07.01.2020
1014 Clouds 18 1026 68 10000 9.3 30 00:21 07.01.2020
1015 Clouds 18 1025 72 10000 9.8 20 23:58 06.01.2020
1016 Clouds 18 1026 68 10000 10.3 20 23:39 06.01.2020
1017 Clouds 18 1026 68 10000 10.3 20 23:21 06.01.2020
1018 Clouds 18 1025 72 10000 9.8 10 22:56 06.01.2020
1019 Clouds 17 1025 82 10000 8.2 10 22:37 06.01.2020
1020 Clouds 17 1025 82 10000 8.2 10 22:18 06.01.2020
1021 Clouds 18 1025 68 10000 9.3 10 21:54 06.01.2020
1022 Clouds 18 1024 59 10000 6.7 360 21:36 06.01.2020
1023 Clouds 18 1024 59 10000 6.7 360 21:18 06.01.2020
1024 Clouds 18 1024 68 10000 7.7 360 20:54 06.01.2020
1025 Clouds 18 1024 68 10000 6.7 360 20:36 06.01.2020
1026 Clouds 18 1024 68 10000 6.7 360 20:18 06.01.2020
1027 Clouds 18 1024 68 10000 6.7 360 20:18 06.01.2020
1028 Clouds 19 1024 63 10000 8.2 360 19:54 06.01.2020
1029 Clouds 19 1024 59 10000 8.7 360 19:36 06.01.2020
1030 Clouds 19 1024 59 10000 8.7 360 19:18 06.01.2020
1031 Clouds 20 1024 56 10000 8.2 360 18:41 06.01.2020
1032 Clouds 20 1024 56 10000 9.8 360 18:19 06.01.2020
1033 Clouds 20 1024 60 10000 9.8 30 17:39 06.01.2020
1034 Clouds 20 1024 60 10000 9.8 30 17:19 06.01.2020
1035 Clouds 20 1024 60 10000 9.8 20 16:55 06.01.2020
1036 Clouds 21 1024 56 10000 10.3 20 16:37 06.01.2020
1037 Clouds 21 1024 56 10000 10.3 20 16:18 06.01.2020
1038 Clouds 20 1024 52 10000 10.8 30 15:43 06.01.2020
1039 Clouds 20 1024 60 10000 9.8 20 15:21 06.01.2020
1040 Clouds 21 1025 52 10000 10.3 20 14:59 06.01.2020
1041 Clouds 21 1025 52 10000 10.3 20 14:41 06.01.2020
1042 Clouds 21 1025 56 10000 9.8 20 14:21 06.01.2020
1043 Clouds 21 1025 56 10000 9.8 20 14:21 06.01.2020
1044 Clouds 21 1026 52 10000 9.3 360 13:58 06.01.2020
1045 Clouds 20 1026 49 10000 9.8 10 13:38 06.01.2020
1046 Clouds 20 1026 49 10000 9.8 10 13:20 06.01.2020
1047 Clouds 20 1027 49 10000 8.7 10 12:44 06.01.2020
1048 Clouds 20 1027 49 10000 9.8 10 12:21 06.01.2020
1049 Clouds 20 1027 49 10000 10.3 10 11:59 06.01.2020
1050 Clouds 20 1027 49 10000 10.3 10 11:41 06.01.2020
1051 Clouds 20 1027 52 10000 9.3 10 11:23 06.01.2020
1052 Clouds 19 1027 59 10000 8.2 10 10:57 06.01.2020
1053 Clouds 18 1026 55 10000 9.3 10 10:39 06.01.2020
1054 Clouds 18 1026 55 10000 9.3 10 10:20 06.01.2020
1055 Clouds 18 1026 55 10000 9.3 10 10:20 06.01.2020
1056 Clouds 17 1026 59 10000 7.7 360 09:39 06.01.2020
1057 Clouds 17 1026 59 10000 7.7 360 09:20 06.01.2020
1058 Clouds 18 1026 48 10000 6.2 360 08:48 06.01.2020
1059 Clouds 17 1026 52 10000 8.7 10 08:30 06.01.2020
1060 Clouds 17 1026 55 10000 8.7 10 07:53 06.01.2020
1061 Clouds 17 1026 59 10000 8.7 10 07:33 06.01.2020
1062 Drizzle 17 1026 68 10000 4.6 360 06:46 06.01.2020
1063 Clouds 17 1026 68 10000 6.2 10 06:23 06.01.2020
1064 Clouds 17 1025 68 10000 6.2 350 05:45 06.01.2020
1065 Clouds 17 1025 68 10000 4.1 360 04:38 06.01.2020
1066 Clouds 17 1025 68 10000 4.1 360 04:19 06.01.2020
1067 Clouds 15 1026 68 10000 5.7 20 02:46 06.01.2020
1068 Clouds 17 1026 68 10000 5.7 10 02:24 06.01.2020
1069 Clouds 17 1026 72 10000 6.2 20 01:44 06.01.2020
1070 Clouds 17 1026 68 10000 6.7 20 01:26 06.01.2020
1071 Clouds 15 1027 68 10000 6.7 20 00:42 06.01.2020
1072 Clouds 17 1027 72 10000 3.6 360 00:23 06.01.2020
1073 Clouds 15 1027 68 10000 4.6 360 23:42 05.01.2020
1074 Clouds 15 1027 68 10000 4.6 360 23:42 05.01.2020
1075 Drizzle 17 1027 68 10000 4.6 350 23:22 05.01.2020
1076 Clouds 18 1026 68 10000 4.6 360 22:56 05.01.2020
1077 Clouds 18 1026 63 10000 5.7 350 22:38 05.01.2020
1078 Clouds 18 1026 63 10000 5.7 350 22:19 05.01.2020
1079 Clouds 18 1026 63 10000 5.1 360 21:54 05.01.2020
1080 Clouds 18 1026 68 10000 5.1 340 21:36 05.01.2020
1081 Clouds 18 1026 68 10000 5.1 340 21:18 05.01.2020
1082 Clouds 18 1026 68 10000 5.1 360 20:55 05.01.2020
1083 Clouds 18 1026 68 10000 5.1 360 20:55 05.01.2020
1084 Clouds 18 1025 68 10000 5.1 360 20:36 05.01.2020
1085 Clouds 18 1025 68 10000 5.1 360 20:18 05.01.2020
1086 Clouds 19 1025 68 10000 6.2 360 19:54 05.01.2020
1087 Clouds 19 1025 68 10000 6.2 360 19:54 05.01.2020
1088 Clouds 17 1025 68 10000 7.7 20 19:36 05.01.2020
1089 Clouds 19 1025 68 10000 7.7 20 19:18 05.01.2020
1090 Clouds 20 1025 64 10000 7.2 20 18:54 05.01.2020
1091 Clouds 20 1025 64 10000 7.2 20 18:54 05.01.2020
1092 Clouds 18 1025 64 10000 7.2 30 18:36 05.01.2020
1093 Clouds 20 1025 64 10000 7.2 30 18:18 05.01.2020
1094 Clouds 19 1025 60 10000 7.7 30 17:40 05.01.2020
1095 Clouds 19 1025 60 10000 7.7 30 17:21 05.01.2020
1096 Clouds 19 1025 56 10000 7.7 30 16:58 05.01.2020
1097 Clouds 19 1025 52 10000 7.2 30 16:40 05.01.2020
1098 Clouds 19 1025 52 10000 7.2 30 16:20 05.01.2020
1099 Clouds 19 1025 52 10000 7.2 30 15:41 05.01.2020
1100 Clouds 19 1025 52 10000 7.7 30 15:22 05.01.2020
1101 Clouds 19 1025 52 10000 7.7 30 15:22 05.01.2020
1102 Clouds 20 1025 52 10000 6.7 40 14:58 05.01.2020
1103 Clouds 19 1026 60 10000 5.7 40 14:40 05.01.2020
1104 Clouds 19 1026 60 10000 5.7 40 14:22 05.01.2020
1105 Clouds 19 1027 64 10000 7.2 30 13:59 05.01.2020
1106 Clouds 20 1027 60 10000 7.2 10 13:39 05.01.2020
1107 Clouds 20 1027 60 10000 7.2 10 13:20 05.01.2020
1108 Clouds 19 1027 52 10000 6.2 30 12:57 05.01.2020
1109 Clouds 19 1028 56 10000 6.2 30 12:38 05.01.2020
1110 Clouds 18 1028 56 10000 6.2 30 12:20 05.01.2020
1111 Clouds 18 1028 52 10000 5.7 10 11:54 05.01.2020
1112 Clouds 18 1028 55 10000 5.7 350 11:36 05.01.2020
1113 Clouds 19 1028 55 10000 5.7 350 11:18 05.01.2020
1114 Clouds 17 1027 59 10000 6.2 340 10:41 05.01.2020
1115 Clouds 16 1027 59 10000 6.2 340 10:20 05.01.2020
1116 Clouds 16 1027 59 10000 5.1 340 09:55 05.01.2020
1117 Clouds 15 1027 59 10000 5.1 330 09:36 05.01.2020
1118 Clouds 15 1027 59 10000 5.1 330 09:18 05.01.2020
1119 Clouds 15 1026 63 10000 6.7 340 08:44 05.01.2020
1120 Clouds 15 1026 63 10000 6.7 340 08:21 05.01.2020
1121 Clouds 16 1026 59 10000 5.7 340 07:44 05.01.2020
1122 Clouds 16 1026 59 10000 5.7 340 07:44 05.01.2020
1123 Clouds 15 1026 67 10000 4.6 360 07:26 05.01.2020
1124 Clouds 15 1026 63 10000 5.7 360 06:55 05.01.2020
1125 Clouds 15 1027 63 10000 5.7 350 05:43 05.01.2020
1126 Clouds 15 1027 63 10000 6.2 350 04:56 05.01.2020
1127 Clouds 16 1027 67 10000 5.7 340 04:19 05.01.2020
1128 Clouds 15 1027 63 10000 6.2 350 03:38 05.01.2020
1129 Clouds 16 1028 63 10000 5.7 350 02:35 05.01.2020
1130 Clouds 15 1028 67 10000 5.7 350 01:52 05.01.2020
1131 Clouds 16 1028 67 10000 5.7 350 01:20 05.01.2020
1132 Clouds 16 1028 67 10000 5.7 350 00:57 05.01.2020
1133 Clouds 17 1028 63 10000 5.7 350 00:39 05.01.2020
1134 Clouds 16 1028 63 10000 5.7 350 00:20 05.01.2020
1135 Clouds 17 1029 63 10000 5.1 350 23:42 04.01.2020
1136 Clouds 17 1029 63 10000 5.1 350 23:42 04.01.2020
1137 Clouds 17 1028 63 10000 4.6 340 23:21 04.01.2020
1138 Clouds 17 1028 63 10000 4.6 340 22:59 04.01.2020
1139 Clouds 17 1028 63 10000 4.6 330 22:39 04.01.2020
1140 Clouds 16 1028 63 10000 4.6 330 22:20 04.01.2020
1141 Clouds 18 1028 63 10000 4.1 340 21:56 04.01.2020
1142 Clouds 17 1028 67 10000 3.6 330 21:37 04.01.2020
1143 Clouds 17 1028 67 10000 3.6 330 21:19 04.01.2020
1144 Clouds 17 1028 72 10000 3.6 340 20:55 04.01.2020
1145 Clouds 17 1027 68 10000 4.1 360 20:36 04.01.2020
1146 Clouds 17 1027 68 10000 4.1 360 20:36 04.01.2020
1147 Clouds 18 1027 68 10000 4.1 360 20:18 04.01.2020
1148 Clouds 18 1027 68 10000 3.6 20 19:41 04.01.2020
1149 Clouds 18 1027 68 10000 3.6 20 19:41 04.01.2020
1150 Clouds 18 1027 72 10000 2.6 20 19:23 04.01.2020
1151 Clouds 18 1027 68 10000 2.6 50 18:57 04.01.2020
1152 Clouds 18 1027 68 10000 2.1 80 18:38 04.01.2020
1153 Clouds 19 1027 68 10000 2.1 80 18:19 04.01.2020
1154 Clouds 18 1027 63 10000 2.1 0 17:55 04.01.2020
1155 Clouds 18 1027 63 10000 2.6 80 17:37 04.01.2020
1156 Clouds 19 1027 63 10000 2.6 80 17:18 04.01.2020
1157 Clouds 20 1027 64 10000 2.6 80 16:41 04.01.2020
1158 Clouds 18 1027 60 10000 2.1 80 16:23 04.01.2020
1159 Clouds 18 1028 63 10000 2.6 90 15:57 04.01.2020
1160 Clouds 19 1028 60 10000 3.6 80 15:38 04.01.2020
1161 Clouds 20 1028 60 10000 3.6 80 15:19 04.01.2020
1162 Clouds 20 1029 63 10000 2.6 100 14:55 04.01.2020
1163 Clouds 20 1029 63 10000 2.6 100 14:55 04.01.2020
1164 Clouds 19 1029 60 10000 3.1 100 14:36 04.01.2020
1165 Clouds 19 1029 60 10000 3.1 100 14:18 04.01.2020
1166 Clouds 20 1029 60 10000 3.6 90 13:54 04.01.2020
1167 Clouds 19 1030 60 10000 3.1 70 13:36 04.01.2020
1168 Clouds 19 1030 60 10000 3.1 70 13:18 04.01.2020
1169 Clouds 19 1030 60 10000 3.1 60 12:41 04.01.2020
1170 Clouds 18 1030 60 10000 3.1 20 12:19 04.01.2020
1171 Clouds 18 1031 63 10000 3.6 20 11:57 04.01.2020
1172 Clouds 18 1030 63 10000 3.6 350 11:38 04.01.2020
1173 Clouds 18 1030 63 10000 3.6 350 11:19 04.01.2020
1174 Clouds 18 1030 68 10000 3.6 340 10:42 04.01.2020
1175 Clouds 18 1030 63 10000 3.1 320 10:23 04.01.2020
1176 Clouds 16 1030 67 10000 3.1 310 09:57 04.01.2020
1177 Clouds 16 1029 67 10000 3.1 300 09:39 04.01.2020
1178 Clouds 15 1029 67 10000 3.1 300 09:20 04.01.2020
1179 Clear 16 1029 67 10000 3.1 320 08:40 04.01.2020
1180 Clear 16 1029 67 10000 3.1 320 08:20 04.01.2020
1181 Clear 15 1029 62 10000 3.1 310 07:42 04.01.2020
1182 Clear 15 1029 59 10000 3.1 310 07:19 04.01.2020
1183 Clear 15 1029 55 10000 3.1 310 06:33 04.01.2020
1184 Clear 15 1029 51 10000 3.1 300 05:19 04.01.2020
1185 Clear 16 1029 55 10000 3.1 310 04:34 04.01.2020
1186 Clear 16 1029 55 10000 3.6 310 03:52 04.01.2020
1187 Clear 16 1029 58 10000 3.6 320 03:18 04.01.2020
1188 Clear 16 1029 54 10000 3.6 320 02:21 04.01.2020
1189 Clear 16 1029 54 10000 3.6 320 02:21 04.01.2020
1190 Clear 16 1030 54 10000 3.6 330 01:55 04.01.2020
1191 Clear 16 1030 51 10000 3.6 330 01:31 04.01.2020
1192 Clear 17 1030 48 10000 3.1 340 00:43 04.01.2020
1193 Clear 17 1030 48 10000 3.6 340 00:23 04.01.2020
1194 Clear 17 1030 44 10000 4.1 330 23:44 03.01.2020
1195 Clear 17 1029 41 10000 3.6 330 23:25 03.01.2020
1196 Clear 17 1029 39 10000 4.1 320 22:41 03.01.2020
1197 Clear 17 1029 39 10000 4.1 330 22:20 03.01.2020
1198 Clear 17 1029 33 10000 3.6 330 21:59 03.01.2020
1199 Clear 17 1029 33 10000 3.1 330 21:38 03.01.2020
1200 Clear 17 1029 33 10000 3.1 330 21:19 03.01.2020
1201 Clear 17 1029 36 10000 3.1 320 20:58 03.01.2020
1202 Clear 17 1029 48 10000 3.1 320 20:40 03.01.2020
1203 Clear 17 1029 48 10000 3.1 320 20:18 03.01.2020
1204 Clear 18 1029 45 10000 2.1 30 19:56 03.01.2020
1205 Clear 18 1028 45 10000 2.1 50 19:37 03.01.2020
1206 Clear 19 1028 45 10000 2.1 50 19:19 03.01.2020
1207 Clear 19 1028 45 10000 2.1 70 18:43 03.01.2020
1208 Clear 19 1028 45 10000 2.1 80 18:24 03.01.2020
1209 Clear 17 1028 45 10000 1.5 70 17:55 03.01.2020
1210 Clear 18 1028 45 10000 2.1 80 17:37 03.01.2020
1211 Clear 18 1028 45 10000 2.1 80 17:37 03.01.2020
1212 Clear 18 1028 45 10000 2.1 80 17:18 03.01.2020
1213 Clear 19 1028 42 10000 2.1 100 16:42 03.01.2020
1214 Clear 19 1028 42 10000 2.1 100 16:23 03.01.2020
1215 Clear 18 1028 45 10000 3.1 100 15:57 03.01.2020
1216 Clear 18 1029 42 10000 3.6 110 15:38 03.01.2020
1217 Clear 19 1029 42 10000 3.6 110 15:18 03.01.2020
1218 -273 0 0 0 0 0 14:38 03.01.2020
1219 Clear 19 1030 45 10000 4.1 110 14:19 03.01.2020
1220 Clear 18 1031 48 10000 4.6 120 13:44 03.01.2020
1221 Clear 19 1030 42 10000 4.6 120 13:44 03.01.2020
1222 Clear 19 1030 42 10000 4.6 120 13:44 03.01.2020
1223 Clear 19 1031 48 10000 4.6 120 13:24 03.01.2020
1224 Clouds 20 1031 42 10000 4.6 120 12:59 03.01.2020
1225 Clouds 19 1031 42 10000 4.6 130 12:39 03.01.2020
1226 Clouds 19 1031 42 10000 4.6 130 12:21 03.01.2020
1227 Clouds 19 1031 45 10000 4.1 120 11:45 03.01.2020
1228 Clouds 19 1031 42 10000 5.1 120 11:21 03.01.2020
1229 Clouds 17 1030 42 10000 4.6 120 10:45 03.01.2020
1230 Clouds 17 1030 42 10000 4.6 120 10:26 03.01.2020
1231 Clouds 17 1029 42 10000 4.6 120 09:58 03.01.2020
1232 Clouds 17 1029 45 10000 4.1 120 09:39 03.01.2020
1233 Clouds 17 1029 45 10000 4.1 120 09:21 03.01.2020
1234 Clouds 17 1029 42 10000 4.1 110 08:57 03.01.2020
1235 Clouds 17 1029 45 10000 4.6 120 08:38 03.01.2020
1236 Clouds 17 1029 45 10000 4.6 120 08:19 03.01.2020
1237 Clouds 17 1028 48 10000 4.6 120 07:40 03.01.2020
1238 Clouds 17 1028 48 10000 4.6 120 07:18 03.01.2020
1239 Clouds 17 1028 48 10000 4.6 130 06:49 03.01.2020
1240 Clouds 17 1028 48 10000 4.6 130 06:49 03.01.2020
1241 Clouds 17 1028 48 10000 4.6 120 06:30 03.01.2020
1242 Clouds 17 1028 48 10000 5.1 120 05:45 03.01.2020
1243 Clouds 17 1028 55 10000 1.5 0 04:22 03.01.2020
1244 Clouds 16 1028 48 10000 3.1 310 02:56 03.01.2020
1245 Clouds 16 1028 44 10000 3.6 310 02:33 03.01.2020
1246 Clouds 17 1028 44 10000 3.6 320 01:44 03.01.2020
1247 Clouds 17 1028 41 10000 3.1 310 00:50 03.01.2020
1248 Clouds 17 1028 41 10000 3.1 320 00:31 03.01.2020
1249 Clouds 17 1028 38 10000 3.1 310 23:56 02.01.2020
1250 Clouds 17 1028 38 10000 3.1 320 23:38 02.01.2020
1251 Clouds 17 1028 38 10000 3.1 320 23:19 02.01.2020
1252 Clouds 17 1028 38 10000 3.6 300 22:57 02.01.2020
1253 Clouds 16 1028 36 10000 3.1 320 22:38 02.01.2020
1254 Clouds 17 1028 36 10000 3.1 320 22:18 02.01.2020
1255 Clouds 17 1028 38 10000 2.6 300 21:41 02.01.2020
1256 Clouds 16 1028 38 10000 3.1 290 21:23 02.01.2020
1257 Clouds 16 1027 41 10000 2.1 300 20:59 02.01.2020
1258 Clouds 16 1027 41 10000 2.1 300 20:59 02.01.2020
1259 Clouds 16 1027 41 10000 2.1 300 20:59 02.01.2020
1260 Clouds 17 1027 42 10000 1 0 20:39 02.01.2020
1261 Clouds 16 1027 42 10000 1 0 20:21 02.01.2020
1262 Clouds 16 1027 42 10000 1 0 20:21 02.01.2020
1263 Clouds 16 1027 39 10000 2.1 80 19:56 02.01.2020
1264 Clouds 16 1027 42 10000 2.6 80 19:38 02.01.2020
1265 Clouds 16 1027 42 10000 2.6 80 19:19 02.01.2020
1266 Clouds 16 1027 45 10000 3.6 80 18:58 02.01.2020
1267 Clouds 17 1027 42 10000 3.6 80 18:39 02.01.2020
1268 Clouds 17 1027 42 10000 3.6 80 18:21 02.01.2020
1269 Clouds 18 1027 39 10000 3.6 90 17:56 02.01.2020
1270 Clouds 16 1027 39 10000 2.1 80 17:37 02.01.2020
1271 Clouds 19 1027 39 10000 2.1 80 17:19 02.01.2020
1272 Clouds 19 1027 42 10000 2.1 80 16:56 02.01.2020
1273 Clouds 18 1027 36 10000 3.1 110 16:38 02.01.2020
1274 Clouds 17 1027 36 10000 3.1 110 16:20 02.01.2020
1275 Clouds 18 1027 37 10000 3.1 110 15:45 02.01.2020
1276 Clouds 18 1027 42 10000 4.1 130 15:24 02.01.2020
1277 Clouds 19 1028 37 10000 4.6 130 14:58 02.01.2020
1278 Clouds 18 1028 39 10000 5.1 140 14:39 02.01.2020
1279 Clouds 18 1028 39 10000 5.1 140 14:21 02.01.2020
1280 Clouds 19 1028 39 10000 5.7 130 13:58 02.01.2020
1281 Clouds 19 1029 39 10000 6.2 130 13:40 02.01.2020
1282 Clouds 19 1029 39 10000 6.2 130 13:19 02.01.2020
1283 Clouds 19 1029 42 10000 5.7 130 12:43 02.01.2020
1284 Clouds 19 1029 45 10000 5.7 130 12:23 02.01.2020
1285 Clouds 18 1029 42 10000 5.1 120 11:42 02.01.2020
1286 Clouds 18 1029 42 10000 5.1 120 11:23 02.01.2020
1287 Clouds 18 1029 42 10000 5.1 130 10:56 02.01.2020
1288 Clouds 18 1028 45 10000 4.6 120 10:36 02.01.2020
1289 Clouds 18 1028 45 10000 4.6 120 10:18 02.01.2020
1290 Clouds 18 1028 42 10000 4.1 150 09:41 02.01.2020
1291 Clouds 16 1028 41 10000 2.1 200 09:21 02.01.2020
1292 Clouds 16 1028 44 10000 3.1 210 08:41 02.01.2020
1293 Clouds 17 1028 41 10000 2.6 170 08:22 02.01.2020
1294 Clouds 17 1028 36 10000 4.1 160 07:47 02.01.2020
1295 Clouds 17 1027 36 10000 4.6 150 07:27 02.01.2020
1296 Clouds 17 1027 39 10000 4.6 150 06:43 02.01.2020
1297 Clouds 18 1027 45 10000 5.1 140 05:54 02.01.2020
1298 Clouds 18 1027 48 10000 3.1 290 04:38 02.01.2020
1299 Clouds 18 1027 48 10000 3.1 290 04:19 02.01.2020
1300 Clear 18 1027 39 10000 3.1 320 02:21 02.01.2020
1301 Clear 17 1027 38 10000 3.1 340 01:57 02.01.2020
1302 Clear 17 1028 38 10000 3.1 330 01:30 02.01.2020
1303 Clear 17 1028 36 10000 3.1 340 00:52 02.01.2020
1304 Clear 17 1028 41 10000 2.6 330 00:26 02.01.2020
1305 Clear 17 1028 41 10000 2.1 10 23:44 01.01.2020
1306 Clear 17 1028 27 10000 2.1 320 23:23 01.01.2020
1307 Clear 17 1028 41 10000 2.6 300 22:39 01.01.2020
1308 Clear 16 1028 41 10000 2.6 300 22:21 01.01.2020
1309 Clear 16 1028 44 10000 3.1 300 21:59 01.01.2020
1310 Clear 16 1027 48 10000 3.1 300 21:40 01.01.2020
1311 Clear 16 1027 48 10000 3.1 300 21:21 01.01.2020
1312 Clear 16 1027 48 10000 2.6 320 20:58 01.01.2020
1313 Clear 17 1027 45 10000 2.1 10 20:39 01.01.2020
1314 Clear 17 1027 45 10000 2.1 10 20:20 01.01.2020
1315 Clear 17 1027 48 10000 1.5 30 19:57 01.01.2020
1316 Clear 17 1027 48 10000 2.6 70 19:38 01.01.2020
1317 Clear 17 1027 48 10000 2.6 70 19:20 01.01.2020
1318 Clear 17 1027 48 10000 2.6 80 18:57 01.01.2020
1319 Clear 16 1027 45 10000 2.6 90 18:38 01.01.2020
1320 Clear 17 1027 45 10000 2.6 90 18:20 01.01.2020
1321 Clear 17 1026 42 10000 2.6 100 17:57 01.01.2020
1322 Clear 18 1026 45 10000 2.6 0 17:39 01.01.2020
1323 Clear 17 1026 45 10000 2.6 0 17:19 01.01.2020
1324 Clear 18 1027 45 10000 3.6 140 16:57 01.01.2020
1325 Clear 18 1027 42 10000 3.6 150 16:38 01.01.2020
1326 Clear 18 1027 42 10000 3.6 150 16:38 01.01.2020
1327 Clear 19 1027 42 10000 3.6 150 16:19 01.01.2020
1328 Clear 18 1027 39 10000 4.1 160 15:56 01.01.2020
1329 Clear 18 1027 42 10000 5.1 160 15:37 01.01.2020
1330 Clear 19 1027 42 10000 5.1 160 15:19 01.01.2020
1331 Clear 19 1028 45 10000 5.7 160 14:42 01.01.2020
1332 Clear 19 1028 48 10000 6.2 160 14:24 01.01.2020
1333 Clouds 19 1029 45 10000 5.7 150 13:57 01.01.2020
1334 Clouds 20 1029 45 10000 5.7 160 13:38 01.01.2020
1335 Clear 20 1029 45 10000 5.7 160 13:19 01.01.2020
1336 Clear 20 1029 45 10000 6.2 160 12:58 01.01.2020
1337 Clear 19 1030 48 10000 6.2 160 12:40 01.01.2020
1338 Clear 19 1030 48 10000 6.2 160 12:19 01.01.2020
1339 Clear 19 1030 48 10000 6.2 160 12:19 01.01.2020
1340 Clear 19 1029 48 10000 5.7 150 11:56 01.01.2020
1341 Clear 19 1029 48 10000 5.7 140 11:38 01.01.2020
1342 Clouds 19 1029 48 10000 5.7 140 11:19 01.01.2020
1343 Clouds 19 1028 48 10000 5.7 150 10:54 01.01.2020
1344 Clouds 19 1028 42 10000 5.7 150 10:36 01.01.2020
1345 Clouds 19 1028 42 10000 5.7 150 10:18 01.01.2020
1346 Clouds 19 1028 45 10000 4.6 160 09:39 01.01.2020
1347 Clouds 19 1028 45 10000 4.6 160 09:20 01.01.2020
1348 Clouds 16 1027 59 10000 3.1 210 08:56 01.01.2020
1349 Clouds 16 1027 59 10000 2.6 230 08:37 01.01.2020
1350 Clear 16 1027 59 10000 2.6 230 08:19 01.01.2020
1351 Clear 17 1027 59 10000 2.6 240 07:56 01.01.2020
1352 Clear 16 1027 63 10000 2.6 230 07:38 01.01.2020
1353 Clear 16 1027 63 10000 3.1 250 06:46 01.01.2020
1354 Clear 17 1027 63 10000 3.1 250 06:22 01.01.2020
1355 Clear 17 1027 63 10000 2.6 250 05:45 01.01.2020
1356 Clear 17 1026 48 10000 2.1 300 03:48 01.01.2020
1357 Clear 18 1026 45 10000 2.6 300 03:28 01.01.2020
1358 Clear 17 1026 39 10000 2.6 310 02:59 01.01.2020
1359 Clear 16 1026 29 10000 2.6 330 02:41 01.01.2020
1360 Clear 17 1026 29 10000 2.6 330 02:21 01.01.2020
1361 Clear 17 1027 29 10000 2.6 310 01:39 01.01.2020
1362 Clear 17 1027 29 10000 2.6 310 01:21 01.01.2020
1363 Clear 18 1027 27 10000 2.1 300 00:44 01.01.2020
1364 Clear 17 1027 27 10000 1.5 310 00:44 01.01.2020
1365 Clear 17 1027 27 10000 2.1 300 00:26 01.01.2020
1366 Clear 17 1027 25 10000 2.6 300 23:43 31.12.2019
1367 Clear 18 1026 23 10000 2.6 300 23:24 31.12.2019
1368 Clear 18 1026 27 10000 2.6 310 22:59 31.12.2019
1369 Clear 18 1026 45 10000 2.6 320 22:39 31.12.2019
1370 Clear 17 1026 45 10000 2.6 320 22:20 31.12.2019
1371 Clear 18 1025 45 10000 3.1 320 21:59 31.12.2019
1372 Clear 17 1025 45 10000 3.1 320 21:41 31.12.2019
1373 Clear 18 1025 48 10000 1.5 320 21:23 31.12.2019
1374 Clear 18 1025 55 10000 1 0 20:57 31.12.2019
1375 Clear 17 1025 59 10000 0.5 0 20:37 31.12.2019
1376 Clouds 17 1025 59 10000 0.5 0 20:19 31.12.2019
1377 Clouds 18 1024 52 10000 1 0 19:55 31.12.2019
1378 Clouds 18 1024 55 10000 1.5 100 19:37 31.12.2019
1379 Clouds 19 1024 55 10000 1.5 100 19:18 31.12.2019
1380 Clouds 20 1024 52 10000 2.1 110 18:54 31.12.2019
1381 Clouds 19 1024 49 10000 2.1 120 18:36 31.12.2019
1382 Clouds 21 1024 49 10000 2.1 120 18:18 31.12.2019
1383 Clouds 19 1024 49 10000 2.1 130 17:55 31.12.2019
1384 Clouds 20 1024 52 10000 2.6 120 17:36 31.12.2019
1385 Clouds 21 1024 49 10000 3.1 140 17:18 31.12.2019
1386 Clouds 21 1024 49 10000 3.1 140 17:18 31.12.2019
1387 Clouds 20 1024 49 10000 3.1 140 16:55 31.12.2019
1388 Clouds 20 1024 46 10000 3.1 140 16:36 31.12.2019
1389 Clouds 21 1024 46 10000 3.1 140 16:18 31.12.2019
1390 Clouds 21 1024 46 10000 3.6 140 15:55 31.12.2019
1391 Clouds 21 1024 52 10000 3.1 140 15:37 31.12.2019
1392 Clouds 21 1024 52 10000 3.1 140 15:18 31.12.2019
1393 Clouds 21 1024 52 10000 3.1 140 15:18 31.12.2019
1394 Clouds 21 1025 56 10000 3.1 160 14:55 31.12.2019
1395 Clouds 20 1025 64 10000 2.6 140 14:36 31.12.2019
1396 Clouds 20 1025 64 10000 2.6 140 14:18 31.12.2019
1397 Clouds 20 1026 68 10000 2.6 140 13:54 31.12.2019
1398 Clouds 20 1026 68 10000 2.6 110 13:36 31.12.2019
1399 Clouds 21 1026 68 10000 2.6 110 13:18 31.12.2019
1400 Clouds 20 1027 72 10000 1 0 12:40 31.12.2019
1401 Clouds 21 1027 72 10000 1 0 12:40 31.12.2019
1402 Clouds 20 1027 72 10000 1 0 12:21 31.12.2019
1403 Clouds 20 1027 72 10000 1 0 12:21 31.12.2019
1404 Clouds 19 1027 77 10000 2.1 100 11:57 31.12.2019
1405 Clouds 20 1027 72 10000 2.1 100 11:39 31.12.2019
1406 Clouds 19 1027 72 10000 2.1 100 11:21 31.12.2019
1407 Clouds 19 1026 77 10000 1 0 10:58 31.12.2019
1408 Clouds 18 1026 82 10000 2.1 320 10:39 31.12.2019
1409 Clouds 17 1026 82 10000 2.1 320 10:20 31.12.2019
1410 Clouds 16 1025 82 10000 2.6 320 09:59 31.12.2019
1411 Clouds 16 1025 87 10000 3.1 320 09:40 31.12.2019
1412 Clouds 16 1025 87 10000 3.1 320 09:21 31.12.2019
1413 Clouds 16 1025 82 10000 3.1 330 08:58 31.12.2019
1414 Clouds 16 1025 82 10000 3.1 340 08:39 31.12.2019
1415 Clouds 16 1025 82 10000 3.1 340 08:20 31.12.2019
1416 Clouds 16 1024 87 10000 3.6 350 07:43 31.12.2019
1417 Clouds 16 1024 87 10000 3.6 350 07:22 31.12.2019
1418 Clouds 16 1024 87 10000 4.1 350 06:50 31.12.2019
1419 Clouds 16 1024 77 10000 5.1 350 05:58 31.12.2019
1420 Clouds 17 1024 68 10000 5.7 360 04:30 31.12.2019
1421 Clouds 18 1025 42 10000 4.6 360 03:38 31.12.2019
1422 Clouds 18 1025 36 10000 5.7 10 02:56 31.12.2019
1423 Clouds 17 1025 41 10000 4.6 10 02:19 31.12.2019
1424 Clouds 17 1025 36 10000 4.6 20 01:48 31.12.2019
1425 Clouds 18 1025 55 10000 5.7 20 01:27 31.12.2019
1426 Clouds 18 1025 59 10000 6.2 10 00:46 31.12.2019
1427 Clouds 19 1025 63 10000 6.7 20 00:22 31.12.2019
1428 Clouds 18 1025 68 10000 5.7 10 23:56 30.12.2019
1429 Clouds 19 1025 63 10000 6.2 10 23:38 30.12.2019
1430 Clouds 19 1025 63 10000 6.2 10 23:20 30.12.2019
1431 Clouds 18 1025 42 10000 5.7 10 22:58 30.12.2019
1432 Clouds 19 1025 32 10000 5.1 20 22:39 30.12.2019
1433 Clouds 18 1025 32 10000 5.1 20 22:20 30.12.2019
1434 Clouds 20 1024 32 10000 3.6 360 21:57 30.12.2019
1435 Clouds 20 1024 25 10000 3.1 350 21:38 30.12.2019
1436 Clouds 20 1024 25 10000 3.1 350 21:38 30.12.2019
1437 Clouds 20 1024 25 10000 3.1 350 21:38 30.12.2019
1438 Clouds 20 1024 32 10000 3.1 340 21:19 30.12.2019
1439 Clouds 21 1024 32 10000 3.1 340 20:56 30.12.2019
1440 Clouds 20 1024 32 10000 3.1 340 20:56 30.12.2019
1441 Clouds 21 1024 34 10000 3.1 350 20:38 30.12.2019
1442 Clouds 20 1024 34 10000 3.1 350 20:20 30.12.2019
1443 Clouds 20 1024 40 10000 3.1 360 19:57 30.12.2019
1444 Clouds 20 1024 49 10000 3.6 20 19:37 30.12.2019
1445 Clouds 21 1024 49 10000 3.6 20 19:19 30.12.2019
1446 Clouds 22 1024 40 10000 3.1 50 18:56 30.12.2019
1447 Clouds 22 1024 40 10000 2.6 50 18:38 30.12.2019
1448 Clouds 22 1024 40 10000 2.6 50 18:20 30.12.2019
1449 Clouds 22 1023 38 10000 3.1 50 17:55 30.12.2019
1450 Clouds 23 1023 35 10000 2.6 70 17:37 30.12.2019
1451 Clouds 23 1023 35 10000 2.6 70 17:18 30.12.2019
1452 Clouds 23 1023 35 10000 2.6 60 16:57 30.12.2019
1453 Clouds 24 1023 33 10000 2.1 60 16:36 30.12.2019
1454 Clouds 23 1023 33 10000 2.1 60 16:36 30.12.2019
1455 Clouds 23 1023 33 10000 2.1 60 16:18 30.12.2019
1456 Clouds 23 1024 31 10000 2.6 60 15:55 30.12.2019
1457 Clouds 23 1024 33 10000 1.5 0 15:36 30.12.2019
1458 Clouds 23 1024 33 10000 1.5 0 15:18 30.12.2019
1459 Clouds 24 1025 35 10000 1.5 0 14:42 30.12.2019
1460 Clouds 24 1025 35 10000 1.5 0 14:19 30.12.2019
1461 Clouds 23 1025 40 10000 1.5 0 13:56 30.12.2019
1462 Clouds 23 1026 43 10000 1.5 0 13:37 30.12.2019
1463 Clouds 22 1026 43 10000 1.5 0 13:19 30.12.2019
1464 Clouds 23 1026 40 10000 1.5 50 12:43 30.12.2019
1465 Clouds 22 1026 40 10000 1.5 0 12:20 30.12.2019
1466 Clouds 23 1026 40 10000 1.5 0 11:59 30.12.2019
1467 Clouds 22 1025 43 10000 1 0 11:40 30.12.2019
1468 Clouds 21 1025 43 10000 1 0 11:19 30.12.2019
1469 Clouds 20 1025 49 10000 2.6 310 10:44 30.12.2019
1470 Clouds 20 1025 49 10000 2.6 310 10:22 30.12.2019
1471 Clouds 19 1024 55 10000 2.1 320 09:58 30.12.2019
1472 Clouds 18 1024 55 10000 2.1 320 09:40 30.12.2019
1473 Clouds 18 1024 55 10000 2.1 320 09:20 30.12.2019
1474 Clouds 18 1024 48 10000 2.6 330 08:50 30.12.2019
1475 Clouds 18 1024 48 10000 2.6 330 08:50 30.12.2019
1476 Clouds 18 1023 48 10000 1.5 340 08:23 30.12.2019
1477 Clouds 19 1023 45 10000 2.1 310 07:56 30.12.2019
1478 Clouds 18 1023 45 10000 2.1 310 07:37 30.12.2019
1479 Clouds 18 1023 39 10000 2.1 310 06:52 30.12.2019
1480 Clouds 19 1023 39 10000 2.1 290 04:57 30.12.2019
1481 Clouds 21 1023 30 10000 2.6 330 03:57 30.12.2019
1482 Clouds 21 1023 24 10000 2.1 340 02:58 30.12.2019
1483 Clouds 20 1023 21 10000 1.5 0 02:40 30.12.2019
1484 Clouds 20 1023 21 10000 2.1 300 01:50 30.12.2019
1485 Clouds 20 1023 21 10000 2.1 300 01:50 30.12.2019
1486 Clouds 20 1023 22 10000 2.1 310 01:21 30.12.2019
1487 Clouds 21 1023 33 10000 1.5 290 00:44 30.12.2019
1488 Clouds 21 1023 33 10000 1.5 270 00:19 30.12.2019
1489 Clouds 20 1023 25 10000 2.6 290 23:39 29.12.2019
1490 Clouds 20 1023 25 10000 2.6 290 23:39 29.12.2019
1491 Clouds 19 1023 25 10000 2.6 290 23:21 29.12.2019
1492 Clouds 19 1023 37 10000 3.1 300 22:43 29.12.2019
1493 Clouds 19 1022 37 10000 2.6 310 22:24 29.12.2019
1494 Clouds 19 1022 48 10000 1.5 350 21:59 29.12.2019
1495 Clouds 19 1022 48 10000 1.5 350 21:41 29.12.2019
1496 Clouds 18 1022 63 10000 3.1 300 21:20 29.12.2019
1497 Clouds 19 1021 63 10000 2.1 310 20:57 29.12.2019
1498 Clouds 19 1021 63 10000 1 0 20:39 29.12.2019
1499 Clouds 18 1021 63 10000 1 0 20:20 29.12.2019
1500 Clouds 18 1021 63 10000 1 0 20:20 29.12.2019
1501 Clouds 20 1021 64 10000 2.1 70 19:58 29.12.2019
1502 Clouds 19 1020 64 10000 2.1 90 19:40 29.12.2019
1503 Clouds 19 1020 64 10000 2.1 90 19:21 29.12.2019
1504 Clouds 21 1020 64 10000 1.5 90 18:57 29.12.2019
1505 Clouds 22 1020 60 10000 2.1 100 18:38 29.12.2019
1506 Clouds 22 1020 60 10000 2.1 100 18:38 29.12.2019
1507 Clouds 21 1020 60 10000 2.1 100 18:19 29.12.2019
1508 Clouds 22 1020 60 10000 2.6 100 17:57 29.12.2019
1509 Clouds 22 1020 60 10000 2.6 100 17:57 29.12.2019
1510 Clouds 22 1020 56 10000 2.6 100 17:39 29.12.2019
1511 Clouds 22 1020 56 10000 2.6 100 17:20 29.12.2019
1512 Clouds 22 1020 56 10000 2.6 100 16:56 29.12.2019
1513 Clouds 23 1020 56 10000 2.1 90 16:37 29.12.2019
1514 Clouds 22 1020 56 10000 2.1 90 16:19 29.12.2019
1515 Clouds 24 1020 56 10000 2.1 90 15:57 29.12.2019
1516 Clouds 24 1020 56 10000 3.1 100 15:38 29.12.2019
1517 Clouds 23 1020 56 10000 3.1 100 15:19 29.12.2019
1518 Clouds 22 1021 46 10000 2.1 90 14:56 29.12.2019
1519 Clouds 22 1021 53 10000 2.1 100 14:38 29.12.2019
1520 Clouds 22 1021 53 10000 2.1 100 14:18 29.12.2019
1521 Clouds 23 1022 53 10000 2.1 90 13:57 29.12.2019
1522 Clouds 21 1022 46 10000 1.5 0 13:37 29.12.2019
1523 Clouds 21 1022 46 10000 1.5 0 13:37 29.12.2019
1524 Clouds 22 1022 46 10000 1.5 0 13:19 29.12.2019
1525 Clouds 22 1022 53 10000 1.5 60 12:45 29.12.2019
1526 Clouds 22 1023 49 10000 0.5 0 12:26 29.12.2019
1527 Clouds 23 1022 49 10000 1 0 11:57 29.12.2019
1528 Clouds 23 1022 49 10000 1 0 11:38 29.12.2019
1529 Clouds 22 1022 49 10000 1 0 11:20 29.12.2019
1530 Clouds 22 1022 49 10000 0.5 0 10:43 29.12.2019
1531 Clouds 20 1021 45 10000 2.59 155 10:24 29.12.2019
1532 Clouds 20 1021 45 10000 1 0 09:58 29.12.2019
1533 Clouds 19 1021 51 10000 1 0 09:39 29.12.2019
1534 Clouds 18 1021 51 10000 1 0 09:21 29.12.2019
1535 Clouds 19 1020 48 10000 1 0 08:47 29.12.2019
1536 Clouds 18 1020 52 10000 1.5 290 08:27 29.12.2019
1537 Clear 18 1020 48 10000 2.1 310 07:55 29.12.2019
1538 Clear 18 1020 48 10000 1.5 320 07:28 29.12.2019
1539 Clear 18 1020 45 10000 2.1 310 06:56 29.12.2019
1540 Clear 18 1021 45 10000 2.6 320 06:26 29.12.2019
1541 Clear 18 1021 48 10000 2.1 310 05:52 29.12.2019
1542 Clear 19 1021 30 10000 2.1 330 04:36 29.12.2019
1543 Clear 21 1020 37 10000 2.6 320 03:54 29.12.2019
1544 Clear 20 1020 22 10000 2.6 320 03:20 29.12.2019
1545 Clouds 21 1021 24 10000 2.1 300 02:20 29.12.2019
1546 Clouds 20 1021 24 10000 3.1 300 01:31 29.12.2019
1547 Clouds 20 1021 25 10000 2.6 300 00:58 29.12.2019
1548 Clouds 20 1021 24 10000 1 0 00:40 29.12.2019
1549 Clouds 20 1021 24 10000 1 0 00:21 29.12.2019
1550 Clouds 19 1021 33 10000 1 0 23:43 28.12.2019
1551 Clouds 20 1021 24 10000 1 0 23:18 28.12.2019
1552 Clouds 21 1020 35 10000 2.1 300 22:39 28.12.2019
1553 Clouds 20 1020 35 10000 2.1 300 22:21 28.12.2019
1554 Clouds 21 1020 30 10000 2.1 300 21:58 28.12.2019
1555 Clouds 20 1020 42 10000 2.1 300 21:39 28.12.2019
1556 Clouds 20 1020 42 10000 2.1 300 21:21 28.12.2019
1557 Clouds 20 1019 63 10000 2.6 300 20:57 28.12.2019
1558 Clouds 20 1019 60 10000 1.5 320 20:37 28.12.2019
1559 Clouds 20 1019 60 10000 1.5 320 20:19 28.12.2019
1560 Clouds 20 1019 60 10000 1 0 19:56 28.12.2019
1561 Clouds 20 1019 64 10000 1.5 80 19:38 28.12.2019
1562 Clouds 20 1019 64 10000 1.5 80 19:19 28.12.2019
1563 Clouds 21 1019 60 10000 2.1 90 18:56 28.12.2019
1564 Clouds 21 1019 60 10000 2.1 90 18:56 28.12.2019
1565 Clouds 22 1019 56 10000 1.5 120 18:38 28.12.2019
1566 Clouds 22 1019 56 10000 1.5 120 18:18 28.12.2019
1567 Clouds 21 1019 56 10000 2.1 110 17:43 28.12.2019
1568 Clouds 23 1019 53 10000 2.1 140 17:22 28.12.2019
1569 Clouds 23 1019 53 10000 2.6 0 16:59 28.12.2019
1570 Clouds 23 1019 53 10000 3.1 130 16:41 28.12.2019
1571 Clouds 24 1019 53 10000 3.1 130 16:23 28.12.2019
1572 Clouds 24 1019 43 10000 2.1 150 15:43 28.12.2019
1573 Clouds 24 1019 43 10000 2.6 130 15:23 28.12.2019
1574 Clouds 24 1020 43 10000 2.6 150 14:56 28.12.2019
1575 Clouds 24 1020 43 10000 2.1 170 14:37 28.12.2019
1576 Clouds 23 1020 43 10000 2.1 170 14:19 28.12.2019
1577 Clouds 24 1021 43 10000 1.5 0 13:42 28.12.2019
1578 Clouds 24 1021 43 10000 1.5 0 13:21 28.12.2019
1579 Clouds 24 1021 43 10000 1.5 0 13:21 28.12.2019
1580 Clouds 24 1021 43 10000 1.5 0 12:58 28.12.2019
1581 Clouds 23 1021 43 10000 1.5 140 12:40 28.12.2019
1582 Clouds 23 1021 43 10000 1.5 140 12:21 28.12.2019
1583 Clouds 23 1021 46 10000 0.5 0 11:40 28.12.2019
1584 Clouds 23 1021 46 10000 0.5 0 11:22 28.12.2019
1585 Clouds 22 1021 43 10000 1 0 10:59 28.12.2019
1586 Clouds 22 1021 46 10000 1 0 10:41 28.12.2019
1587 Clouds 22 1021 46 10000 1 0 10:20 28.12.2019
1588 Clouds 21 1021 45 10000 2.1 310 09:55 28.12.2019
1589 Clouds 20 1020 45 10000 2.6 310 09:36 28.12.2019
1590 Clouds 20 1020 45 10000 2.6 310 09:18 28.12.2019
1591 Clouds 20 1020 42 10000 2.1 0 08:43 28.12.2019
1592 Clouds 21 1020 42 10000 2.6 330 08:24 28.12.2019
1593 Clear 21 1020 42 10000 2.6 330 07:48 28.12.2019
1594 Clear 20 1020 32 10000 1.5 340 07:23 28.12.2019
1595 Clear 21 1019 26 10000 2.6 310 05:51 28.12.2019
1596 Clear 21 1020 28 10000 2.1 330 03:48 28.12.2019
1597 Clear 21 1020 26 10000 2.6 290 02:51 28.12.2019
1598 Clear 21 1020 26 10000 2.6 300 02:20 28.12.2019
1599 Clear 21 1020 28 10000 3.1 310 01:56 28.12.2019
1600 Clear 21 1020 28 10000 3.1 310 01:23 28.12.2019
1601 Clear 21 1021 26 10000 2.6 310 00:48 28.12.2019
1602 Clear 21 1021 28 10000 2.6 300 00:30 28.12.2019
1603 Clear 21 1021 30 10000 3.6 300 23:58 27.12.2019
1604 Clear 21 1021 30 10000 3.6 320 23:39 27.12.2019
1605 Clear 21 1021 30 10000 3.6 320 23:19 27.12.2019
1606 Clear 21 1020 32 10000 3.1 320 22:56 27.12.2019
1607 Clear 21 1020 32 10000 3.6 330 22:37 27.12.2019
1608 Clear 20 1020 32 10000 3.6 330 22:19 27.12.2019
1609 Clear 20 1020 28 10000 3.6 350 21:43 27.12.2019
1610 Clear 20 1020 34 10000 3.1 340 21:25 27.12.2019
1611 Clear 21 1019 37 10000 3.6 340 20:57 27.12.2019
1612 Clear 21 1019 49 10000 2.1 360 20:38 27.12.2019
1613 Clear 21 1019 49 10000 2.1 360 20:20 27.12.2019
1614 Clear 23 1019 27 10000 2.19 119 19:41 27.12.2019
1615 Clear 24 1019 27 10000 2.19 119 19:20 27.12.2019
1616 Clear 24 1019 27 10000 2.19 119 19:20 27.12.2019
1617 Clear 24 1019 27 10000 0.5 0 18:57 27.12.2019
1618 Clear 24 1019 27 10000 1 0 18:37 27.12.2019
1619 Clear 24 1019 27 10000 1 0 18:19 27.12.2019
1620 Clear 25 1019 31 10000 1.5 60 17:55 27.12.2019
1621 Clear 25 1019 33 10000 1.5 0 17:37 27.12.2019
1622 Clear 24 1019 33 10000 1.5 0 17:18 27.12.2019
1623 Clear 25 1019 36 10000 1 0 16:43 27.12.2019
1624 Clear 24 1019 33 10000 1.5 0 16:23 27.12.2019
1625 Clear 25 1019 33 10000 2.1 60 15:58 27.12.2019
1626 Clear 25 1019 33 10000 2.1 90 15:37 27.12.2019
1627 Clear 25 1019 33 10000 2.1 90 15:19 27.12.2019
1628 Clear 25 1020 33 10000 1.5 0 14:56 27.12.2019
1629 Clear 25 1020 36 10000 1 0 14:38 27.12.2019
1630 Clouds 25 1020 36 10000 1 0 14:20 27.12.2019
1631 Clouds 25 1021 38 10000 1.5 0 13:47 27.12.2019
1632 Clouds 24 1021 40 10000 1.5 0 13:24 27.12.2019
1633 Clouds 24 1021 43 10000 1 0 12:56 27.12.2019
1634 Clouds 23 1021 46 10000 1.5 0 12:37 27.12.2019
1635 Clouds 23 1021 46 10000 1.5 0 12:18 27.12.2019
1636 Clouds 23 1021 46 10000 2.1 0 11:42 27.12.2019
1637 Clear 23 1021 43 10000 2.6 350 11:22 27.12.2019
1638 Clear 22 1021 40 10000 2.1 350 10:54 27.12.2019
1639 Clear 22 1021 40 10000 1 0 10:36 27.12.2019
1640 Clear 21 1021 40 10000 1 0 10:18 27.12.2019
1641 Clear 20 1020 34 10000 2.6 300 09:40 27.12.2019
1642 Clear 20 1020 34 10000 2.6 300 09:21 27.12.2019
1643 Clear 21 1020 35 10000 2.6 300 08:54 27.12.2019
1644 Clear 20 1019 32 10000 2.1 320 08:34 27.12.2019
1645 Clear 20 1019 29 10000 2.1 330 07:49 27.12.2019
1646 Clear 20 1019 32 10000 2.1 310 07:28 27.12.2019
1647 Clear 20 1019 34 10000 3.6 320 06:36 27.12.2019
1648 Clear 20 1019 36 10000 3.1 330 04:58 27.12.2019
1649 Clear 20 1019 32 10000 2.6 310 02:49 27.12.2019
1650 Clear 20 1020 39 10000 4.1 310 01:59 27.12.2019
1651 Clear 19 1020 45 10000 3.6 300 01:24 27.12.2019
1652 Clear 19 1020 48 10000 2.6 310 00:54 27.12.2019
1653 Clear 19 1020 52 10000 2.1 310 00:34 27.12.2019
1654 Clear 18 1020 59 10000 2.6 300 23:59 26.12.2019
1655 Clear 18 1020 52 10000 2.6 320 23:41 26.12.2019
1656 Clear 19 1020 52 10000 2.6 320 23:21 26.12.2019
1657 Clear 18 1020 48 10000 2.6 330 22:45 26.12.2019
1658 Clear 18 1020 59 10000 2.6 320 22:22 26.12.2019
1659 Clear 18 1020 48 10000 1.5 360 21:58 26.12.2019
1660 Clear 19 1019 45 10000 2.6 340 21:38 26.12.2019
1661 Clear 19 1019 45 10000 2.6 340 21:20 26.12.2019
1662 Clear 19 1019 52 10000 2.1 340 20:45 26.12.2019
1663 Clear 19 1019 52 10000 2.1 340 20:45 26.12.2019
1664 Clear 19 1019 63 10000 2.1 330 20:23 26.12.2019
1665 Clear 20 1019 64 10000 1.5 20 19:59 26.12.2019
1666 Clear 21 1018 64 10000 1 0 19:39 26.12.2019
1667 Clear 21 1018 64 10000 1 0 19:20 26.12.2019
1668 Clear 21 1018 60 10000 3.1 100 18:57 26.12.2019
1669 Clear 22 1018 43 10000 2.6 40 18:38 26.12.2019
1670 Clear 23 1018 43 10000 2.6 40 18:19 26.12.2019
1671 Clear 22 1018 46 10000 2.1 50 17:43 26.12.2019
1672 Clouds 23 1018 49 10000 2.1 70 17:22 26.12.2019
1673 Clouds 23 1018 46 10000 2.1 360 16:58 26.12.2019
1674 Clouds 23 1018 46 10000 1.5 30 16:39 26.12.2019
1675 Clouds 23 1018 46 10000 1.5 30 16:20 26.12.2019
1676 Clouds 23 1019 40 10000 2.6 30 15:41 26.12.2019
1677 Clouds 23 1019 40 10000 2.6 30 15:21 26.12.2019
1678 Clouds 23 1019 43 10000 3.1 20 14:58 26.12.2019
1679 Clouds 23 1020 43 10000 3.6 20 14:38 26.12.2019
1680 Clouds 23 1020 43 10000 3.6 20 14:20 26.12.2019
1681 Clouds 23 1020 40 10000 4.6 20 13:43 26.12.2019
1682 Clouds 23 1021 38 10000 5.1 10 13:21 26.12.2019
1683 Clouds 24 1021 31 10000 4.6 20 12:56 26.12.2019
1684 Clouds 24 1021 31 10000 4.6 20 12:56 26.12.2019
1685 Clouds 23 1021 43 10000 5.1 10 12:37 26.12.2019
1686 Clouds 23 1021 43 10000 5.1 10 12:19 26.12.2019
1687 Clouds 23 1021 43 10000 5.7 20 11:56 26.12.2019
1688 Clouds 23 1021 40 10000 4.1 10 11:37 26.12.2019
1689 Clouds 23 1021 40 10000 4.1 10 11:19 26.12.2019
1690 Clouds 22 1021 49 10000 4.6 20 10:41 26.12.2019
1691 Clouds 21 1021 49 10000 3.6 340 10:18 26.12.2019
1692 Clouds 21 1020 46 10000 3.1 350 09:45 26.12.2019
1693 Clouds 21 1020 49 10000 3.1 340 09:26 26.12.2019
1694 Clouds 21 1020 49 10000 2.6 330 08:42 26.12.2019
1695 Clouds 21 1019 49 10000 3.1 330 08:24 26.12.2019
1696 Clouds 21 1019 46 10000 3.1 340 07:53 26.12.2019
1697 Clouds 21 1019 46 10000 2.6 330 07:26 26.12.2019
1698 Clouds 21 1019 46 10000 2.6 350 06:52 26.12.2019
1699 Clouds 21 1019 49 10000 3.1 340 06:31 26.12.2019
1700 Clouds 21 1019 52 10000 3.6 350 05:45 26.12.2019
1701 Clouds 21 1019 56 10000 4.6 340 04:55 26.12.2019
1702 Clouds 21 1019 52 10000 4.1 340 04:29 26.12.2019
1703 Clouds 21 1020 42 10000 5.7 350 02:54 26.12.2019
1704 Clouds 21 1020 49 10000 5.1 350 02:34 26.12.2019
1705 Clouds 21 1020 52 10000 5.7 360 01:46 26.12.2019
1706 Clouds 22 1020 52 10000 5.1 10 01:28 26.12.2019
1707 Clouds 22 1020 52 10000 5.1 360 00:49 26.12.2019
1708 Clouds 22 1020 49 10000 6.2 10 00:25 26.12.2019
1709 Clouds 23 1020 40 10000 4.1 350 23:58 25.12.2019
1710 Clouds 22 1020 49 10000 5.7 360 23:39 25.12.2019
1711 Clouds 22 1020 49 10000 5.7 360 23:21 25.12.2019
1712 Clouds 20 1020 77 10000 6.7 20 22:58 25.12.2019
1713 Clouds 20 1020 77 10000 5.7 30 22:38 25.12.2019
1714 Clouds 20 1020 77 10000 5.7 30 22:20 25.12.2019
1715 Clouds 21 1019 60 10000 5.7 20 21:57 25.12.2019
1716 Clouds 21 1019 64 10000 8.2 30 21:39 25.12.2019
1717 Clouds 20 1019 64 10000 8.2 30 21:19 25.12.2019
1718 Clouds 20 1019 64 10000 4.6 350 20:41 25.12.2019
1719 Clouds 21 1019 68 10000 3.1 10 20:23 25.12.2019
1720 Clouds 21 1019 68 10000 3.1 10 20:22 25.12.2019
1721 Clouds 20 1020 68 10000 4.1 40 19:59 25.12.2019
1722 Clouds 20 1020 68 10000 4.1 40 19:41 25.12.2019
1723 Clouds 20 1020 68 10000 3.6 30 19:22 25.12.2019
1724 Clouds 20 1020 68 10000 3.6 30 19:22 25.12.2019
1725 Clouds 21 1020 64 10000 3.1 50 18:56 25.12.2019
1726 Clouds 21 1020 64 10000 2.6 60 18:36 25.12.2019
1727 Clouds 21 1020 64 10000 2.6 60 18:18 25.12.2019
1728 Clouds 21 1019 64 10000 1.5 90 17:40 25.12.2019
1729 Clouds 21 1019 64 10000 1.5 90 17:40 25.12.2019
1730 Clouds 21 1019 64 10000 1.5 90 17:18 25.12.2019
1731 Clouds 21 1019 68 10000 2.1 130 16:56 25.12.2019
1732 Clouds 21 1019 64 10000 1 0 16:37 25.12.2019
1733 Clouds 22 1019 64 10000 1 0 16:18 25.12.2019
1734 Clouds 23 1019 60 10000 1.5 140 15:56 25.12.2019
1735 Clouds 22 1019 64 10000 1.5 160 15:37 25.12.2019
1736 Clouds 22 1019 64 10000 1.5 160 15:18 25.12.2019
1737 Clouds 22 1019 64 10000 2.1 130 14:56 25.12.2019
1738 Clouds 22 1020 56 10000 2.1 130 14:37 25.12.2019
1739 Clouds 23 1020 56 10000 2.1 130 14:18 25.12.2019
1740 Clouds 24 1020 49 10000 1.5 0 13:42 25.12.2019
1741 Clouds 23 1020 56 10000 2.1 160 13:21 25.12.2019
1742 Clouds 23 1021 49 10000 2.1 0 12:55 25.12.2019
1743 Clouds 24 1021 49 10000 1.5 160 12:36 25.12.2019
1744 Clouds 24 1021 49 10000 1.5 160 12:18 25.12.2019
1745 Clouds 24 1021 53 10000 2.6 140 11:42 25.12.2019
1746 Clouds 22 1021 56 10000 2.6 120 11:22 25.12.2019
1747 Clouds 23 1021 46 10000 0.76 122 10:58 25.12.2019
1748 Clouds 23 1020 46 10000 1 0 10:36 25.12.2019
1749 Clouds 21 1020 46 10000 1 0 10:18 25.12.2019
1750 Clouds 21 1020 52 10000 1 0 09:43 25.12.2019
1751 Clouds 20 1019 52 10000 2.1 310 09:25 25.12.2019
1752 Clouds 20 1019 48 10000 2.1 310 08:45 25.12.2019
1753 Clouds 20 1019 42 10000 2.6 310 08:25 25.12.2019
1754 Clouds 19 1019 45 10000 0.97 316 07:45 25.12.2019
1755 Clouds 20 1019 45 10000 0.97 316 07:23 25.12.2019
1756 Clouds 20 1019 39 10000 1 0 06:41 25.12.2019
1757 Clouds 20 1019 37 10000 1.5 290 06:21 25.12.2019
1758 Clear 20 1019 32 10000 2.6 260 04:47 25.12.2019
1759 Clear 20 1019 32 10000 2.6 250 04:25 25.12.2019
1760 Clear 20 1019 42 10000 2.1 250 03:52 25.12.2019
1761 Clear 20 1019 45 10000 2.1 270 03:32 25.12.2019
1762 Clear 20 1019 39 10000 2.1 220 02:32 25.12.2019
1763 Clear 18 1019 51 10000 0.5 0 01:54 25.12.2019
1764 Clear 20 1019 48 10000 1.5 240 01:24 25.12.2019
1765 Clear 19 1020 72 10000 2.1 290 00:45 25.12.2019
1766 Clear 20 1020 52 10000 1 0 00:26 25.12.2019
1767 Clear 19 1020 39 10000 1.84 171 23:42 24.12.2019
1768 Clear 19 1019 55 10000 1 0 23:21 24.12.2019
1769 Clear 20 1019 45 10000 1 220 22:58 24.12.2019
1770 Clear 20 1019 48 10000 1 0 22:37 24.12.2019
1771 Clear 20 1019 48 10000 1 0 22:19 24.12.2019
1772 Clear 20 1019 52 10000 1.5 180 21:41 24.12.2019
1773 Clear 20 1019 52 10000 2.6 190 21:22 24.12.2019
1774 Clear 20 1018 55 10000 3.1 190 20:43 24.12.2019
1775 Clear 21 1018 49 10000 3.6 200 20:24 24.12.2019
1776 Clouds 22 1018 46 10000 3.6 190 19:57 24.12.2019
1777 Clouds 22 1018 49 10000 3.6 190 19:38 24.12.2019
1778 Clouds 22 1018 49 10000 3.6 190 19:18 24.12.2019
1779 Clouds 22 1018 56 10000 4.6 170 18:42 24.12.2019
1780 Clouds 22 1018 53 10000 5.7 170 18:20 24.12.2019
1781 Clouds 24 1018 44 10000 5.7 160 17:45 24.12.2019
1782 Clouds 24 1018 44 10000 5.7 160 17:24 24.12.2019
1783 Clouds 24 1018 44 10000 6.2 160 16:59 24.12.2019
1784 Clouds 25 1018 38 10000 7.2 160 16:40 24.12.2019
1785 Clouds 25 1018 38 10000 7.2 160 16:22 24.12.2019
1786 Clouds 25 1018 36 10000 7.7 160 15:58 24.12.2019
1787 Clouds 25 1018 36 10000 7.7 160 15:58 24.12.2019
1788 Clouds 26 1018 22 10000 5.7 180 15:38 24.12.2019
1789 Clouds 25 1018 22 10000 5.7 180 15:20 24.12.2019
1790 Clouds 24 1019 47 10000 5.1 160 14:59 24.12.2019
1791 Clouds 24 1019 47 10000 6.2 170 14:40 24.12.2019
1792 Clouds 25 1019 47 10000 6.2 170 14:22 24.12.2019
1793 Clouds 25 1019 50 10000 4.6 170 13:56 24.12.2019
1794 Clouds 23 1020 56 10000 4.1 150 13:38 24.12.2019
1795 Clouds 22 1020 56 10000 4.1 150 13:20 24.12.2019
1796 Clouds 22 1020 64 10000 2.6 160 12:57 24.12.2019
1797 Clouds 24 1021 64 10000 2.1 170 12:38 24.12.2019
1798 Clouds 23 1021 64 10000 2.1 170 12:19 24.12.2019
1799 Clouds 22 1021 73 10000 1.5 150 11:57 24.12.2019
1800 Clouds 22 1021 68 10000 1.5 150 11:38 24.12.2019
1801 Clouds 22 1021 68 10000 1.5 150 11:20 24.12.2019
1802 Clouds 22 1020 64 10000 3.75 188 10:57 24.12.2019
1803 Clouds 21 1020 60 10000 3.75 188 10:38 24.12.2019
1804 Clouds 22 1020 60 10000 3.75 188 10:20 24.12.2019
1805 Clouds 20 1020 63 10000 1 0 09:56 24.12.2019
1806 Clouds 19 1019 63 10000 1.5 290 09:38 24.12.2019
1807 Clouds 19 1019 63 10000 1.5 290 09:20 24.12.2019
1808 Clouds 18 1019 59 10000 2.1 320 08:47 24.12.2019
1809 Clouds 17 1020 63 10000 1 0 08:24 24.12.2019
1810 Clear 19 1019 52 10000 1 0 07:56 24.12.2019
1811 Clear 20 1019 52 10000 3.6 120 07:38 24.12.2019
1812 Clear 21 1019 52 10000 3.6 120 07:20 24.12.2019
1813 Clear 20 1019 49 10000 1.5 250 06:39 24.12.2019
1814 Clear 21 1019 49 10000 1.5 250 06:19 24.12.2019
1815 Clear 21 1019 40 10000 2.6 230 05:50 24.12.2019
1816 Clear 21 1020 40 10000 2.1 240 05:19 24.12.2019
1817 Clear 20 1020 45 10000 2.6 230 04:21 24.12.2019
1818 Clear 18 1020 42 10000 2.6 180 03:45 24.12.2019
1819 Clear 19 1020 36 10000 2.1 240 02:28 24.12.2019
1820 Clear 19 1021 48 10000 1.5 260 01:54 24.12.2019
1821 Clear 17 1021 67 10000 1.5 240 01:25 24.12.2019
1822 Clear 17 1021 82 10000 1 0 00:56 24.12.2019
1823 Clear 17 1021 72 10000 2.92 161 00:37 24.12.2019
1824 Clear 17 1021 72 10000 2.92 161 00:19 24.12.2019
1825 Clear 18 1021 72 10000 1.5 290 23:42 23.12.2019
1826 Clear 19 1021 88 10000 2.92 161 23:23 23.12.2019
1827 Clear 19 1021 82 10000 1.5 290 22:57 23.12.2019
1828 Clear 19 1021 88 10000 2.65 152 22:38 23.12.2019
1829 Clear 18 1021 88 10000 2.65 152 22:19 23.12.2019
1830 Clear 18 1021 88 10000 2.65 152 21:56 23.12.2019
1831 Clear 18 1021 82 10000 1 0 21:36 23.12.2019
1832 Clear 19 1021 82 10000 1 0 21:18 23.12.2019
1833 Clear 19 1021 82 10000 1.5 350 20:57 23.12.2019
1834 Clear 19 1021 88 10000 1 0 20:39 23.12.2019
1835 Clear 19 1021 88 10000 1 0 20:18 23.12.2019
1836 Clear 20 1020 82 10000 1.5 0 19:56 23.12.2019
1837 Clear 20 1020 82 10000 0.5 0 19:38 23.12.2019
1838 Clear 20 1020 82 10000 0.5 0 19:20 23.12.2019
1839 Clear 20 1020 82 10000 1.5 150 18:58 23.12.2019
1840 Clear 20 1020 82 10000 1.5 140 18:39 23.12.2019
1841 Clear 20 1020 82 10000 1.5 140 18:20 23.12.2019
1842 Clear 21 1020 77 10000 1.5 140 17:57 23.12.2019
1843 Clouds 21 1020 77 10000 2.1 120 17:39 23.12.2019
1844 Clouds 21 1020 77 10000 2.1 120 17:19 23.12.2019
1845 Clouds 21 1020 77 10000 2.1 120 16:55 23.12.2019
1846 Clouds 21 1020 77 10000 2.1 120 16:37 23.12.2019
1847 Clouds 21 1020 77 10000 2.1 120 16:18 23.12.2019
1848 Clouds 21 1020 77 10000 3.1 100 15:55 23.12.2019
1849 Clouds 21 1021 77 10000 3.1 100 15:36 23.12.2019
1850 Clouds 21 1021 77 10000 3.1 100 15:18 23.12.2019
1851 Clouds 21 1021 82 10000 2.1 110 14:45 23.12.2019
1852 Clouds 21 1022 77 10000 2.1 120 14:26 23.12.2019
1853 Clouds 21 1022 77 10000 3.1 130 13:59 23.12.2019
1854 Clouds 21 1023 77 10000 3.1 150 13:41 23.12.2019
1855 Clouds 21 1023 77 10000 3.1 150 13:22 23.12.2019
1856 Clouds 21 1023 73 10000 1.5 170 12:59 23.12.2019
1857 Clouds 21 1023 77 10000 1.5 140 12:40 23.12.2019
1858 Clouds 21 1023 77 10000 1.5 140 12:21 23.12.2019
1859 Clouds 21 1023 77 10000 1.5 140 12:21 23.12.2019
1860 Clouds 21 1023 77 10000 2.1 110 11:55 23.12.2019
1861 Clouds 21 1023 77 10000 3.68 164 11:37 23.12.2019
1862 Clouds 21 1023 77 10000 2.48 168 11:18 23.12.2019
1863 Clouds 20 1023 82 10000 0.5 0 10:54 23.12.2019
1864 Clouds 19 1022 88 10000 1.5 250 10:36 23.12.2019
1865 Clouds 19 1022 88 10000 1.5 250 10:18 23.12.2019
1866 Clouds 17 1022 88 10000 2.1 290 09:40 23.12.2019
1867 Clouds 17 1022 88 10000 2.1 290 09:22 23.12.2019
1868 Clouds 17 1022 82 10000 1.5 300 08:59 23.12.2019
1869 Clouds 17 1022 88 10000 0.5 0 08:40 23.12.2019
1870 Clouds 17 1022 88 10000 0.5 0 08:22 23.12.2019
1871 Clouds 17 1021 88 10000 2.6 290 07:48 23.12.2019
1872 Clouds 17 1021 88 10000 2.1 300 07:21 23.12.2019
1873 Clouds 17 1021 88 10000 2.1 300 06:57 23.12.2019
1874 Clouds 17 1021 88 10000 2.6 310 06:30 23.12.2019
1875 Clouds 17 1021 88 10000 2.1 320 05:56 23.12.2019
1876 Clouds 18 1022 82 10000 2.1 310 05:30 23.12.2019
1877 Clouds 18 1022 88 10000 2.1 310 04:39 23.12.2019
1878 Clouds 19 1022 88 10000 3.6 60 03:28 23.12.2019
1879 Clouds 19 1022 82 10000 4.6 40 02:43 23.12.2019
1880 Clouds 19 1022 82 10000 5.7 40 02:19 23.12.2019
1881 Clouds 20 1023 77 10000 7.2 20 01:44 23.12.2019
1882 Clouds 20 1023 77 10000 6.7 20 01:26 23.12.2019
1883 Clouds 21 1023 73 10000 7.2 350 00:44 23.12.2019
1884 Clouds 20 1023 68 10000 7.2 360 00:24 23.12.2019
1885 Clouds 20 1023 77 10000 8.2 350 23:40 22.12.2019
1886 Clouds 20 1023 77 10000 8.2 350 23:22 22.12.2019
1887 Clouds 20 1023 77 10000 8.2 360 22:58 22.12.2019
1888 Clouds 20 1024 77 10000 7.2 350 22:40 22.12.2019
1889 Clouds 18 1024 77 10000 7.2 350 22:22 22.12.2019
1890 Clouds 19 1024 77 10000 7.7 360 21:59 22.12.2019
1891 Clouds 19 1023 77 10000 9.8 340 21:40 22.12.2019
1892 Clouds 18 1023 77 10000 9.8 340 21:21 22.12.2019
1893 Clouds 19 1023 77 10000 8.2 360 20:59 22.12.2019
1894 Clouds 20 1023 77 10000 8.2 360 20:39 22.12.2019
1895 Clouds 20 1023 77 10000 8.2 360 20:19 22.12.2019
1896 Clouds 20 1023 77 10000 9.3 360 19:57 22.12.2019
1897 Clouds 21 1023 73 10000 9.8 10 19:39 22.12.2019
1898 Clouds 20 1023 73 10000 9.8 10 19:19 22.12.2019
1899 Clouds 21 1023 73 10000 8.7 360 18:42 22.12.2019
1900 Clouds 21 1023 68 10000 9.8 10 18:24 22.12.2019
1901 Clouds 22 1023 64 10000 8.7 360 17:56 22.12.2019
1902 Clouds 22 1023 64 10000 8.7 360 17:56 22.12.2019
1903 Clouds 22 1023 64 10000 9.3 360 17:38 22.12.2019
1904 Clouds 21 1023 64 10000 9.3 360 17:19 22.12.2019
1905 Clouds 21 1023 64 10000 9.3 360 17:19 22.12.2019
1906 Clouds 22 1023 64 10000 9.3 10 16:57 22.12.2019
1907 Clouds 22 1023 64 10000 8.7 10 16:39 22.12.2019
1908 Clouds 22 1023 64 10000 8.7 10 16:21 22.12.2019
1909 Clouds 23 1023 60 10000 9.3 360 15:56 22.12.2019
1910 Clouds 22 1023 64 10000 9.8 10 15:38 22.12.2019
1911 Clouds 22 1023 64 10000 9.8 10 15:20 22.12.2019
1912 Clouds 22 1024 60 10000 8.7 360 14:55 22.12.2019
1913 Clouds 23 1024 56 10000 7.2 360 14:37 22.12.2019
1914 Clouds 23 1024 56 10000 7.2 360 14:18 22.12.2019
1915 Clouds 21 1025 60 10000 7.7 350 13:55 22.12.2019
1916 Clouds 21 1025 60 10000 7.2 350 13:36 22.12.2019
1917 Clouds 21 1025 60 10000 7.2 350 13:36 22.12.2019
1918 Clouds 21 1025 60 10000 7.2 350 13:18 22.12.2019
1919 Clouds 21 1025 64 10000 7.7 360 12:55 22.12.2019
1920 Clouds 21 1025 64 10000 7.7 360 12:55 22.12.2019
1921 Clouds 21 1026 68 10000 6.7 360 12:37 22.12.2019
1922 Clouds 21 1026 68 10000 6.7 360 12:18 22.12.2019
1923 Clouds 21 1026 64 10000 6.2 10 11:55 22.12.2019
1924 Clouds 21 1026 64 10000 6.2 10 11:36 22.12.2019
1925 Clouds 21 1026 64 10000 6.2 10 11:18 22.12.2019
1926 Clouds 21 1025 64 10000 5.1 350 10:54 22.12.2019
1927 Clouds 20 1025 68 10000 5.7 10 10:36 22.12.2019
1928 Clouds 20 1025 68 10000 5.7 10 10:18 22.12.2019
1929 Clouds 19 1024 63 10000 4.6 360 09:41 22.12.2019
1930 Clouds 18 1024 63 10000 4.6 360 09:22 22.12.2019
1931 Clouds 18 1024 63 10000 4.6 360 08:59 22.12.2019
1932 Clouds 18 1024 60 10000 6.2 10 08:38 22.12.2019
1933 Clouds 18 1024 60 10000 6.2 10 08:38 22.12.2019
1934 Clouds 19 1024 60 10000 6.2 10 08:20 22.12.2019
1935 Clouds 18 1023 68 10000 6.7 10 07:39 22.12.2019
1936 Clouds 18 1023 68 10000 6.7 10 07:20 22.12.2019
1937 Clouds 19 1024 68 10000 7.2 20 06:41 22.12.2019
1938 Clouds 18 1024 72 10000 6.2 20 05:54 22.12.2019
1939 Clouds 19 1024 77 10000 5.7 20 05:23 22.12.2019
1940 Clouds 19 1024 77 10000 5.7 360 04:30 22.12.2019
1941 Clouds 19 1024 77 10000 5.1 360 03:56 22.12.2019
1942 Clouds 19 1025 82 10000 5.1 10 02:42 22.12.2019
1943 Clouds 19 1025 82 10000 5.1 10 02:42 22.12.2019
1944 Clouds 19 1025 82 10000 7.2 10 01:51 22.12.2019
1945 Clouds 19 1025 77 10000 6.2 10 01:30 22.12.2019
1946 Clouds 19 1025 77 10000 6.2 10 01:30 22.12.2019
1947 Clouds 19 1025 72 10000 6.2 360 00:47 22.12.2019
1948 Clouds 19 1025 72 10000 7.2 360 00:24 22.12.2019
1949 Clouds 19 1025 72 10000 6.7 360 23:57 21.12.2019
1950 Clouds 19 1025 72 10000 6.7 360 23:38 21.12.2019
1951 Clouds 19 1025 72 10000 6.7 360 23:19 21.12.2019
1952 Clouds 19 1025 72 10000 7.2 350 22:41 21.12.2019
1953 Clouds 19 1025 68 10000 6.2 360 22:19 21.12.2019
1954 Clouds 19 1024 68 10000 6.7 10 21:57 21.12.2019
1955 Clouds 19 1024 68 10000 6.7 360 21:38 21.12.2019
1956 Clouds 19 1024 68 10000 6.7 360 21:19 21.12.2019
1957 Clouds 19 1024 68 10000 6.2 10 20:59 21.12.2019
1958 Clouds 20 1024 72 10000 6.2 10 20:39 21.12.2019
1959 Clouds 20 1024 72 10000 6.2 10 20:21 21.12.2019
1960 Clouds 20 1024 72 10000 5.7 10 19:58 21.12.2019
1961 Clouds 20 1024 72 10000 6.7 10 19:40 21.12.2019
1962 Clouds 20 1024 72 10000 6.7 10 19:19 21.12.2019
1963 Clouds 20 1024 73 10000 6.7 20 18:45 21.12.2019
1964 Clouds 20 1024 73 10000 7.2 30 18:24 21.12.2019
1965 Clouds 21 1023 68 10000 7.2 30 17:57 21.12.2019
1966 Clouds 21 1023 68 10000 7.2 30 17:57 21.12.2019
1967 Clouds 21 1023 68 10000 7.2 30 17:39 21.12.2019
1968 Clouds 21 1023 68 10000 7.2 30 17:21 21.12.2019
1969 Clouds 21 1023 68 10000 7.2 30 16:59 21.12.2019
1970 Clouds 21 1023 68 10000 7.2 30 16:41 21.12.2019
1971 Clouds 21 1023 68 10000 6.7 30 16:19 21.12.2019
1972 Clouds 21 1023 68 10000 6.2 30 15:57 21.12.2019
1973 Clouds 22 1024 64 10000 6.2 30 15:38 21.12.2019
1974 Clouds 22 1024 64 10000 6.2 30 15:19 21.12.2019
1975 Clouds 21 1024 64 10000 6.2 40 14:56 21.12.2019
1976 Clouds 22 1024 60 10000 6.2 40 14:37 21.12.2019
1977 Clouds 22 1024 60 10000 6.2 40 14:18 21.12.2019
1978 Clouds 22 1025 60 10000 6.7 40 13:55 21.12.2019
1979 Clouds 21 1025 64 10000 5.7 40 13:37 21.12.2019
1980 Clouds 21 1025 64 10000 5.7 40 13:18 21.12.2019
1981 Clouds 21 1025 64 10000 5.7 40 12:54 21.12.2019
1982 Clouds 21 1025 68 10000 5.7 40 12:36 21.12.2019
1983 Clouds 21 1025 68 10000 5.7 40 12:18 21.12.2019
1984 Clouds 21 1025 64 10000 4.1 20 11:41 21.12.2019
1985 Clouds 20 1025 68 10000 4.1 10 11:23 21.12.2019
1986 Clouds 20 1025 68 10000 3.1 360 10:54 21.12.2019
1987 Clouds 19 1025 72 10000 1 0 10:36 21.12.2019
1988 Clouds 18 1025 72 10000 1 0 10:18 21.12.2019
1989 Clouds 15 1024 82 10000 2.79 335 09:42 21.12.2019
1990 Clouds 16 1024 72 10000 2.1 310 09:21 21.12.2019
1991 Clouds 16 1024 77 10000 1.5 320 08:57 21.12.2019
1992 Clouds 16 1023 82 10000 2.6 330 08:37 21.12.2019
1993 Clouds 15 1023 82 10000 2.6 330 08:18 21.12.2019
1994 Clouds 16 1023 82 10000 1.5 290 07:41 21.12.2019
1995 Clouds 15 1023 82 10000 1.5 290 07:22 21.12.2019
1996 Clouds 15 1023 82 10000 2.1 310 06:44 21.12.2019
1997 Clouds 16 1023 82 10000 2.6 330 06:25 21.12.2019
1998 Clouds 15 1023 82 10000 2.6 340 05:47 21.12.2019
1999 Clouds 16 1023 87 10000 2.6 320 04:58 21.12.2019
2000 Clouds 16 1023 82 10000 3.1 330 03:57 21.12.2019
2001 Clouds 15 1023 82 10000 2.6 320 02:51 21.12.2019
2002 Clouds 17 1023 77 10000 2.1 310 01:57 21.12.2019
2003 Clouds 16 1024 82 10000 1.5 310 01:27 21.12.2019
2004 Clouds 17 1024 82 10000 1 0 00:52 21.12.2019
2005 Clouds 17 1024 82 10000 1 0 00:32 21.12.2019
2006 Clouds 17 1024 88 10000 2.6 340 23:57 20.12.2019
2007 Clouds 17 1024 82 10000 2.6 320 23:37 20.12.2019
2008 Clouds 17 1024 82 10000 2.6 320 23:18 20.12.2019
2009 Clouds 17 1024 82 10000 1.5 320 22:40 20.12.2019
2010 Clouds 18 1024 82 10000 1.5 320 22:21 20.12.2019
2011 Clouds 18 1023 82 10000 0.98 5 21:57 20.12.2019
2012 Clouds 18 1023 82 10000 1.5 0 21:39 20.12.2019
2013 Clouds 18 1023 82 10000 1.5 0 21:19 20.12.2019
2014 Clouds 19 1023 77 10000 2.1 180 20:39 20.12.2019
2015 Clouds 19 1023 77 10000 2.1 180 20:19 20.12.2019
2016 Clouds 19 1022 77 10000 2.1 150 19:58 20.12.2019
2017 Clouds 19 1022 77 10000 2.1 150 19:40 20.12.2019
2018 Clouds 19 1022 77 10000 2.1 150 19:40 20.12.2019
2019 Clouds 19 1022 77 10000 2.1 150 19:19 20.12.2019
2020 Clouds 20 1022 77 10000 2.1 160 18:42 20.12.2019
2021 Clouds 20 1022 77 10000 2.6 160 18:24 20.12.2019
2022 Clouds 20 1022 77 10000 3.6 160 17:59 20.12.2019
2023 Clouds 20 1022 77 10000 3.6 160 17:41 20.12.2019
2024 Clouds 20 1022 77 10000 4.6 160 17:21 20.12.2019
2025 Clouds 21 1021 73 10000 4.6 160 16:59 20.12.2019
2026 Clouds 20 1021 73 10000 4.6 160 16:39 20.12.2019
2027 Clouds 20 1022 77 10000 4.1 160 16:20 20.12.2019
2028 Clouds 20 1022 77 10000 3.6 160 15:56 20.12.2019
2029 Clouds 20 1022 77 10000 3.6 160 15:38 20.12.2019
2030 Clouds 20 1022 77 10000 3.1 160 15:19 20.12.2019
2031 Clouds 20 1022 77 10000 3.1 160 15:19 20.12.2019
2032 Clouds 20 1023 77 10000 3.1 160 14:54 20.12.2019
2033 Clouds 20 1023 77 10000 3.1 160 14:36 20.12.2019
2034 Clouds 20 1023 73 10000 3.1 160 14:18 20.12.2019
2035 Clouds 20 1024 73 10000 2.6 140 13:41 20.12.2019
2036 Clouds 20 1024 73 10000 2.6 140 13:20 20.12.2019
2037 Clouds 21 1024 73 10000 2.6 130 12:57 20.12.2019
2038 Clouds 21 1024 73 10000 2.6 130 12:38 20.12.2019
2039 Clouds 20 1025 77 10000 2.1 120 12:19 20.12.2019
2040 Clouds 20 1025 77 10000 1.5 110 11:58 20.12.2019
2041 Clouds 20 1025 77 10000 1.5 110 11:39 20.12.2019
2042 Clouds 20 1024 77 10000 0.5 0 11:19 20.12.2019
2043 Clouds 19 1024 77 10000 2.1 360 10:57 20.12.2019
2044 Clouds 19 1024 77 10000 2.1 360 10:39 20.12.2019
2045 Clouds 18 1024 82 10000 2.1 330 10:20 20.12.2019
2046 Clouds 17 1023 77 10000 2.1 330 09:44 20.12.2019
2047 Clouds 17 1023 77 10000 2.1 330 09:44 20.12.2019
2048 Clouds 17 1023 77 10000 2.1 310 09:22 20.12.2019
2049 Clouds 16 1023 82 10000 2.6 310 08:59 20.12.2019
2050 Clouds 16 1023 82 10000 2.6 310 08:41 20.12.2019
2051 Clouds 16 1023 77 10000 2.1 300 08:22 20.12.2019
2052 Clouds 16 1023 82 10000 3.1 300 07:58 20.12.2019
2053 Clouds 15 1023 82 10000 3.1 300 07:39 20.12.2019
2054 Clouds 15 1022 82 10000 2.6 300 07:18 20.12.2019
2055 Clouds 15 1022 77 10000 2.1 300 06:48 20.12.2019
2056 Clouds 15 1022 77 10000 2.1 300 06:48 20.12.2019
2057 Clouds 16 1023 72 10000 3.1 310 06:30 20.12.2019
2058 Clouds 16 1022 77 10000 2.6 280 05:49 20.12.2019
2059 Clouds 16 1023 77 10000 2.6 270 05:21 20.12.2019
2060 Clouds 16 1023 82 10000 2.6 270 03:50 20.12.2019
2061 Clear 16 1023 77 10000 1.5 260 03:28 20.12.2019
2062 Clear 17 1023 77 10000 3.1 250 02:33 20.12.2019
2063 Clear 17 1023 77 10000 2.6 250 01:36 20.12.2019
2064 Clouds 18 1024 77 10000 2.1 300 00:58 20.12.2019
2065 Clouds 18 1024 77 10000 2.1 300 00:39 20.12.2019
2066 Clouds 18 1024 82 10000 1.5 300 23:59 19.12.2019
2067 Clouds 18 1024 82 10000 1.5 300 23:40 19.12.2019
2068 Clouds 18 1024 82 10000 2.1 20 23:22 19.12.2019
2069 Clouds 18 1024 77 10000 3.6 40 22:41 19.12.2019
2070 Clouds 19 1023 77 10000 3.6 50 22:23 19.12.2019
2071 Clouds 19 1023 72 10000 5.1 30 21:59 19.12.2019
2072 Clouds 19 1023 72 10000 5.1 30 21:59 19.12.2019
2073 Clouds 19 1023 72 10000 5.1 30 21:41 19.12.2019
2074 Clouds 19 1023 77 10000 4.6 30 21:20 19.12.2019
2075 Clouds 19 1022 77 10000 5.1 20 20:58 19.12.2019
2076 Clouds 19 1022 77 10000 5.1 20 20:38 19.12.2019
2077 Clouds 19 1022 72 10000 3.6 360 20:20 19.12.2019
2078 Clouds 19 1021 72 10000 0.5 0 19:59 19.12.2019
2079 Clouds 19 1021 72 10000 0.5 0 19:59 19.12.2019
2080 Clouds 19 1021 72 10000 0.5 0 19:40 19.12.2019
2081 Clouds 19 1021 72 10000 4.1 200 19:20 19.12.2019
2082 Clouds 20 1021 72 10000 5.1 180 18:59 19.12.2019
2083 Clouds 20 1021 72 10000 5.1 180 18:40 19.12.2019
2084 Clouds 20 1021 68 10000 5.7 190 18:20 19.12.2019
2085 Clouds 21 1020 68 10000 7.2 180 17:56 19.12.2019
2086 Clouds 20 1020 68 10000 7.2 180 17:38 19.12.2019
2087 Clouds 20 1021 68 10000 7.7 190 17:18 19.12.2019
2088 Clouds 20 1021 68 10000 6.7 160 16:56 19.12.2019
2089 Clouds 20 1021 68 10000 6.7 160 16:56 19.12.2019
2090 Clouds 20 1021 68 10000 6.7 160 16:56 19.12.2019
2091 Clouds 21 1021 73 10000 6.2 160 16:38 19.12.2019
2092 Clouds 21 1021 73 10000 6.2 160 16:19 19.12.2019
2093 Clouds 21 1021 73 10000 6.2 160 16:19 19.12.2019
2094 Clouds 21 1021 68 10000 6.2 160 15:58 19.12.2019
2095 Clouds 21 1021 68 10000 6.2 160 15:38 19.12.2019
2096 Clouds 21 1021 68 10000 5.1 150 15:19 19.12.2019
2097 Clouds 20 1022 73 10000 5.1 150 14:57 19.12.2019
2098 Clouds 20 1022 73 10000 5.1 150 14:39 19.12.2019
2099 Clouds 20 1022 73 10000 5.7 160 14:18 19.12.2019
2100 Clouds 21 1023 73 10000 5.1 160 13:39 19.12.2019
2101 Clouds 21 1023 73 10000 5.1 160 13:20 19.12.2019
2102 Clouds 21 1023 73 10000 5.1 160 13:20 19.12.2019
2103 Clouds 20 1023 77 10000 5.7 160 12:58 19.12.2019
2104 Clouds 20 1023 77 10000 5.7 160 12:40 19.12.2019
2105 Clouds 20 1023 68 10000 2.6 0 12:19 19.12.2019
2106 Clouds 20 1023 64 10000 1.5 130 11:59 19.12.2019
2107 Clouds 19 1023 64 10000 1.5 130 11:41 19.12.2019
2108 Clouds 19 1023 68 10000 1.5 0 11:19 19.12.2019
2109 Clouds 19 1023 68 10000 0.5 0 10:59 19.12.2019
2110 Clouds 19 1023 68 10000 0.5 0 10:38 19.12.2019
2111 Clouds 17 1023 77 10000 1 0 10:20 19.12.2019
2112 Clouds 16 1023 77 10000 0.5 0 09:56 19.12.2019
2113 Clouds 16 1023 77 10000 0.5 0 09:37 19.12.2019
2114 Clouds 15 1022 82 10000 1.5 220 09:37 19.12.2019
2115 Clouds 15 1022 82 10000 1.5 220 09:19 19.12.2019
2116 Clouds 15 1022 77 10000 1.5 280 08:55 19.12.2019
2117 Clouds 15 1022 77 10000 1.5 280 08:36 19.12.2019
2118 Clouds 15 1022 77 10000 3.6 210 08:18 19.12.2019
2119 Clouds 15 1021 82 10000 1 0 07:40 19.12.2019
2120 Clouds 16 1021 82 10000 1 0 07:22 19.12.2019
2121 Clouds 15 1021 82 10000 1 240 06:54 19.12.2019
2122 Clouds 15 1021 82 10000 1 240 06:36 19.12.2019
2123 Clouds 15 1021 82 10000 1 190 06:18 19.12.2019
2124 Clouds 15 1021 82 10000 0.45 309 05:42 19.12.2019
2125 Clouds 16 1022 77 10000 1.5 260 05:18 19.12.2019
2126 Clouds 16 1022 82 10000 2.1 290 03:51 19.12.2019
2127 Clouds 17 1022 77 10000 1.5 300 02:25 19.12.2019
2128 Clouds 17 1023 82 10000 2.1 300 01:24 19.12.2019
2129 Clouds 17 1023 82 10000 2.1 300 00:55 19.12.2019
2130 Clouds 17 1023 82 10000 2.1 300 00:36 19.12.2019
2131 Clouds 17 1023 77 10000 1 0 00:18 19.12.2019
2132 Clouds 17 1023 82 10000 1.5 310 23:43 18.12.2019
2133 Clouds 17 1023 82 10000 1.5 310 23:43 18.12.2019
2134 Clouds 17 1022 77 10000 1 0 23:19 18.12.2019
2135 Clouds 18 1023 72 10000 1 0 22:56 18.12.2019
2136 Clouds 18 1023 72 10000 1 0 22:38 18.12.2019
2137 Clouds 18 1023 77 10000 1.5 90 22:20 18.12.2019
2138 Clouds 19 1023 72 10000 1.5 60 21:57 18.12.2019
2139 Clouds 19 1023 72 10000 1.5 60 21:39 18.12.2019
2140 Clouds 19 1023 72 10000 1.5 60 21:39 18.12.2019
2141 Clouds 19 1022 68 10000 0.5 180 21:20 18.12.2019
2142 Clouds 19 1022 68 10000 2.1 180 20:55 18.12.2019
2143 Clouds 19 1022 68 10000 2.1 180 20:37 18.12.2019
2144 Clouds 19 1022 68 10000 2.1 180 20:37 18.12.2019
2145 Clouds 19 1021 72 10000 3.6 180 20:19 18.12.2019
2146 Clouds 19 1021 72 10000 2.6 160 19:55 18.12.2019
2147 Clouds 19 1021 72 10000 2.6 160 19:37 18.12.2019
2148 Clouds 19 1021 77 10000 2.1 140 19:18 18.12.2019
2149 Clouds 20 1021 72 10000 1.5 120 18:45 18.12.2019
2150 Clouds 19 1021 77 10000 1.5 140 18:25 18.12.2019
2151 Clouds 20 1021 72 10000 2.1 160 17:57 18.12.2019
2152 Clouds 20 1021 72 10000 2.1 160 17:39 18.12.2019
2153 Clouds 20 1020 72 10000 2.6 160 17:20 18.12.2019
2154 Clouds 20 1020 72 10000 3.1 170 16:57 18.12.2019
2155 Clouds 20 1020 72 10000 3.1 170 16:57 18.12.2019
2156 Clouds 20 1020 72 10000 3.6 150 16:38 18.12.2019
2157 Clouds 20 1020 72 10000 3.6 150 16:20 18.12.2019
2158 Clouds 20 1020 68 10000 3.6 160 15:55 18.12.2019
2159 Clouds 20 1020 68 10000 4.1 160 15:37 18.12.2019
2160 Clouds 20 1020 68 10000 4.1 160 15:37 18.12.2019
2161 Clouds 20 1020 68 10000 4.1 160 15:19 18.12.2019
2162 Clouds 20 1021 64 10000 4.1 160 14:42 18.12.2019
2163 Clouds 20 1021 64 10000 4.6 160 14:22 18.12.2019
2164 Clouds 20 1022 64 10000 4.1 160 13:57 18.12.2019
2165 Clouds 20 1022 64 10000 3.6 160 13:39 18.12.2019
2166 Clouds 20 1022 64 10000 3.6 160 13:20 18.12.2019
2167 Clouds 20 1023 60 10000 3.1 140 12:58 18.12.2019
2168 Clouds 20 1023 64 10000 2.6 130 12:38 18.12.2019
2169 Clouds 20 1023 64 10000 2.6 130 12:38 18.12.2019
2170 Clouds 20 1023 64 10000 2.6 130 12:20 18.12.2019
2171 Clouds 20 1023 64 10000 2.6 130 11:56 18.12.2019
2172 Clouds 20 1023 64 10000 0.5 0 11:38 18.12.2019
2173 Clouds 20 1023 64 10000 0.5 0 11:19 18.12.2019
2174 Clouds 19 1022 63 10000 1.5 0 10:55 18.12.2019
2175 Clouds 19 1022 63 10000 2.6 260 10:37 18.12.2019
2176 Clouds 18 1022 63 10000 2.6 260 10:19 18.12.2019
2177 Clouds 16 1022 67 10000 3.1 260 09:50 18.12.2019
2178 Clouds 15 1022 77 10000 2.6 270 09:18 18.12.2019
2179 Clouds 15 1021 77 10000 3.1 270 08:41 18.12.2019
2180 Clouds 15 1021 77 10000 3.1 270 08:22 18.12.2019
2181 Clouds 16 1021 72 10000 2.6 280 07:45 18.12.2019
2182 Clouds 16 1021 72 10000 2.6 280 07:24 18.12.2019
2183 Clouds 16 1020 72 10000 2.6 280 06:57 18.12.2019
2184 Clouds 16 1020 72 10000 2.6 280 06:28 18.12.2019
2185 Clouds 16 1020 72 10000 3.1 290 05:57 18.12.2019
2186 Clear 16 1020 72 10000 2.6 290 04:59 18.12.2019
2187 Clear 16 1020 77 10000 3.1 270 02:55 18.12.2019
2188 Clear 16 1020 72 10000 2.6 270 02:37 18.12.2019
2189 Clear 16 1020 72 10000 2.6 270 02:18 18.12.2019
2190 Clear 17 1021 72 10000 2.1 310 01:41 18.12.2019
2191 Clear 17 1021 72 10000 2.1 310 01:22 18.12.2019
2192 Clear 17 1021 72 10000 2.1 310 01:22 18.12.2019
2193 Clear 17 1021 72 10000 2.1 260 00:41 18.12.2019
2194 Clear 17 1021 72 10000 2.1 260 00:23 18.12.2019
2195 Clear 17 1021 72 10000 1 0 23:57 17.12.2019
2196 Clear 17 1021 72 10000 2.6 300 23:38 17.12.2019
2197 Clear 17 1021 72 10000 2.6 300 23:19 17.12.2019
2198 Clear 17 1021 72 10000 2.1 280 22:56 17.12.2019
2199 Clouds 17 1020 67 10000 2.1 300 22:38 17.12.2019
2200 Clouds 17 1020 67 10000 2.1 300 22:19 17.12.2019
2201 Clouds 18 1020 63 10000 2.6 330 21:55 17.12.2019
2202 Clouds 18 1020 68 10000 3.6 360 21:37 17.12.2019
2203 Clouds 18 1020 68 10000 3.6 360 21:37 17.12.2019
2204 Clouds 18 1020 68 10000 3.6 360 21:19 17.12.2019
2205 Clouds 18 1020 68 10000 5.1 350 20:56 17.12.2019
2206 Clouds 18 1020 68 10000 4.6 360 20:38 17.12.2019
2207 Clouds 19 1020 68 10000 4.6 360 20:18 17.12.2019
2208 Clouds 19 1019 68 10000 5.1 350 19:55 17.12.2019
2209 Clouds 19 1019 60 10000 7.7 10 19:37 17.12.2019
2210 Clouds 20 1019 60 10000 7.7 10 19:18 17.12.2019
2211 Clouds 20 1018 60 10000 9.3 360 18:42 17.12.2019
2212 Clouds 20 1018 60 10000 9.3 360 18:42 17.12.2019
2213 Clouds 20 1018 56 10000 9.8 10 18:22 17.12.2019
2214 Clouds 21 1018 60 10000 10.8 20 17:59 17.12.2019
2215 Clouds 21 1018 56 10000 10.3 30 17:41 17.12.2019
2216 Clouds 21 1018 56 10000 10.3 30 17:19 17.12.2019
2217 Clouds 21 1018 53 10000 9.3 20 16:56 17.12.2019
2218 -273 0 0 0 0 0 16:37 17.12.2019
2219 Clouds 21 1018 49 10000 9.3 10 16:19 17.12.2019
2220 Clouds 22 1019 43 10000 8.2 360 15:56 17.12.2019
2221 Clouds 22 1019 43 10000 7.7 360 15:37 17.12.2019
2222 Clouds 22 1019 43 10000 7.7 360 15:19 17.12.2019
2223 Clouds 22 1019 43 10000 7.7 10 14:55 17.12.2019
2224 Clouds 22 1020 40 10000 8.2 360 14:37 17.12.2019
2225 Clouds 22 1020 40 10000 8.2 360 14:18 17.12.2019
2226 Clouds 21 1020 46 10000 7.7 350 13:55 17.12.2019
2227 Clouds 21 1020 49 10000 7.7 350 13:37 17.12.2019
2228 Clouds 21 1020 49 10000 7.7 350 13:18 17.12.2019
2229 Clouds 21 1021 52 10000 7.2 340 12:41 17.12.2019
2230 Clouds 20 1021 52 10000 7.2 340 12:19 17.12.2019
2231 Clouds 20 1021 56 10000 6.2 360 11:59 17.12.2019
2232 Clouds 20 1021 56 10000 6.2 360 11:59 17.12.2019
2233 Clouds 20 1020 56 10000 5.7 350 11:38 17.12.2019
2234 Clouds 20 1020 56 10000 5.7 350 11:19 17.12.2019
2235 Clouds 19 1020 59 10000 5.1 350 10:59 17.12.2019
2236 Clouds 19 1019 63 10000 4.1 350 10:41 17.12.2019
2237 Clouds 19 1019 63 10000 4.1 350 10:41 17.12.2019
2238 Clouds 18 1019 63 10000 4.1 350 10:22 17.12.2019
2239 Clouds 18 1019 63 10000 4.6 350 09:59 17.12.2019
2240 Clouds 17 1019 72 10000 3.6 340 09:41 17.12.2019
2241 Clouds 16 1019 72 10000 3.6 340 09:20 17.12.2019
2242 Clouds 16 1018 72 10000 4.1 350 08:56 17.12.2019
2243 Clouds 16 1018 72 10000 4.1 340 08:38 17.12.2019
2244 Clouds 16 1018 72 10000 4.1 340 08:19 17.12.2019
2245 Clouds 16 1017 72 10000 3.6 340 07:47 17.12.2019
2246 Clouds 16 1017 67 10000 3.6 330 07:27 17.12.2019
2247 Clouds 16 1017 63 10000 4.1 330 06:59 17.12.2019
2248 Clouds 17 1017 67 10000 5.1 340 06:35 17.12.2019
2249 Clouds 16 1018 72 10000 5.1 340 05:53 17.12.2019
2250 Clouds 16 1018 77 10000 3.1 360 05:35 17.12.2019
2251 Clouds 16 1018 77 10000 3.6 360 04:31 17.12.2019
2252 Clouds 16 1017 82 10000 3.1 20 02:34 17.12.2019
2253 Clouds 16 1017 72 10000 2.6 330 01:55 17.12.2019
2254 Rain 17 1018 67 10000 5.7 340 00:59 17.12.2019
2255 Clouds 17 1017 63 10000 6.2 340 00:38 17.12.2019
2256 Clouds 17 1017 63 10000 6.2 340 00:19 17.12.2019
2257 Clouds 17 1017 63 10000 10.3 340 23:41 16.12.2019
2258 Clouds 17 1017 63 10000 10.3 340 23:19 16.12.2019
2259 Clouds 17 1017 63 10000 10.3 340 23:19 16.12.2019
2260 Clouds 17 1017 63 10000 10.3 340 23:19 16.12.2019
2261 Rain 17 1017 72 10000 12.3 350 22:56 16.12.2019
2262 Clouds 17 1016 72 10000 10.8 340 22:37 16.12.2019
2263 Clouds 17 1016 72 10000 10.8 340 22:19 16.12.2019
2264 Clouds 17 1016 72 10000 10.8 340 22:19 16.12.2019
2265 Clouds 18 1016 59 10000 9.8 350 21:55 16.12.2019
2266 Clouds 18 1016 59 10000 9.8 350 21:55 16.12.2019
2267 Clouds 18 1016 59 10000 6.2 340 21:37 16.12.2019
2268 Clouds 18 1016 59 10000 6.2 340 21:19 16.12.2019
2269 Clouds 18 1016 63 10000 8.2 340 20:57 16.12.2019
2270 Rain 18 1016 77 10000 6.7 340 20:37 16.12.2019
2271 Rain 18 1016 77 10000 6.7 340 20:19 16.12.2019
2272 Rain 19 1015 55 9000 10.8 340 19:56 16.12.2019
2273 Rain 19 1015 55 9000 10.8 340 19:56 16.12.2019
2274 Clouds 19 1014 63 10000 11.3 340 19:37 16.12.2019
2275 Clouds 19 1014 63 10000 11.3 340 19:37 16.12.2019
2276 Clouds 19 1014 63 10000 11.3 340 19:18 16.12.2019
2277 Clouds 20 1014 45 10000 8.7 330 18:56 16.12.2019
2278 Clouds 21 1014 43 10000 10.3 330 18:37 16.12.2019
2279 Clouds 21 1014 43 10000 10.3 330 18:19 16.12.2019
2280 Clouds 20 1013 60 10000 8.7 10 17:57 16.12.2019
2281 Clouds 20 1013 60 10000 11.8 360 17:38 16.12.2019
2282 Clouds 20 1013 60 10000 11.8 360 17:38 16.12.2019
2283 Clouds 20 1013 60 10000 11.8 360 17:19 16.12.2019
2284 Clouds 22 1013 37 10000 6.7 320 16:55 16.12.2019
2285 Clouds 22 1013 37 10000 9.3 340 16:37 16.12.2019
2286 Clouds 22 1013 37 10000 9.3 340 16:18 16.12.2019
2287 Clouds 22 1013 35 10000 7.2 340 15:57 16.12.2019
2288 Clouds 22 1013 35 10000 8.2 320 15:38 16.12.2019
2289 Clouds 22 1013 35 10000 8.2 320 15:19 16.12.2019
2290 Clouds 21 1013 60 10000 2.1 0 14:54 16.12.2019
2291 Clouds 22 1013 53 10000 4.1 190 14:36 16.12.2019
2292 Clouds 22 1013 53 10000 4.1 190 14:18 16.12.2019
2293 Clouds 22 1013 53 10000 4.1 190 14:18 16.12.2019
2294 Clouds 21 1014 43 10000 7.2 330 13:55 16.12.2019
2295 Clouds 22 1014 46 10000 7.2 330 13:36 16.12.2019
2296 Clouds 21 1014 46 10000 7.2 330 13:18 16.12.2019
2297 Clouds 21 1014 46 10000 7.2 330 13:18 16.12.2019
2298 Clouds 21 1014 49 10000 10.3 330 12:54 16.12.2019
2299 Clouds 21 1014 52 10000 8.7 340 12:36 16.12.2019
2300 Clouds 21 1014 52 10000 8.7 340 12:18 16.12.2019
2301 Clouds 21 1014 46 10000 7.7 310 11:55 16.12.2019
2302 Clouds 21 1014 49 10000 7.7 330 11:37 16.12.2019
2303 Clouds 21 1014 49 10000 7.7 330 11:19 16.12.2019
2304 Clouds 18 1013 63 10000 2.1 250 10:40 16.12.2019
2305 Clouds 18 1013 63 10000 2.1 250 10:40 16.12.2019
2306 Clouds 18 1013 63 10000 2.1 250 10:21 16.12.2019
2307 Clouds 17 1013 67 10000 2.6 300 09:59 16.12.2019
2308 Clouds 16 1013 63 10000 3.6 350 09:41 16.12.2019
2309 Clouds 16 1013 63 10000 3.6 350 09:23 16.12.2019
2310 Clouds 16 1012 63 10000 2.1 290 08:40 16.12.2019
2311 Clouds 16 1012 63 10000 2.1 290 08:19 16.12.2019
2312 Clouds 16 1012 72 10000 2.1 300 07:53 16.12.2019
2313 Clouds 16 1012 72 10000 2.1 290 07:31 16.12.2019
2314 Clouds 16 1012 72 10000 2.6 290 06:57 16.12.2019
2315 Clouds 16 1012 77 10000 2.1 270 06:39 16.12.2019
2316 Clouds 16 1012 77 10000 2.1 270 06:18 16.12.2019
2317 Clouds 16 1012 77 10000 2.6 270 05:41 16.12.2019
2318 Clouds 16 1012 77 10000 2.6 270 05:22 16.12.2019
2319 Clouds 16 1012 72 10000 3.1 270 03:28 16.12.2019
2320 Clouds 15 1013 72 10000 2.1 260 01:46 16.12.2019
2321 Clouds 16 1014 77 10000 1 0 01:21 16.12.2019
2322 Clouds 16 1014 77 10000 1 0 00:39 16.12.2019
2323 Clouds 17 1014 77 10000 1 0 00:19 16.12.2019
2324 Clouds 17 1014 77 10000 1.5 220 23:44 15.12.2019
2325 Clouds 17 1014 72 10000 2.1 250 23:25 15.12.2019
2326 Clouds 18 1014 72 10000 2.1 230 22:57 15.12.2019
2327 Clouds 18 1014 72 10000 2.1 260 22:39 15.12.2019
2328 Clouds 18 1014 72 10000 2.1 260 22:19 15.12.2019
2329 Clouds 18 1014 72 10000 1.5 260 21:58 15.12.2019
2330 Clouds 18 1014 72 10000 1.5 280 21:39 15.12.2019
2331 Clouds 18 1014 72 10000 1.5 280 21:20 15.12.2019
2332 Clouds 18 1014 72 10000 1.5 280 21:20 15.12.2019
2333 Clouds 18 1014 72 10000 1.5 280 20:58 15.12.2019
2334 Clouds 18 1014 72 10000 1.5 280 20:58 15.12.2019
2335 Clouds 18 1014 72 10000 1.5 350 20:40 15.12.2019
2336 Clouds 18 1014 72 10000 1.5 350 20:40 15.12.2019
2337 Clouds 18 1014 72 10000 1.5 350 20:22 15.12.2019
2338 Clouds 18 1014 72 10000 1.5 50 19:58 15.12.2019
2339 Clouds 19 1014 68 10000 1.5 100 19:40 15.12.2019
2340 Clouds 19 1014 68 10000 1.5 100 19:20 15.12.2019
2341 Clouds 19 1014 68 10000 1 0 18:58 15.12.2019
2342 Clouds 19 1014 68 10000 1.5 120 18:39 15.12.2019
2343 Clouds 20 1014 68 10000 2.6 130 18:19 15.12.2019
2344 Clouds 20 1014 68 10000 2.6 130 17:57 15.12.2019
2345 Clouds 20 1014 64 10000 2.6 140 17:38 15.12.2019
2346 Clouds 20 1015 68 10000 2.6 130 17:19 15.12.2019
2347 Clouds 20 1015 68 10000 2.6 130 16:59 15.12.2019
2348 Clouds 20 1015 64 10000 2.6 150 16:41 15.12.2019
2349 Clouds 20 1015 64 10000 2.6 150 16:21 15.12.2019
2350 Clouds 20 1015 64 10000 3.1 140 15:56 15.12.2019
2351 Clouds 20 1015 64 10000 3.1 140 15:56 15.12.2019
2352 Clouds 20 1016 64 10000 3.6 130 15:38 15.12.2019
2353 Clouds 20 1016 64 10000 3.1 140 15:19 15.12.2019
2354 Clouds 20 1016 64 10000 3.1 140 14:56 15.12.2019
2355 Clouds 20 1017 68 10000 3.1 130 14:37 15.12.2019
2356 Clouds 20 1017 68 10000 3.1 130 14:18 15.12.2019
2357 Clouds 20 1017 68 10000 3.1 130 14:18 15.12.2019
2358 Clouds 20 1017 68 10000 2.6 140 13:58 15.12.2019
2359 Clouds 19 1018 72 10000 2.1 130 13:37 15.12.2019
2360 Clouds 19 1018 72 10000 2.1 130 13:19 15.12.2019
2361 Clouds 19 1018 72 10000 2.1 130 12:56 15.12.2019
2362 Clouds 19 1019 72 10000 1 0 12:38 15.12.2019
2363 Clouds 19 1019 72 10000 1 0 12:20 15.12.2019
2364 Clouds 19 1019 72 10000 1 0 11:55 15.12.2019
2365 Clouds 19 1019 72 10000 1.66 117 11:36 15.12.2019
2366 Clouds 19 1019 72 10000 0.37 217 11:18 15.12.2019
2367 Clouds 18 1019 72 10000 1 0 10:55 15.12.2019
2368 Clouds 17 1018 72 10000 2.1 280 10:36 15.12.2019
2369 Clouds 17 1018 72 10000 2.1 280 10:18 15.12.2019
2370 Clouds 16 1018 82 10000 2.1 300 09:39 15.12.2019
2371 Clouds 16 1018 82 10000 2.1 300 09:20 15.12.2019
2372 Clouds 15 1017 77 10000 2.6 300 08:57 15.12.2019
2373 Clouds 16 1017 77 10000 2.6 300 08:39 15.12.2019
2374 Clouds 15 1017 77 10000 2.6 300 08:20 15.12.2019
2375 Clouds 16 1017 82 10000 2.1 290 07:55 15.12.2019
2376 Clouds 16 1018 82 10000 2.6 290 07:34 15.12.2019
2377 Clouds 16 1018 77 10000 2.6 290 06:39 15.12.2019
2378 Clouds 16 1018 77 10000 2.6 290 06:19 15.12.2019
2379 Clouds 17 1019 77 10000 2.1 290 05:25 15.12.2019
2380 Clouds 17 1019 77 10000 2.1 290 05:25 15.12.2019
2381 Clouds 17 1019 72 10000 2.1 300 04:24 15.12.2019
2382 Clouds 17 1020 72 10000 2.1 320 03:22 15.12.2019
2383 Clouds 17 1020 77 10000 2.1 360 02:33 15.12.2019
2384 Clouds 17 1020 77 10000 3.1 30 01:44 15.12.2019
2385 Clouds 17 1020 77 10000 4.1 30 01:25 15.12.2019
2386 Clouds 18 1020 77 10000 4.1 40 00:54 15.12.2019
2387 Clouds 18 1020 77 10000 3.1 30 00:35 15.12.2019
2388 Clouds 18 1020 77 10000 2.6 30 23:58 14.12.2019
2389 Clouds 18 1020 77 10000 2.6 30 23:58 14.12.2019
2390 Clouds 18 1020 77 10000 4.6 20 23:39 14.12.2019
2391 Clouds 18 1020 77 10000 4.6 20 23:19 14.12.2019
2392 Clouds 18 1020 77 10000 4.6 10 22:57 14.12.2019
2393 Clouds 19 1020 72 10000 5.1 10 22:39 14.12.2019
2394 Clouds 19 1020 72 10000 5.1 10 22:39 14.12.2019
2395 Clouds 20 1020 72 10000 5.1 10 22:20 14.12.2019
2396 Clouds 19 1020 68 10000 5.1 20 21:55 14.12.2019
2397 Clouds 19 1020 72 10000 4.1 350 21:37 14.12.2019
2398 Clouds 19 1020 72 10000 4.1 350 21:18 14.12.2019
2399 Clouds 19 1020 72 10000 4.1 10 20:54 14.12.2019
2400 Clouds 19 1020 72 10000 4.6 20 20:36 14.12.2019
2401 Clouds 19 1020 72 10000 4.6 20 20:18 14.12.2019
2402 Clouds 19 1020 72 10000 4.6 20 20:18 14.12.2019
2403 Clouds 19 1020 72 10000 3.6 30 19:40 14.12.2019
2404 Clouds 19 1020 72 10000 3.1 30 19:21 14.12.2019
2405 Clouds 19 1020 72 10000 3.6 30 19:21 14.12.2019
2406 Clouds 19 1020 72 10000 3.1 30 18:57 14.12.2019
2407 Clouds 19 1020 72 10000 3.1 30 18:39 14.12.2019
2408 Clouds 19 1020 72 10000 3.1 30 18:21 14.12.2019
2409 Clouds 19 1020 72 10000 3.1 50 17:58 14.12.2019
2410 Clouds 20 1020 72 10000 3.6 50 17:40 14.12.2019
2411 Clouds 20 1020 72 10000 3.6 50 17:21 14.12.2019
2412 Clouds 20 1020 73 10000 4.6 50 16:41 14.12.2019
2413 Clouds 20 1020 73 10000 4.6 50 16:19 14.12.2019
2414 Clouds 20 1020 68 10000 5.1 30 15:56 14.12.2019
2415 Clouds 21 1020 64 10000 5.1 40 15:38 14.12.2019
2416 Clouds 21 1020 64 10000 5.1 40 15:19 14.12.2019
2417 Clouds 21 1021 68 10000 4.6 60 14:56 14.12.2019
2418 Clouds 21 1021 64 10000 5.1 50 14:37 14.12.2019
2419 Clouds 21 1021 64 10000 5.1 50 14:37 14.12.2019
2420 Clouds 21 1021 64 10000 5.1 50 14:18 14.12.2019
2421 Clouds 21 1021 60 10000 5.1 30 13:44 14.12.2019
2422 Clouds 22 1022 64 10000 6.7 30 13:19 14.12.2019
2423 Clouds 22 1022 64 10000 6.2 30 12:57 14.12.2019
2424 Clouds 21 1022 68 10000 5.7 30 12:38 14.12.2019
2425 Clouds 21 1022 68 10000 5.7 30 12:38 14.12.2019
2426 Clouds 21 1022 64 10000 5.1 30 12:20 14.12.2019
2427 Clouds 21 1022 64 10000 5.1 30 11:56 14.12.2019
2428 Clouds 20 1022 68 10000 5.7 20 11:38 14.12.2019
2429 Clouds 20 1022 68 10000 5.7 20 11:19 14.12.2019
2430 Clouds 19 1022 63 10000 3.6 10 10:56 14.12.2019
2431 Clouds 19 1022 63 10000 3.6 10 10:38 14.12.2019
2432 Clouds 19 1022 63 10000 3.6 10 10:19 14.12.2019
2433 Clouds 18 1022 63 10000 3.6 340 09:43 14.12.2019
2434 Clouds 17 1022 68 10000 4.1 330 09:23 14.12.2019
2435 Clouds 18 1022 72 10000 4.1 340 08:57 14.12.2019
2436 Clouds 18 1022 72 10000 4.1 340 08:57 14.12.2019
2437 Clouds 18 1022 72 10000 4.1 340 08:57 14.12.2019
2438 Clouds 17 1021 77 10000 4.1 350 08:38 14.12.2019
2439 Clouds 17 1021 77 10000 4.1 350 08:19 14.12.2019
2440 Clouds 17 1021 77 10000 4.6 350 07:40 14.12.2019
2441 Clouds 17 1021 77 10000 4.6 350 07:21 14.12.2019
2442 Clouds 17 1021 77 10000 4.1 10 06:55 14.12.2019
2443 Clouds 17 1021 72 10000 5.7 30 06:36 14.12.2019
2444 Clouds 18 1021 72 10000 6.7 30 05:52 14.12.2019
2445 Clouds 17 1022 72 10000 5.7 350 04:29 14.12.2019
2446 Clouds 18 1023 68 10000 5.7 10 02:24 14.12.2019
2447 Clouds 18 1023 63 10000 4.1 360 01:44 14.12.2019
2448 Clouds 18 1023 59 10000 6.2 360 01:20 14.12.2019
2449 Clouds 17 1024 63 10000 5.1 360 00:43 14.12.2019
2450 Clouds 17 1024 63 10000 6.2 10 00:22 14.12.2019
2451 Clouds 18 1024 59 10000 6.2 360 23:42 13.12.2019
2452 Clouds 18 1024 63 10000 7.2 350 23:20 13.12.2019
2453 Clouds 18 1024 63 10000 6.7 360 22:59 13.12.2019
2454 Clouds 18 1024 63 10000 9.8 20 22:40 13.12.2019
2455 Clouds 18 1024 63 10000 9.8 20 22:18 13.12.2019
2456 Clouds 18 1023 68 10000 8.2 10 21:46 13.12.2019
2457 Clouds 18 1023 63 10000 7.2 350 21:22 13.12.2019
2458 Clouds 18 1023 68 10000 7.2 360 20:59 13.12.2019
2459 Clouds 18 1023 68 10000 8.2 10 20:40 13.12.2019
2460 Clouds 19 1023 68 10000 8.2 10 20:21 13.12.2019
2461 Clouds 19 1023 59 10000 7.7 10 19:57 13.12.2019
2462 Clouds 19 1023 59 10000 7.7 10 19:39 13.12.2019
2463 Clouds 19 1023 63 10000 9.8 10 19:20 13.12.2019
2464 Clouds 19 1023 60 10000 9.3 10 18:56 13.12.2019
2465 Clouds 20 1023 60 10000 9.3 10 18:38 13.12.2019
2466 Clouds 20 1023 56 10000 9.3 360 18:18 13.12.2019
2467 Clouds 20 1023 60 10000 11.3 10 17:40 13.12.2019
2468 Clouds 20 1023 60 10000 11.3 10 17:19 13.12.2019
2469 Clouds 20 1023 60 10000 11.3 10 17:19 13.12.2019
2470 Clouds 21 1023 60 10000 10.3 360 16:58 13.12.2019
2471 Clouds 21 1023 56 10000 10.8 10 16:39 13.12.2019
2472 Clouds 21 1023 56 10000 10.8 10 16:20 13.12.2019
2473 Clouds 21 1024 52 10000 11.3 10 15:43 13.12.2019
2474 Clouds 21 1024 52 10000 11.3 10 15:22 13.12.2019
2475 Clouds 21 1025 52 10000 10.8 10 14:57 13.12.2019
2476 Clouds 21 1025 52 10000 10.8 10 14:39 13.12.2019
2477 Clouds 21 1025 53 10000 8.7 10 14:20 13.12.2019
2478 Clouds 20 1026 56 10000 8.7 10 13:45 13.12.2019
2479 Clouds 20 1027 56 10000 9.8 10 13:27 13.12.2019
2480 Clouds 20 1027 56 10000 9.3 20 12:59 13.12.2019
2481 Clouds 20 1027 56 10000 9.3 20 12:41 13.12.2019
2482 Clouds 19 1027 55 10000 10.8 20 12:19 13.12.2019
2483 Clouds 19 1027 55 10000 10.8 20 11:45 13.12.2019
2484 Clouds 19 1027 55 10000 9.8 10 11:27 13.12.2019
2485 Clouds 18 1027 59 10000 10.3 20 10:58 13.12.2019
2486 Clouds 18 1027 59 10000 10.3 20 10:40 13.12.2019
2487 Clouds 18 1027 59 10000 11.3 20 10:21 13.12.2019
2488 Clouds 17 1027 55 10000 9.3 10 09:43 13.12.2019
2489 Clouds 17 1026 59 10000 10.3 10 09:22 13.12.2019
2490 Clouds 17 1026 63 10000 9.8 10 08:55 13.12.2019
2491 Clouds 17 1026 59 10000 10.8 20 08:37 13.12.2019
2492 Clouds 17 1026 59 10000 10.8 20 08:19 13.12.2019
2493 Clouds 17 1026 59 10000 9.3 10 07:43 13.12.2019
2494 Clouds 17 1026 59 10000 10.3 20 07:19 13.12.2019
2495 Clouds 17 1026 55 10000 10.3 360 06:46 13.12.2019
2496 Clouds 17 1026 59 10000 11.3 20 06:27 13.12.2019
2497 Clouds 17 1026 63 10000 10.3 10 05:41 13.12.2019
2498 Clouds 17 1026 63 10000 9.3 10 05:20 13.12.2019
2499 Clouds 17 1026 59 10000 12.3 20 04:29 13.12.2019
2500 Clouds 18 1027 63 10000 11.3 10 02:57 13.12.2019
2501 Rain 18 1027 68 10000 10.8 10 02:30 13.12.2019
2502 Clouds 18 1027 59 10000 9.3 360 01:38 13.12.2019
2503 Clouds 18 1028 55 10000 12.9 20 00:51 13.12.2019
2504 Clouds 19 1028 55 10000 9.8 360 00:28 13.12.2019
2505 Clouds 19 1028 59 10000 9.3 10 23:44 12.12.2019
2506 Clouds 18 1028 59 10000 11.3 20 23:26 12.12.2019
2507 Clouds 19 1027 63 10000 8.2 360 22:57 12.12.2019
2508 Clouds 19 1027 63 10000 8.2 360 22:39 12.12.2019
2509 Rain 19 1027 63 10000 10.3 10 22:21 12.12.2019
2510 Rain 19 1027 59 10000 10.8 10 21:56 12.12.2019
2511 Clouds 19 1027 63 10000 11.3 20 21:37 12.12.2019
2512 Clouds 19 1027 63 10000 11.3 20 21:19 12.12.2019
2513 Clouds 19 1027 63 10000 11.3 20 21:19 12.12.2019
2514 Clouds 19 1026 63 10000 11.8 20 20:59 12.12.2019
2515 Clouds 19 1026 63 10000 11.8 20 20:40 12.12.2019
2516 Clouds 19 1026 68 10000 11.3 20 20:22 12.12.2019
2517 Clouds 19 1026 68 10000 11.8 20 19:56 12.12.2019
2518 Clouds 19 1026 68 10000 11.8 20 19:37 12.12.2019
2519 Clouds 19 1026 68 10000 12.3 20 19:19 12.12.2019
2520 Clouds 20 1026 68 10000 11.8 20 18:56 12.12.2019
2521 Clouds 20 1026 68 10000 11.8 20 18:38 12.12.2019
2522 Clouds 20 1026 72 10000 10.8 20 18:19 12.12.2019
2523 Clouds 21 1026 68 10000 10.8 20 17:57 12.12.2019
2524 Clouds 21 1026 68 10000 10.8 20 17:38 12.12.2019
2525 Clouds 21 1026 68 10000 9.8 30 17:19 12.12.2019
2526 Clouds 21 1026 64 10000 10.8 30 16:55 12.12.2019
2527 Clouds 21 1026 68 10000 10.8 30 16:36 12.12.2019
2528 Clouds 21 1026 68 10000 10.8 30 16:18 12.12.2019
2529 Clouds 21 1026 68 10000 10.8 30 15:42 12.12.2019
2530 Clouds 21 1026 72 10000 11.3 20 15:20 12.12.2019
2531 Rain 22 1026 68 10000 8.2 10 14:59 12.12.2019
2532 Clouds 22 1027 64 10000 8.7 10 14:38 12.12.2019
2533 Clouds 22 1027 64 10000 8.7 10 14:19 12.12.2019
2534 Clouds 21 1028 68 10000 10.3 20 13:56 12.12.2019
2535 Clouds 21 1028 64 10000 9.8 20 13:38 12.12.2019
2536 Clouds 21 1028 64 10000 9.8 20 13:20 12.12.2019
2537 Clouds 21 1028 64 10000 9.3 20 12:56 12.12.2019
2538 Clouds 21 1028 64 10000 8.7 10 12:38 12.12.2019
2539 Clouds 21 1028 64 10000 8.7 10 12:18 12.12.2019
2540 Clouds 21 1028 64 10000 10.3 20 11:43 12.12.2019
2541 Clouds 21 1028 64 10000 9.3 10 11:22 12.12.2019
2542 Clouds 19 1028 68 10000 8.7 10 10:59 12.12.2019
2543 Clouds 19 1028 68 10000 8.7 10 10:41 12.12.2019
2544 Clouds 19 1027 68 10000 8.7 20 10:23 12.12.2019
2545 Clouds 18 1027 72 10000 7.7 360 09:58 12.12.2019
2546 Clouds 18 1027 72 10000 7.7 360 09:40 12.12.2019
2547 Clouds 17 1026 72 10000 7.7 360 09:21 12.12.2019
2548 Clouds 17 1027 72 10000 7.7 360 08:54 12.12.2019
2549 Clouds 17 1027 72 10000 7.7 360 08:36 12.12.2019
2550 Clouds 17 1026 72 10000 8.2 350 08:18 12.12.2019
2551 Clouds 17 1026 72 10000 8.7 360 07:41 12.12.2019
2552 Clouds 17 1026 72 10000 8.7 360 07:21 12.12.2019
2553 Clouds 17 1026 72 10000 8.7 360 06:44 12.12.2019
2554 Clouds 17 1026 72 10000 8.7 360 06:44 12.12.2019
2555 Clouds 17 1026 72 10000 7.7 350 06:23 12.12.2019
2556 Clouds 17 1026 72 10000 8.2 360 05:35 12.12.2019
2557 Clouds 17 1026 72 10000 7.7 360 04:49 12.12.2019
2558 Clouds 16 1027 72 10000 9.3 10 02:44 12.12.2019
2559 Clouds 16 1027 72 10000 8.2 10 02:26 12.12.2019
2560 Clouds 17 1027 68 10000 8.2 360 01:59 12.12.2019
2561 Clouds 17 1027 68 10000 8.2 360 01:36 12.12.2019
2562 Clouds 18 1027 63 10000 9.8 10 00:50 12.12.2019
2563 Clouds 17 1027 63 10000 8.2 360 00:22 12.12.2019
2564 Clouds 17 1027 68 10000 9.3 10 23:58 11.12.2019
2565 Clouds 18 1027 68 10000 9.3 10 23:39 11.12.2019
2566 Clouds 18 1027 63 10000 8.7 360 23:19 11.12.2019
2567 Clouds 18 1027 63 10000 9.8 10 22:57 11.12.2019
2568 Clouds 18 1027 63 10000 9.8 10 22:38 11.12.2019
2569 Clouds 19 1027 68 10000 8.7 10 22:19 11.12.2019
2570 Clouds 19 1026 63 10000 10.3 10 21:55 11.12.2019
2571 Clouds 19 1026 63 10000 9.3 10 21:36 11.12.2019
2572 Clouds 18 1026 63 10000 9.3 10 21:18 11.12.2019
2573 Clouds 19 1026 63 10000 9.3 10 21:18 11.12.2019
2574 Clouds 19 1026 63 10000 10.3 20 20:55 11.12.2019
2575 Clouds 18 1026 63 10000 10.3 20 20:36 11.12.2019
2576 Clouds 19 1026 68 10000 9.3 20 20:18 11.12.2019
2577 Clouds 18 1026 68 10000 9.8 20 19:42 11.12.2019
2578 Clouds 18 1026 68 10000 10.3 20 19:23 11.12.2019
2579 Clouds 19 1025 68 10000 10.3 20 18:59 11.12.2019
2580 Clouds 20 1025 68 10000 10.3 20 18:40 11.12.2019
2581 Clouds 19 1025 68 10000 10.3 20 18:20 11.12.2019
2582 Clouds 20 1025 72 10000 10.8 20 17:56 11.12.2019
2583 Clouds 21 1025 72 10000 10.8 20 17:38 11.12.2019
2584 Clouds 21 1025 64 10000 10.8 20 17:18 11.12.2019
2585 Clouds 21 1025 64 10000 10.8 20 16:56 11.12.2019
2586 Clouds 23 1025 64 10000 10.8 20 16:37 11.12.2019
2587 Clouds 23 1025 64 10000 10.8 20 16:18 11.12.2019
2588 Clouds 22 1026 68 10000 10.3 20 15:56 11.12.2019
2589 Clouds 21 1026 68 10000 10.3 20 15:37 11.12.2019
2590 Clouds 21 1026 60 10000 10.8 30 15:19 11.12.2019
2591 Clouds 23 1026 64 10000 10.3 30 14:55 11.12.2019
2592 Clouds 23 1027 64 10000 9.8 20 14:36 11.12.2019
2593 Clouds 21 1027 64 10000 9.8 20 14:18 11.12.2019
2594 Clouds 21 1027 64 10000 9.3 30 13:43 11.12.2019
2595 Clouds 20 1028 68 10000 8.7 30 13:23 11.12.2019
2596 Clouds 21 1028 68 10000 8.7 30 12:58 11.12.2019
2597 Clouds 21 1028 68 10000 8.7 30 12:39 11.12.2019
2598 Clouds 21 1028 68 10000 8.2 30 12:21 11.12.2019
2599 Clouds 21 1028 68 10000 8.2 20 11:58 11.12.2019
2600 Clouds 20 1028 72 10000 8.2 10 11:39 11.12.2019
2601 Clouds 20 1028 72 10000 8.2 10 11:19 11.12.2019
2602 Clouds 20 1028 72 10000 8.2 10 11:19 11.12.2019
2603 Clouds 20 1028 72 10000 7.2 10 10:59 11.12.2019
2604 Clouds 18 1027 72 10000 7.7 30 10:39 11.12.2019
2605 Clouds 18 1027 72 10000 7.7 30 10:21 11.12.2019
2606 Clouds 17 1027 72 10000 6.7 350 09:55 11.12.2019
2607 Clouds 17 1027 72 10000 6.7 350 09:37 11.12.2019
2608 Clouds 17 1027 77 10000 5.7 350 09:19 11.12.2019
2609 Clouds 17 1026 77 10000 5.7 350 08:55 11.12.2019
2610 Clouds 17 1026 77 10000 5.7 350 08:36 11.12.2019
2611 Clouds 17 1026 77 10000 5.1 360 08:18 11.12.2019
2612 Clouds 17 1026 82 10000 5.1 360 07:42 11.12.2019
2613 Clouds 17 1026 82 10000 5.1 360 07:22 11.12.2019
2614 Clouds 17 1026 82 10000 5.1 360 06:45 11.12.2019
2615 Clouds 17 1025 77 10000 5.7 360 06:24 11.12.2019
2616 Clouds 17 1025 77 10000 6.2 360 05:52 11.12.2019
2617 Clouds 17 1025 77 10000 5.7 360 05:27 11.12.2019
2618 Clouds 17 1025 82 10000 5.7 360 04:47 11.12.2019
2619 Clouds 18 1026 77 10000 9.3 10 02:50 11.12.2019
2620 Clouds 18 1026 72 10000 9.3 20 01:30 11.12.2019
2621 Clouds 18 1026 72 10000 8.7 10 00:56 11.12.2019
2622 Clouds 18 1026 72 10000 8.7 20 00:25 11.12.2019
2623 Clouds 18 1026 72 10000 8.7 20 00:25 11.12.2019
2624 Clouds 18 1026 72 10000 9.3 20 23:59 10.12.2019
2625 Clouds 18 1026 72 10000 9.3 20 23:40 10.12.2019
2626 Clouds 18 1026 68 10000 8.2 10 23:21 10.12.2019
2627 Clouds 18 1026 77 10000 9.3 10 22:41 10.12.2019
2628 Clouds 19 1025 77 10000 7.7 10 22:22 10.12.2019
2629 Clouds 19 1025 72 10000 8.7 10 21:57 10.12.2019
2630 Clouds 19 1025 72 10000 8.7 10 21:39 10.12.2019
2631 Clouds 18 1025 72 10000 9.3 10 21:21 10.12.2019
2632 Clouds 19 1025 72 10000 7.7 10 20:57 10.12.2019
2633 Clouds 20 1025 72 10000 7.7 10 20:38 10.12.2019
2634 Clouds 18 1025 72 10000 8.7 10 20:19 10.12.2019
2635 Clouds 18 1025 72 10000 8.7 10 20:19 10.12.2019
2636 Clouds 18 1025 72 10000 8.7 10 20:19 10.12.2019
2637 Clouds 18 1024 72 10000 8.2 10 19:55 10.12.2019
2638 Clouds 20 1024 72 10000 8.2 10 19:37 10.12.2019
2639 Clouds 19 1024 68 10000 8.7 10 19:19 10.12.2019
2640 Clouds 19 1025 68 10000 8.7 10 18:42 10.12.2019
2641 Clouds 20 1024 68 10000 9.8 20 18:21 10.12.2019
2642 Clouds 21 1024 68 10000 9.3 20 17:58 10.12.2019
2643 Clouds 21 1024 68 10000 9.3 20 17:40 10.12.2019
2644 Clouds 21 1024 64 10000 9.8 20 17:22 10.12.2019
2645 Clouds 21 1024 68 10000 9.3 20 16:55 10.12.2019
2646 Clouds 20 1024 68 10000 9.3 20 16:36 10.12.2019
2647 Clouds 20 1025 68 10000 8.7 20 16:18 10.12.2019
2648 Clouds 20 1025 64 10000 8.7 20 15:38 10.12.2019
2649 Clouds 21 1025 64 10000 8.7 20 15:38 10.12.2019
2650 Clouds 20 1025 64 10000 8.2 30 15:18 10.12.2019
2651 Clouds 21 1026 64 10000 7.7 30 14:56 10.12.2019
2652 Clouds 21 1026 64 10000 7.7 30 14:38 10.12.2019
2653 Clouds 21 1026 60 10000 7.7 30 14:19 10.12.2019
2654 Clouds 21 1027 64 10000 6.7 30 13:57 10.12.2019
2655 Clouds 20 1027 64 10000 6.7 30 13:39 10.12.2019
2656 Clouds 21 1027 64 10000 7.2 30 13:20 10.12.2019
2657 Clouds 21 1027 68 10000 7.2 30 12:48 10.12.2019
2658 Clouds 20 1027 64 10000 8.2 30 12:28 10.12.2019
2659 Clouds 20 1027 64 10000 7.2 20 11:55 10.12.2019
2660 Clouds 20 1027 64 10000 7.2 20 11:37 10.12.2019
2661 Clouds 19 1027 68 10000 6.2 360 11:18 10.12.2019
2662 Clouds 19 1027 68 10000 5.1 350 10:42 10.12.2019
2663 Clouds 18 1027 72 10000 5.7 340 10:24 10.12.2019
2664 Clouds 18 1027 72 10000 5.1 340 09:57 10.12.2019
2665 Clouds 17 1027 72 10000 5.1 340 09:38 10.12.2019
2666 Clouds 17 1027 72 10000 5.1 340 09:38 10.12.2019
2667 Clouds 16 1026 72 10000 5.7 340 09:20 10.12.2019
2668 Clouds 16 1026 72 10000 5.1 340 08:58 10.12.2019
2669 Clouds 16 1026 72 10000 5.1 340 08:39 10.12.2019
2670 Clouds 16 1026 72 10000 5.1 340 08:39 10.12.2019
2671 Clouds 16 1026 72 10000 5.1 340 08:19 10.12.2019
2672 Clouds 16 1026 67 10000 4.6 340 07:44 10.12.2019
2673 Clouds 16 1026 68 10000 5.1 340 07:26 10.12.2019
2674 Clouds 16 1026 68 10000 5.1 340 06:50 10.12.2019
2675 Clouds 17 1026 68 10000 5.1 350 06:25 10.12.2019
2676 Clouds 16 1026 68 10000 5.7 350 05:56 10.12.2019
2677 Clouds 17 1026 68 10000 6.2 350 05:33 10.12.2019
2678 Clouds 16 1026 68 10000 6.7 350 03:55 10.12.2019
2679 Clouds 17 1026 72 10000 5.7 350 02:57 10.12.2019
2680 Clouds 17 1026 72 10000 5.7 350 02:57 10.12.2019
2681 Clouds 17 1027 72 10000 5.1 350 01:55 10.12.2019
2682 Clouds 16 1027 72 10000 5.1 350 01:27 10.12.2019
2683 Clouds 18 1027 72 10000 4.6 340 00:58 10.12.2019
2684 Clouds 18 1027 72 10000 4.1 350 00:25 10.12.2019
2685 Clouds 17 1027 77 10000 4.6 360 23:55 09.12.2019
2686 Clouds 17 1027 77 10000 4.6 360 23:36 09.12.2019
2687 Clouds 19 1027 72 10000 5.7 10 23:18 09.12.2019
2688 Clouds 19 1027 72 10000 5.1 10 22:54 09.12.2019
2689 Clouds 19 1027 72 10000 5.1 10 22:36 09.12.2019
2690 Clouds 19 1027 72 10000 5.1 10 22:36 09.12.2019
2691 Clouds 19 1027 72 10000 4.6 360 22:18 09.12.2019
2692 Clouds 19 1027 72 10000 5.1 360 21:54 09.12.2019
2693 Clouds 19 1027 72 10000 5.1 360 21:36 09.12.2019
2694 Clouds 19 1027 72 10000 5.1 360 21:18 09.12.2019
2695 Clouds 19 1026 72 10000 6.2 10 20:54 09.12.2019
2696 Clouds 19 1026 72 10000 7.7 10 20:36 09.12.2019
2697 Clouds 19 1026 72 10000 7.7 10 20:18 09.12.2019
2698 Clouds 19 1026 72 10000 7.2 10 19:54 09.12.2019
2699 Clouds 20 1026 72 10000 7.2 10 19:36 09.12.2019
2700 Clouds 20 1026 68 10000 7.2 10 19:18 09.12.2019
2701 Clouds 21 1026 68 10000 8.2 20 18:40 09.12.2019
2702 Clouds 20 1025 68 10000 7.7 20 18:20 09.12.2019
2703 Clouds 21 1026 64 10000 7.7 20 17:59 09.12.2019
2704 Clouds 21 1026 64 10000 7.7 20 17:59 09.12.2019
2705 Clouds 20 1026 64 10000 7.7 20 17:41 09.12.2019
2706 Clouds 20 1026 60 10000 7.7 20 17:21 09.12.2019
2707 Clouds 22 1026 64 10000 7.7 20 16:57 09.12.2019
2708 Clouds 22 1026 64 10000 7.7 20 16:39 09.12.2019
2709 Clouds 22 1026 64 10000 8.2 20 16:21 09.12.2019
2710 Clouds 22 1026 60 10000 8.7 20 15:56 09.12.2019
2711 Clouds 22 1026 60 10000 8.7 20 15:38 09.12.2019
2712 Clouds 21 1026 68 10000 8.2 20 15:19 09.12.2019
2713 Clouds 21 1027 64 10000 8.7 20 14:59 09.12.2019
2714 Clouds 21 1027 64 10000 8.7 20 14:40 09.12.2019
2715 Clouds 22 1027 60 10000 8.7 20 14:18 09.12.2019
2716 Clouds 21 1028 64 10000 8.7 20 13:55 09.12.2019
2717 Clouds 21 1028 64 10000 8.7 20 13:36 09.12.2019
2718 Clouds 20 1028 72 10000 8.7 20 13:18 09.12.2019
2719 Clouds 20 1028 68 10000 8.2 20 12:54 09.12.2019
2720 Clouds 22 1028 68 10000 8.2 20 12:36 09.12.2019
2721 Clouds 20 1028 68 10000 7.7 20 12:18 09.12.2019
2722 Clouds 20 1028 68 10000 7.7 20 11:40 09.12.2019
2723 Clouds 20 1028 72 10000 7.7 10 11:22 09.12.2019
2724 Clouds 20 1028 72 10000 6.2 10 10:59 09.12.2019
2725 Clouds 20 1028 72 10000 6.2 10 10:39 09.12.2019
2726 Clouds 20 1028 72 10000 6.2 10 10:39 09.12.2019
2727 Clouds 19 1028 72 10000 6.2 10 10:19 09.12.2019
2728 Clouds 19 1027 72 10000 6.7 10 09:44 09.12.2019
2729 Clouds 18 1027 77 10000 7.2 20 09:24 09.12.2019
2730 Clouds 18 1027 72 10000 7.2 30 08:57 09.12.2019
2731 Clouds 18 1027 72 10000 6.7 20 08:38 09.12.2019
2732 Clouds 18 1027 72 10000 6.7 20 08:20 09.12.2019
2733 Clouds 18 1026 72 10000 7.2 20 07:49 09.12.2019
2734 Clouds 18 1026 72 10000 7.2 20 07:30 09.12.2019
2735 Clouds 18 1026 72 10000 5.7 10 06:55 09.12.2019
2736 Clouds 18 1026 72 10000 6.7 10 06:29 09.12.2019
2737 Clouds 18 1026 72 10000 7.2 10 05:31 09.12.2019
2738 Clouds 18 1026 72 10000 6.7 10 04:58 09.12.2019
2739 Clouds 18 1026 72 10000 6.7 10 04:25 09.12.2019
2740 Clouds 19 1027 68 10000 8.2 10 02:28 09.12.2019
2741 Clouds 19 1027 68 10000 7.7 10 01:46 09.12.2019
2742 Clouds 19 1027 68 10000 8.2 10 00:57 09.12.2019
2743 Clouds 19 1027 68 10000 8.7 10 00:32 09.12.2019
2744 Clouds 19 1027 68 10000 7.7 10 23:54 08.12.2019
2745 Clouds 19 1027 68 10000 7.7 10 23:36 08.12.2019
2746 Clouds 19 1027 68 10000 9.3 10 23:18 08.12.2019
2747 Clouds 19 1027 72 10000 9.3 20 22:56 08.12.2019
2748 Clouds 19 1027 72 10000 9.3 20 22:38 08.12.2019
2749 Clouds 19 1026 68 10000 9.8 20 22:18 08.12.2019
2750 Clouds 19 1026 68 10000 9.3 20 21:55 08.12.2019
2751 Clouds 19 1026 68 10000 9.3 20 21:37 08.12.2019
2752 Clouds 19 1026 72 10000 9.8 20 21:18 08.12.2019
2753 Clouds 19 1026 68 10000 8.2 10 20:55 08.12.2019
2754 Clouds 19 1026 68 10000 8.2 10 20:55 08.12.2019
2755 Clouds 19 1026 68 10000 8.2 10 20:36 08.12.2019
2756 Clouds 19 1025 68 10000 7.7 10 20:18 08.12.2019
2757 Clouds 19 1025 68 10000 8.2 10 19:54 08.12.2019
2758 Clouds 19 1025 68 10000 8.2 10 19:36 08.12.2019
2759 Clouds 19 1025 68 10000 9.8 10 19:18 08.12.2019
2760 Clouds 20 1025 60 10000 9.8 10 18:54 08.12.2019
2761 Clouds 20 1025 60 10000 9.8 10 18:36 08.12.2019
2762 Clouds 20 1024 64 10000 10.3 10 18:18 08.12.2019
2763 Clouds 20 1024 64 10000 10.8 30 17:54 08.12.2019
2764 Clouds 20 1024 64 10000 10.8 30 17:36 08.12.2019
2765 Clouds 20 1024 60 10000 11.3 20 17:18 08.12.2019
2766 Clouds 22 1025 64 10000 10.8 20 16:42 08.12.2019
2767 Clouds 21 1024 64 10000 10.8 20 16:23 08.12.2019
2768 Clouds 21 1025 60 10000 10.8 20 15:59 08.12.2019
2769 Clouds 21 1025 60 10000 10.3 20 15:37 08.12.2019
2770 Clouds 21 1025 60 10000 10.3 20 15:18 08.12.2019
2771 Clouds 22 1025 60 10000 10.8 20 14:46 08.12.2019
2772 Clouds 21 1026 60 10000 11.3 20 14:25 08.12.2019
2773 Clouds 21 1026 60 10000 10.3 20 13:59 08.12.2019
2774 Clouds 21 1026 60 10000 10.3 20 13:41 08.12.2019
2775 Clouds 21 1027 64 10000 10.3 20 13:22 08.12.2019
2776 Clouds 21 1027 60 10000 10.8 30 12:59 08.12.2019
2777 Clouds 21 1027 60 10000 10.8 30 12:40 08.12.2019
2778 Clouds 21 1027 60 10000 10.8 20 12:19 08.12.2019
2779 Clouds 21 1027 60 10000 10.8 20 12:19 08.12.2019
2780 Clouds 21 1027 60 10000 9.8 20 11:58 08.12.2019
2781 Clouds 21 1027 60 10000 9.8 20 11:37 08.12.2019
2782 Clouds 20 1027 64 10000 9.3 20 11:19 08.12.2019
2783 Clouds 20 1027 60 10000 9.3 20 10:55 08.12.2019
2784 Clouds 20 1027 60 10000 9.3 20 10:37 08.12.2019
2785 Clouds 19 1026 72 10000 8.2 20 10:18 08.12.2019
2786 Clouds 19 1026 63 10000 7.7 10 09:55 08.12.2019
2787 Clouds 18 1026 63 10000 7.7 10 09:36 08.12.2019
2788 Clouds 18 1026 68 10000 6.7 10 09:18 08.12.2019
2789 Clouds 18 1025 68 10000 8.2 20 08:41 08.12.2019
2790 Clouds 18 1025 72 10000 7.7 10 08:23 08.12.2019
2791 Clouds 18 1025 72 10000 7.7 20 07:55 08.12.2019
2792 Clouds 18 1025 72 10000 7.7 20 07:36 08.12.2019
2793 Clouds 18 1025 72 10000 7.2 20 07:18 08.12.2019
2794 Clouds 18 1024 72 10000 8.2 20 06:40 08.12.2019
2795 Clouds 18 1024 72 10000 9.8 20 06:20 08.12.2019
2796 Clouds 18 1024 77 10000 9.8 20 05:23 08.12.2019
2797 Clouds 18 1024 77 10000 10.3 20 04:46 08.12.2019
2798 Clouds 19 1025 72 10000 10.3 20 03:39 08.12.2019
2799 Clouds 19 1025 72 10000 9.8 20 02:42 08.12.2019
2800 Clouds 19 1025 77 10000 9.3 20 02:20 08.12.2019
2801 Clouds 19 1026 77 10000 8.2 10 01:35 08.12.2019
2802 Clouds 19 1026 72 10000 9.8 20 00:53 08.12.2019
2803 Clouds 19 1026 77 10000 8.7 20 00:23 08.12.2019
2804 Clouds 19 1026 77 10000 8.7 10 23:57 07.12.2019
2805 Clouds 19 1026 77 10000 8.7 10 23:37 07.12.2019
2806 Clouds 19 1025 72 10000 8.2 10 23:18 07.12.2019
2807 Clouds 19 1025 77 10000 9.8 20 22:55 07.12.2019
2808 Clouds 19 1025 77 10000 9.8 20 22:37 07.12.2019
2809 Clouds 19 1025 77 10000 9.8 10 22:18 07.12.2019
2810 Clouds 19 1025 77 10000 10.3 10 21:55 07.12.2019
2811 Clouds 19 1025 77 10000 10.3 10 21:37 07.12.2019
2812 Clouds 19 1024 77 10000 10.3 20 21:18 07.12.2019
2813 Clouds 19 1024 77 10000 8.7 10 20:38 07.12.2019
2814 Clouds 19 1023 72 10000 9.8 10 20:20 07.12.2019
2815 Clouds 19 1023 77 10000 10.8 10 19:57 07.12.2019
2816 Clouds 19 1023 77 10000 10.8 10 19:39 07.12.2019
2817 Clouds 20 1023 72 10000 10.3 20 19:21 07.12.2019
2818 Clouds 20 1023 72 10000 10.8 20 18:58 07.12.2019
2819 Clouds 20 1023 72 10000 10.8 20 18:58 07.12.2019
2820 Clouds 20 1023 72 10000 10.8 20 18:39 07.12.2019
2821 Clouds 20 1022 72 10000 10.3 20 18:18 07.12.2019
2822 Clouds 21 1022 72 10000 9.8 20 17:55 07.12.2019
2823 Rain 21 1022 72 10000 9.8 30 17:37 07.12.2019
2824 Rain 21 1022 72 10000 9.8 30 17:18 07.12.2019
2825 Clouds 21 1022 64 10000 9.8 20 16:55 07.12.2019
2826 Clouds 21 1022 64 10000 9.8 20 16:36 07.12.2019
2827 Clouds 21 1022 64 10000 10.3 20 16:18 07.12.2019
2828 Clouds 21 1022 64 10000 9.3 20 15:41 07.12.2019
2829 Clouds 21 1022 68 10000 10.3 20 15:22 07.12.2019
2830 Clouds 21 1022 68 10000 10.3 20 14:56 07.12.2019
2831 Clouds 21 1022 68 10000 10.3 20 14:38 07.12.2019
2832 Clouds 21 1023 68 10000 9.3 20 14:18 07.12.2019
2833 Clouds 21 1023 68 10000 9.3 20 13:40 07.12.2019
2834 Clouds 21 1023 68 10000 9.8 20 13:20 07.12.2019
2835 Clouds 21 1024 68 10000 9.3 20 12:55 07.12.2019
2836 Clouds 21 1024 68 10000 9.3 20 12:37 07.12.2019
2837 Clouds 20 1023 68 10000 9.3 10 12:18 07.12.2019
2838 Clouds 20 1023 72 10000 8.7 10 11:42 07.12.2019
2839 Clouds 20 1023 68 10000 8.2 350 11:23 07.12.2019
2840 Clouds 19 1023 68 10000 8.7 350 10:58 07.12.2019
2841 Clouds 19 1023 68 10000 8.7 350 10:37 07.12.2019
2842 Clouds 18 1022 77 10000 6.2 350 10:18 07.12.2019
2843 Clouds 18 1022 77 10000 6.2 360 09:40 07.12.2019
2844 Clouds 18 1022 72 10000 6.2 350 09:21 07.12.2019
2845 Clouds 18 1022 72 10000 6.2 350 09:21 07.12.2019
2846 Clouds 17 1021 77 10000 5.7 340 08:46 07.12.2019
2847 Clouds 17 1021 77 10000 6.2 350 08:25 07.12.2019
2848 Clouds 17 1021 72 10000 6.2 350 07:54 07.12.2019
2849 Clouds 17 1020 72 10000 6.2 340 07:30 07.12.2019
2850 Clouds 17 1021 72 10000 5.7 350 06:53 07.12.2019
2851 Clouds 17 1021 72 10000 5.7 350 06:53 07.12.2019
2852 Clouds 17 1021 72 10000 5.7 340 06:28 07.12.2019
2853 Clouds 17 1021 72 10000 5.1 350 05:50 07.12.2019
2854 Clouds 17 1021 77 10000 4.1 340 04:48 07.12.2019
2855 Clouds 17 1020 77 10000 5.1 350 03:52 07.12.2019
2856 Clouds 17 1019 77 10000 7.7 360 02:47 07.12.2019
2857 Clouds 18 1019 72 10000 8.7 360 02:18 07.12.2019
2858 Clouds 17 1020 82 10000 9.3 350 01:25 07.12.2019
2859 Clouds 17 1020 82 10000 7.7 350 00:42 07.12.2019
2860 Clouds 17 1020 82 10000 7.2 360 00:18 07.12.2019
2861 Rain 18 1020 82 10000 9.3 10 23:44 06.12.2019
2862 Rain 18 1020 77 7000 7.7 10 23:23 06.12.2019
2863 Clouds 18 1019 77 10000 7.7 10 22:57 06.12.2019
2864 Rain 18 1019 77 10000 5.7 360 22:36 06.12.2019
2865 Rain 18 1019 77 10000 5.7 360 22:18 06.12.2019
2866 Rain 18 1019 77 10000 5.1 350 21:41 06.12.2019
2867 Clouds 18 1019 77 10000 6.7 350 21:21 06.12.2019
2868 Clouds 19 1018 68 10000 7.7 10 20:59 06.12.2019
2869 Clouds 19 1018 68 10000 7.7 10 20:41 06.12.2019
2870 Clouds 19 1018 77 10000 6.7 360 20:20 06.12.2019
2871 Clouds 19 1018 77 10000 7.7 10 19:43 06.12.2019
2872 Clouds 19 1017 72 10000 9.8 10 19:24 06.12.2019
2873 Clouds 19 1017 77 10000 6.7 350 18:59 06.12.2019
2874 Clouds 19 1017 77 10000 6.7 350 18:40 06.12.2019
2875 Rain 19 1017 82 10000 8.2 360 18:21 06.12.2019
2876 Clouds 20 1017 68 10000 8.7 360 17:58 06.12.2019
2877 Clouds 20 1017 68 10000 8.7 360 17:40 06.12.2019
2878 Clouds 20 1017 68 10000 10.3 360 17:22 06.12.2019
2879 Rain 21 1016 64 6000 10.8 350 16:58 06.12.2019
2880 Rain 21 1016 64 6000 10.8 350 16:38 06.12.2019
2881 Clouds 21 1016 60 10000 10.8 350 16:19 06.12.2019
2882 Clouds 21 1016 60 10000 10.3 360 15:41 06.12.2019
2883 Clouds 20 1016 60 10000 8.7 360 15:22 06.12.2019
2884 Clouds 20 1017 72 10000 8.7 360 14:58 06.12.2019
2885 Clouds 20 1017 72 10000 8.7 360 14:40 06.12.2019
2886 Clouds 20 1017 82 10000 8.7 360 14:20 06.12.2019
2887 Clouds 21 1017 64 10000 10.8 10 13:46 06.12.2019
2888 Clouds 21 1017 64 10000 10.8 10 13:46 06.12.2019
2889 Clouds 20 1018 64 10000 11.8 20 13:27 06.12.2019
2890 Clouds 20 1018 68 10000 11.3 10 12:58 06.12.2019
2891 Clouds 20 1018 68 10000 11.3 10 12:39 06.12.2019
2892 Clouds 19 1018 77 10000 10.8 10 12:21 06.12.2019
2893 Clouds 20 1018 77 10000 9.8 10 11:42 06.12.2019
2894 Clouds 19 1017 77 10000 8.2 360 11:23 06.12.2019
2895 Rain 18 1017 68 10000 5.7 340 10:57 06.12.2019
2896 Rain 18 1017 68 10000 5.7 340 10:38 06.12.2019
2897 Clouds 17 1017 72 10000 5.1 340 10:20 06.12.2019
2898 Clouds 17 1016 72 10000 5.1 340 09:56 06.12.2019
2899 Clouds 17 1016 72 10000 5.1 340 09:37 06.12.2019
2900 Clouds 17 1016 72 10000 5.1 340 09:19 06.12.2019
2901 Clouds 17 1016 77 10000 5.7 350 08:43 06.12.2019
2902 Clouds 17 1016 77 10000 5.7 350 08:25 06.12.2019
2903 Rain 16 1015 77 10000 7.2 340 07:42 06.12.2019
2904 Rain 16 1015 72 8000 6.7 340 07:22 06.12.2019
2905 Clouds 16 1015 82 10000 6.2 350 06:48 06.12.2019
2906 Rain 16 1014 72 10000 7.2 340 06:25 06.12.2019
2907 Clouds 16 1014 72 10000 6.7 340 05:49 06.12.2019
2908 Clouds 16 1014 77 10000 5.7 350 03:50 06.12.2019
2909 Clouds 16 1014 82 10000 6.2 340 01:46 06.12.2019
2910 Clouds 16 1015 77 10000 4.1 340 00:57 06.12.2019
2911 Clouds 16 1015 72 10000 6.2 350 00:24 06.12.2019
2912 Clouds 16 1015 72 10000 6.7 340 23:56 05.12.2019
2913 Clouds 16 1015 77 10000 5.7 310 23:21 05.12.2019
2914 Thunderstorm 17 1014 72 10000 7.2 340 22:59 05.12.2019
2915 Thunderstorm 17 1014 72 10000 7.2 340 22:39 05.12.2019
2916 Thunderstorm 17 1014 72 10000 4.1 340 22:20 05.12.2019
2917 Thunderstorm 17 1014 72 10000 4.1 340 22:20 05.12.2019
2918 Clouds 18 1014 72 10000 4.1 350 21:58 05.12.2019
2919 Clouds 18 1014 72 10000 4.1 350 21:40 05.12.2019
2920 Clouds 18 1014 72 10000 4.6 340 21:22 05.12.2019
2921 Rain 18 1013 77 10000 4.6 340 20:58 05.12.2019
2922 Rain 18 1013 77 10000 4.6 340 20:40 05.12.2019
2923 Clouds 18 1013 72 10000 5.1 320 20:19 05.12.2019
2924 Clouds 18 1013 72 10000 5.1 320 20:19 05.12.2019
2925 Clouds 18 1013 72 10000 4.1 340 19:43 05.12.2019
2926 Rain 18 1013 72 10000 4.1 330 19:25 05.12.2019
2927 Rain 18 1013 72 8000 8.2 350 18:59 05.12.2019
2928 Rain 19 1012 63 7000 6.7 350 18:39 05.12.2019
2929 Rain 19 1012 63 7000 6.7 350 18:21 05.12.2019
2930 Clouds 19 1012 68 10000 8.7 350 17:59 05.12.2019
2931 Rain 19 1012 77 8000 7.2 360 17:38 05.12.2019
2932 Rain 19 1012 77 8000 7.2 360 17:19 05.12.2019
2933 Rain 19 1012 77 8000 7.2 10 16:55 05.12.2019
2934 Clouds 20 1012 68 10000 7.2 350 16:37 05.12.2019
2935 Clouds 20 1012 68 10000 7.2 350 16:18 05.12.2019
2936 Rain 19 1012 72 8000 6.2 340 15:55 05.12.2019
2937 Rain 19 1012 72 8000 9.8 330 15:36 05.12.2019
2938 Rain 20 1012 72 8000 9.8 330 15:18 05.12.2019
2939 Clouds 20 1013 60 10000 8.7 350 14:54 05.12.2019
2940 Rain 20 1013 68 9000 10.8 340 14:36 05.12.2019
2941 Rain 20 1013 68 9000 10.8 340 14:18 05.12.2019
2942 Clouds 20 1013 64 10000 6.7 340 13:54 05.12.2019
2943 Rain 20 1014 72 8000 9.3 350 13:36 05.12.2019
2944 Rain 20 1014 72 8000 9.3 350 13:18 05.12.2019
2945 Rain 19 1014 77 8000 8.2 330 12:41 05.12.2019
2946 Rain 20 1014 77 8000 8.2 330 12:23 05.12.2019
2947 Clouds 20 1014 68 10000 6.7 330 11:56 05.12.2019
2948 Clouds 19 1014 63 10000 8.2 350 11:37 05.12.2019
2949 Clouds 20 1014 63 10000 8.2 350 11:18 05.12.2019
2950 Rain 20 1014 63 10000 7.2 360 10:54 05.12.2019
2951 Rain 20 1014 63 10000 7.2 360 10:54 05.12.2019
2952 Clouds 19 1014 63 10000 7.7 350 10:36 05.12.2019
2953 Clouds 19 1014 63 10000 7.7 350 10:18 05.12.2019
2954 Clouds 18 1014 63 10000 9.3 360 09:42 05.12.2019
2955 Clouds 17 1014 67 10000 9.3 350 09:20 05.12.2019
2956 Clouds 16 1014 67 10000 11.3 340 08:57 05.12.2019
2957 Clouds 17 1013 67 10000 14.4 350 08:37 05.12.2019
2958 Clouds 16 1013 67 10000 14.4 350 08:19 05.12.2019
2959 Rain 16 1013 72 8000 11.8 340 07:49 05.12.2019
2960 Clouds 17 1013 72 10000 13.4 350 07:31 05.12.2019
2961 Clouds 16 1013 72 10000 8.7 350 06:56 05.12.2019
2962 Clouds 16 1013 72 10000 9.8 340 06:37 05.12.2019
2963 Clouds 16 1013 72 10000 9.8 340 06:18 05.12.2019
2964 Clouds 16 1013 87 10000 8.7 350 05:44 05.12.2019
2965 Rain 17 1014 93 10000 5.7 360 05:19 05.12.2019
2966 Rain 18 1014 88 2000 5.1 360 03:43 05.12.2019
2967 Rain 18 1014 82 6000 5.7 20 02:42 05.12.2019
2968 Clouds 18 1014 68 10000 2.1 330 02:23 05.12.2019
2969 Clouds 18 1015 68 10000 2.1 270 01:51 05.12.2019
2970 Clouds 18 1015 72 10000 1.5 270 01:24 05.12.2019
2971 Clouds 18 1016 68 10000 1.5 310 00:47 05.12.2019
2972 Clouds 19 1016 63 10000 2.1 240 00:22 05.12.2019
2973 Clouds 19 1016 63 10000 2.1 240 23:56 04.12.2019
2974 Clouds 19 1016 63 10000 2.6 270 23:37 04.12.2019
2975 Clouds 19 1016 63 10000 2.6 270 23:18 04.12.2019
2976 Clouds 19 1017 60 10000 2.1 310 22:39 04.12.2019
2977 Clouds 19 1017 60 10000 2.1 310 22:20 04.12.2019
2978 Clouds 20 1017 64 10000 2.6 330 21:58 04.12.2019
2979 Clouds 20 1017 64 10000 4.1 320 21:39 04.12.2019
2980 Clouds 20 1017 64 10000 4.1 320 21:20 04.12.2019
2981 Clouds 19 1017 63 10000 2.1 330 20:58 04.12.2019
2982 Clouds 20 1016 60 10000 1.5 320 20:40 04.12.2019
2983 Clouds 20 1016 60 10000 1.5 320 20:21 04.12.2019
2984 Clouds 20 1016 60 10000 3.6 270 19:57 04.12.2019
2985 Clouds 20 1017 64 10000 6.7 350 19:38 04.12.2019
2986 Clouds 20 1017 64 10000 6.7 350 19:20 04.12.2019
2987 Clouds 21 1017 60 10000 6.2 340 18:42 04.12.2019
2988 Clouds 21 1017 56 10000 2.1 0 18:24 04.12.2019
2989 Clouds 18 1017 56 10000 3.1 140 17:59 04.12.2019
2990 Clouds 18 1017 52 10000 3.6 160 17:39 04.12.2019
2991 Clouds 21 1017 52 10000 3.6 160 17:21 04.12.2019
2992 Clouds 21 1016 46 10000 3.1 220 16:57 04.12.2019
2993 Clouds 21 1017 46 10000 3.6 210 16:39 04.12.2019
2994 Clouds 22 1017 46 10000 3.6 210 16:19 04.12.2019
2995 Clouds 22 1017 46 10000 3.1 290 15:55 04.12.2019
2996 Clouds 22 1017 43 10000 6.2 320 15:37 04.12.2019
2997 Clouds 22 1017 43 10000 6.2 320 15:19 04.12.2019
2998 Clouds 22 1017 43 10000 6.2 320 15:19 04.12.2019
2999 Clouds 21 1018 46 10000 7.2 330 14:44 04.12.2019
3000 Clouds 22 1018 49 10000 7.2 360 14:23 04.12.2019
3001 Clouds 22 1018 49 10000 7.2 360 14:23 04.12.2019
3002 Clouds 21 1019 43 10000 5.7 350 13:58 04.12.2019
3003 Clouds 21 1019 56 10000 5.1 10 13:38 04.12.2019
3004 Clouds 20 1019 56 10000 5.1 10 13:19 04.12.2019
3005 Clouds 21 1020 49 10000 6.2 10 12:44 04.12.2019
3006 Clouds 21 1020 46 10000 6.2 350 12:24 04.12.2019
3007 Clouds 22 1020 43 10000 5.1 10 11:55 04.12.2019
3008 Clouds 21 1020 49 10000 4.6 350 11:37 04.12.2019
3009 Clouds 21 1020 49 10000 4.6 350 11:19 04.12.2019
3010 Clouds 20 1020 52 10000 3.6 330 10:43 04.12.2019
3011 Clouds 20 1019 55 10000 3.1 320 10:23 04.12.2019
3012 Clouds 18 1019 59 10000 2.6 330 09:55 04.12.2019
3013 Clouds 18 1019 59 10000 2.6 330 09:55 04.12.2019
3014 Clouds 18 1019 55 10000 3.1 300 09:37 04.12.2019
3015 Clouds 18 1019 55 10000 3.1 300 09:18 04.12.2019
3016 Clouds 18 1019 63 10000 5.1 300 08:39 04.12.2019
3017 Clouds 17 1019 63 10000 5.1 300 08:20 04.12.2019
3018 Clouds 17 1019 68 10000 4.6 320 07:48 04.12.2019
3019 Clouds 17 1018 68 10000 6.2 340 07:30 04.12.2019
3020 Clouds 17 1018 68 10000 6.2 340 07:30 04.12.2019
3021 Clouds 17 1018 59 10000 3.1 310 06:34 04.12.2019
3022 Clouds 17 1018 63 10000 3.1 300 05:48 04.12.2019
3023 Clouds 17 1018 63 10000 3.6 310 04:58 04.12.2019
3024 Clouds 17 1019 63 10000 3.6 330 03:56 04.12.2019
3025 Clouds 18 1019 63 10000 3.1 310 02:47 04.12.2019
3026 Clouds 18 1020 63 10000 4.1 330 00:51 04.12.2019
3027 Clouds 18 1019 59 10000 3.6 330 00:25 04.12.2019
3028 Clouds 18 1019 63 10000 3.6 330 23:58 03.12.2019
3029 Clouds 19 1019 59 10000 4.6 340 23:40 03.12.2019
3030 Clouds 19 1019 59 10000 4.6 340 23:19 03.12.2019
3031 Clouds 18 1019 59 10000 5.1 330 22:40 03.12.2019
3032 Clouds 19 1019 59 10000 5.1 330 22:19 03.12.2019
3033 Clouds 19 1018 59 10000 4.1 320 21:58 03.12.2019
3034 Clouds 18 1018 63 10000 4.1 330 21:38 03.12.2019
3035 Clouds 18 1018 63 10000 4.1 330 21:38 03.12.2019
3036 Clouds 19 1018 63 10000 4.1 330 21:19 03.12.2019
3037 Clouds 19 1018 55 10000 3.6 320 20:57 03.12.2019
3038 Clouds 19 1018 55 10000 3.6 330 20:39 03.12.2019
3039 Clouds 19 1018 55 10000 3.6 330 20:18 03.12.2019
3040 Clouds 19 1017 55 10000 4.6 340 19:55 03.12.2019
3041 Clouds 20 1017 52 10000 6.2 340 19:37 03.12.2019
3042 Clouds 20 1017 52 10000 6.2 340 19:18 03.12.2019
3043 Clouds 20 1017 52 10000 6.2 340 19:18 03.12.2019
3044 Clouds 20 1017 52 10000 6.2 340 18:55 03.12.2019
3045 Clouds 21 1017 49 10000 6.7 340 18:37 03.12.2019
3046 Clouds 21 1017 49 10000 6.7 340 18:19 03.12.2019
3047 Clouds 21 1017 60 10000 7.2 350 17:54 03.12.2019
3048 Clouds 21 1017 56 10000 7.7 350 17:36 03.12.2019
3049 Clouds 21 1017 56 10000 7.7 350 17:36 03.12.2019
3050 Clouds 21 1017 56 10000 7.7 350 17:18 03.12.2019
3051 Clouds 22 1016 49 10000 8.7 360 16:40 03.12.2019
3052 Clouds 22 1016 49 10000 8.7 360 16:21 03.12.2019
3053 Clouds 22 1016 49 10000 8.7 360 15:59 03.12.2019
3054 Clouds 21 1016 52 10000 9.3 10 15:40 03.12.2019
3055 Clouds 21 1016 52 10000 9.3 10 15:20 03.12.2019
3056 Clouds 21 1017 52 10000 8.7 360 14:58 03.12.2019
3057 Clouds 21 1017 68 10000 5.7 350 14:40 03.12.2019
3058 Clouds 21 1017 68 10000 5.7 350 14:19 03.12.2019
3059 Clouds 22 1017 56 10000 7.2 360 13:39 03.12.2019
3060 Clouds 22 1017 56 10000 7.2 360 13:39 03.12.2019
3061 Clouds 22 1017 56 10000 7.2 360 13:20 03.12.2019
3062 Clouds 22 1017 56 10000 7.2 360 13:20 03.12.2019
3063 Clouds 22 1017 49 10000 9.8 10 12:58 03.12.2019
3064 Clouds 21 1017 49 10000 8.2 350 12:38 03.12.2019
3065 Clouds 21 1017 49 10000 8.2 350 12:18 03.12.2019
3066 Clouds 20 1017 60 10000 4.6 340 11:58 03.12.2019
3067 Clouds 19 1017 59 10000 5.7 350 11:38 03.12.2019
3068 Clouds 19 1017 59 10000 5.7 350 11:19 03.12.2019
3069 Clouds 19 1017 59 10000 5.7 350 11:19 03.12.2019
3070 Clouds 20 1017 63 10000 6.7 350 10:56 03.12.2019
3071 Clouds 20 1016 63 10000 5.1 350 10:38 03.12.2019
3072 Clouds 20 1016 63 10000 5.1 350 10:19 03.12.2019
3073 Clouds 18 1016 72 10000 3.1 340 09:42 03.12.2019
3074 Clouds 18 1016 72 10000 3.6 330 09:24 03.12.2019
3075 Rain 18 1016 72 10000 3.1 320 08:56 03.12.2019
3076 Clouds 18 1015 72 10000 3.6 310 08:38 03.12.2019
3077 Clouds 18 1015 72 10000 3.6 310 08:20 03.12.2019
3078 Clouds 17 1015 77 10000 3.6 340 07:51 03.12.2019
3079 Drizzle 18 1015 77 8000 3.6 350 07:25 03.12.2019
3080 Drizzle 18 1015 72 10000 4.1 320 06:38 03.12.2019
3081 Drizzle 18 1015 72 10000 4.1 320 06:19 03.12.2019
3082 Rain 18 1015 72 4500 3.6 320 04:56 03.12.2019
3083 Clouds 17 1015 72 10000 3.6 310 03:42 03.12.2019
3084 Clouds 17 1015 77 10000 4.1 320 03:21 03.12.2019
3085 Rain 17 1015 82 7000 5.1 340 02:51 03.12.2019
3086 Rain 17 1015 72 9000 6.2 320 02:32 03.12.2019
3087 Clouds 17 1015 82 10000 4.6 330 01:56 03.12.2019
3088 Rain 18 1016 77 4500 5.1 320 01:37 03.12.2019
3089 Rain 18 1016 77 8000 5.7 340 00:59 03.12.2019
3090 Clouds 18 1016 82 10000 4.1 330 00:40 03.12.2019
3091 Clouds 18 1016 82 10000 4.1 330 00:40 03.12.2019
3092 Clouds 18 1016 82 10000 4.1 330 00:21 03.12.2019
3093 Clouds 18 1016 82 10000 4.1 330 00:21 03.12.2019
3094 Clouds 17 1016 88 10000 5.1 330 23:43 02.12.2019
3095 Rain 18 1016 77 4800 5.1 340 23:21 02.12.2019
3096 Rain 18 1016 77 6000 6.7 340 22:55 02.12.2019
3097 Clouds 17 1016 88 10000 4.1 330 22:37 02.12.2019
3098 Clouds 17 1016 88 10000 4.1 330 22:19 02.12.2019
3099 Clouds 18 1016 82 10000 5.1 350 21:39 02.12.2019
3100 Clouds 18 1016 82 10000 5.1 350 21:39 02.12.2019
3101 Clouds 18 1016 82 10000 5.1 350 21:39 02.12.2019
3102 Clouds 18 1016 82 10000 5.1 350 21:20 02.12.2019
3103 Rain 18 1016 82 10000 8.2 10 20:57 02.12.2019
3104 Clouds 19 1015 72 10000 8.2 10 20:38 02.12.2019
3105 Clouds 19 1015 72 10000 8.2 10 20:20 02.12.2019
3106 Clouds 20 1015 64 10000 8.7 360 19:56 02.12.2019
3107 Clouds 20 1015 64 10000 7.2 350 19:38 02.12.2019
3108 Clouds 20 1015 64 10000 7.2 350 19:19 02.12.2019
3109 Clouds 21 1015 64 10000 6.7 10 18:46 02.12.2019
3110 Clouds 21 1015 56 10000 4.1 340 18:20 02.12.2019
3111 Clouds 21 1015 52 10000 7.7 340 17:58 02.12.2019
3112 Clouds 21 1015 49 10000 7.2 340 17:40 02.12.2019
3113 Clouds 21 1015 49 10000 7.2 340 17:40 02.12.2019
3114 Clouds 22 1015 49 10000 7.2 340 17:20 02.12.2019
3115 Clouds 22 1015 49 8000 8.2 330 16:54 02.12.2019
3116 Clouds 22 1015 49 8000 7.7 340 16:36 02.12.2019
3117 Clouds 22 1015 49 8000 7.7 340 16:18 02.12.2019
3118 Clouds 22 1015 53 8000 9.8 350 15:55 02.12.2019
3119 Clouds 21 1015 53 8000 10.3 10 15:36 02.12.2019
3120 Clouds 22 1015 53 8000 10.3 10 15:18 02.12.2019
3121 Clouds 22 1016 53 10000 9.8 360 14:39 02.12.2019
3122 Clouds 22 1016 53 10000 9.8 360 14:20 02.12.2019
3123 Clouds 22 1016 53 10000 9.8 360 14:20 02.12.2019
3124 Clouds 22 1017 56 10000 8.7 340 13:58 02.12.2019
3125 Clouds 22 1017 56 10000 9.8 350 13:39 02.12.2019
3126 Clouds 21 1017 56 10000 9.8 350 13:20 02.12.2019
3127 Clouds 21 1018 64 10000 7.2 350 12:57 02.12.2019
3128 Clouds 21 1018 68 10000 7.2 350 12:37 02.12.2019
3129 Clouds 20 1018 68 10000 7.2 350 12:19 02.12.2019
3130 Clouds 20 1019 82 10000 4.1 350 11:55 02.12.2019
3131 Rain 19 1019 88 8000 8.7 360 11:36 02.12.2019
3132 Rain 19 1019 88 8000 8.7 360 11:18 02.12.2019
3133 Clouds 20 1018 72 10000 7.2 350 10:54 02.12.2019
3134 Clouds 20 1018 68 10000 6.2 350 10:36 02.12.2019
3135 Clouds 20 1018 68 10000 6.2 350 10:18 02.12.2019
3136 Clouds 19 1018 68 10000 5.7 10 09:39 02.12.2019
3137 Clouds 18 1018 68 10000 5.7 10 09:19 02.12.2019
3138 Clouds 18 1018 68 10000 5.7 10 09:19 02.12.2019
3139 Clouds 18 1018 68 10000 5.7 10 09:19 02.12.2019
3140 Clouds 18 1018 72 10000 4.6 10 08:56 02.12.2019
3141 Clouds 18 1017 68 10000 6.2 10 08:38 02.12.2019
3142 Clouds 18 1017 68 10000 6.2 10 08:20 02.12.2019
3143 Clouds 17 1017 77 10000 4.1 20 07:42 02.12.2019
3144 Clouds 18 1017 72 10000 5.1 340 07:20 02.12.2019
3145 Clouds 18 1018 77 10000 6.7 350 06:52 02.12.2019
3146 Clouds 18 1018 77 10000 7.7 350 06:34 02.12.2019
3147 Clouds 18 1018 72 10000 6.2 10 05:24 02.12.2019
3148 Clouds 19 1018 64 10000 7.2 350 04:20 02.12.2019
3149 Clouds 19 1019 68 10000 4.6 340 02:51 02.12.2019
3150 Clouds 19 1019 68 10000 5.1 340 02:23 02.12.2019
3151 Clouds 19 1020 68 10000 5.1 340 01:24 02.12.2019
3152 Clouds 18 1020 68 10000 4.6 350 00:45 02.12.2019
3153 Clouds 19 1020 68 10000 4.6 350 00:23 02.12.2019
3154 Clouds 19 1020 68 10000 4.6 360 23:45 01.12.2019
3155 Clouds 19 1020 63 10000 5.1 350 23:23 01.12.2019
3156 Clouds 19 1020 68 10000 4.6 360 22:58 01.12.2019
3157 Clouds 19 1020 68 10000 5.1 360 22:39 01.12.2019
3158 Clouds 19 1020 68 10000 5.1 360 22:20 01.12.2019
3159 Clouds 20 1020 64 10000 6.2 360 21:58 01.12.2019
3160 Clouds 20 1020 68 10000 6.2 360 21:40 01.12.2019
3161 Clouds 20 1020 68 10000 6.2 360 21:22 01.12.2019
3162 Clouds 20 1020 68 10000 7.7 10 20:59 01.12.2019
3163 Clouds 20 1020 68 10000 7.7 360 20:41 01.12.2019
3164 Clouds 20 1020 68 10000 7.7 360 20:22 01.12.2019
3165 Clouds 20 1020 68 10000 8.7 10 19:59 01.12.2019
3166 Clouds 20 1020 68 10000 8.7 20 19:39 01.12.2019
3167 Clouds 20 1020 68 10000 8.7 20 19:21 01.12.2019
3168 Clouds 20 1020 68 10000 8.7 20 19:21 01.12.2019
3169 Clouds 20 1020 68 10000 8.7 20 19:21 01.12.2019
3170 Clouds 21 1020 68 10000 10.3 20 18:57 01.12.2019
3171 Clouds 21 1020 68 10000 10.3 20 18:57 01.12.2019
3172 Clouds 22 1020 64 10000 9.8 20 18:38 01.12.2019
3173 Clouds 22 1020 64 10000 9.8 20 18:19 01.12.2019
3174 Clouds 22 1020 60 10000 10.8 20 17:58 01.12.2019
3175 Clouds 22 1020 64 10000 10.3 30 17:40 01.12.2019
3176 Clouds 23 1020 64 10000 10.3 30 17:22 01.12.2019
3177 Clouds 23 1020 68 10000 10.8 30 16:55 01.12.2019
3178 Clouds 23 1020 68 10000 9.8 30 16:37 01.12.2019
3179 Clouds 23 1020 68 10000 9.8 30 16:37 01.12.2019
3180 Clouds 23 1020 68 10000 9.8 30 16:18 01.12.2019
3181 Clouds 23 1020 64 10000 10.3 30 15:45 01.12.2019
3182 Clouds 24 1020 64 10000 10.3 30 15:26 01.12.2019
3183 Clouds 24 1020 64 10000 10.3 30 15:26 01.12.2019
3184 Clouds 23 1021 64 10000 9.3 20 14:41 01.12.2019
3185 Clouds 23 1021 64 10000 9.3 20 14:41 01.12.2019
3186 Clouds 23 1021 64 10000 9.3 20 14:41 01.12.2019
3187 Clouds 23 1021 64 10000 9.3 20 14:41 01.12.2019
3188 Clouds 23 1021 64 10000 9.3 20 14:19 01.12.2019
3189 Clouds 23 1022 64 10000 9.8 30 13:56 01.12.2019
3190 Clouds 23 1022 60 10000 9.8 30 13:37 01.12.2019
3191 Clouds 23 1022 60 10000 9.8 30 13:19 01.12.2019
3192 Clouds 23 1022 60 10000 9.8 30 13:19 01.12.2019
3193 Clouds 22 1023 64 10000 9.8 30 12:41 01.12.2019
3194 Clouds 22 1022 64 10000 9.3 20 11:55 01.12.2019
3195 Clouds 22 1022 68 10000 9.3 20 11:37 01.12.2019
3196 Clouds 22 1022 68 10000 9.3 20 11:37 01.12.2019
3197 Clouds 21 1022 68 10000 9.3 20 11:18 01.12.2019
3198 Clouds 21 1022 68 10000 9.3 10 10:43 01.12.2019
3199 Clouds 20 1021 72 10000 8.2 10 10:20 01.12.2019
3200 Clouds 20 1021 72 10000 6.7 360 09:42 01.12.2019
3201 Clouds 19 1021 77 10000 6.7 360 09:24 01.12.2019
3202 Clouds 19 1021 77 10000 6.7 360 08:58 01.12.2019
3203 Clouds 19 1021 77 10000 7.2 360 08:38 01.12.2019
3204 Clouds 19 1021 77 10000 7.2 360 08:19 01.12.2019
3205 Clouds 19 1021 77 10000 6.7 350 07:49 01.12.2019
3206 Clouds 19 1020 77 10000 6.7 360 07:29 01.12.2019
3207 Clouds 19 1020 77 10000 5.7 360 06:53 01.12.2019
3208 Clouds 19 1020 77 10000 6.2 360 06:19 01.12.2019
3209 Clouds 19 1020 77 10000 6.2 350 05:42 01.12.2019
3210 Clouds 20 1020 77 10000 7.2 10 04:29 01.12.2019
3211 Clouds 20 1021 82 10000 8.2 10 02:46 01.12.2019
3212 Clouds 20 1021 82 10000 8.2 10 02:28 01.12.2019
3213 Clouds 20 1021 82 10000 8.2 360 01:54 01.12.2019
3214 Clouds 20 1021 82 10000 7.2 360 01:32 01.12.2019
3215 Clouds 20 1021 82 10000 7.2 360 00:50 01.12.2019
3216 Clouds 21 1021 82 10000 6.2 350 00:27 01.12.2019
3217 Clouds 20 1021 82 10000 5.1 350 23:57 30.11.2019
3218 Clouds 20 1021 82 10000 5.1 350 23:39 30.11.2019
3219 Clouds 21 1021 82 10000 5.1 350 23:20 30.11.2019
3220 Clouds 21 1021 82 10000 5.1 350 22:46 30.11.2019
3221 Clouds 20 1021 82 10000 5.7 360 22:28 30.11.2019
3222 Clouds 21 1020 77 10000 5.1 360 21:54 30.11.2019
3223 Clouds 20 1020 88 10000 5.1 360 21:36 30.11.2019
3224 Clouds 20 1020 88 10000 5.1 360 21:18 30.11.2019
3225 Clouds 21 1020 83 10000 5.7 360 20:54 30.11.2019
3226 Clouds 21 1020 83 10000 5.7 20 20:36 30.11.2019
3227 Clouds 21 1020 83 10000 5.7 20 20:18 30.11.2019
3228 Clouds 21 1020 83 10000 6.2 20 19:54 30.11.2019
3229 Clouds 21 1020 88 10000 6.7 10 19:36 30.11.2019
3230 Clouds 21 1020 88 10000 6.7 10 19:18 30.11.2019
3231 Clouds 23 1019 83 10000 7.2 20 18:39 30.11.2019
3232 Clouds 23 1019 83 10000 7.2 20 18:39 30.11.2019
3233 Clouds 23 1019 83 10000 7.2 20 18:21 30.11.2019
3234 Clouds 23 1019 78 10000 7.7 20 17:59 30.11.2019
3235 Clouds 23 1019 73 10000 8.2 20 17:41 30.11.2019
3236 Clouds 25 1019 73 10000 8.2 20 17:22 30.11.2019
3237 Clouds 25 1019 64 10000 7.2 30 16:59 30.11.2019
3238 Clouds 25 1019 64 10000 7.2 30 16:59 30.11.2019
3239 Clouds 26 1019 53 10000 5.1 20 16:40 30.11.2019
3240 Clouds 25 1019 53 10000 5.1 20 16:21 30.11.2019
3241 Clouds 25 1019 64 10000 4.6 40 15:54 30.11.2019
3242 Clouds 26 1020 61 10000 3.6 60 15:36 30.11.2019
3243 Clouds 26 1020 61 10000 3.6 60 15:18 30.11.2019
3244 Clouds 25 1020 64 10000 3.1 60 14:54 30.11.2019
3245 Clouds 25 1020 60 10000 2.6 70 14:36 30.11.2019
3246 Clouds 24 1020 60 10000 2.6 70 14:18 30.11.2019
3247 Clouds 25 1020 64 10000 3.1 60 13:42 30.11.2019
3248 Clouds 26 1021 53 10000 2.1 90 13:24 30.11.2019
3249 Clouds 26 1021 50 10000 2.6 80 12:47 30.11.2019
3250 Clouds 25 1021 60 10000 3.1 50 12:29 30.11.2019
3251 Clouds 26 1021 50 10000 4.1 40 11:59 30.11.2019
3252 Clouds 25 1021 57 10000 3.6 30 11:41 30.11.2019
3253 Clouds 23 1021 57 10000 3.6 30 11:19 30.11.2019
3254 Clouds 23 1021 64 10000 3.6 20 10:54 30.11.2019
3255 Clouds 22 1020 68 10000 4.1 20 10:36 30.11.2019
3256 Clouds 22 1020 68 10000 4.1 20 10:18 30.11.2019
3257 Clouds 21 1020 60 10000 2.6 360 09:42 30.11.2019
3258 Clouds 19 1020 55 10000 3.1 10 09:20 30.11.2019
3259 Clouds 21 1019 37 10000 2.1 10 08:42 30.11.2019
3260 Clear 20 1019 40 10000 2.1 330 08:19 30.11.2019
3261 Clear 20 1019 60 10000 4.1 320 07:44 30.11.2019
3262 Clear 20 1019 72 10000 4.1 20 07:26 30.11.2019
3263 Clear 20 1019 77 10000 6.2 360 06:49 30.11.2019
3264 Clear 20 1018 68 10000 5.1 10 06:28 30.11.2019
3265 Clear 20 1018 49 10000 3.1 340 05:30 30.11.2019
3266 Clear 21 1018 43 10000 4.6 10 03:40 30.11.2019
3267 Clear 21 1018 43 10000 4.1 360 02:39 30.11.2019
3268 Clear 21 1018 43 10000 4.1 360 02:20 30.11.2019
3269 Clear 22 1019 53 10000 4.6 360 01:25 30.11.2019
3270 Clear 21 1019 53 10000 5.1 360 00:47 30.11.2019
3271 Clear 22 1019 60 10000 5.7 350 00:28 30.11.2019
3272 Clear 22 1019 60 10000 5.7 350 23:55 29.11.2019
3273 Clear 22 1019 68 10000 4.6 350 23:37 29.11.2019
3274 Clear 22 1019 68 10000 4.6 350 23:18 29.11.2019
3275 Clear 21 1018 68 10000 5.1 350 22:39 29.11.2019
3276 Clear 21 1018 68 10000 5.1 350 22:21 29.11.2019
3277 Clear 21 1018 73 10000 6.2 350 21:42 29.11.2019
3278 Clear 22 1018 73 10000 6.2 350 21:22 29.11.2019
3279 Clear 22 1017 68 10000 6.2 360 20:57 29.11.2019
3280 Clear 22 1017 68 10000 5.1 360 20:37 29.11.2019
3281 Clouds 21 1017 68 10000 5.1 360 20:19 29.11.2019
3282 Clouds 21 1017 73 10000 4.6 20 19:56 29.11.2019
3283 Clouds 22 1017 69 10000 3.6 20 19:38 29.11.2019
3284 Clouds 23 1017 69 10000 3.6 20 19:19 29.11.2019
3285 Clouds 22 1017 56 10000 3.1 10 18:42 29.11.2019
3286 Clouds 22 1017 56 10000 3.1 10 18:42 29.11.2019
3287 Clouds 24 1017 53 10000 2.6 30 18:24 29.11.2019
3288 Clouds 23 1016 50 10000 3.1 60 18:00 29.11.2019
3289 Clouds 24 1016 50 10000 2.6 60 17:41 29.11.2019
3290 Clouds 25 1016 50 10000 2.6 60 17:22 29.11.2019
3291 Clouds 25 1016 44 10000 2.1 60 16:44 29.11.2019
3292 Clouds 26 1016 44 10000 1.5 50 16:21 29.11.2019
3293 Clouds 25 1017 44 10000 2.1 0 15:59 29.11.2019
3294 Clouds 27 1017 44 10000 1.5 0 15:39 29.11.2019
3295 Clouds 26 1017 44 10000 1.5 0 15:21 29.11.2019
3296 Clouds 26 1017 44 10000 1.5 0 15:21 29.11.2019
3297 Clouds 26 1018 44 10000 1 0 14:41 29.11.2019
3298 Clouds 24 1018 44 10000 1 0 14:22 29.11.2019
3299 Clouds 24 1018 60 10000 2.6 60 13:58 29.11.2019
3300 Clouds 24 1018 57 10000 3.6 30 13:38 29.11.2019
3301 Clouds 25 1018 57 10000 3.6 30 13:20 29.11.2019
3302 Clouds 24 1019 69 10000 4.1 30 12:44 29.11.2019
3303 Clouds 24 1019 69 10000 3.1 40 12:25 29.11.2019
3304 Clouds 22 1019 73 10000 5.7 30 11:57 29.11.2019
3305 Clouds 23 1018 73 10000 4.1 30 11:38 29.11.2019
3306 Clouds 23 1018 73 10000 4.1 30 11:19 29.11.2019
3307 Clouds 22 1018 73 10000 5.1 20 10:58 29.11.2019
3308 Clouds 21 1018 77 10000 4.1 360 10:39 29.11.2019
3309 Clouds 21 1018 77 10000 4.1 360 10:39 29.11.2019
3310 Clouds 20 1018 77 10000 4.1 360 10:20 29.11.2019
3311 Clouds 20 1018 77 10000 4.6 360 09:58 29.11.2019
3312 Clouds 19 1017 82 10000 4.1 360 09:39 29.11.2019
3313 Clouds 19 1017 82 10000 4.1 360 09:20 29.11.2019
3314 Clouds 19 1017 72 10000 5.7 360 08:55 29.11.2019
3315 Clouds 19 1017 77 10000 5.7 360 08:37 29.11.2019
3316 Clouds 19 1017 77 10000 5.7 360 08:18 29.11.2019
3317 Clouds 19 1016 77 10000 6.2 350 07:41 29.11.2019
3318 Clouds 19 1016 77 10000 6.2 350 07:23 29.11.2019
3319 Clouds 19 1016 77 10000 5.7 350 06:47 29.11.2019
3320 Clouds 19 1016 77 10000 6.2 350 06:28 29.11.2019
3321 Clouds 19 1016 77 10000 6.7 350 05:32 29.11.2019
3322 Clouds 19 1016 77 10000 6.7 350 05:32 29.11.2019
3323 Clouds 19 1016 77 10000 6.7 350 05:32 29.11.2019
3324 Clouds 20 1016 72 10000 6.2 350 04:57 29.11.2019
3325 Clouds 19 1016 64 10000 6.2 360 03:41 29.11.2019
3326 Clouds 19 1016 64 10000 6.2 360 03:18 29.11.2019
3327 Clouds 20 1016 68 10000 6.7 360 02:24 29.11.2019
3328 Clouds 20 1017 60 10000 5.7 350 01:40 29.11.2019
3329 Clouds 20 1017 60 10000 5.7 350 01:20 29.11.2019
3330 Clouds 20 1017 60 10000 5.7 350 01:20 29.11.2019
3331 Clouds 20 1017 68 10000 5.7 350 00:40 29.11.2019
3332 Clouds 20 1017 68 10000 5.7 350 00:18 29.11.2019
3333 Clouds 20 1017 77 10000 5.7 360 23:41 28.11.2019
3334 Clouds 20 1017 77 10000 5.7 360 23:21 28.11.2019
3335 Clouds 20 1017 77 10000 6.7 360 22:56 28.11.2019
3336 Clouds 20 1017 77 10000 6.7 350 22:37 28.11.2019
3337 Clouds 20 1017 77 10000 6.7 350 22:19 28.11.2019
3338 Clouds 20 1016 77 10000 6.2 360 21:54 28.11.2019
3339 Clouds 20 1016 77 10000 6.2 350 21:36 28.11.2019
3340 Clouds 20 1016 77 10000 6.2 350 21:18 28.11.2019
3341 Clouds 20 1016 82 10000 6.7 360 20:41 28.11.2019
3342 Clouds 20 1016 82 10000 7.2 10 20:22 28.11.2019
3343 Clouds 20 1015 82 10000 7.7 10 19:57 28.11.2019
3344 Clouds 21 1015 82 10000 8.2 10 19:38 28.11.2019
3345 Clouds 20 1015 82 10000 8.2 10 19:19 28.11.2019
3346 Clouds 21 1015 82 10000 7.7 20 18:57 28.11.2019
3347 Clouds 21 1015 73 10000 7.7 20 18:39 28.11.2019
3348 Clouds 21 1015 73 10000 7.7 20 18:18 28.11.2019
3349 Clouds 21 1015 73 10000 7.7 20 17:56 28.11.2019
3350 Clouds 22 1015 73 10000 7.7 20 17:38 28.11.2019
3351 Clouds 22 1015 73 10000 7.7 20 17:20 28.11.2019
3352 Clouds 22 1015 73 10000 7.2 30 16:40 28.11.2019
3353 Clouds 22 1015 73 10000 7.2 30 16:19 28.11.2019
3354 Clouds 23 1016 73 10000 7.7 20 15:58 28.11.2019
3355 Clouds 22 1016 68 10000 7.7 30 15:39 28.11.2019
3356 Clouds 23 1016 68 10000 7.7 30 15:19 28.11.2019
3357 Clouds 22 1016 73 10000 7.7 30 14:58 28.11.2019
3358 Clouds 23 1017 68 10000 7.7 30 14:39 28.11.2019
3359 Clouds 22 1017 68 10000 7.7 30 14:19 28.11.2019
3360 Clouds 22 1018 68 10000 8.2 30 13:43 28.11.2019
3361 Clouds 22 1018 68 10000 8.2 30 13:23 28.11.2019
3362 Clouds 22 1018 68 10000 8.2 30 12:56 28.11.2019
3363 Clouds 21 1018 64 10000 8.2 20 12:38 28.11.2019
3364 Clouds 21 1018 64 10000 8.2 20 12:20 28.11.2019
3365 Clouds 21 1018 68 10000 7.7 30 11:55 28.11.2019
3366 Clouds 21 1018 68 10000 7.7 30 11:55 28.11.2019
3367 Clouds 21 1018 68 10000 7.7 20 11:37 28.11.2019
3368 Clouds 20 1018 68 10000 7.7 20 11:18 28.11.2019
3369 Clouds 20 1018 68 10000 6.7 360 10:42 28.11.2019
3370 Clouds 19 1018 68 10000 6.2 350 10:21 28.11.2019
3371 Clouds 19 1018 72 10000 5.1 350 09:56 28.11.2019
3372 Clouds 19 1018 72 10000 5.1 350 09:56 28.11.2019
3373 Clouds 19 1017 72 10000 5.1 350 09:38 28.11.2019
3374 Clouds 18 1017 72 10000 5.1 350 09:18 28.11.2019
3375 Clouds 18 1017 72 10000 5.1 350 08:40 28.11.2019
3376 Clouds 17 1017 72 10000 5.1 350 08:21 28.11.2019
3377 Clouds 18 1017 72 10000 4.6 360 07:55 28.11.2019
3378 Clouds 18 1016 72 10000 5.7 350 07:36 28.11.2019
3379 Clouds 18 1016 72 10000 5.7 350 07:18 28.11.2019
3380 Clouds 18 1016 72 10000 5.7 350 06:37 28.11.2019
3381 Clouds 17 1016 77 10000 4.6 350 05:53 28.11.2019
3382 Clouds 18 1016 77 10000 5.1 10 05:33 28.11.2019
3383 Clouds 18 1016 77 10000 5.1 360 03:49 28.11.2019
3384 Clouds 19 1017 82 10000 6.7 10 02:30 28.11.2019
3385 Clouds 18 1018 77 10000 6.2 360 01:21 28.11.2019
3386 Clouds 18 1018 72 10000 6.2 360 00:37 28.11.2019
3387 Clouds 19 1018 72 10000 6.2 360 00:18 28.11.2019
3388 Clouds 19 1018 77 10000 8.2 10 23:38 27.11.2019
3389 Clouds 19 1018 77 10000 8.2 10 23:20 27.11.2019
3390 Clouds 19 1018 77 10000 7.7 10 22:55 27.11.2019
3391 Clouds 19 1017 77 10000 8.2 10 22:36 27.11.2019
3392 Clouds 20 1017 77 10000 8.2 10 22:18 27.11.2019
3393 Clouds 20 1017 72 10000 7.7 10 21:55 27.11.2019
3394 Clouds 19 1017 72 10000 8.7 10 21:36 27.11.2019
3395 Clouds 19 1017 72 10000 8.7 10 21:18 27.11.2019
3396 Clouds 19 1017 72 10000 8.7 10 21:18 27.11.2019
3397 Clouds 20 1017 72 10000 8.2 10 20:55 27.11.2019
3398 Clouds 20 1017 72 10000 8.2 10 20:55 27.11.2019
3399 Clouds 19 1017 72 10000 6.7 360 20:36 27.11.2019
3400 Clouds 20 1017 72 10000 6.7 360 20:18 27.11.2019
3401 Clouds 20 1017 72 10000 7.7 20 19:54 27.11.2019
3402 Clouds 19 1016 72 10000 8.7 20 19:36 27.11.2019
3403 Clouds 19 1016 72 10000 8.7 20 19:18 27.11.2019
3404 Clouds 21 1016 68 10000 9.8 20 18:38 27.11.2019
3405 Clouds 20 1016 68 10000 9.8 20 18:38 27.11.2019
3406 Clouds 20 1016 68 10000 9.8 20 18:20 27.11.2019
3407 Clouds 22 1016 64 10000 9.8 20 17:59 27.11.2019
3408 Clouds 21 1016 68 10000 10.3 20 17:41 27.11.2019
3409 Clouds 21 1016 68 10000 10.3 20 17:23 27.11.2019
3410 Clouds 22 1016 64 10000 10.3 30 16:58 27.11.2019
3411 Clouds 22 1016 64 10000 9.8 30 16:39 27.11.2019
3412 Clouds 22 1016 64 10000 9.8 30 16:21 27.11.2019
3413 Clouds 22 1016 64 10000 9.8 30 16:21 27.11.2019
3414 -273 0 0 0 0 0 15:58 27.11.2019
3415 Clouds 22 1016 68 10000 9.3 30 15:58 27.11.2019
3416 Clouds 22 1016 68 10000 9.8 30 15:40 27.11.2019
3417 Clouds 21 1016 68 10000 9.8 30 15:21 27.11.2019
3418 Clouds 22 1017 64 10000 9.8 30 14:58 27.11.2019
3419 Clouds 22 1017 64 10000 9.3 30 14:39 27.11.2019
3420 Clouds 21 1017 64 10000 9.3 30 14:21 27.11.2019
3421 Clouds 22 1018 60 10000 9.3 40 13:58 27.11.2019
3422 Clouds 22 1018 64 10000 8.7 30 13:39 27.11.2019
3423 Clouds 22 1018 64 10000 8.7 30 13:19 27.11.2019
3424 Clouds 22 1018 64 10000 8.7 30 13:19 27.11.2019
3425 Clouds 22 1019 64 10000 9.8 30 12:57 27.11.2019
3426 Clouds 22 1019 64 10000 8.7 30 12:39 27.11.2019
3427 Clouds 21 1019 64 10000 8.7 30 12:19 27.11.2019
3428 Clouds 22 1018 60 10000 8.7 20 11:38 27.11.2019
3429 Clouds 20 1018 60 10000 8.7 20 11:19 27.11.2019
3430 Clouds 20 1018 68 10000 8.2 30 10:59 27.11.2019
3431 Clouds 20 1018 72 10000 6.2 10 10:41 27.11.2019
3432 Clouds 19 1018 72 10000 6.2 10 10:23 27.11.2019
3433 Clouds 19 1018 72 10000 6.2 10 10:23 27.11.2019
3434 Clouds 19 1018 72 10000 6.7 10 09:45 27.11.2019
3435 Clouds 18 1017 72 10000 5.7 10 09:26 27.11.2019
3436 Clouds 18 1017 72 10000 5.7 10 08:58 27.11.2019
3437 Clouds 19 1017 72 10000 6.2 360 08:39 27.11.2019
3438 Clouds 18 1017 72 10000 6.2 360 08:21 27.11.2019
3439 Clouds 18 1016 72 10000 6.7 360 07:46 27.11.2019
3440 Clouds 18 1016 77 10000 5.7 360 07:28 27.11.2019
3441 Drizzle 19 1016 72 10000 6.7 10 06:47 27.11.2019
3442 Clouds 18 1016 72 10000 6.2 360 06:29 27.11.2019
3443 Clouds 19 1017 68 10000 6.2 360 05:43 27.11.2019
3444 Clouds 19 1017 68 10000 6.2 360 05:19 27.11.2019
3445 Clouds 18 1017 68 10000 5.7 10 04:41 27.11.2019
3446 Clouds 19 1017 68 10000 5.7 360 03:55 27.11.2019
3447 Clouds 19 1017 68 10000 5.7 360 03:23 27.11.2019
3448 Clouds 19 1017 72 10000 6.7 350 02:54 27.11.2019
3449 Clouds 19 1018 72 10000 6.7 360 01:39 27.11.2019
3450 Clouds 19 1018 72 10000 6.2 10 00:45 27.11.2019
3451 Clouds 19 1018 72 10000 6.7 360 00:26 27.11.2019
3452 Clouds 19 1018 72 10000 7.7 360 23:49 26.11.2019
3453 Clouds 19 1018 72 10000 9.3 10 23:27 26.11.2019
3454 Clouds 19 1018 72 10000 7.7 360 22:59 26.11.2019
3455 Clouds 19 1018 72 10000 7.7 360 22:38 26.11.2019
3456 Clouds 20 1018 72 10000 7.7 360 22:19 26.11.2019
3457 Clouds 20 1018 72 10000 7.2 360 21:58 26.11.2019
3458 Clouds 20 1018 72 10000 7.2 360 21:58 26.11.2019
3459 Clouds 20 1018 72 10000 8.7 10 21:37 26.11.2019
3460 Clouds 20 1018 72 10000 8.7 10 21:19 26.11.2019
3461 Clouds 20 1017 72 10000 8.7 20 20:55 26.11.2019
3462 Clouds 19 1017 72 10000 9.3 10 20:36 26.11.2019
3463 Clouds 19 1017 72 10000 9.3 10 20:18 26.11.2019
3464 Clouds 20 1017 72 10000 9.3 10 19:55 26.11.2019
3465 Clouds 19 1017 72 10000 9.8 10 19:37 26.11.2019
3466 Clouds 19 1017 72 10000 9.8 10 19:18 26.11.2019
3467 Clouds 20 1017 68 10000 10.3 20 18:56 26.11.2019
3468 Clouds 20 1017 68 10000 10.3 20 18:38 26.11.2019
3469 Clouds 20 1017 68 10000 10.3 20 18:20 26.11.2019
3470 Clouds 22 1016 64 10000 10.3 20 17:54 26.11.2019
3471 Clouds 21 1016 64 10000 10.8 20 17:36 26.11.2019
3472 Clouds 22 1016 64 10000 10.8 20 17:18 26.11.2019
3473 Clouds 22 1016 64 10000 11.3 30 16:54 26.11.2019
3474 Clouds 21 1016 64 10000 10.3 20 16:36 26.11.2019
3475 Clouds 21 1016 64 10000 10.3 20 16:18 26.11.2019
3476 Clouds 21 1017 68 10000 7.7 20 15:39 26.11.2019
3477 Clouds 21 1017 68 10000 7.7 20 15:39 26.11.2019
3478 Clouds 22 1017 68 10000 7.7 20 15:21 26.11.2019
3479 Clouds 22 1017 64 10000 8.2 30 15:00 26.11.2019
3480 Clouds 21 1017 64 10000 8.7 30 14:41 26.11.2019
3481 Clouds 21 1017 64 10000 8.7 30 14:23 26.11.2019
3482 Clouds 22 1018 64 10000 9.3 30 13:43 26.11.2019
3483 Clouds 22 1018 64 10000 9.3 30 13:24 26.11.2019
3484 Clouds 21 1019 64 10000 9.8 30 12:56 26.11.2019
3485 Clouds 22 1019 64 10000 8.2 30 12:36 26.11.2019
3486 Clouds 22 1019 64 10000 8.2 30 12:18 26.11.2019
3487 Clouds 22 1019 64 10000 8.2 30 11:55 26.11.2019
3488 Clouds 20 1019 64 10000 8.2 30 11:36 26.11.2019
3489 Clouds 20 1019 64 10000 8.2 30 11:36 26.11.2019
3490 Clouds 21 1019 64 10000 8.2 30 11:18 26.11.2019
3491 Clouds 21 1019 64 10000 8.2 30 11:18 26.11.2019
3492 Clouds 21 1018 68 10000 8.2 20 10:54 26.11.2019
3493 Clouds 20 1018 68 10000 7.7 20 10:36 26.11.2019
3494 Clouds 21 1018 68 10000 7.7 20 10:18 26.11.2019
3495 Clouds 19 1018 68 10000 4.1 10 09:42 26.11.2019
3496 Clouds 19 1018 68 10000 4.1 10 09:23 26.11.2019
3497 Clouds 19 1018 68 10000 5.1 350 08:47 26.11.2019
3498 Clouds 18 1017 68 10000 7.2 10 08:28 26.11.2019
3499 Clouds 18 1017 72 10000 7.7 10 07:57 26.11.2019
3500 Clouds 18 1017 68 10000 6.7 10 07:38 26.11.2019
3501 Clouds 19 1017 68 10000 6.7 10 07:19 26.11.2019
3502 Clouds 18 1017 77 10000 8.2 10 06:46 26.11.2019
3503 Clouds 18 1017 72 10000 7.7 10 05:59 26.11.2019
3504 Clouds 19 1017 72 10000 7.7 10 05:19 26.11.2019
3505 Clouds 18 1018 68 10000 6.2 360 03:21 26.11.2019
3506 Clouds 18 1019 72 10000 8.2 10 01:37 26.11.2019
3507 Clouds 18 1019 72 10000 8.2 10 01:19 26.11.2019
3508 Clouds 18 1019 72 10000 7.7 20 00:41 26.11.2019
3509 Clouds 18 1019 72 10000 7.7 20 23:59 25.11.2019
3510 Clouds 18 1019 72 10000 7.7 20 23:59 25.11.2019
3511 Clouds 19 1019 72 10000 6.7 10 23:38 25.11.2019
3512 Clouds 17 1019 72 10000 6.7 10 23:19 25.11.2019
3513 Clouds 19 1019 72 10000 7.7 10 22:40 25.11.2019
3514 Clouds 20 1019 72 10000 7.7 10 22:19 25.11.2019
3515 Clouds 20 1019 72 10000 8.7 20 21:59 25.11.2019
3516 Clouds 20 1019 72 10000 6.7 10 21:41 25.11.2019
3517 Clouds 20 1019 72 10000 6.7 10 21:23 25.11.2019
3518 Clouds 20 1019 72 10000 7.7 10 20:58 25.11.2019
3519 Clouds 18 1018 72 10000 7.7 10 20:40 25.11.2019
3520 Clouds 20 1018 72 10000 7.7 10 20:20 25.11.2019
3521 Clouds 20 1018 68 10000 8.7 10 19:57 25.11.2019
3522 Clouds 19 1018 68 10000 10.3 10 19:39 25.11.2019
3523 Clouds 20 1018 68 10000 10.3 10 19:20 25.11.2019
3524 Clouds 19 1018 68 10000 10.8 20 18:58 25.11.2019
3525 Clouds 19 1018 68 10000 10.8 20 18:58 25.11.2019
3526 Clouds 21 1018 68 10000 9.3 20 18:40 25.11.2019
3527 Clouds 19 1018 68 10000 9.3 20 18:22 25.11.2019
3528 Clouds 21 1018 64 10000 9.8 30 17:58 25.11.2019
3529 Clouds 21 1018 68 10000 8.7 30 17:40 25.11.2019
3530 Clouds 19 1018 68 10000 8.7 30 17:21 25.11.2019
3531 Clouds 21 1018 64 10000 8.7 30 16:59 25.11.2019
3532 Clouds 21 1018 60 10000 8.7 40 16:40 25.11.2019
3533 Clouds 20 1018 60 10000 8.7 40 16:22 25.11.2019
3534 Clouds 20 1018 60 10000 9.3 30 15:56 25.11.2019
3535 Clouds 22 1019 56 10000 8.2 40 15:37 25.11.2019
3536 Clouds 22 1019 56 10000 8.2 40 15:19 25.11.2019
3537 Clouds 21 1019 56 10000 8.7 30 14:43 25.11.2019
3538 Clouds 22 1019 56 10000 8.2 30 14:25 25.11.2019
3539 Clouds 22 1020 60 10000 8.2 30 13:57 25.11.2019
3540 Clouds 22 1020 60 10000 8.7 30 13:37 25.11.2019
3541 Clouds 21 1020 60 10000 8.7 30 13:18 25.11.2019
3542 Clouds 22 1020 60 10000 8.7 30 12:58 25.11.2019
3543 Clouds 22 1020 64 10000 8.7 30 12:39 25.11.2019
3544 Clouds 21 1020 64 10000 8.7 30 12:19 25.11.2019
3545 Clouds 21 1020 60 10000 9.3 30 11:40 25.11.2019
3546 Clouds 20 1020 60 10000 9.3 30 11:21 25.11.2019
3547 Clouds 20 1020 64 10000 6.2 10 10:59 25.11.2019
3548 Clouds 20 1020 64 10000 6.2 350 10:41 25.11.2019
3549 Clouds 20 1020 64 10000 6.2 350 10:19 25.11.2019
3550 Clouds 18 1019 63 10000 5.7 340 09:44 25.11.2019
3551 Clouds 19 1019 63 10000 5.7 340 09:26 25.11.2019
3552 Clouds 17 1019 68 10000 5.7 340 08:57 25.11.2019
3553 Clouds 17 1018 68 10000 6.7 340 08:38 25.11.2019
3554 Clouds 17 1018 68 10000 6.7 340 08:18 25.11.2019
3555 Clouds 17 1018 68 10000 5.7 350 07:39 25.11.2019
3556 Clouds 17 1018 68 10000 5.7 350 07:18 25.11.2019
3557 Clouds 18 1018 63 10000 5.1 340 06:38 25.11.2019
3558 Clouds 18 1018 63 10000 5.1 340 06:18 25.11.2019
3559 Clouds 19 1018 63 10000 5.1 340 05:32 25.11.2019
3560 Clouds 18 1018 63 10000 6.2 350 04:49 25.11.2019
3561 Clouds 19 1019 60 10000 7.2 350 02:36 25.11.2019
3562 Clouds 20 1020 60 10000 9.3 20 01:44 25.11.2019
3563 Clouds 20 1020 60 10000 8.2 10 01:24 25.11.2019
3564 Clouds 19 1020 60 10000 7.7 360 00:59 25.11.2019
3565 Clouds 19 1020 60 10000 7.7 360 00:20 25.11.2019
3566 Clouds 19 1020 64 10000 8.2 20 23:45 24.11.2019
3567 Clouds 20 1020 60 10000 7.7 10 23:21 24.11.2019
3568 Clouds 20 1020 56 10000 7.2 360 22:58 24.11.2019
3569 Clouds 20 1020 56 10000 8.7 10 22:39 24.11.2019
3570 Clouds 20 1020 56 10000 8.7 10 22:19 24.11.2019
3571 Clouds 20 1019 64 10000 8.2 10 21:57 24.11.2019
3572 Clouds 20 1019 64 10000 7.7 10 21:38 24.11.2019
3573 Clouds 20 1019 64 10000 7.7 10 21:20 24.11.2019
3574 Clouds 19 1019 60 10000 9.8 10 20:57 24.11.2019
3575 Clouds 20 1018 68 10000 9.3 10 20:38 24.11.2019
3576 Clouds 19 1018 68 10000 9.3 10 20:18 24.11.2019
3577 Clouds 20 1018 68 10000 8.7 10 19:56 24.11.2019
3578 Clouds 21 1018 64 10000 9.8 10 19:38 24.11.2019
3579 Clouds 21 1018 64 10000 9.8 10 19:19 24.11.2019
3580 Clouds 20 1018 64 10000 9.3 20 18:57 24.11.2019
3581 Clouds 20 1018 64 10000 9.8 20 18:37 24.11.2019
3582 Clouds 20 1018 64 10000 9.8 20 18:19 24.11.2019
3583 Clouds 20 1018 60 10000 10.8 20 17:55 24.11.2019
3584 Clouds 21 1018 64 10000 10.8 20 17:37 24.11.2019
3585 Clouds 21 1018 64 10000 10.8 20 17:19 24.11.2019
3586 Clouds 21 1018 64 10000 10.8 20 17:19 24.11.2019
3587 Clouds 21 1018 64 10000 10.8 20 16:56 24.11.2019
3588 Clouds 21 1018 68 10000 10.8 30 16:38 24.11.2019
3589 Clouds 21 1018 68 10000 10.8 30 16:19 24.11.2019
3590 Clouds 21 1018 68 10000 10.8 30 16:19 24.11.2019
3591 Clouds 22 1018 64 10000 10.3 30 15:43 24.11.2019
3592 Clouds 22 1019 64 10000 10.3 30 15:25 24.11.2019
3593 Clouds 23 1019 56 10000 9.8 20 14:57 24.11.2019
3594 Clouds 23 1019 56 10000 9.8 20 14:57 24.11.2019
3595 Clouds 23 1019 60 10000 9.8 20 14:38 24.11.2019
3596 Clouds 23 1019 60 10000 9.8 20 14:38 24.11.2019
3597 Clouds 23 1019 60 10000 9.8 20 14:18 24.11.2019
3598 Clouds 21 1020 64 10000 9.3 10 13:41 24.11.2019
3599 Clouds 21 1020 64 10000 9.3 10 13:22 24.11.2019
3600 Clouds 23 1020 64 10000 9.3 20 12:59 24.11.2019
3601 Clouds 23 1021 60 10000 7.7 350 12:40 24.11.2019
3602 Clouds 23 1021 60 10000 7.7 350 12:18 24.11.2019
3603 Clouds 22 1020 64 10000 8.7 20 11:56 24.11.2019
3604 Clouds 22 1020 64 10000 7.2 360 11:37 24.11.2019
3605 Clouds 22 1020 64 10000 7.2 360 11:18 24.11.2019
3606 Clouds 21 1020 73 10000 6.7 360 10:46 24.11.2019
3607 Clouds 21 1020 73 10000 5.7 360 10:28 24.11.2019
3608 Clouds 21 1020 73 10000 5.7 360 10:28 24.11.2019
3609 Clouds 20 1019 77 10000 5.7 360 09:55 24.11.2019
3610 Clouds 19 1019 88 10000 6.2 350 09:37 24.11.2019
3611 Clouds 19 1019 88 10000 6.2 350 09:18 24.11.2019
3612 Clouds 20 1019 77 10000 6.2 360 08:44 24.11.2019
3613 Clouds 18 1018 88 10000 7.2 360 08:22 24.11.2019
3614 Clouds 20 1018 82 10000 6.2 20 07:57 24.11.2019
3615 Clouds 20 1018 82 10000 6.2 20 07:57 24.11.2019
3616 Rain 18 1018 72 10000 6.2 360 07:37 24.11.2019
3617 Rain 20 1018 72 10000 6.2 360 07:18 24.11.2019
3618 Clouds 20 1018 72 10000 5.1 350 06:19 24.11.2019
3619 Clouds 20 1018 72 10000 5.1 350 06:19 24.11.2019
3620 Clouds 20 1018 72 10000 5.1 350 06:19 24.11.2019
3621 Clouds 19 1018 82 10000 5.1 10 04:48 24.11.2019
3622 Clouds 17 1019 72 10000 4.1 360 03:32 24.11.2019
3623 Clouds 20 1019 68 10000 4.6 350 01:59 24.11.2019
3624 Clouds 20 1019 73 10000 5.7 350 01:39 24.11.2019
3625 Clouds 20 1019 73 10000 5.7 350 01:20 24.11.2019
3626 Clouds 20 1019 77 10000 4.6 360 00:47 24.11.2019
3627 Rain 20 1020 73 10000 4.6 360 00:23 24.11.2019
3628 Clouds 20 1020 68 10000 5.1 340 23:45 23.11.2019
3629 Clouds 20 1020 72 10000 3.6 350 23:22 23.11.2019
3630 Clouds 20 1020 72 10000 4.1 350 22:59 23.11.2019
3631 Clouds 20 1020 72 10000 4.1 350 22:59 23.11.2019
3632 Clouds 21 1019 68 10000 4.6 340 22:40 23.11.2019
3633 Clouds 21 1019 68 10000 4.6 340 22:22 23.11.2019
3634 Clouds 21 1019 73 10000 5.7 330 21:58 23.11.2019
3635 Clouds 21 1019 77 10000 5.7 350 21:40 23.11.2019
3636 Clouds 21 1019 77 10000 5.7 350 21:21 23.11.2019
3637 Clouds 21 1019 83 10000 4.6 360 20:55 23.11.2019
3638 Clouds 21 1018 83 10000 5.1 360 20:36 23.11.2019
3639 Clouds 21 1018 83 10000 5.1 360 20:18 23.11.2019
3640 Clouds 21 1018 83 10000 7.2 10 19:54 23.11.2019
3641 Clouds 22 1018 78 10000 5.7 360 19:36 23.11.2019
3642 Clouds 22 1018 78 10000 5.7 360 19:36 23.11.2019
3643 Clouds 21 1018 78 10000 5.7 360 19:18 23.11.2019
3644 Clouds 22 1018 78 10000 7.2 360 18:39 23.11.2019
3645 Clouds 22 1018 78 10000 7.2 360 18:20 23.11.2019
3646 Clouds 22 1018 78 10000 7.2 360 18:20 23.11.2019
3647 Clouds 22 1018 83 7000 6.7 360 17:54 23.11.2019
3648 Rain 23 1018 73 4500 8.7 360 17:36 23.11.2019
3649 Rain 23 1018 73 4500 8.7 360 17:18 23.11.2019
3650 Clouds 23 1017 57 10000 5.1 340 16:54 23.11.2019
3651 Clouds 23 1017 57 10000 6.7 330 16:36 23.11.2019
3652 Clouds 23 1017 57 10000 6.7 330 16:18 23.11.2019
3653 Clouds 24 1018 54 10000 8.2 360 15:40 23.11.2019
3654 Clouds 24 1018 54 10000 8.2 360 15:19 23.11.2019
3655 Clouds 24 1018 54 10000 8.2 360 15:19 23.11.2019
3656 Clouds 21 1018 61 10000 8.2 360 14:58 23.11.2019
3657 Clouds 24 1018 61 10000 6.2 10 14:40 23.11.2019
3658 Clouds 22 1018 61 10000 6.2 10 14:21 23.11.2019
3659 Clouds 24 1019 54 10000 8.2 350 13:56 23.11.2019
3660 Clouds 22 1019 53 10000 7.7 340 13:38 23.11.2019
3661 Clouds 21 1019 53 10000 7.7 340 13:18 23.11.2019
3662 Clouds 23 1019 60 10000 7.2 350 12:42 23.11.2019
3663 Clouds 23 1019 60 10000 7.2 350 12:24 23.11.2019
3664 Clouds 23 1019 60 10000 8.2 360 11:45 23.11.2019
3665 Clouds 23 1019 60 10000 7.7 10 11:23 23.11.2019
3666 Clouds 22 1019 69 10000 3.1 30 10:56 23.11.2019
3667 Clouds 21 1019 77 10000 1 0 10:37 23.11.2019
3668 Clouds 20 1019 77 10000 1 0 10:18 23.11.2019
3669 Clouds 20 1019 77 10000 1.5 150 09:40 23.11.2019
3670 Clouds 19 1019 77 10000 1.5 150 09:18 23.11.2019
3671 Clouds 19 1018 72 10000 1.5 260 08:41 23.11.2019
3672 Clouds 19 1018 72 10000 1.5 260 08:19 23.11.2019
3673 Clouds 19 1018 77 10000 3.1 270 07:42 23.11.2019
3674 Clouds 18 1017 77 10000 2.6 260 06:58 23.11.2019
3675 Clouds 18 1017 77 10000 3.1 270 06:38 23.11.2019
3676 Clouds 18 1017 77 10000 3.1 270 06:19 23.11.2019
3677 Clouds 17 1018 82 10000 3.1 260 05:32 23.11.2019
3678 Clouds 19 1018 77 10000 2.6 250 04:58 23.11.2019
3679 Clouds 19 1018 77 10000 2.6 260 04:34 23.11.2019
3680 Clouds 18 1018 77 10000 2.6 240 03:32 23.11.2019
3681 Clouds 19 1018 77 10000 1.5 320 02:39 23.11.2019
3682 Clouds 19 1018 77 10000 0.5 0 01:40 23.11.2019
3683 Clouds 18 1019 77 10000 1.5 290 00:49 23.11.2019
3684 Clouds 20 1018 72 10000 1 0 00:20 23.11.2019
3685 Clouds 20 1018 72 10000 1 0 23:56 22.11.2019
3686 Clouds 19 1018 73 10000 1 0 23:37 22.11.2019
3687 Clouds 19 1018 73 10000 1 0 23:37 22.11.2019
3688 Clouds 19 1018 73 10000 1 0 23:18 22.11.2019
3689 Clouds 20 1018 73 10000 1 0 22:55 22.11.2019
3690 Clouds 21 1018 73 10000 1.79 310 22:37 22.11.2019
3691 Clouds 20 1018 73 10000 1.79 310 22:18 22.11.2019
3692 Clouds 20 1018 73 10000 1.79 310 22:18 22.11.2019
3693 Clouds 20 1018 73 10000 1.79 310 22:18 22.11.2019
3694 Clouds 21 1017 73 10000 1 0 21:40 22.11.2019
3695 Clouds 21 1017 73 10000 1 0 21:21 22.11.2019
3696 Clouds 21 1017 73 10000 1 0 20:55 22.11.2019
3697 Clouds 21 1016 68 10000 1 0 20:37 22.11.2019
3698 Clouds 21 1016 68 10000 1 0 20:19 22.11.2019
3699 Clouds 22 1016 68 10000 3.6 30 19:39 22.11.2019
3700 Clouds 20 1016 68 10000 3.6 30 19:21 22.11.2019
3701 Clouds 20 1016 68 10000 5.1 30 18:59 22.11.2019
3702 Clouds 22 1016 64 10000 4.1 30 18:38 22.11.2019
3703 Clouds 23 1016 64 10000 4.1 30 18:20 22.11.2019
3704 Clouds 23 1016 64 10000 4.1 30 18:20 22.11.2019
3705 Clouds 21 1016 64 10000 5.7 30 17:42 22.11.2019
3706 Clouds 22 1016 69 10000 6.2 40 17:23 22.11.2019
3707 Clouds 23 1016 60 10000 7.2 30 16:55 22.11.2019
3708 Clouds 23 1016 60 10000 7.7 30 16:37 22.11.2019
3709 Clouds 24 1016 60 10000 7.7 30 16:18 22.11.2019
3710 Clouds 23 1016 53 10000 8.2 30 15:39 22.11.2019
3711 Clouds 24 1016 53 10000 8.2 30 15:20 22.11.2019
3712 Clouds 24 1016 60 10000 9.3 30 14:54 22.11.2019
3713 Clouds 23 1016 60 10000 9.3 30 14:36 22.11.2019
3714 Clouds 23 1016 60 10000 9.3 30 14:36 22.11.2019
3715 Clouds 24 1016 60 10000 9.3 30 14:18 22.11.2019
3716 Clouds 24 1017 64 10000 7.7 20 13:39 22.11.2019
3717 Clouds 23 1017 64 10000 7.7 20 13:20 22.11.2019
3718 Clouds 23 1018 64 10000 7.7 10 12:58 22.11.2019
3719 Clouds 23 1018 69 10000 6.2 20 12:40 22.11.2019
3720 Clouds 22 1018 69 10000 6.2 20 12:20 22.11.2019
3721 Clouds 23 1018 69 10000 6.2 360 11:58 22.11.2019
3722 Clouds 21 1017 73 10000 6.7 360 11:37 22.11.2019
3723 Clouds 20 1017 73 10000 6.7 360 11:18 22.11.2019
3724 Clouds 20 1017 73 10000 6.7 360 11:18 22.11.2019
3725 Clouds 20 1017 73 10000 6.7 360 11:18 22.11.2019
3726 Clouds 21 1017 83 10000 6.2 10 10:54 22.11.2019
3727 Clouds 19 1017 72 10000 2.1 360 10:36 22.11.2019
3728 Clouds 19 1017 72 10000 2.1 360 10:18 22.11.2019
3729 Clouds 19 1016 72 10000 2.6 240 09:41 22.11.2019
3730 Clouds 18 1016 72 10000 2.6 240 09:21 22.11.2019
3731 Clouds 18 1016 77 10000 1.5 270 08:57 22.11.2019
3732 Clouds 18 1015 77 10000 1.5 330 08:38 22.11.2019
3733 Clouds 18 1015 77 10000 1.5 330 08:38 22.11.2019
3734 Clouds 18 1015 77 10000 1.5 330 08:20 22.11.2019
3735 Clouds 17 1015 77 10000 1.5 330 07:42 22.11.2019
3736 Clouds 17 1014 77 10000 1 0 07:20 22.11.2019
3737 Clouds 17 1014 77 10000 1 0 06:47 22.11.2019
3738 Clouds 17 1014 77 10000 1.63 301 06:27 22.11.2019
3739 Clouds 17 1015 77 10000 1.5 240 05:33 22.11.2019
3740 Clouds 17 1015 82 10000 1.5 270 03:26 22.11.2019
3741 Clouds 17 1015 77 10000 2.1 300 02:39 22.11.2019
3742 Clouds 18 1015 77 10000 2.1 300 02:20 22.11.2019
3743 Clouds 19 1016 77 10000 2.1 230 01:43 22.11.2019
3744 Clouds 19 1016 77 10000 2.1 230 01:18 22.11.2019
3745 Clouds 18 1015 77 10000 2.6 240 00:40 22.11.2019
3746 Clouds 18 1015 77 10000 2.6 240 00:19 22.11.2019
3747 Clouds 19 1016 77 10000 1.5 270 23:43 21.11.2019
3748 Clouds 19 1016 77 10000 2.1 280 23:24 21.11.2019
3749 Clouds 19 1015 77 10000 2.1 260 22:56 21.11.2019
3750 Clouds 19 1015 77 10000 2.1 270 22:37 21.11.2019
3751 Clouds 18 1015 77 10000 2.1 270 22:19 21.11.2019
3752 Clouds 19 1015 77 10000 2.1 290 21:54 21.11.2019
3753 Clouds 19 1015 72 10000 2.1 290 21:36 21.11.2019
3754 Clouds 20 1015 72 10000 2.1 290 21:18 21.11.2019
3755 Clouds 19 1015 72 10000 2.1 310 20:57 21.11.2019
3756 Clouds 20 1015 72 10000 2.1 310 20:57 21.11.2019
3757 Clouds 19 1015 72 10000 1.5 330 20:37 21.11.2019
3758 Clouds 19 1015 72 10000 1.5 330 20:18 21.11.2019
3759 Clouds 20 1015 77 10000 1 0 19:55 21.11.2019
3760 Clouds 20 1015 77 10000 1 0 19:55 21.11.2019
3761 Clouds 19 1015 73 10000 1.5 40 19:36 21.11.2019
3762 Clouds 20 1015 73 10000 1.5 40 19:18 21.11.2019
3763 Clouds 19 1015 73 10000 3.1 40 18:41 21.11.2019
3764 Clouds 20 1015 73 10000 3.1 40 18:21 21.11.2019
3765 Clouds 20 1015 68 10000 3.6 50 17:58 21.11.2019
3766 Clouds 22 1014 68 10000 3.1 50 17:39 21.11.2019
3767 Clouds 21 1014 68 10000 3.1 50 17:21 21.11.2019
3768 Clouds 21 1014 73 10000 2.6 0 16:57 21.11.2019
3769 Clouds 21 1014 68 10000 2.1 80 16:39 21.11.2019
3770 Clouds 20 1014 68 10000 2.1 80 16:20 21.11.2019
3771 Clouds 21 1015 73 10000 2.6 90 15:44 21.11.2019
3772 Clouds 20 1015 73 10000 2.1 0 15:22 21.11.2019
3773 Clouds 21 1016 73 10000 2.1 80 14:59 21.11.2019
3774 Clouds 20 1016 73 10000 2.6 0 14:38 21.11.2019
3775 Clouds 21 1016 73 10000 2.6 0 14:20 21.11.2019
3776 Clouds 20 1016 73 10000 2.1 110 13:59 21.11.2019
3777 Clouds 20 1016 73 10000 2.1 130 13:37 21.11.2019
3778 Clouds 20 1016 73 10000 2.1 130 13:19 21.11.2019
3779 Clouds 21 1017 73 10000 2.6 130 12:42 21.11.2019
3780 Clouds 21 1017 73 10000 2.6 130 12:24 21.11.2019
3781 Clouds 20 1017 73 10000 2.1 100 11:56 21.11.2019
3782 Clouds 22 1017 68 10000 2.1 50 11:38 21.11.2019
3783 Clouds 21 1017 68 10000 2.1 50 11:19 21.11.2019
3784 Clouds 21 1017 68 10000 2.1 50 11:19 21.11.2019
3785 Clouds 20 1017 64 10000 2.1 40 10:43 21.11.2019
3786 Clouds 20 1017 68 10000 1.5 10 10:25 21.11.2019
3787 Clouds 19 1016 68 10000 1.5 330 09:59 21.11.2019
3788 Clouds 19 1016 72 10000 1.5 300 09:41 21.11.2019
3789 Clouds 19 1016 72 10000 1.5 300 09:22 21.11.2019
3790 Clouds 18 1016 72 10000 2.1 300 08:54 21.11.2019
3791 Clouds 18 1016 72 10000 2.1 290 08:36 21.11.2019
3792 Clouds 18 1016 72 10000 2.1 290 08:18 21.11.2019
3793 Clouds 18 1015 72 10000 2.1 310 07:37 21.11.2019
3794 Clouds 18 1015 72 10000 2.1 310 07:18 21.11.2019
3795 Clouds 18 1015 77 10000 2.1 300 06:42 21.11.2019
3796 Clouds 18 1016 72 10000 2.1 300 06:24 21.11.2019
3797 Clouds 18 1016 77 10000 2.6 270 04:55 21.11.2019
3798 Clouds 19 1016 72 10000 2.1 250 02:54 21.11.2019
3799 Clouds 18 1017 77 10000 2.1 260 02:33 21.11.2019
3800 Clouds 18 1017 82 10000 2.1 290 01:52 21.11.2019
3801 Clouds 18 1017 82 10000 2.1 290 01:52 21.11.2019
3802 Clouds 18 1017 82 10000 2.1 290 01:21 21.11.2019
3803 Clouds 19 1018 72 10000 1.5 290 00:41 21.11.2019
3804 Clouds 19 1018 72 10000 1.5 290 00:20 21.11.2019
3805 Clouds 19 1018 77 10000 1 260 23:51 20.11.2019
3806 Clouds 19 1018 77 10000 1.5 270 23:22 20.11.2019
3807 Clouds 20 1018 72 10000 1.5 260 22:58 20.11.2019
3808 Clouds 20 1017 72 10000 1.5 270 22:40 20.11.2019
3809 Clouds 20 1017 72 10000 1.5 270 22:20 20.11.2019
3810 Clouds 20 1017 72 10000 1 0 21:59 20.11.2019
3811 Clouds 20 1017 72 10000 1.5 320 21:39 20.11.2019
3812 Clouds 20 1017 72 10000 1.5 320 21:21 20.11.2019
3813 Clouds 20 1017 72 10000 3.1 20 20:57 20.11.2019
3814 Clouds 20 1017 68 10000 3.6 10 20:39 20.11.2019
3815 Clouds 21 1017 68 10000 3.6 10 20:21 20.11.2019
3816 Clouds 21 1017 73 10000 3.6 20 19:57 20.11.2019
3817 Clouds 21 1016 68 10000 4.1 30 19:37 20.11.2019
3818 Clouds 21 1016 68 10000 4.1 30 19:19 20.11.2019
3819 Clouds 21 1016 64 10000 4.1 20 18:59 20.11.2019
3820 Clouds 21 1016 64 10000 3.1 40 18:39 20.11.2019
3821 Clouds 20 1016 64 10000 3.1 40 18:21 20.11.2019
3822 Clouds 20 1016 64 10000 1.5 60 17:57 20.11.2019
3823 Clouds 20 1016 64 10000 2.1 80 17:39 20.11.2019
3824 Clouds 22 1016 64 10000 2.1 80 17:20 20.11.2019
3825 Clouds 21 1016 60 10000 2.6 80 16:57 20.11.2019
3826 Clouds 21 1016 60 10000 2.6 70 16:39 20.11.2019
3827 Clouds 21 1016 60 10000 2.6 70 16:18 20.11.2019
3828 Clouds 21 1016 56 10000 2.6 60 15:55 20.11.2019
3829 Clouds 22 1016 50 10000 2.6 80 15:36 20.11.2019
3830 Clouds 22 1016 50 10000 2.6 80 15:18 20.11.2019
3831 Clouds 22 1017 53 10000 4.1 140 14:40 20.11.2019
3832 Clouds 22 1017 53 10000 4.1 140 14:22 20.11.2019
3833 Clouds 22 1017 53 10000 4.1 140 14:22 20.11.2019
3834 Clouds 22 1017 53 10000 4.1 140 14:22 20.11.2019
3835 Clouds 21 1017 53 10000 4.1 140 14:22 20.11.2019
3836 Clouds 21 1017 53 10000 4.1 140 14:22 20.11.2019
3837 Clouds 21 1017 64 10000 4.6 150 13:58 20.11.2019
3838 Clouds 22 1018 64 10000 5.1 160 13:39 20.11.2019
3839 Clouds 21 1018 64 10000 5.1 160 13:20 20.11.2019
3840 Clouds 21 1018 60 10000 4.6 160 12:55 20.11.2019
3841 Clouds 21 1018 60 10000 4.1 160 12:37 20.11.2019
3842 Clouds 22 1018 60 10000 4.1 160 12:19 20.11.2019
3843 Clouds 21 1019 68 10000 3.1 140 11:45 20.11.2019
3844 Clouds 19 1019 64 10000 2.1 150 11:22 20.11.2019
3845 Clouds 20 1018 68 10000 1.5 120 10:56 20.11.2019
3846 Clouds 20 1018 64 10000 0.5 0 10:38 20.11.2019
3847 Clouds 20 1018 64 10000 0.5 0 10:19 20.11.2019
3848 Clouds 19 1018 63 10000 1.5 260 09:44 20.11.2019
3849 Clouds 17 1018 67 10000 2.1 260 09:23 20.11.2019
3850 Clouds 17 1018 67 10000 2.6 250 08:59 20.11.2019
3851 Clouds 17 1018 67 10000 3.1 260 08:39 20.11.2019
3852 Clouds 17 1018 67 10000 3.1 260 08:21 20.11.2019
3853 Clouds 17 1017 67 10000 2.6 260 07:48 20.11.2019
3854 Clouds 17 1017 67 10000 2.6 260 07:28 20.11.2019
3855 Clear 17 1017 72 10000 2.1 280 06:49 20.11.2019
3856 Clear 17 1017 72 10000 2.1 280 06:22 20.11.2019
3857 Clear 17 1017 77 10000 2.1 290 05:42 20.11.2019
3858 Clear 17 1018 77 10000 2.1 280 03:45 20.11.2019
3859 Clouds 17 1018 77 10000 2.6 260 02:22 20.11.2019
3860 Clouds 17 1019 77 10000 1 0 01:33 20.11.2019
3861 Clouds 18 1019 68 10000 1 290 00:42 20.11.2019
3862 Clouds 18 1019 72 10000 0.5 0 23:59 19.11.2019
3863 Clouds 18 1019 72 10000 2.1 290 23:27 19.11.2019
3864 Clouds 19 1019 68 10000 2.1 300 22:59 19.11.2019
3865 Clouds 19 1019 72 10000 2.1 10 22:41 19.11.2019
3866 Clouds 19 1019 72 10000 2.1 10 22:19 19.11.2019
3867 Clouds 19 1019 68 10000 2.1 330 21:57 19.11.2019
3868 Clouds 19 1018 64 10000 3.1 350 21:38 19.11.2019
3869 Clouds 20 1018 64 10000 3.1 350 21:19 19.11.2019
3870 Clouds 20 1018 64 10000 3.1 350 21:19 19.11.2019
3871 Clouds 20 1018 68 10000 3.1 10 20:56 19.11.2019
3872 Clouds 20 1018 68 10000 3.1 10 20:56 19.11.2019
3873 Clouds 20 1018 68 10000 3.1 10 20:56 19.11.2019
3874 Clouds 20 1018 72 10000 1.5 20 20:38 19.11.2019
3875 Clouds 20 1018 72 10000 1.5 20 20:20 19.11.2019
3876 Clouds 20 1018 72 10000 3.1 360 19:56 19.11.2019
3877 Clouds 20 1018 68 10000 5.7 360 19:38 19.11.2019
3878 Clouds 20 1018 68 10000 5.7 360 19:19 19.11.2019
3879 Clouds 21 1018 68 10000 8.2 10 18:55 19.11.2019
3880 Clouds 21 1018 68 10000 8.2 10 18:55 19.11.2019
3881 Clouds 19 1018 64 10000 5.1 10 18:36 19.11.2019
3882 Clouds 19 1018 64 10000 5.1 10 18:18 19.11.2019
3883 Clouds 19 1018 60 10000 7.7 350 17:55 19.11.2019
3884 Clouds 19 1018 60 10000 7.7 10 17:37 19.11.2019
3885 Clouds 22 1018 60 10000 7.7 10 17:18 19.11.2019
3886 Clouds 22 1018 56 10000 8.7 360 16:42 19.11.2019
3887 Clouds 20 1018 56 10000 8.7 360 16:23 19.11.2019
3888 Clouds 20 1018 56 10000 9.3 10 15:56 19.11.2019
3889 Clouds 22 1018 60 10000 9.3 340 15:38 19.11.2019
3890 Clouds 22 1018 60 10000 9.3 340 15:38 19.11.2019
3891 Clouds 20 1018 60 10000 9.3 340 15:20 19.11.2019
3892 Rain 21 1019 64 10000 9.3 360 14:55 19.11.2019
3893 Rain 21 1020 68 10000 8.7 350 14:37 19.11.2019
3894 Rain 21 1020 68 10000 8.7 350 14:37 19.11.2019
3895 Rain 21 1020 68 10000 8.7 350 14:19 19.11.2019
3896 Rain 21 1020 77 10000 9.3 30 13:40 19.11.2019
3897 Rain 20 1020 77 10000 9.3 30 13:19 19.11.2019
3898 Clouds 22 1020 60 10000 8.7 10 12:40 19.11.2019
3899 Clouds 22 1020 60 10000 8.7 10 12:22 19.11.2019
3900 Clouds 21 1020 64 10000 5.7 360 11:58 19.11.2019
3901 Clouds 21 1020 60 10000 6.7 360 11:38 19.11.2019
3902 Clouds 21 1020 60 10000 6.7 360 11:19 19.11.2019
3903 Clouds 21 1020 64 10000 5.7 10 10:48 19.11.2019
3904 Clouds 20 1020 60 10000 3.36 326 10:23 19.11.2019
3905 Clouds 18 1020 68 10000 3.36 326 09:58 19.11.2019
3906 Clouds 18 1020 67 10000 1.5 340 09:40 19.11.2019
3907 Clouds 17 1020 67 10000 1.5 340 09:18 19.11.2019
3908 Clouds 17 1020 67 10000 1.5 330 08:41 19.11.2019
3909 Clouds 17 1020 67 10000 1.5 330 08:22 19.11.2019
3910 Clouds 17 1019 67 10000 1 0 07:57 19.11.2019
3911 Clouds 17 1019 67 10000 1.5 10 07:38 19.11.2019
3912 Clouds 17 1019 67 10000 1.5 10 07:20 19.11.2019
3913 Clouds 18 1019 63 10000 3.1 330 06:49 19.11.2019
3914 Clouds 17 1019 68 10000 3.6 350 06:29 19.11.2019
3915 Clouds 17 1019 68 10000 3.6 350 05:24 19.11.2019
3916 Clouds 17 1020 68 10000 3.6 340 03:47 19.11.2019
3917 Clouds 18 1020 68 10000 4.1 330 03:29 19.11.2019
3918 Clouds 18 1021 77 10000 3.1 320 02:53 19.11.2019
3919 Clouds 18 1021 63 10000 5.1 350 01:58 19.11.2019
3920 Clouds 18 1021 59 10000 3.6 360 01:27 19.11.2019
3921 Clouds 18 1021 68 10000 3.6 340 00:21 19.11.2019
3922 Clouds 19 1021 68 10000 4.1 340 23:56 18.11.2019
3923 Clouds 19 1021 68 10000 5.1 350 23:37 18.11.2019
3924 Clouds 19 1021 68 10000 5.1 350 23:18 18.11.2019
3925 Clouds 19 1021 72 10000 5.1 350 22:42 18.11.2019
3926 Clouds 19 1021 72 10000 5.1 350 22:23 18.11.2019
3927 Clouds 19 1021 64 10000 5.1 360 21:55 18.11.2019
3928 Clouds 19 1021 68 10000 5.1 360 21:36 18.11.2019
3929 Clouds 19 1021 68 10000 5.1 360 21:18 18.11.2019
3930 Clouds 19 1021 68 10000 4.6 360 20:42 18.11.2019
3931 Clouds 19 1021 68 10000 5.1 360 20:20 18.11.2019
3932 Clouds 20 1021 64 10000 6.2 360 19:58 18.11.2019
3933 Clouds 20 1020 64 10000 5.7 10 19:39 18.11.2019
3934 Clouds 20 1020 64 10000 5.7 10 19:21 18.11.2019
3935 Clouds 20 1021 64 10000 6.2 20 18:57 18.11.2019
3936 Clouds 21 1020 60 10000 6.2 20 18:38 18.11.2019
3937 Clouds 21 1020 60 10000 6.2 20 18:38 18.11.2019
3938 Clouds 21 1020 60 10000 6.2 20 18:20 18.11.2019
3939 Clouds 21 1020 60 10000 6.2 20 18:20 18.11.2019
3940 Clouds 21 1020 60 10000 7.2 30 17:59 18.11.2019
3941 Clouds 21 1020 60 10000 7.2 30 17:38 18.11.2019
3942 Clouds 21 1020 60 10000 7.2 30 17:19 18.11.2019
3943 Clouds 21 1020 60 10000 7.2 30 17:19 18.11.2019
3944 Clouds 22 1020 56 10000 7.2 30 16:43 18.11.2019
3945 Clouds 22 1020 56 10000 7.2 30 16:25 18.11.2019
3946 Clouds 22 1020 56 10000 7.2 30 16:25 18.11.2019
3947 Clouds 21 1020 56 10000 7.7 30 15:59 18.11.2019
3948 Clouds 21 1021 56 10000 7.2 40 15:41 18.11.2019
3949 -273 0 0 0 0 0 15:41 18.11.2019
3950 Clouds 22 1021 56 10000 7.2 40 15:22 18.11.2019
3951 Clouds 22 1021 53 10000 7.7 30 14:59 18.11.2019
3952 Clouds 22 1021 53 10000 7.7 30 14:41 18.11.2019
3953 Clouds 22 1021 53 10000 7.7 30 14:22 18.11.2019
3954 Clouds 22 1022 56 10000 7.2 30 13:45 18.11.2019
3955 Clouds 22 1022 53 10000 7.7 30 13:27 18.11.2019
3956 Clouds 22 1022 56 10000 7.7 30 12:57 18.11.2019
3957 Clouds 20 1023 56 10000 8.2 30 12:37 18.11.2019
3958 Clouds 21 1023 56 10000 8.2 30 12:18 18.11.2019
3959 Clouds 21 1023 60 10000 7.7 30 11:43 18.11.2019
3960 Clouds 21 1022 60 10000 7.7 30 11:25 18.11.2019
3961 Clouds 20 1022 60 10000 8.2 20 10:46 18.11.2019
3962 Clouds 20 1022 60 10000 7.2 20 10:27 18.11.2019
3963 Clouds 19 1022 68 10000 6.2 360 09:59 18.11.2019
3964 Clouds 18 1022 68 10000 6.2 360 09:39 18.11.2019
3965 Clouds 18 1022 68 10000 6.2 360 09:21 18.11.2019
3966 Clouds 17 1022 68 10000 6.2 350 08:59 18.11.2019
3967 Clouds 17 1021 68 10000 5.1 360 08:41 18.11.2019
3968 Clouds 17 1021 68 10000 5.1 360 08:19 18.11.2019
3969 Clouds 17 1021 68 10000 6.7 350 07:47 18.11.2019
3970 Clouds 17 1021 68 10000 6.7 350 07:47 18.11.2019
3971 Clouds 16 1021 72 10000 5.7 360 07:27 18.11.2019
3972 Clouds 16 1021 72 10000 5.7 350 06:49 18.11.2019
3973 Clouds 16 1021 72 10000 6.2 350 06:29 18.11.2019
3974 Clouds 16 1021 67 10000 6.7 350 05:46 18.11.2019
3975 Clouds 17 1021 67 10000 6.7 350 04:35 18.11.2019
3976 Clouds 17 1021 63 10000 7.2 360 01:49 18.11.2019
3977 Clouds 18 1022 63 10000 7.2 10 01:30 18.11.2019
3978 Clouds 19 1022 63 10000 8.7 30 00:21 18.11.2019
3979 Clouds 18 1022 68 10000 9.8 20 23:43 17.11.2019
3980 Clouds 18 1022 63 10000 9.8 20 23:24 17.11.2019
3981 Clouds 18 1022 63 10000 9.8 20 22:58 17.11.2019
3982 Clouds 18 1021 68 10000 9.3 20 22:39 17.11.2019
3983 Clouds 18 1021 68 10000 9.3 20 22:21 17.11.2019
3984 Clouds 18 1021 68 10000 10.3 20 21:57 17.11.2019
3985 Clouds 18 1021 63 10000 9.8 30 21:39 17.11.2019
3986 Clouds 18 1021 63 10000 9.8 30 21:19 17.11.2019
3987 Clouds 19 1021 68 10000 8.7 30 20:55 17.11.2019
3988 Clouds 19 1021 68 10000 8.7 30 20:55 17.11.2019
3989 Clouds 19 1020 68 10000 9.3 30 20:37 17.11.2019
3990 Clouds 19 1020 68 10000 9.3 30 20:19 17.11.2019
3991 Clouds 19 1020 68 10000 7.7 20 19:56 17.11.2019
3992 Clouds 18 1020 77 10000 7.2 350 19:37 17.11.2019
3993 Clouds 19 1020 77 10000 7.2 350 19:19 17.11.2019
3994 Rain 19 1020 72 10000 7.7 350 18:54 17.11.2019
3995 Clouds 19 1020 64 10000 7.7 20 18:36 17.11.2019
3996 Clouds 19 1020 64 10000 7.7 20 18:36 17.11.2019
3997 Clouds 20 1020 64 10000 7.7 20 18:18 17.11.2019
3998 Clouds 20 1020 64 10000 8.7 30 17:57 17.11.2019
3999 Clouds 20 1020 60 10000 9.3 20 17:38 17.11.2019
4000 Clouds 20 1020 60 10000 9.3 20 17:19 17.11.2019
4001 Clouds 20 1020 60 10000 9.8 30 16:55 17.11.2019
4002 Clouds 20 1020 60 10000 9.8 30 16:37 17.11.2019
4003 Clouds 20 1020 60 10000 9.8 30 16:37 17.11.2019
4004 Clouds 20 1020 60 10000 9.8 30 16:19 17.11.2019
4005 Clouds 19 1020 68 10000 7.2 350 15:41 17.11.2019
4006 Clouds 19 1020 68 10000 7.2 350 15:41 17.11.2019
4007 Clouds 19 1020 68 10000 7.2 350 15:41 17.11.2019
4008 Clouds 20 1020 68 10000 7.2 350 15:19 17.11.2019
4009 Rain 19 1021 72 8000 7.2 340 14:58 17.11.2019
4010 Rain 19 1021 72 8000 7.2 340 14:58 17.11.2019
4011 Clouds 20 1021 68 10000 11.3 30 14:40 17.11.2019
4012 Clouds 20 1021 68 10000 11.3 30 14:21 17.11.2019
4013 Clouds 21 1022 46 10000 9.8 20 13:59 17.11.2019
4014 Clouds 21 1022 49 10000 9.8 20 13:40 17.11.2019
4015 Clouds 21 1022 49 10000 9.8 20 13:20 17.11.2019
4016 Clouds 20 1022 60 10000 10.8 20 12:55 17.11.2019
4017 Clouds 20 1023 60 10000 10.3 30 12:36 17.11.2019
4018 Clouds 20 1023 60 10000 10.3 30 12:18 17.11.2019
4019 Clouds 20 1023 60 10000 10.3 30 12:18 17.11.2019
4020 Clouds 20 1023 68 10000 6.2 30 11:54 17.11.2019
4021 Clouds 20 1022 56 10000 8.7 360 11:36 17.11.2019
4022 Clouds 20 1022 56 10000 8.7 360 11:18 17.11.2019
4023 Rain 19 1022 68 10000 10.3 30 10:41 17.11.2019
4024 Rain 19 1022 68 10000 10.3 30 10:21 17.11.2019
4025 Clouds 18 1022 68 10000 6.7 350 09:42 17.11.2019
4026 Clouds 17 1021 72 10000 5.1 340 09:24 17.11.2019
4027 Clouds 18 1021 68 10000 6.2 350 08:47 17.11.2019
4028 Clouds 18 1021 68 10000 8.2 20 08:27 17.11.2019
4029 Clouds 18 1021 68 10000 6.7 330 07:59 17.11.2019
4030 Clouds 18 1021 63 10000 8.2 30 07:40 17.11.2019
4031 Clouds 19 1021 63 10000 8.2 30 07:20 17.11.2019
4032 Clouds 19 1021 59 10000 5.7 10 06:53 17.11.2019
4033 Clouds 19 1020 59 10000 8.2 10 06:29 17.11.2019
4034 Clouds 19 1020 59 10000 7.7 10 05:24 17.11.2019
4035 Clouds 18 1020 72 10000 5.7 360 04:00 17.11.2019
4036 Rain 18 1020 72 10000 7.7 10 03:37 17.11.2019
4037 Rain 18 1020 72 10000 7.7 10 03:19 17.11.2019
4038 Clouds 18 1021 72 10000 6.2 350 01:54 17.11.2019
4039 Clouds 19 1020 68 10000 9.8 20 00:59 17.11.2019
4040 Clouds 19 1020 68 10000 11.3 20 00:41 17.11.2019
4041 Clouds 19 1020 68 10000 11.3 20 00:21 17.11.2019
4042 Clouds 19 1020 72 10000 12.3 30 23:42 16.11.2019
4043 Clouds 19 1020 72 10000 12.3 30 23:42 16.11.2019
4044 Clouds 19 1020 72 10000 12.3 30 23:19 16.11.2019
4045 Clouds 21 1020 68 10000 11.8 20 22:42 16.11.2019
4046 Clouds 19 1020 68 10000 10.8 20 22:20 16.11.2019
4047 Clouds 19 1020 63 10000 11.8 20 21:59 16.11.2019
4048 Clouds 19 1020 64 10000 10.3 10 21:40 16.11.2019
4049 Clouds 20 1020 64 10000 10.3 10 21:21 16.11.2019
4050 Clouds 19 1020 63 10000 9.3 360 20:58 16.11.2019
4051 Clouds 20 1019 68 10000 11.8 10 20:39 16.11.2019
4052 Clouds 20 1019 68 10000 11.8 10 20:19 16.11.2019
4053 Clouds 20 1019 60 10000 8.7 360 19:41 16.11.2019
4054 Clouds 20 1019 60 10000 8.7 360 19:22 16.11.2019
4055 Clouds 20 1018 60 10000 12.3 10 18:59 16.11.2019
4056 Clouds 21 1018 56 10000 11.3 10 18:39 16.11.2019
4057 Clouds 21 1018 56 10000 11.3 10 18:20 16.11.2019
4058 Clouds 21 1018 52 10000 11.3 10 17:55 16.11.2019
4059 Clouds 21 1018 52 10000 13.4 10 17:36 16.11.2019
4060 Clouds 21 1018 52 10000 13.4 10 17:18 16.11.2019
4061 Clouds 22 1018 46 10000 11.8 10 16:44 16.11.2019
4062 Clouds 22 1018 46 10000 12.9 10 16:26 16.11.2019
4063 Clouds 22 1018 46 10000 13.4 10 15:54 16.11.2019
4064 Clouds 22 1018 49 10000 13.9 20 15:36 16.11.2019
4065 Clouds 22 1018 49 10000 13.9 20 15:18 16.11.2019
4066 Clouds 22 1019 49 10000 12.9 10 14:40 16.11.2019
4067 Clouds 22 1019 49 10000 12.9 10 14:40 16.11.2019
4068 Clouds 22 1019 49 10000 12.9 10 14:21 16.11.2019
4069 Clouds 22 1020 49 10000 12.3 10 13:57 16.11.2019
4070 Clouds 22 1020 46 10000 12.3 360 13:38 16.11.2019
4071 Clouds 22 1020 46 10000 12.3 360 13:19 16.11.2019
4072 Clouds 22 1020 46 10000 12.3 10 12:58 16.11.2019
4073 Clouds 21 1020 56 10000 10.8 350 12:40 16.11.2019
4074 Clouds 20 1020 56 10000 10.8 350 12:20 16.11.2019
4075 Clouds 20 1020 60 10000 8.7 360 11:45 16.11.2019
4076 Rain 19 1020 63 10000 12.3 10 11:26 16.11.2019
4077 Clouds 20 1020 63 10000 9.3 360 10:57 16.11.2019
4078 Clouds 19 1019 63 10000 10.3 10 10:39 16.11.2019
4079 Clouds 19 1019 63 10000 10.3 10 10:21 16.11.2019
4080 Clouds 18 1019 68 10000 11.3 20 09:43 16.11.2019
4081 Clouds 18 1019 72 10000 7.2 350 09:21 16.11.2019
4082 Clouds 17 1019 77 10000 10.8 10 08:58 16.11.2019
4083 Clouds 17 1018 68 10000 8.7 360 08:38 16.11.2019
4084 Clouds 17 1018 68 10000 8.7 360 08:19 16.11.2019
4085 Clouds 17 1018 72 10000 9.3 360 07:43 16.11.2019
4086 Rain 17 1018 68 10000 6.7 360 07:21 16.11.2019
4087 Clouds 17 1018 68 10000 6.7 360 06:52 16.11.2019
4088 Clouds 17 1018 68 10000 6.2 360 06:33 16.11.2019
4089 Clouds 17 1017 72 10000 8.7 360 05:30 16.11.2019
4090 Clouds 18 1018 72 10000 7.2 360 03:44 16.11.2019
4091 Clouds 17 1018 72 10000 7.2 10 03:25 16.11.2019
4092 Rain 18 1018 77 10000 12.9 10 01:47 16.11.2019
4093 Clouds 18 1018 72 10000 7.2 350 01:20 16.11.2019
4094 Clouds 18 1018 77 10000 7.2 350 00:44 16.11.2019
4095 Rain 18 1018 72 10000 14.4 10 00:25 16.11.2019
4096 Clouds 19 1018 68 10000 8.7 10 23:40 15.11.2019
4097 Clouds 19 1018 68 10000 8.7 10 23:21 15.11.2019
4098 Clouds 19 1018 68 10000 10.3 10 22:55 15.11.2019
4099 Clouds 18 1017 82 10000 6.7 10 22:37 15.11.2019
4100 Clouds 18 1017 82 10000 6.7 10 22:18 15.11.2019
4101 Clouds 19 1017 68 10000 8.7 10 21:42 15.11.2019
4102 Clouds 19 1017 63 10000 10.3 20 21:21 15.11.2019
4103 Clouds 20 1017 60 10000 9.8 10 20:59 15.11.2019
4104 Clouds 20 1017 64 10000 9.8 20 20:40 15.11.2019
4105 Clouds 20 1017 64 10000 9.8 20 20:22 15.11.2019
4106 Clouds 20 1016 56 10000 10.3 20 19:59 15.11.2019
4107 Clouds 20 1016 60 10000 10.3 20 19:40 15.11.2019
4108 Clouds 20 1016 60 10000 10.3 20 19:21 15.11.2019
4109 Clouds 20 1016 56 10000 10.8 20 18:58 15.11.2019
4110 Clouds 20 1016 60 10000 10.3 20 18:40 15.11.2019
4111 Clouds 20 1016 60 10000 10.3 20 18:21 15.11.2019
4112 Clouds 21 1016 52 10000 11.8 10 17:43 15.11.2019
4113 Clouds 20 1016 60 10000 12.3 20 17:25 15.11.2019
4114 Clouds 20 1016 60 10000 12.3 20 17:25 15.11.2019
4115 Clouds 20 1016 68 10000 11.8 20 16:58 15.11.2019
4116 Clouds 20 1016 68 10000 11.8 20 16:58 15.11.2019
4117 Clouds 21 1016 56 10000 10.8 20 16:39 15.11.2019
4118 Clouds 21 1016 56 10000 10.8 20 16:20 15.11.2019
4119 Clouds 21 1017 56 10000 11.3 20 15:39 15.11.2019
4120 Clouds 21 1017 56 10000 11.3 20 15:39 15.11.2019
4121 Clouds 21 1017 56 10000 11.3 20 15:21 15.11.2019
4122 Clouds 21 1017 60 10000 10.3 30 14:58 15.11.2019
4123 Clouds 21 1017 64 10000 9.3 30 14:40 15.11.2019
4124 Clouds 21 1017 64 10000 9.3 30 14:21 15.11.2019
4125 Clouds 20 1018 77 10000 10.3 30 13:59 15.11.2019
4126 Clouds 20 1018 77 10000 10.3 30 13:59 15.11.2019
4127 Clouds 21 1018 73 10000 9.8 20 13:40 15.11.2019
4128 Clouds 21 1018 73 10000 9.8 20 13:21 15.11.2019
4129 Clouds 21 1018 68 10000 11.8 20 12:59 15.11.2019
4130 Clouds 21 1018 77 10000 8.7 20 12:41 15.11.2019
4131 Clouds 20 1018 77 10000 8.7 20 12:21 15.11.2019
4132 Clouds 21 1018 77 10000 9.8 20 11:59 15.11.2019
4133 Rain 20 1018 82 10000 9.3 10 11:39 15.11.2019
4134 Rain 20 1018 82 10000 9.3 10 11:21 15.11.2019
4135 Clouds 20 1018 82 10000 8.7 10 10:57 15.11.2019
4136 Clouds 19 1017 82 10000 10.3 10 10:39 15.11.2019
4137 Clouds 19 1017 82 10000 10.3 10 10:19 15.11.2019
4138 Clouds 18 1017 88 10000 7.2 350 09:41 15.11.2019
4139 Clouds 18 1017 88 10000 7.2 350 09:20 15.11.2019
4140 Rain 19 1017 82 3000 10.3 360 08:45 15.11.2019
4141 Clouds 19 1016 77 10000 8.2 10 08:25 15.11.2019
4142 Clouds 19 1016 72 10000 6.2 360 07:49 15.11.2019
4143 Clouds 19 1016 64 10000 8.2 350 07:29 15.11.2019
4144 Clouds 19 1016 64 10000 7.2 350 06:59 15.11.2019
4145 Clouds 19 1016 64 10000 7.2 350 06:34 15.11.2019
4146 Clouds 19 1016 60 10000 6.7 350 05:50 15.11.2019
4147 Clouds 19 1016 60 10000 7.7 360 05:28 15.11.2019
4148 Clouds 19 1017 72 10000 8.2 360 04:40 15.11.2019
4149 Clouds 20 1017 60 10000 9.3 10 03:32 15.11.2019
4150 Clouds 20 1017 68 10000 7.7 10 02:27 15.11.2019
4151 Clouds 18 1017 82 10000 9.3 340 01:46 15.11.2019
4152 Drizzle 19 1018 77 10000 12.3 360 01:24 15.11.2019
4153 Clouds 20 1017 64 10000 11.8 20 00:35 15.11.2019
4154 Clouds 20 1017 72 10000 11.3 20 23:58 14.11.2019
4155 Clouds 20 1017 68 10000 11.8 20 23:38 14.11.2019
4156 Clouds 20 1017 68 10000 11.8 20 23:19 14.11.2019
4157 Clouds 21 1017 68 10000 9.8 20 22:40 14.11.2019
4158 Clouds 20 1017 68 10000 9.8 20 22:22 14.11.2019
4159 Clouds 21 1017 68 10000 8.7 20 21:57 14.11.2019
4160 Clouds 21 1017 68 10000 9.8 20 21:39 14.11.2019
4161 Clouds 21 1017 68 10000 9.8 20 21:21 14.11.2019
4162 Clouds 21 1017 68 10000 9.8 20 20:43 14.11.2019
4163 Clouds 21 1017 73 10000 8.7 10 20:24 14.11.2019
4164 Clouds 21 1017 73 10000 8.7 20 19:59 14.11.2019
4165 Clouds 21 1017 73 10000 8.7 20 19:59 14.11.2019
4166 Clouds 21 1016 68 10000 8.7 20 19:41 14.11.2019
4167 Clouds 21 1016 68 10000 8.7 20 19:19 14.11.2019
4168 Clouds 21 1017 68 10000 8.7 20 18:59 14.11.2019
4169 Clouds 21 1017 68 10000 9.3 20 18:41 14.11.2019
4170 Clouds 21 1017 68 10000 9.3 20 18:21 14.11.2019
4171 Clouds 22 1016 64 10000 9.3 10 17:56 14.11.2019
4172 Clouds 22 1016 68 10000 8.7 30 17:37 14.11.2019
4173 Clouds 22 1016 68 10000 8.7 30 17:19 14.11.2019
4174 Clouds 22 1016 64 10000 9.8 20 16:57 14.11.2019
4175 Clouds 22 1016 68 10000 10.8 20 16:36 14.11.2019
4176 Clouds 22 1016 68 10000 10.8 20 16:18 14.11.2019
4177 Clouds 22 1017 64 10000 10.8 20 15:56 14.11.2019
4178 Clouds 22 1017 60 10000 9.8 20 15:38 14.11.2019
4179 Clouds 23 1017 60 10000 9.8 20 15:19 14.11.2019
4180 Clouds 22 1017 68 10000 9.3 20 14:44 14.11.2019
4181 Clouds 23 1017 64 10000 9.8 20 14:22 14.11.2019
4182 Clouds 22 1018 64 10000 11.3 20 13:57 14.11.2019
4183 Clouds 22 1018 68 10000 11.3 20 13:38 14.11.2019
4184 Clouds 22 1018 68 10000 11.3 20 13:19 14.11.2019
4185 Clouds 23 1018 64 10000 9.8 20 12:55 14.11.2019
4186 Clouds 23 1018 60 10000 9.8 20 12:36 14.11.2019
4187 Clouds 23 1018 60 10000 9.8 20 12:18 14.11.2019
4188 Clouds 22 1018 64 10000 10.8 20 11:39 14.11.2019
4189 Clouds 22 1018 64 10000 10.8 20 11:20 14.11.2019
4190 Clouds 22 1018 64 10000 10.8 20 11:20 14.11.2019
4191 Clouds 22 1018 64 10000 10.8 20 11:20 14.11.2019
4192 Clouds 22 1018 64 10000 10.3 20 10:58 14.11.2019
4193 Clouds 21 1018 73 10000 9.3 20 10:40 14.11.2019
4194 Clouds 21 1018 73 10000 9.3 20 10:20 14.11.2019
4195 Clouds 20 1018 73 10000 8.2 10 09:56 14.11.2019
4196 Clouds 20 1017 68 10000 7.7 10 09:38 14.11.2019
4197 Clouds 20 1016 64 10000 8.2 350 09:19 14.11.2019
4198 Clouds 20 1016 64 10000 8.2 350 08:47 14.11.2019
4199 Clouds 20 1016 64 10000 8.2 350 08:25 14.11.2019
4200 Clouds 20 1016 64 10000 6.2 360 07:56 14.11.2019
4201 Clouds 20 1016 68 10000 7.7 360 07:37 14.11.2019
4202 Clouds 20 1016 68 10000 7.7 360 07:19 14.11.2019
4203 Clouds 20 1016 68 10000 7.2 360 06:41 14.11.2019
4204 Clouds 20 1016 68 10000 7.2 360 06:18 14.11.2019
4205 Clouds 20 1016 64 10000 9.8 10 04:41 14.11.2019
4206 Clouds 20 1016 64 10000 9.8 10 04:22 14.11.2019
4207 Clouds 20 1017 64 10000 9.3 360 02:47 14.11.2019
4208 Clouds 20 1017 68 10000 9.3 360 01:51 14.11.2019
4209 Clouds 20 1017 64 10000 9.8 10 01:32 14.11.2019
4210 Clouds 20 1018 64 10000 10.3 360 00:49 14.11.2019
4211 Clouds 20 1018 64 10000 10.8 10 00:29 14.11.2019
4212 Clouds 20 1018 68 10000 10.8 10 23:41 13.11.2019
4213 Clouds 20 1018 68 10000 10.8 10 23:22 13.11.2019
4214 Clouds 21 1018 64 10000 10.8 10 22:57 13.11.2019
4215 Clouds 21 1017 64 10000 11.8 10 22:39 13.11.2019
4216 Clouds 21 1017 64 10000 11.8 10 22:21 13.11.2019
4217 Clouds 21 1017 60 10000 12.9 10 21:56 13.11.2019
4218 Clouds 21 1017 60 10000 11.3 10 21:37 13.11.2019
4219 Clouds 21 1017 60 10000 11.3 10 21:19 13.11.2019
4220 Clouds 21 1017 64 10000 12.3 10 20:56 13.11.2019
4221 Clouds 21 1017 60 10000 12.3 10 20:37 13.11.2019
4222 Clouds 21 1017 60 10000 12.3 10 20:37 13.11.2019
4223 Clouds 21 1017 60 10000 12.3 10 20:19 13.11.2019
4224 Clouds 21 1017 64 10000 12.3 10 19:44 13.11.2019
4225 Clouds 21 1017 64 10000 12.3 10 19:21 13.11.2019
4226 Clouds 21 1017 64 10000 13.9 10 18:59 13.11.2019
4227 Clouds 22 1017 64 10000 12.9 10 18:39 13.11.2019
4228 Clouds 22 1017 64 10000 12.9 10 18:21 13.11.2019
4229 Clouds 22 1017 60 10000 13.9 10 17:59 13.11.2019
4230 Clouds 22 1017 60 10000 13.4 10 17:40 13.11.2019
4231 Clouds 22 1017 60 10000 13.4 10 17:22 13.11.2019
4232 Clouds 23 1017 60 10000 12.9 10 16:59 13.11.2019
4233 Clouds 23 1017 56 10000 12.9 360 16:40 13.11.2019
4234 Clouds 23 1017 56 10000 12.9 360 16:40 13.11.2019
4235 Clouds 23 1017 56 10000 12.9 360 16:40 13.11.2019
4236 Clouds 23 1017 56 10000 12.9 360 16:40 13.11.2019
4237 Clouds 23 1017 56 10000 12.9 360 16:21 13.11.2019
4238 Clouds 23 1017 53 10000 12.9 10 15:58 13.11.2019
4239 Clouds 24 1017 60 10000 13.4 10 15:40 13.11.2019
4240 Clouds 24 1017 60 10000 13.4 10 15:40 13.11.2019
4241 Clouds 24 1017 60 10000 13.4 10 15:21 13.11.2019
4242 Clouds 24 1017 53 10000 12.9 10 14:57 13.11.2019
4243 Clouds 24 1018 57 10000 12.9 20 14:37 13.11.2019
4244 Clouds 24 1018 57 10000 12.9 20 14:19 13.11.2019
4245 Clouds 23 1019 60 10000 13.4 20 13:37 13.11.2019
4246 Clouds 23 1019 60 10000 12.9 10 13:19 13.11.2019
4247 Clouds 23 1019 60 10000 12.9 10 12:57 13.11.2019
4248 Clouds 23 1019 60 10000 12.9 10 12:38 13.11.2019
4249 Clouds 23 1019 60 10000 12.9 10 12:19 13.11.2019
4250 Clouds 23 1019 64 10000 13.4 10 11:41 13.11.2019
4251 Clouds 22 1019 64 10000 13.4 10 11:21 13.11.2019
4252 Clouds 22 1019 64 10000 11.8 10 10:59 13.11.2019
4253 Clouds 22 1019 64 10000 12.3 10 10:41 13.11.2019
4254 Clouds 22 1019 64 10000 12.3 10 10:41 13.11.2019
4255 Clouds 21 1019 64 10000 12.3 10 10:21 13.11.2019
4256 Clouds 21 1018 64 10000 12.9 10 09:57 13.11.2019
4257 Clouds 20 1018 68 10000 11.3 10 09:39 13.11.2019
4258 Clouds 20 1018 68 10000 11.3 10 09:20 13.11.2019
4259 Clouds 20 1018 68 10000 11.3 10 09:20 13.11.2019
4260 Clouds 20 1017 68 10000 12.3 10 08:40 13.11.2019
4261 Clouds 20 1017 68 10000 12.3 10 08:21 13.11.2019
4262 Clouds 20 1017 72 10000 9.3 360 07:43 13.11.2019
4263 Clouds 20 1017 72 10000 10.3 360 07:21 13.11.2019
4264 Clouds 20 1017 72 10000 9.3 360 06:47 13.11.2019
4265 Clouds 20 1017 72 10000 9.8 350 06:19 13.11.2019
4266 Clouds 18 1017 72 10000 9.8 350 06:19 13.11.2019
4267 Clouds 18 1017 72 10000 9.8 350 06:19 13.11.2019
4268 Clouds 18 1017 72 10000 9.3 350 05:57 13.11.2019
4269 Clouds 20 1017 68 10000 8.7 360 05:38 13.11.2019
4270 Clouds 20 1017 68 10000 8.7 360 04:44 13.11.2019
4271 Clouds 20 1017 68 10000 9.8 360 03:23 13.11.2019
4272 Clouds 19 1017 68 10000 11.8 360 01:46 13.11.2019
4273 Clouds 18 1017 72 10000 11.8 350 01:18 13.11.2019
4274 Clouds 18 1018 72 10000 10.3 360 00:37 13.11.2019
4275 Clouds 20 1018 72 10000 9.8 360 23:54 12.11.2019
4276 Clouds 19 1018 72 10000 9.8 360 23:36 12.11.2019
4277 Clouds 20 1018 72 10000 9.8 360 23:18 12.11.2019
4278 Clouds 20 1018 72 10000 10.3 360 22:40 12.11.2019
4279 Clouds 19 1018 72 10000 10.3 360 22:18 12.11.2019
4280 Clouds 21 1018 68 10000 10.8 360 21:45 12.11.2019
4281 Clouds 21 1018 68 10000 10.3 360 21:26 12.11.2019
4282 Clouds 21 1017 68 10000 10.8 360 20:59 12.11.2019
4283 Clouds 21 1017 73 10000 11.3 360 20:39 12.11.2019
4284 Clouds 21 1017 73 10000 11.3 360 20:19 12.11.2019
4285 Clouds 21 1017 73 10000 12.3 360 19:58 12.11.2019
4286 Clouds 21 1016 73 10000 12.9 360 19:40 12.11.2019
4287 Clouds 22 1016 73 10000 12.9 360 19:20 12.11.2019
4288 Clouds 22 1016 68 10000 10.8 360 18:59 12.11.2019
4289 Clouds 22 1017 68 10000 13.4 360 18:41 12.11.2019
4290 Clouds 22 1017 68 10000 13.4 360 18:23 12.11.2019
4291 Clouds 23 1017 69 10000 12.9 10 17:58 12.11.2019
4292 Clouds 23 1017 69 10000 13.9 360 17:40 12.11.2019
4293 Clouds 23 1017 69 10000 13.9 360 17:21 12.11.2019
4294 Clouds 24 1017 64 10000 13.4 360 16:59 12.11.2019
4295 Clouds 24 1017 64 10000 14.4 10 16:39 12.11.2019
4296 Clouds 24 1017 64 10000 14.4 10 16:21 12.11.2019
4297 Clouds 24 1017 60 10000 14.4 360 15:42 12.11.2019
4298 Clouds 24 1017 60 10000 14.4 360 15:42 12.11.2019
4299 Clouds 24 1018 64 10000 13.9 10 15:22 12.11.2019
4300 Clouds 24 1018 64 10000 13.4 10 14:57 12.11.2019
4301 Clouds 23 1018 69 10000 13.4 10 14:38 12.11.2019
4302 Clouds 24 1018 69 10000 13.4 10 14:19 12.11.2019
4303 Rain 23 1019 78 10000 12.3 10 13:57 12.11.2019
4304 Clouds 24 1019 57 10000 11.3 360 13:38 12.11.2019
4305 Clouds 24 1019 57 10000 11.3 360 13:19 12.11.2019
4306 Clouds 24 1019 60 10000 12.3 360 12:43 12.11.2019
4307 Clouds 22 1020 68 10000 12.9 10 12:20 12.11.2019
4308 Clouds 22 1020 78 10000 11.3 360 11:59 12.11.2019
4309 Clouds 22 1020 73 10000 9.8 360 11:41 12.11.2019
4310 Clouds 22 1020 73 10000 9.8 360 11:22 12.11.2019
4311 Clouds 22 1019 68 10000 8.7 350 10:57 12.11.2019
4312 Clouds 21 1019 73 10000 9.3 10 10:38 12.11.2019
4313 Clouds 21 1019 73 10000 9.3 10 10:20 12.11.2019
4314 Clouds 20 1019 82 10000 9.8 350 09:56 12.11.2019
4315 Clouds 20 1019 77 10000 11.8 360 09:37 12.11.2019
4316 Clouds 20 1019 77 10000 11.8 360 09:37 12.11.2019
4317 Clouds 20 1019 77 10000 11.8 360 09:18 12.11.2019
4318 Clouds 20 1018 68 10000 12.3 10 08:41 12.11.2019
4319 Clouds 20 1018 68 10000 12.3 10 08:22 12.11.2019
4320 Clouds 20 1018 68 10000 10.3 360 07:41 12.11.2019
4321 Clouds 20 1018 68 10000 10.3 360 07:23 12.11.2019
4322 Clouds 20 1018 73 10000 11.3 10 06:45 12.11.2019
4323 Rain 20 1018 73 10000 13.4 10 06:23 12.11.2019
4324 Rain 20 1018 64 10000 10.3 360 05:46 12.11.2019
4325 Clouds 20 1018 64 10000 12.9 10 04:50 12.11.2019
4326 Clouds 20 1018 64 10000 12.9 10 04:50 12.11.2019
4327 Clouds 20 1019 64 10000 13.4 10 03:48 12.11.2019
4328 Clouds 20 1020 68 10000 13.9 10 01:47 12.11.2019
4329 Clouds 20 1020 64 10000 12.3 360 01:22 12.11.2019
4330 Clouds 21 1020 68 10000 12.3 360 00:47 12.11.2019
4331 Clouds 21 1020 68 10000 13.9 10 00:29 12.11.2019
4332 Clouds 21 1020 68 10000 11.8 360 23:45 11.11.2019
4333 Clouds 21 1020 68 10000 12.9 360 23:23 11.11.2019
4334 Clouds 21 1021 68 10000 15.4 10 22:58 11.11.2019
4335 Clouds 21 1021 64 10000 13.4 360 22:36 11.11.2019
4336 Clouds 21 1021 64 10000 13.4 360 22:18 11.11.2019
4337 Clouds 21 1020 68 10000 14.9 10 21:57 11.11.2019
4338 Clouds 21 1020 68 10000 14.4 10 21:38 11.11.2019
4339 Clouds 21 1020 68 10000 14.4 10 21:19 11.11.2019
4340 Clouds 21 1020 68 10000 13.4 10 20:42 11.11.2019
4341 Clouds 22 1019 64 10000 13.9 360 20:20 11.11.2019
4342 Clouds 22 1019 64 10000 13.4 360 19:58 11.11.2019
4343 Clouds 22 1020 64 10000 14.4 360 19:40 11.11.2019
4344 Clouds 22 1020 64 10000 14.4 360 19:18 11.11.2019
4345 Clouds 22 1019 64 10000 15.4 10 18:55 11.11.2019
4346 Clouds 22 1019 64 10000 15.4 10 18:55 11.11.2019
4347 Clouds 22 1019 60 10000 14.4 360 18:37 11.11.2019
4348 Clouds 23 1019 60 10000 14.4 360 18:19 11.11.2019
4349 Clouds 22 1020 64 10000 12.9 360 17:42 11.11.2019
4350 Clouds 23 1020 60 10000 14.4 10 17:24 11.11.2019
4351 Clouds 23 1020 68 10000 14.4 360 16:42 11.11.2019
4352 Clouds 23 1020 56 10000 15.9 10 16:24 11.11.2019
4353 Clouds 23 1020 68 10000 15.4 360 15:58 11.11.2019
4354 Clouds 23 1021 56 10000 14.9 10 15:40 11.11.2019
4355 Clouds 23 1021 56 10000 14.9 10 15:19 11.11.2019
4356 Clouds 23 1021 56 10000 14.9 10 15:19 11.11.2019
4357 Clouds 23 1021 60 10000 14.9 10 14:44 11.11.2019
4358 Clouds 23 1022 56 10000 15.4 10 14:25 11.11.2019
4359 Clouds 23 1022 56 10000 14.4 360 13:58 11.11.2019
4360 Clouds 23 1022 56 10000 17 10 13:38 11.11.2019
4361 Clouds 23 1022 56 10000 17 10 13:19 11.11.2019
4362 Clouds 23 1022 56 10000 17 10 13:19 11.11.2019
4363 Clouds 24 1023 53 10000 16.5 10 12:57 11.11.2019
4364 Clouds 23 1023 56 10000 13.9 10 12:39 11.11.2019
4365 Clouds 23 1023 56 10000 13.9 10 12:39 11.11.2019
4366 Clouds 23 1023 56 10000 13.9 10 12:21 11.11.2019
4367 Clouds 23 1023 60 10000 15.9 10 11:42 11.11.2019
4368 Clouds 22 1023 60 10000 13.4 360 11:22 11.11.2019
4369 Clouds 22 1024 60 10000 14.4 10 10:57 11.11.2019
4370 Clouds 22 1024 60 10000 12.9 10 10:38 11.11.2019
4371 Clouds 21 1024 60 10000 12.9 10 10:18 11.11.2019
4372 Clouds 20 1024 64 10000 12.3 10 09:43 11.11.2019
4373 Clouds 20 1024 64 10000 12.3 10 09:43 11.11.2019
4374 Clouds 20 1023 64 10000 11.3 360 09:21 11.11.2019
4375 Clouds 20 1023 64 10000 10.8 360 08:59 11.11.2019
4376 Clouds 19 1022 64 10000 11.8 10 08:37 11.11.2019
4377 Clouds 19 1022 64 10000 11.8 10 08:18 11.11.2019
4378 Clouds 19 1023 64 10000 10.8 10 07:54 11.11.2019
4379 Clouds 19 1022 68 10000 9.3 360 07:36 11.11.2019
4380 Clouds 19 1022 68 10000 9.3 360 07:18 11.11.2019
4381 Clouds 19 1023 64 10000 9.8 360 06:40 11.11.2019
4382 Clouds 19 1023 64 10000 9.8 360 06:20 11.11.2019
4383 Clouds 19 1023 64 10000 14.4 10 05:49 11.11.2019
4384 Clouds 19 1024 64 10000 12.3 10 03:56 11.11.2019
4385 Clouds 20 1024 56 10000 10.3 10 02:55 11.11.2019
4386 Clouds 19 1024 64 10000 13.9 10 02:19 11.11.2019
4387 Clouds 19 1024 64 10000 13.4 20 01:51 11.11.2019
4388 Clouds 20 1024 60 10000 10.3 10 01:31 11.11.2019
4389 Clouds 20 1025 60 10000 11.3 10 00:41 11.11.2019
4390 Clouds 20 1025 64 10000 10.8 10 23:58 10.11.2019
4391 Clouds 20 1025 64 10000 11.8 20 23:38 10.11.2019
4392 Clouds 21 1025 64 10000 11.8 20 23:19 10.11.2019
4393 Clouds 20 1025 64 10000 10.3 10 22:56 10.11.2019
4394 Clouds 20 1024 68 10000 11.8 20 22:38 10.11.2019
4395 Clouds 21 1024 68 10000 11.8 20 22:20 10.11.2019
4396 Clouds 21 1024 68 10000 11.8 20 21:55 10.11.2019
4397 Clouds 21 1024 73 10000 12.3 20 21:37 10.11.2019
4398 Clouds 21 1024 73 10000 12.3 20 21:19 10.11.2019
4399 Clouds 22 1024 77 10000 11.8 20 20:41 10.11.2019
4400 Clouds 22 1023 73 10000 10.8 10 20:22 10.11.2019
4401 Clouds 22 1023 73 10000 10.3 10 19:56 10.11.2019
4402 Clouds 22 1023 73 10000 10.3 10 19:56 10.11.2019
4403 Clouds 22 1023 68 10000 10.8 10 19:38 10.11.2019
4404 Clouds 22 1023 68 10000 10.8 10 19:19 10.11.2019
4405 Clouds 22 1023 68 10000 11.3 20 18:58 10.11.2019
4406 Clouds 22 1023 64 10000 9.8 20 18:39 10.11.2019
4407 Clouds 23 1023 64 10000 9.8 20 18:19 10.11.2019
4408 Clouds 23 1023 64 10000 10.8 20 17:56 10.11.2019
4409 Clouds 23 1023 64 10000 11.3 10 17:38 10.11.2019
4410 Clouds 23 1023 64 10000 11.3 10 17:38 10.11.2019
4411 Clouds 23 1023 64 10000 11.3 10 17:20 10.11.2019
4412 Clouds 23 1023 64 10000 10.3 10 16:58 10.11.2019
4413 Clouds 24 1023 60 10000 12.9 20 16:39 10.11.2019
4414 Clouds 24 1023 60 10000 12.9 20 16:39 10.11.2019
4415 Clouds 24 1023 60 10000 12.9 20 16:20 10.11.2019
4416 Clouds 24 1023 57 10000 12.3 20 15:55 10.11.2019
4417 Clouds 24 1024 56 10000 12.9 20 15:36 10.11.2019
4418 Clouds 24 1024 56 10000 12.9 20 15:18 10.11.2019
4419 Clouds 23 1024 56 10000 12.9 20 14:41 10.11.2019
4420 Clouds 23 1024 56 10000 12.9 20 14:23 10.11.2019
4421 Clouds 23 1024 56 10000 12.3 20 13:58 10.11.2019
4422 Clouds 24 1025 57 10000 11.8 20 13:40 10.11.2019
4423 Clouds 24 1025 57 10000 11.8 20 13:20 10.11.2019
4424 Clouds 23 1025 56 10000 12.9 20 12:44 10.11.2019
4425 Clouds 23 1025 56 10000 12.9 20 12:22 10.11.2019
4426 Clouds 22 1025 56 10000 13.9 20 11:58 10.11.2019
4427 Clouds 22 1025 56 10000 11.8 10 11:40 10.11.2019
4428 Clouds 22 1025 56 10000 11.8 10 11:21 10.11.2019
4429 Clouds 21 1024 60 10000 11.8 20 11:00 10.11.2019
4430 Clouds 21 1024 56 10000 11.3 20 10:41 10.11.2019
4431 Clouds 21 1024 56 10000 11.3 20 10:20 10.11.2019
4432 Clouds 21 1024 60 10000 10.3 10 09:43 10.11.2019
4433 Clouds 20 1024 60 10000 12.3 20 09:24 10.11.2019
4434 Clouds 19 1023 60 10000 11.3 10 08:56 10.11.2019
4435 Clouds 19 1023 60 10000 11.3 10 08:36 10.11.2019
4436 Clouds 19 1023 60 10000 11.3 10 08:18 10.11.2019
4437 Clouds 19 1023 60 10000 11.8 10 07:42 10.11.2019
4438 Clouds 19 1022 60 10000 13.4 20 07:23 10.11.2019
4439 Clouds 19 1022 60 10000 13.4 10 06:33 10.11.2019
4440 Clouds 19 1023 56 10000 12.3 10 05:33 10.11.2019
4441 Clouds 20 1023 64 10000 12.3 10 03:22 10.11.2019
4442 Clouds 20 1023 64 10000 13.9 20 01:47 10.11.2019
4443 Clouds 20 1024 60 10000 13.9 20 01:19 10.11.2019
4444 Clouds 20 1024 68 10000 12.9 30 00:41 10.11.2019
4445 Clouds 20 1024 72 10000 10.3 20 23:48 09.11.2019
4446 Rain 20 1023 72 7000 11.3 10 23:21 09.11.2019
4447 Clouds 20 1023 68 10000 12.3 20 22:59 09.11.2019
4448 Rain 20 1023 72 8000 13.4 20 22:41 09.11.2019
4449 Rain 20 1023 72 8000 13.4 20 22:20 09.11.2019
4450 Clouds 21 1023 64 10000 9.3 10 21:56 09.11.2019
4451 Clouds 21 1023 64 10000 9.3 10 21:56 09.11.2019
4452 Clouds 21 1022 72 10000 10.8 10 21:37 09.11.2019
4453 Clouds 21 1022 72 10000 10.8 10 21:19 09.11.2019
4454 Clouds 21 1022 64 10000 12.9 20 20:42 09.11.2019
4455 Clouds 21 1022 64 10000 12.9 20 20:22 09.11.2019
4456 Clouds 21 1022 60 10000 11.8 360 19:58 09.11.2019
4457 Clouds 21 1022 56 10000 12.3 360 19:39 09.11.2019
4458 Clouds 21 1022 56 10000 12.3 360 19:21 09.11.2019
4459 Clouds 21 1022 60 10000 13.9 20 18:55 09.11.2019
4460 Clouds 22 1022 53 10000 14.4 20 18:36 09.11.2019
4461 Clouds 22 1022 53 10000 14.4 20 18:18 09.11.2019
4462 Clouds 22 1021 56 10000 13.4 20 17:41 09.11.2019
4463 Clouds 22 1021 56 10000 13.4 20 17:22 09.11.2019
4464 Clouds 23 1021 56 10000 14.9 20 16:44 09.11.2019
4465 Clouds 23 1021 53 10000 13.9 20 16:23 09.11.2019
4466 Clouds 23 1021 53 10000 14.4 20 15:59 09.11.2019
4467 Clouds 24 1021 53 10000 14.4 20 15:41 09.11.2019
4468 Clouds 23 1021 49 10000 14.4 10 15:23 09.11.2019
4469 Clouds 22 1022 60 10000 14.4 30 14:44 09.11.2019
4470 Clouds 23 1022 53 10000 14.4 30 14:22 09.11.2019
4471 Clouds 23 1023 53 10000 13.9 20 13:58 09.11.2019
4472 Clouds 23 1023 53 10000 11.3 20 13:39 09.11.2019
4473 Clouds 23 1023 53 10000 11.3 20 13:19 09.11.2019
4474 Clouds 22 1023 64 10000 13.9 30 12:56 09.11.2019
4475 Clouds 22 1023 64 10000 13.9 30 12:56 09.11.2019
4476 Clouds 23 1023 53 10000 12.3 20 12:38 09.11.2019
4477 Clouds 23 1023 53 10000 12.3 20 12:19 09.11.2019
4478 Clouds 22 1023 73 10000 11.8 360 11:47 09.11.2019
4479 Clouds 22 1023 64 10000 11.3 10 11:21 09.11.2019
4480 Clouds 22 1022 60 10000 10.8 10 10:56 09.11.2019
4481 Clouds 22 1022 60 10000 9.8 350 10:38 09.11.2019
4482 Clouds 21 1022 60 10000 9.8 350 10:18 09.11.2019
4483 Clouds 20 1022 68 10000 9.8 350 09:43 09.11.2019
4484 Clouds 20 1022 60 10000 8.7 10 09:21 09.11.2019
4485 Clouds 20 1021 60 10000 11.3 10 08:52 09.11.2019
4486 Rain 20 1021 64 10000 11.8 20 08:26 09.11.2019
4487 Clouds 21 1021 64 10000 9.8 10 07:57 09.11.2019
4488 Clouds 20 1021 60 10000 8.7 10 07:38 09.11.2019
4489 Clouds 20 1021 60 10000 8.7 10 07:19 09.11.2019
4490 Clouds 20 1021 60 10000 9.8 10 06:45 09.11.2019
4491 Clouds 20 1021 68 10000 10.3 10 06:27 09.11.2019
4492 Clouds 20 1020 56 10000 11.3 10 05:40 09.11.2019
4493 Clouds 21 1021 56 10000 9.8 20 04:30 09.11.2019
4494 Clouds 19 1021 60 10000 10.8 20 02:52 09.11.2019
4495 Clouds 20 1021 60 10000 12.9 30 02:34 09.11.2019
4496 Clouds 20 1022 56 10000 11.8 10 01:18 09.11.2019
4497 Clouds 20 1022 60 10000 10.3 360 00:41 09.11.2019
4498 Clouds 20 1022 60 10000 10.3 360 00:22 09.11.2019
4499 Clouds 21 1022 56 10000 10.8 10 23:41 08.11.2019
4500 Clouds 21 1022 56 10000 10.8 10 23:22 08.11.2019
4501 Clouds 21 1022 60 10000 10.8 10 22:59 08.11.2019
4502 Clouds 21 1021 60 10000 9.3 10 22:39 08.11.2019
4503 Clouds 21 1021 60 10000 9.3 10 22:21 08.11.2019
4504 Clouds 21 1021 56 10000 13.4 20 21:42 08.11.2019
4505 Clouds 21 1021 56 10000 10.3 360 21:23 08.11.2019
4506 Clouds 21 1020 64 10000 13.4 20 20:58 08.11.2019
4507 Clouds 21 1020 68 10000 12.9 20 20:40 08.11.2019
4508 Clouds 21 1020 68 10000 12.9 20 20:20 08.11.2019
4509 Clouds 21 1020 60 10000 9.8 10 19:55 08.11.2019
4510 Clouds 21 1020 60 10000 12.3 20 19:36 08.11.2019
4511 Clouds 21 1020 60 10000 12.3 20 19:18 08.11.2019
4512 Clouds 21 1019 60 10000 13.9 20 18:54 08.11.2019
4513 Clouds 22 1019 60 10000 13.4 20 18:36 08.11.2019
4514 Clouds 22 1019 60 10000 13.4 20 18:18 08.11.2019
4515 Clouds 22 1019 60 10000 13.4 20 18:18 08.11.2019
4516 Clouds 22 1019 56 10000 13.4 10 17:54 08.11.2019
4517 Clouds 22 1019 60 10000 13.9 20 17:36 08.11.2019
4518 Clouds 22 1019 60 10000 13.9 20 17:18 08.11.2019
4519 Clouds 22 1019 64 10000 13.9 30 16:57 08.11.2019
4520 Clouds 22 1019 64 10000 13.9 30 16:57 08.11.2019
4521 Clouds 23 1019 64 10000 13.9 30 16:38 08.11.2019
4522 Clouds 23 1019 64 10000 13.9 30 16:18 08.11.2019
4523 Clouds 23 1019 73 10000 11.8 30 15:41 08.11.2019
4524 Clouds 23 1019 73 10000 11.8 30 15:23 08.11.2019
4525 Clouds 24 1019 64 10000 11.3 30 14:57 08.11.2019
4526 Clouds 24 1020 64 10000 10.8 20 14:38 08.11.2019
4527 Clouds 24 1020 64 10000 10.8 20 14:20 08.11.2019
4528 Clouds 24 1020 60 10000 11.3 30 13:59 08.11.2019
4529 Clouds 24 1020 64 10000 11.3 30 13:39 08.11.2019
4530 Clouds 24 1020 64 10000 11.3 30 13:21 08.11.2019
4531 Clouds 24 1020 64 10000 9.8 30 12:48 08.11.2019
4532 Clouds 24 1020 64 10000 9.8 30 12:29 08.11.2019
4533 Clouds 24 1020 60 10000 8.2 10 11:58 08.11.2019
4534 Clouds 23 1020 69 10000 10.3 30 11:40 08.11.2019
4535 Clouds 23 1020 69 10000 10.3 30 11:21 08.11.2019
4536 Clouds 23 1020 69 10000 8.2 20 10:58 08.11.2019
4537 Clouds 23 1020 73 10000 8.7 30 10:40 08.11.2019
4538 Clouds 22 1020 73 10000 8.7 30 10:21 08.11.2019
4539 Clouds 22 1020 73 10000 8.7 30 10:21 08.11.2019
4540 Clouds 22 1019 73 10000 9.3 20 09:58 08.11.2019
4541 Clouds 21 1019 77 10000 8.7 20 09:38 08.11.2019
4542 Clouds 21 1019 77 10000 8.7 20 09:19 08.11.2019
4543 Clouds 21 1018 73 10000 10.8 30 08:45 08.11.2019
4544 Clouds 21 1018 73 10000 10.8 30 08:21 08.11.2019
4545 Clouds 21 1018 73 10000 9.8 20 07:45 08.11.2019
4546 Clouds 21 1018 73 10000 11.3 30 07:23 08.11.2019
4547 Clouds 21 1017 68 10000 8.7 10 06:57 08.11.2019
4548 Clouds 21 1017 68 10000 8.7 10 06:57 08.11.2019
4549 Clouds 21 1018 73 10000 9.3 10 06:37 08.11.2019
4550 Clouds 21 1018 73 10000 9.3 10 06:19 08.11.2019
4551 Clouds 21 1017 68 10000 10.3 10 05:32 08.11.2019
4552 Clouds 21 1017 73 10000 11.3 30 04:29 08.11.2019
4553 Clouds 21 1017 73 10000 11.3 30 04:29 08.11.2019
4554 Clouds 21 1017 73 10000 9.8 30 03:42 08.11.2019
4555 Clouds 21 1017 73 10000 10.3 20 03:18 08.11.2019
4556 Clouds 21 1018 77 10000 8.2 10 01:54 08.11.2019
4557 Clouds 21 1018 73 10000 10.3 20 01:36 08.11.2019
4558 Rain 21 1018 83 10000 9.3 20 00:46 08.11.2019
4559 Clouds 21 1018 77 10000 8.7 10 00:22 08.11.2019
4560 Clouds 21 1018 77 10000 8.7 10 00:22 08.11.2019
4561 Clouds 21 1018 73 10000 10.3 20 23:49 07.11.2019
4562 Clouds 21 1018 77 10000 10.8 20 23:28 07.11.2019
4563 Clouds 21 1018 83 10000 8.7 10 22:58 07.11.2019
4564 Clouds 21 1017 73 10000 10.3 10 22:40 07.11.2019
4565 Clouds 21 1017 73 10000 10.3 10 22:20 07.11.2019
4566 Clouds 21 1017 68 10000 10.8 20 21:40 07.11.2019
4567 Clouds 21 1017 68 10000 10.8 20 21:21 07.11.2019
4568 Clouds 21 1016 68 10000 10.3 20 20:59 07.11.2019
4569 Clouds 21 1016 68 10000 10.3 20 20:59 07.11.2019
4570 Clouds 21 1016 73 10000 10.8 10 20:41 07.11.2019
4571 Clouds 21 1016 73 10000 10.8 10 20:41 07.11.2019
4572 Clouds 21 1016 73 10000 10.8 10 20:22 07.11.2019
4573 Clouds 22 1016 68 10000 11.3 20 19:58 07.11.2019
4574 Clouds 22 1016 68 10000 11.8 20 19:39 07.11.2019
4575 Clouds 22 1016 68 10000 11.8 20 19:21 07.11.2019
4576 Clouds 22 1015 68 10000 12.3 20 18:57 07.11.2019
4577 Clouds 22 1015 68 10000 11.8 20 18:39 07.11.2019
4578 Clouds 23 1015 68 10000 11.8 20 18:19 07.11.2019
4579 Clouds 24 1015 69 10000 12.3 20 17:56 07.11.2019
4580 Clouds 24 1015 64 10000 11.8 20 17:38 07.11.2019
4581 Clouds 24 1015 64 10000 11.8 20 17:20 07.11.2019
4582 Clouds 24 1016 64 10000 11.8 20 16:55 07.11.2019
4583 Clouds 24 1015 60 10000 11.8 20 16:37 07.11.2019
4584 Clouds 24 1015 60 10000 11.8 20 16:19 07.11.2019
4585 Clouds 24 1015 64 10000 11.8 10 15:40 07.11.2019
4586 Clouds 24 1016 60 10000 11.8 20 15:21 07.11.2019
4587 Clouds 24 1016 57 10000 10.8 30 14:58 07.11.2019
4588 Clouds 24 1016 57 10000 10.8 30 14:38 07.11.2019
4589 Clouds 24 1017 60 10000 11.3 30 14:20 07.11.2019
4590 Clouds 24 1017 57 10000 11.8 20 13:55 07.11.2019
4591 Clouds 24 1017 57 10000 11.8 20 13:37 07.11.2019
4592 Clouds 24 1018 57 10000 11.8 30 13:18 07.11.2019
4593 Clouds 23 1018 64 10000 10.8 30 12:56 07.11.2019
4594 Clouds 23 1018 64 10000 10.8 30 12:38 07.11.2019
4595 Clouds 23 1018 64 10000 11.3 20 12:18 07.11.2019
4596 Clouds 22 1018 73 10000 10.3 30 11:41 07.11.2019
4597 Clouds 22 1018 73 10000 10.8 30 11:22 07.11.2019
4598 Clouds 21 1018 77 10000 9.8 20 10:42 07.11.2019
4599 Rain 21 1018 73 10000 8.7 10 10:19 07.11.2019
4600 Rain 21 1018 73 10000 8.7 10 10:19 07.11.2019
4601 Clouds 21 1017 60 10000 7.7 360 09:56 07.11.2019
4602 Clouds 20 1017 68 10000 7.2 350 09:38 07.11.2019
4603 Clouds 20 1017 68 10000 7.2 350 09:20 07.11.2019
4604 Clouds 19 1017 60 10000 7.2 350 08:45 07.11.2019
4605 -273 0 0 0 0 0 08:24 07.11.2019
4606 Clouds 19 1017 60 10000 6.7 350 08:23 07.11.2019
4607 Clouds 19 1017 60 10000 6.7 350 08:23 07.11.2019
4608 Clouds 19 1016 60 10000 6.2 350 07:57 07.11.2019
4609 Clouds 19 1016 60 10000 6.2 350 07:39 07.11.2019
4610 Clouds 19 1017 64 10000 6.2 360 07:20 07.11.2019
4611 Clouds 19 1016 64 10000 6.2 360 06:46 07.11.2019
4612 Clouds 20 1016 68 10000 6.7 350 06:25 07.11.2019
4613 Clouds 19 1016 72 10000 6.7 350 05:51 07.11.2019
4614 -273 0 0 0 0 0 05:32 07.11.2019
4615 Clouds 19 1016 68 10000 7.7 350 05:32 07.11.2019
4616 Clouds 20 1016 68 10000 6.2 360 04:52 07.11.2019
4617 Clouds 20 1016 68 10000 6.2 350 04:30 07.11.2019
4618 Clouds 21 1018 56 10000 7.2 360 01:50 07.11.2019
4619 Clouds 21 1018 56 10000 7.2 360 01:49 07.11.2019
4620 Clouds 20 1018 72 10000 11.8 30 00:46 07.11.2019
4621 Clouds 20 1018 68 10000 7.7 360 00:18 07.11.2019
4622 Clouds 21 1019 68 10000 12.3 20 23:45 06.11.2019
4623 Clouds 21 1019 68 10000 8.2 350 23:20 06.11.2019
4624 Clouds 21 1019 72 10000 6.7 350 22:41 06.11.2019
4625 Clouds 21 1019 73 10000 7.7 360 22:22 06.11.2019
4626 Clouds 21 1019 64 10000 8.2 10 21:59 06.11.2019
4627 Clouds 21 1019 64 10000 8.2 10 21:41 06.11.2019
4628 Clouds 21 1018 64 10000 9.8 10 21:20 06.11.2019
4629 Clouds 21 1018 64 10000 7.7 360 20:58 06.11.2019
4630 Clouds 21 1018 64 10000 7.7 360 20:39 06.11.2019
4631 Clouds 21 1018 64 10000 7.7 360 20:39 06.11.2019
4632 Clouds 21 1018 64 10000 8.7 360 20:20 06.11.2019
4633 Clouds 22 1018 56 10000 9.8 10 19:58 06.11.2019
4634 Clouds 22 1018 56 10000 9.8 10 19:38 06.11.2019
4635 Clouds 22 1018 60 10000 9.3 10 19:19 06.11.2019
4636 Clouds 22 1018 60 10000 10.3 10 18:56 06.11.2019
4637 Clouds 22 1018 56 10000 10.3 360 18:38 06.11.2019
4638 Clouds 22 1018 56 10000 10.3 360 18:18 06.11.2019
4639 Clouds 23 1018 56 10000 11.3 360 17:42 06.11.2019
4640 Clouds 23 1018 56 10000 10.3 10 17:42 06.11.2019
4641 Clouds 23 1018 56 10000 11.3 360 17:24 06.11.2019
4642 Clouds 23 1018 53 10000 10.3 360 16:58 06.11.2019
4643 Clouds 23 1019 53 10000 9.8 360 16:39 06.11.2019
4644 Clouds 23 1019 53 10000 9.8 360 16:21 06.11.2019
4645 Clouds 23 1019 56 10000 12.9 10 15:59 06.11.2019
4646 Clouds 24 1019 50 10000 13.9 20 15:38 06.11.2019
4647 Clouds 23 1019 50 10000 13.9 20 15:19 06.11.2019
4648 Clouds 22 1019 50 10000 9.3 360 14:59 06.11.2019
4649 Clouds 21 1020 60 10000 11.3 10 14:41 06.11.2019
4650 Clouds 21 1020 60 10000 11.3 10 14:22 06.11.2019
4651 Clouds 23 1020 53 10000 11.8 360 13:59 06.11.2019
4652 Clouds 23 1020 53 10000 11.8 360 13:59 06.11.2019
4653 Clouds 24 1020 50 10000 10.8 360 13:37 06.11.2019
4654 Clouds 24 1020 50 10000 10.8 360 13:19 06.11.2019
4655 Clouds 22 1021 49 10000 12.3 20 12:55 06.11.2019
4656 Clouds 22 1021 53 10000 9.8 350 12:37 06.11.2019
4657 Clouds 22 1021 53 10000 9.8 350 12:18 06.11.2019
4658 Clouds 21 1021 60 10000 13.4 10 11:56 06.11.2019
4659 Clouds 22 1021 56 10000 10.3 360 11:36 06.11.2019
4660 Clouds 22 1021 56 10000 10.3 360 11:18 06.11.2019
4661 Clouds 22 1021 60 10000 8.2 360 10:55 06.11.2019
4662 Clouds 22 1021 60 10000 8.2 360 10:55 06.11.2019
4663 Clouds 21 1021 60 10000 7.2 350 10:37 06.11.2019
4664 Clouds 21 1021 60 10000 7.2 350 10:18 06.11.2019
4665 Clouds 19 1021 68 10000 7.2 340 09:41 06.11.2019
4666 Clouds 19 1021 68 10000 7.2 340 09:21 06.11.2019
4667 Clouds 19 1021 68 10000 5.1 360 08:56 06.11.2019
4668 Clouds 19 1020 72 10000 6.7 340 08:38 06.11.2019
4669 Clouds 18 1020 72 10000 6.7 340 08:18 06.11.2019
4670 Clouds 18 1020 63 10000 5.1 350 07:46 06.11.2019
4671 Clouds 18 1020 56 10000 6.2 350 07:28 06.11.2019
4672 Clouds 19 1020 56 10000 7.7 10 06:53 06.11.2019
4673 Clouds 18 1020 68 10000 6.2 350 06:34 06.11.2019
4674 Clouds 20 1020 68 10000 6.2 340 05:51 06.11.2019
4675 Clouds 20 1021 68 10000 6.2 360 03:38 06.11.2019
4676 Clouds 21 1022 64 10000 8.2 360 01:42 06.11.2019
4677 Clouds 21 1022 68 10000 10.3 10 00:48 06.11.2019
4678 Clouds 21 1022 68 10000 10.3 10 00:48 06.11.2019
4679 Clouds 21 1022 68 10000 10.8 10 00:25 06.11.2019
4680 Clouds 21 1022 73 10000 10.8 20 23:41 05.11.2019
4681 Clouds 21 1022 73 10000 10.8 20 23:22 05.11.2019
4682 Drizzle 21 1022 77 10000 8.2 10 22:59 05.11.2019
4683 Rain 21 1022 82 10000 9.8 10 22:41 05.11.2019
4684 Rain 21 1022 82 10000 9.8 10 22:19 05.11.2019
4685 Clouds 21 1022 88 10000 9.8 20 21:55 05.11.2019
4686 Rain 21 1021 83 8000 9.8 360 21:37 05.11.2019
4687 Rain 21 1021 83 8000 9.8 360 21:37 05.11.2019
4688 Rain 22 1021 83 8000 9.8 360 21:18 05.11.2019
4689 Rain 20 1021 83 10000 8.2 350 20:55 05.11.2019
4690 Rain 20 1021 77 10000 9.3 350 20:36 05.11.2019
4691 Rain 20 1021 77 10000 9.3 350 20:18 05.11.2019
4692 Clouds 21 1020 68 10000 11.3 340 19:42 05.11.2019
4693 Clouds 20 1020 77 10000 11.8 350 19:22 05.11.2019
4694 Clouds 21 1020 69 10000 11.8 350 18:58 05.11.2019
4695 Clouds 24 1020 57 10000 11.8 350 18:40 05.11.2019
4696 Clouds 22 1020 57 10000 11.8 350 18:21 05.11.2019
4697 Clouds 22 1020 50 10000 9.8 360 17:59 05.11.2019
4698 Clouds 22 1020 50 10000 10.8 350 17:39 05.11.2019
4699 Clouds 24 1020 50 10000 10.8 350 17:20 05.11.2019
4700 Clouds 25 1021 53 10000 9.8 360 16:56 05.11.2019
4701 Clouds 24 1021 50 10000 10.8 360 16:38 05.11.2019
4702 Clouds 24 1021 50 10000 10.8 360 16:19 05.11.2019
4703 Clouds 24 1021 50 10000 10.8 360 16:19 05.11.2019
4704 Clouds 24 1022 47 10000 11.8 360 15:39 05.11.2019
4705 Clouds 24 1022 47 10000 11.8 360 15:20 05.11.2019
4706 Clouds 25 1022 50 10000 10.8 360 14:58 05.11.2019
4707 Clouds 25 1022 53 10000 10.8 360 14:40 05.11.2019
4708 Clouds 25 1022 53 10000 10.8 360 14:21 05.11.2019
4709 Clouds 24 1022 53 10000 11.3 360 13:56 05.11.2019
4710 Clouds 25 1023 47 10000 10.3 360 13:38 05.11.2019
4711 Clouds 24 1023 47 10000 10.3 360 13:20 05.11.2019
4712 Clouds 25 1023 50 10000 10.3 350 12:39 05.11.2019
4713 Clouds 22 1023 50 10000 10.3 350 12:21 05.11.2019
4714 Clouds 22 1023 57 10000 9.8 350 11:56 05.11.2019
4715 Clouds 22 1023 60 10000 10.3 350 11:37 05.11.2019
4716 Clouds 24 1023 60 10000 10.3 350 11:19 05.11.2019
4717 Clouds 21 1023 60 10000 9.3 360 10:45 05.11.2019
4718 Clouds 23 1023 64 10000 8.7 360 10:27 05.11.2019
4719 Clouds 23 1022 60 10000 7.2 350 09:59 05.11.2019
4720 Clouds 22 1022 60 10000 6.2 350 09:40 05.11.2019
4721 Clouds 21 1022 60 10000 6.2 350 09:20 05.11.2019
4722 Clouds 21 1022 64 10000 6.2 340 08:55 05.11.2019
4723 Clouds 19 1022 60 10000 6.7 330 08:37 05.11.2019
4724 Clouds 21 1022 60 10000 6.7 330 08:18 05.11.2019
4725 Clouds 20 1022 64 10000 7.2 340 07:44 05.11.2019
4726 Clouds 20 1022 68 10000 8.2 350 07:25 05.11.2019
4727 Clouds 20 1022 73 10000 7.2 10 06:51 05.11.2019
4728 Clouds 21 1022 83 10000 7.7 20 06:26 05.11.2019
4729 Clouds 21 1022 73 10000 5.1 360 05:39 05.11.2019
4730 Clouds 20 1022 73 10000 5.1 360 05:19 05.11.2019
4731 Clouds 19 1022 68 10000 7.7 360 04:20 05.11.2019
4732 Clouds 20 1023 73 10000 9.3 360 03:24 05.11.2019
4733 Clouds 21 1023 68 10000 10.8 10 02:41 05.11.2019
4734 Clouds 21 1023 73 10000 9.8 360 01:52 05.11.2019
4735 Clouds 21 1023 73 10000 9.8 360 01:52 05.11.2019
4736 Rain 21 1023 83 9000 9.8 20 00:41 05.11.2019
4737 Rain 20 1023 83 9000 9.8 20 00:23 05.11.2019
4738 Clouds 22 1023 68 10000 7.2 360 23:41 04.11.2019
4739 Clouds 22 1023 68 10000 7.2 360 23:19 04.11.2019
4740 Clouds 22 1023 68 10000 7.2 360 23:19 04.11.2019
4741 Clouds 22 1023 73 10000 8.2 360 22:55 04.11.2019
4742 Clouds 20 1023 73 10000 7.7 360 22:37 04.11.2019
4743 Clouds 20 1023 73 10000 7.7 360 22:37 04.11.2019
4744 Clouds 22 1023 73 10000 7.7 360 22:19 04.11.2019
4745 Clouds 22 1022 68 10000 6.7 360 21:54 04.11.2019
4746 Clouds 21 1022 68 10000 6.7 360 21:36 04.11.2019
4747 Clouds 21 1022 68 10000 6.7 360 21:18 04.11.2019
4748 Clouds 22 1022 68 10000 6.7 360 20:55 04.11.2019
4749 Clouds 21 1022 68 10000 6.2 350 20:36 04.11.2019
4750 Clouds 22 1022 68 10000 6.2 350 20:18 04.11.2019
4751 Clouds 23 1021 60 10000 8.7 360 19:42 04.11.2019
4752 Clouds 22 1021 60 10000 8.7 360 19:23 04.11.2019
4753 Clouds 24 1021 57 10000 9.3 360 18:58 04.11.2019
4754 Clouds 24 1021 57 10000 10.3 360 18:39 04.11.2019
4755 Clouds 24 1021 57 10000 10.3 360 18:39 04.11.2019
4756 Clouds 23 1021 57 10000 10.3 360 18:21 04.11.2019
4757 Clouds 23 1021 57 10000 9.8 10 17:56 04.11.2019
4758 Clouds 24 1021 53 10000 9.3 360 17:36 04.11.2019
4759 Clouds 24 1021 53 10000 9.3 360 17:18 04.11.2019
4760 Clouds 25 1021 61 10000 11.8 30 16:42 04.11.2019
4761 -273 0 0 0 0 0 16:24 04.11.2019
4762 Clouds 23 1021 57 10000 11.3 20 15:58 04.11.2019
4763 Clouds 25 1022 61 10000 10.3 20 15:39 04.11.2019
4764 Clouds 25 1022 61 10000 10.3 20 15:21 04.11.2019
4765 Clouds 25 1022 57 10000 10.3 10 14:57 04.11.2019
4766 Clouds 24 1023 57 10000 11.3 20 14:39 04.11.2019
4767 Clouds 25 1023 57 10000 11.3 20 14:20 04.11.2019
4768 Clouds 25 1023 57 10000 11.3 20 13:57 04.11.2019
4769 Clouds 23 1023 57 10000 10.8 10 13:39 04.11.2019
4770 Clouds 24 1023 57 10000 10.8 10 13:20 04.11.2019
4771 Clouds 24 1023 64 10000 10.8 10 12:45 04.11.2019
4772 Clouds 23 1023 69 10000 8.7 360 12:25 04.11.2019
4773 Clouds 23 1023 69 10000 9.3 10 11:58 04.11.2019
4774 Clouds 23 1023 69 10000 10.8 10 11:40 04.11.2019
4775 Clouds 23 1023 69 10000 10.8 10 11:21 04.11.2019
4776 Clouds 23 1022 64 10000 7.7 350 10:47 04.11.2019
4777 Clouds 22 1022 68 10000 7.2 360 10:26 04.11.2019
4778 Clouds 22 1022 73 10000 9.3 360 09:56 04.11.2019
4779 Drizzle 21 1022 83 10000 8.7 10 09:38 04.11.2019
4780 Drizzle 21 1022 83 10000 8.7 10 09:19 04.11.2019
4781 Clouds 21 1022 68 10000 8.2 360 08:42 04.11.2019
4782 Clouds 21 1022 68 10000 8.2 350 08:23 04.11.2019
4783 Clouds 21 1022 68 10000 8.2 350 08:23 04.11.2019
4784 Clouds 21 1021 64 10000 7.2 360 07:56 04.11.2019
4785 Clouds 21 1021 64 10000 7.2 350 07:38 04.11.2019
4786 Clouds 21 1021 64 10000 7.2 350 07:38 04.11.2019
4787 Clouds 20 1021 64 10000 7.2 350 07:19 04.11.2019
4788 Clouds 20 1021 60 10000 7.2 350 06:47 04.11.2019
4789 Clouds 20 1021 60 10000 7.2 340 06:18 04.11.2019
4790 Clouds 20 1021 68 10000 5.7 360 05:31 04.11.2019
4791 Clouds 20 1022 68 10000 6.2 360 04:27 04.11.2019
4792 Clouds 20 1021 68 10000 9.8 10 03:31 04.11.2019
4793 Clouds 21 1022 73 10000 6.2 360 01:24 04.11.2019
4794 Clouds 21 1022 73 10000 6.7 360 00:59 04.11.2019
4795 Clouds 21 1022 73 10000 7.2 10 00:22 04.11.2019
4796 Clouds 21 1022 78 10000 7.7 10 23:58 03.11.2019
4797 Clouds 21 1022 78 10000 8.7 10 23:37 03.11.2019
4798 Clouds 22 1022 78 10000 8.7 10 23:18 03.11.2019
4799 Clouds 22 1022 64 10000 6.7 350 22:56 03.11.2019
4800 Clouds 22 1022 73 10000 6.2 360 22:38 03.11.2019
4801 Clouds 22 1022 73 10000 6.2 360 22:18 03.11.2019
4802 Clouds 22 1022 73 10000 8.2 10 21:43 03.11.2019
4803 Clouds 22 1022 73 10000 8.2 10 21:21 03.11.2019
4804 Clouds 22 1022 69 10000 7.2 10 20:58 03.11.2019
4805 Clouds 22 1022 69 10000 7.2 360 20:37 03.11.2019
4806 Clear 22 1022 69 10000 7.2 360 20:19 03.11.2019
4807 Clouds 23 1022 69 10000 9.3 20 19:57 03.11.2019
4808 Clouds 23 1021 73 10000 9.3 20 19:38 03.11.2019
4809 Clouds 23 1021 73 10000 9.3 20 19:20 03.11.2019
4810 Clouds 24 1021 69 10000 10.3 20 18:55 03.11.2019
4811 Clouds 24 1021 69 10000 10.3 20 18:36 03.11.2019
4812 Clouds 24 1021 69 10000 10.3 20 18:18 03.11.2019
4813 Clouds 25 1021 69 10000 12.9 20 17:42 03.11.2019
4814 Clouds 25 1021 69 10000 12.9 20 17:20 03.11.2019
4815 Clouds 25 1021 73 10000 13.4 30 16:57 03.11.2019
4816 Clouds 25 1021 73 10000 13.4 30 16:57 03.11.2019
4817 Clouds 26 1021 65 10000 11.8 30 16:39 03.11.2019
4818 Clouds 26 1021 65 10000 11.8 30 16:21 03.11.2019
4819 Clouds 26 1021 61 10000 12.3 20 15:57 03.11.2019
4820 Clouds 26 1021 61 10000 12.9 20 15:39 03.11.2019
4821 Clouds 26 1021 61 10000 12.9 20 15:39 03.11.2019
4822 Clouds 26 1021 61 10000 12.9 20 15:21 03.11.2019
4823 Clouds 26 1022 65 10000 12.3 30 14:42 03.11.2019
4824 Clouds 26 1022 65 10000 12.3 30 14:20 03.11.2019
4825 Clouds 26 1022 61 10000 12.3 20 13:58 03.11.2019
4826 Clouds 26 1023 69 10000 12.3 20 13:40 03.11.2019
4827 Clouds 25 1023 69 10000 12.3 20 13:18 03.11.2019
4828 Clouds 25 1023 73 10000 11.8 20 12:39 03.11.2019
4829 Clouds 25 1023 73 10000 11.8 20 12:20 03.11.2019
4830 Clouds 25 1023 69 10000 10.8 30 11:59 03.11.2019
4831 Clouds 25 1023 69 10000 9.3 20 11:41 03.11.2019
4832 Clouds 24 1023 69 10000 9.3 20 11:20 03.11.2019
4833 Clouds 24 1023 73 10000 9.3 20 10:55 03.11.2019
4834 Clouds 24 1022 73 10000 8.7 10 10:37 03.11.2019
4835 Clouds 23 1022 73 10000 8.7 10 10:18 03.11.2019
4836 Clouds 23 1022 73 10000 8.7 10 10:18 03.11.2019
4837 Clouds 23 1022 73 10000 6.2 360 09:42 03.11.2019
4838 Clouds 23 1022 73 10000 6.2 360 09:23 03.11.2019
4839 Clouds 22 1022 78 10000 8.2 10 08:55 03.11.2019
4840 Clouds 21 1022 83 10000 8.7 20 08:36 03.11.2019
4841 Clouds 21 1022 83 10000 8.7 20 08:18 03.11.2019
4842 Clouds 21 1021 83 10000 8.7 20 07:43 03.11.2019
4843 Clear 22 1021 83 10000 8.7 20 07:18 03.11.2019
4844 Clear 21 1021 78 10000 7.7 20 06:39 03.11.2019
4845 Clear 22 1021 73 10000 7.7 20 05:41 03.11.2019
4846 Clear 22 1021 73 10000 7.7 20 05:19 03.11.2019
4847 Clear 22 1021 78 10000 8.2 10 04:48 03.11.2019
4848 Clear 23 1021 57 10000 8.2 20 03:50 03.11.2019
4849 Clear 23 1021 53 10000 8.2 10 02:46 03.11.2019
4850 Clouds 23 1021 53 10000 8.2 10 02:21 03.11.2019
4851 Clouds 23 1021 53 10000 8.2 10 02:21 03.11.2019
4852 Clouds 23 1021 53 10000 7.7 20 01:45 03.11.2019
4853 Clouds 23 1021 57 10000 6.7 20 01:22 03.11.2019
4854 Clouds 23 1021 50 10000 6.7 10 00:47 03.11.2019
4855 Clouds 23 1021 47 10000 6.7 10 00:28 03.11.2019
4856 Clouds 25 1021 44 10000 6.7 360 23:59 02.11.2019
4857 Clouds 25 1021 44 10000 8.2 360 23:39 02.11.2019
4858 Clouds 24 1021 44 10000 8.2 360 23:20 02.11.2019
4859 Clouds 24 1021 47 10000 8.2 10 22:56 02.11.2019
4860 Clouds 24 1021 47 10000 8.2 10 22:38 02.11.2019
4861 Clouds 24 1021 47 10000 8.2 10 22:19 02.11.2019
4862 Clouds 24 1021 47 10000 8.2 10 22:19 02.11.2019
4863 Clouds 24 1021 47 10000 8.2 10 22:19 02.11.2019
4864 Clouds 23 1021 44 10000 8.2 10 21:56 02.11.2019
4865 Clouds 23 1020 44 10000 8.2 360 21:38 02.11.2019
4866 Clouds 23 1020 44 10000 8.2 360 21:18 02.11.2019
4867 Clouds 23 1020 44 10000 8.2 360 21:18 02.11.2019
4868 Clouds 23 1020 44 10000 8.2 360 21:18 02.11.2019
4869 Clouds 26 1020 47 10000 8.2 360 20:59 02.11.2019
4870 Clouds 27 1020 44 10000 6.7 360 20:40 02.11.2019
4871 Clouds 23 1020 44 10000 6.7 360 20:20 02.11.2019
4872 Clouds 26 1020 50 10000 8.2 20 19:55 02.11.2019
4873 Clouds 24 1019 47 10000 8.7 10 19:36 02.11.2019
4874 Clouds 23 1019 47 10000 8.7 10 19:18 02.11.2019
4875 Clouds 24 1019 47 10000 8.7 10 19:18 02.11.2019
4876 Clouds 29 1019 37 10000 6.7 10 18:42 02.11.2019
4877 Clouds 24 1019 51 10000 9.8 20 18:24 02.11.2019
4878 Clouds 28 1019 48 10000 10.3 10 17:59 02.11.2019
4879 Clouds 29 1019 45 10000 10.3 20 17:40 02.11.2019
4880 Clouds 26 1019 45 10000 10.3 20 17:22 02.11.2019
4881 Clouds 26 1019 45 10000 8.7 20 16:58 02.11.2019
4882 Clouds 26 1019 39 10000 9.3 10 16:38 02.11.2019
4883 Clouds 26 1019 39 10000 9.3 10 16:20 02.11.2019
4884 Clouds 26 1019 37 10000 8.7 10 15:42 02.11.2019
4885 Clouds 26 1019 37 10000 9.3 360 15:20 02.11.2019
4886 Clouds 26 1019 35 10000 9.8 360 14:43 02.11.2019
4887 Clouds 26 1019 35 10000 9.8 360 14:43 02.11.2019
4888 Clouds 29 1020 42 10000 9.3 20 14:24 02.11.2019
4889 Clear 26 1020 37 10000 8.7 360 13:59 02.11.2019
4890 Clear 29 1021 42 10000 8.2 360 13:40 02.11.2019
4891 Clouds 26 1021 42 10000 8.2 360 13:20 02.11.2019
4892 Clouds 29 1021 42 10000 8.7 360 12:56 02.11.2019
4893 Clouds 27 1021 48 10000 8.7 360 12:37 02.11.2019
4894 Clouds 27 1021 48 10000 8.7 360 12:18 02.11.2019
4895 Clouds 27 1021 51 10000 9.3 360 11:41 02.11.2019
4896 Clouds 24 1021 51 10000 9.3 360 11:23 02.11.2019
4897 Clouds 26 1021 57 10000 9.8 360 10:55 02.11.2019
4898 Clouds 22 1021 69 10000 8.7 10 10:36 02.11.2019
4899 Clouds 22 1021 69 10000 8.7 10 10:18 02.11.2019
4900 Clouds 23 1021 73 10000 8.2 10 09:40 02.11.2019
4901 Clouds 22 1021 73 10000 8.2 10 09:21 02.11.2019
4902 Clouds 23 1021 78 10000 8.7 360 08:50 02.11.2019
4903 Clouds 22 1021 73 10000 10.8 360 08:23 02.11.2019
4904 Clouds 22 1021 78 10000 10.3 360 07:52 02.11.2019
4905 Clouds 21 1021 73 10000 9.3 360 07:33 02.11.2019
4906 Clouds 23 1021 73 10000 9.3 360 06:59 02.11.2019
4907 Clouds 21 1020 73 10000 9.8 360 06:41 02.11.2019
4908 Clouds 21 1020 73 10000 9.8 360 06:20 02.11.2019
4909 Clouds 22 1020 73 10000 9.8 360 05:33 02.11.2019
4910 Clouds 21 1021 73 10000 9.3 360 04:23 02.11.2019
4911 Clouds 21 1021 73 10000 11.3 360 03:50 02.11.2019
4912 Clouds 21 1021 73 10000 9.8 350 02:50 02.11.2019
4913 Clouds 22 1022 73 10000 11.8 360 01:57 02.11.2019
4914 Clouds 21 1022 73 10000 11.3 360 01:27 02.11.2019
4915 Clouds 21 1022 73 10000 11.3 360 00:55 02.11.2019
4916 Clouds 22 1022 73 10000 10.3 360 00:28 02.11.2019
4917 Clouds 22 1022 73 10000 10.8 360 23:50 01.11.2019
4918 Clouds 22 1022 73 10000 10.8 360 23:25 01.11.2019
4919 Clouds 23 1022 73 10000 10.8 10 22:59 01.11.2019
4920 Clouds 23 1022 73 10000 10.3 360 22:41 01.11.2019
4921 Clouds 22 1022 73 10000 10.3 360 22:20 01.11.2019
4922 Clouds 22 1022 73 10000 9.3 360 21:42 01.11.2019
4923 Clouds 22 1022 73 10000 9.3 360 21:24 01.11.2019
4924 Clouds 22 1022 73 10000 8.7 360 20:58 01.11.2019
4925 Clouds 23 1022 73 10000 9.8 10 20:40 01.11.2019
4926 Clouds 22 1022 73 10000 9.8 10 20:20 01.11.2019
4927 Clouds 23 1022 69 10000 9.8 10 19:56 01.11.2019
4928 Clouds 23 1022 73 10000 10.8 10 19:38 01.11.2019
4929 Clouds 23 1022 73 10000 10.8 10 19:20 01.11.2019
4930 Clouds 24 1022 61 10000 10.3 10 18:40 01.11.2019
4931 Clouds 24 1022 61 10000 10.3 10 18:21 01.11.2019
4932 Clouds 26 1022 61 10000 11.3 10 17:56 01.11.2019
4933 Clouds 24 1022 61 10000 11.8 20 17:37 01.11.2019
4934 Clouds 25 1022 61 10000 11.8 20 17:19 01.11.2019
4935 Clouds 25 1022 65 10000 13.4 20 16:38 01.11.2019
4936 Clouds 25 1022 65 10000 13.4 20 16:20 01.11.2019
4937 Clouds 27 1022 61 10000 12.3 20 15:55 01.11.2019
4938 Clouds 24 1023 57 10000 12.3 20 15:36 01.11.2019
4939 Clouds 24 1023 57 10000 12.3 20 15:18 01.11.2019
4940 Clouds 25 1023 57 10000 10.8 10 14:41 01.11.2019
4941 Clouds 25 1023 57 10000 10.8 10 14:23 01.11.2019
4942 Clouds 26 1024 61 10000 10.3 10 13:57 01.11.2019
4943 Clouds 25 1025 65 10000 9.8 10 13:38 01.11.2019
4944 Clouds 25 1025 65 10000 9.8 10 13:19 01.11.2019
4945 Clouds 25 1025 69 10000 10.3 360 12:43 01.11.2019
4946 Clouds 26 1025 61 10000 10.8 20 12:25 01.11.2019
4947 Clouds 24 1026 69 10000 10.8 10 11:56 01.11.2019
4948 Clouds 25 1026 69 10000 9.3 360 11:38 01.11.2019
4949 Clouds 25 1026 69 10000 9.3 360 11:19 01.11.2019
4950 Clouds 23 1026 73 10000 10.3 360 10:41 01.11.2019
4951 Clouds 23 1026 73 10000 10.3 360 10:21 01.11.2019
4952 Clouds 24 1025 73 10000 9.8 360 09:57 01.11.2019
4953 Clouds 24 1025 73 10000 9.8 360 09:57 01.11.2019
4954 Clouds 24 1025 78 10000 9.8 360 09:38 01.11.2019
4955 Clouds 24 1025 78 10000 9.8 360 09:19 01.11.2019
4956 Clouds 24 1025 78 10000 9.8 360 09:19 01.11.2019
4957 Clouds 24 1025 78 10000 10.3 360 08:42 01.11.2019
4958 Clouds 23 1024 78 10000 9.8 360 08:22 01.11.2019
4959 Clouds 23 1024 78 10000 9.8 360 08:22 01.11.2019
4960 Clouds 23 1024 78 10000 9.8 360 08:22 01.11.2019
4961 Clouds 24 1024 78 10000 8.2 10 07:55 01.11.2019
4962 Clouds 23 1024 78 10000 9.3 360 07:36 01.11.2019
4963 Clouds 23 1024 78 10000 9.3 360 07:18 01.11.2019
4964 Clouds 23 1024 78 10000 9.3 360 07:18 01.11.2019
4965 Clouds 23 1024 78 10000 8.7 360 06:40 01.11.2019
4966 Clouds 23 1024 78 10000 8.7 360 06:21 01.11.2019
4967 Clouds 23 1024 78 10000 8.7 360 06:21 01.11.2019
4968 Clouds 24 1024 78 10000 8.7 10 05:43 01.11.2019
4969 Clouds 23 1024 78 10000 9.8 360 03:42 01.11.2019
4970 Clouds 23 1024 78 10000 10.3 360 02:47 01.11.2019
4971 Clouds 23 1025 78 10000 9.8 360 01:28 01.11.2019
4972 Clouds 24 1025 73 10000 11.3 360 00:22 01.11.2019
4973 Clouds 24 1025 73 10000 9.8 360 23:59 31.10.2019
4974 Clouds 23 1025 73 10000 11.8 10 23:41 31.10.2019
4975 Clouds 23 1025 73 10000 11.8 10 23:22 31.10.2019
4976 Clouds 22 1025 73 10000 10.3 360 22:42 31.10.2019
4977 Clouds 23 1025 73 10000 10.8 360 22:24 31.10.2019
4978 Clouds 23 1024 73 10000 10.3 360 21:58 31.10.2019
4979 Clouds 23 1024 73 10000 11.3 360 21:40 31.10.2019
4980 Clouds 23 1024 73 10000 11.3 360 21:19 31.10.2019
4981 Clouds 23 1024 73 10000 12.3 10 20:42 31.10.2019
4982 Clouds 23 1024 73 10000 12.3 10 20:24 31.10.2019
4983 Clouds 24 1024 69 10000 10.8 360 19:59 31.10.2019
4984 Clouds 24 1023 69 10000 12.3 10 19:39 31.10.2019
4985 Clouds 24 1023 69 10000 12.3 10 19:39 31.10.2019
4986 Clouds 25 1023 69 10000 12.3 10 19:21 31.10.2019
4987 Clouds 24 1023 73 10000 11.8 10 18:55 31.10.2019
4988 Clouds 22 1023 65 10000 12.3 10 18:36 31.10.2019
4989 Clouds 22 1023 65 10000 12.3 10 18:18 31.10.2019
4990 Clouds 26 1023 65 10000 11.8 10 17:41 31.10.2019
4991 Clouds 26 1023 65 10000 11.8 10 17:21 31.10.2019
4992 Clouds 27 1023 61 10000 12.3 10 16:56 31.10.2019
4993 Clouds 23 1024 65 10000 11.8 10 16:37 31.10.2019
4994 Clouds 26 1024 65 10000 11.8 10 16:18 31.10.2019
4995 Clouds 24 1024 61 10000 11.8 20 15:41 31.10.2019
4996 Clouds 26 1024 61 10000 11.8 20 15:23 31.10.2019
4997 Clouds 26 1024 61 10000 12.9 20 14:59 31.10.2019
4998 Clouds 23 1024 61 10000 11.8 20 14:41 31.10.2019
4999 Clouds 26 1024 61 10000 11.8 20 14:23 31.10.2019
5000 Clouds 25 1024 61 10000 12.9 20 13:59 31.10.2019
5001 Clouds 26 1025 61 10000 11.8 10 13:39 31.10.2019
5002 Clouds 25 1025 61 10000 11.8 10 13:19 31.10.2019
5003 Clouds 25 1025 61 10000 11.8 10 13:19 31.10.2019
5004 Clouds 25 1025 61 10000 10.3 10 12:57 31.10.2019
5005 Clouds 24 1025 65 10000 12.3 10 12:38 31.10.2019
5006 Clouds 24 1025 65 10000 12.3 10 12:20 31.10.2019
5007 Clouds 24 1025 61 10000 10.8 360 11:46 31.10.2019
5008 Clouds 23 1025 69 10000 11.3 360 11:21 31.10.2019
5009 Clouds 23 1025 69 10000 11.3 360 11:21 31.10.2019
5010 Clouds 23 1025 73 10000 10.3 360 10:58 31.10.2019
5011 Clouds 23 1025 73 10000 10.3 10 10:39 31.10.2019
5012 Clouds 23 1025 73 10000 10.3 10 10:21 31.10.2019
5013 Clouds 22 1025 78 10000 8.7 360 09:56 31.10.2019
5014 Clouds 23 1024 78 10000 9.8 360 09:37 31.10.2019
5015 Clouds 23 1024 78 10000 9.8 360 09:18 31.10.2019
5016 Clouds 22 1024 73 10000 8.2 10 08:44 31.10.2019
5017 Clouds 22 1024 73 10000 8.2 10 08:26 31.10.2019
5018 Clouds 22 1023 73 10000 7.7 360 07:48 31.10.2019
5019 Clouds 22 1023 73 10000 9.8 350 07:27 31.10.2019
5020 Clouds 21 1023 73 10000 9.8 10 06:53 31.10.2019
5021 Clouds 21 1023 69 10000 8.2 20 06:32 31.10.2019
5022 Clouds 21 1023 69 10000 8.7 10 05:27 31.10.2019
5023 Clear 23 1023 60 10000 9.3 10 02:50 31.10.2019
5024 Clear 23 1024 60 10000 8.7 360 02:27 31.10.2019
5025 Clear 22 1024 60 10000 8.2 360 01:21 31.10.2019
5026 Clear 23 1024 57 10000 7.2 360 00:26 31.10.2019
5027 Clear 23 1024 60 10000 7.7 360 23:49 30.10.2019
5028 Clear 24 1024 60 10000 8.2 360 23:25 30.10.2019
5029 Clear 24 1024 64 10000 6.2 10 22:42 30.10.2019
5030 Clear 23 1024 64 10000 6.2 10 22:20 30.10.2019
5031 Clear 24 1024 64 10000 6.2 10 21:55 30.10.2019
5032 Clear 23 1023 61 10000 6.7 10 21:37 30.10.2019
5033 Clear 23 1023 61 10000 6.7 10 21:18 30.10.2019
5034 Clear 23 1023 61 10000 6.7 10 20:58 30.10.2019
5035 Clear 23 1022 61 10000 8.2 10 20:39 30.10.2019
5036 Clear 24 1022 61 10000 8.2 10 20:21 30.10.2019
5037 Clear 24 1022 57 10000 7.7 10 19:54 30.10.2019
5038 Clear 25 1022 57 10000 8.2 10 19:36 30.10.2019
5039 Clear 25 1022 57 10000 8.2 10 19:18 30.10.2019
5040 Clear 25 1021 61 10000 9.3 20 18:39 30.10.2019
5041 Clear 26 1021 61 10000 9.3 20 18:19 30.10.2019
5042 Clear 26 1021 57 10000 8.7 10 17:57 30.10.2019
5043 Clear 26 1021 57 10000 9.3 20 17:38 30.10.2019
5044 Clear 27 1021 57 10000 9.3 20 17:18 30.10.2019
5045 Clear 27 1021 57 10000 9.3 20 16:55 30.10.2019
5046 Clear 27 1021 57 10000 9.3 30 16:36 30.10.2019
5047 Clear 26 1021 57 10000 9.3 30 16:18 30.10.2019
5048 Clouds 26 1021 61 10000 8.2 20 15:54 30.10.2019
5049 Clear 26 1022 69 10000 7.7 30 15:36 30.10.2019
5050 Clear 27 1022 69 10000 7.7 30 15:18 30.10.2019
5051 Clear 27 1022 69 10000 8.2 20 14:41 30.10.2019
5052 Clear 27 1022 69 10000 8.2 20 14:22 30.10.2019
5053 Clear 26 1022 78 10000 7.7 20 13:58 30.10.2019
5054 Clouds 27 1023 74 10000 8.7 20 13:39 30.10.2019
5055 Clouds 26 1023 74 10000 8.7 20 13:19 30.10.2019
5056 Clear 26 1023 74 10000 9.3 30 12:56 30.10.2019
5057 Clouds 26 1023 69 10000 9.3 30 12:37 30.10.2019
5058 Clouds 26 1023 69 10000 9.3 30 12:18 30.10.2019
5059 Clear 25 1023 61 10000 7.7 30 11:41 30.10.2019
5060 Clear 25 1023 61 10000 7.7 30 11:21 30.10.2019
5061 Clear 25 1022 73 10000 6.7 20 10:45 30.10.2019
5062 Clear 25 1022 73 10000 6.7 20 10:24 30.10.2019
5063 Clear 25 1021 64 10000 5.7 20 09:57 30.10.2019
5064 Clear 24 1021 64 10000 5.1 20 09:39 30.10.2019
5065 Clear 23 1021 64 10000 5.1 20 09:19 30.10.2019
5066 Clear 23 1020 64 10000 3.6 10 08:40 30.10.2019
5067 Clear 23 1020 64 10000 3.6 10 08:22 30.10.2019
5068 Clear 22 1020 73 10000 4.6 10 07:51 30.10.2019
5069 Clear 23 1020 73 10000 4.6 10 07:32 30.10.2019
5070 Clear 23 1019 73 10000 4.6 360 06:43 30.10.2019
5071 Clear 23 1019 73 10000 4.6 360 06:22 30.10.2019
5072 Clear 23 1019 73 10000 4.6 10 05:46 30.10.2019
5073 Clear 23 1019 73 10000 3.6 360 05:24 30.10.2019
5074 Clear 22 1020 69 10000 3.6 10 03:45 30.10.2019
5075 Clear 22 1020 69 10000 3.6 10 03:18 30.10.2019
5076 Clear 23 1020 64 10000 3.6 360 02:19 30.10.2019
5077 Clear 23 1020 69 10000 3.6 360 01:32 30.10.2019
5078 Clear 23 1020 73 10000 2.1 340 00:31 30.10.2019
5079 Clear 23 1020 78 10000 2.1 320 23:46 29.10.2019
5080 Clear 23 1020 78 10000 1.5 330 23:25 29.10.2019
5081 Clear 23 1020 83 10000 1 100 22:55 29.10.2019
5082 Clear 23 1020 83 10000 1 0 22:37 29.10.2019
5083 Clear 23 1020 83 10000 1 0 22:37 29.10.2019
5084 Clear 23 1020 83 10000 1 0 22:37 29.10.2019
5085 Clear 23 1020 83 10000 1 0 22:18 29.10.2019
5086 Clear 24 1019 73 10000 0.5 0 21:42 29.10.2019
5087 Clear 24 1019 73 10000 0.5 0 21:21 29.10.2019
5088 Clear 24 1019 73 10000 1.5 70 20:59 29.10.2019
5089 Clear 24 1019 73 10000 1.97 6 20:40 29.10.2019
5090 Clear 24 1019 73 10000 1.45 26 20:21 29.10.2019
5091 Clear 24 1018 73 10000 0.5 0 19:57 29.10.2019
5092 Clear 24 1018 73 10000 1 0 19:38 29.10.2019
5093 Clear 24 1018 73 10000 1 0 19:19 29.10.2019
5094 Clear 25 1018 69 10000 0.5 0 18:55 29.10.2019
5095 Clear 25 1018 69 10000 1.5 160 18:37 29.10.2019
5096 Clear 25 1018 69 10000 1.5 160 18:19 29.10.2019
5097 Clear 25 1018 65 10000 1.5 0 17:54 29.10.2019
5098 Clear 26 1018 65 10000 1.5 0 17:36 29.10.2019
5099 Clear 26 1018 65 10000 1.5 0 17:18 29.10.2019
5100 Clear 26 1018 65 10000 2.6 0 16:39 29.10.2019
5101 Clear 26 1018 65 10000 2.6 0 16:39 29.10.2019
5102 Clear 26 1018 65 10000 2.6 0 16:20 29.10.2019
5103 Clear 26 1018 69 10000 2.6 160 15:56 29.10.2019
5104 Clear 26 1018 69 10000 2.6 160 15:38 29.10.2019
5105 Clear 26 1018 69 10000 2.6 160 15:19 29.10.2019
5106 Clear 26 1018 69 10000 2.6 160 14:55 29.10.2019
5107 Clear 27 1019 65 10000 2.6 160 14:37 29.10.2019
5108 Clear 26 1019 65 10000 2.6 160 14:18 29.10.2019
5109 Clear 26 1019 65 10000 2.6 180 13:40 29.10.2019
5110 Clouds 26 1019 65 10000 2.6 180 13:21 29.10.2019
5111 Clouds 25 1019 65 10000 2.1 160 12:45 29.10.2019
5112 Clouds 25 1020 69 10000 2.1 190 12:45 29.10.2019
5113 Clouds 25 1020 69 10000 2.1 190 12:26 29.10.2019
5114 Clouds 25 1019 69 10000 2.1 0 11:59 29.10.2019
5115 Clouds 25 1019 65 10000 1.5 170 11:40 29.10.2019
5116 Clear 25 1019 65 10000 1.5 170 11:19 29.10.2019
5117 Clear 25 1019 65 10000 2.6 170 10:57 29.10.2019
5118 Clear 25 1019 61 10000 2.6 200 10:38 29.10.2019
5119 Clear 25 1019 61 10000 2.6 200 10:20 29.10.2019
5120 Clear 24 1018 64 10000 1.5 190 09:55 29.10.2019
5121 Clear 23 1018 69 10000 2.1 220 09:36 29.10.2019
5122 Clear 23 1018 69 10000 2.1 220 09:18 29.10.2019
5123 Clear 23 1017 73 10000 1.5 210 08:43 29.10.2019
5124 Clouds 22 1017 73 10000 1.5 210 08:23 29.10.2019
5125 Clouds 22 1017 68 10000 1.5 200 07:49 29.10.2019
5126 Clouds 23 1017 64 10000 1.5 240 07:22 29.10.2019
5127 Clouds 22 1017 68 10000 1.5 240 06:59 29.10.2019
5128 Clouds 23 1016 64 10000 1 0 06:41 29.10.2019
5129 Clouds 22 1016 64 10000 1 0 06:19 29.10.2019
5130 Clouds 23 1016 69 10000 1 0 05:49 29.10.2019
5131 Clouds 23 1017 64 10000 1.5 210 05:18 29.10.2019
5132 Clouds 25 1017 57 10000 1.5 240 03:34 29.10.2019
5133 Clouds 25 1017 57 10000 2.1 240 02:32 29.10.2019
5134 Clouds 25 1017 57 10000 1.5 230 01:42 29.10.2019
5135 Clouds 25 1018 57 10000 1.5 240 00:56 29.10.2019
5136 Clouds 26 1018 54 10000 1 0 00:30 29.10.2019
5137 Clouds 26 1018 54 10000 0.5 0 23:41 28.10.2019
5138 Clear 25 1018 54 10000 0.5 0 23:20 28.10.2019
5139 Clear 25 1018 54 10000 0.5 0 23:20 28.10.2019
5140 Clear 26 1018 54 10000 0.5 0 22:57 28.10.2019
5141 Clear 26 1018 51 10000 0.5 0 22:37 28.10.2019
5142 Clear 24 1018 51 10000 0.5 0 22:18 28.10.2019
5143 Clear 25 1017 51 10000 1 0 21:54 28.10.2019
5144 Clear 25 1017 51 10000 1 0 21:54 28.10.2019
5145 Clear 25 1017 51 10000 0.9 104 21:36 28.10.2019
5146 Clear 26 1017 51 10000 0.9 104 21:18 28.10.2019
5147 Clear 27 1017 51 10000 0.5 0 20:41 28.10.2019
5148 Clouds 25 1017 51 10000 0.5 0 20:23 28.10.2019
5149 Clouds 25 1017 51 10000 0.5 0 19:55 28.10.2019
5150 Clouds 26 1017 48 10000 1 0 19:37 28.10.2019
5151 Clouds 26 1017 48 10000 1 0 19:19 28.10.2019
5152 Clouds 28 1017 51 10000 1 0 18:58 28.10.2019
5153 Clouds 28 1017 51 10000 1 0 18:38 28.10.2019
5154 Clouds 26 1017 51 10000 1 0 18:20 28.10.2019
5155 Clouds 28 1017 51 10000 1.5 0 17:56 28.10.2019
5156 Clouds 26 1017 57 10000 1 0 17:38 28.10.2019
5157 Clouds 28 1017 57 10000 1 0 17:18 28.10.2019
5158 Clouds 28 1017 51 10000 2.1 0 16:55 28.10.2019
5159 Clouds 28 1017 51 10000 1.5 0 16:37 28.10.2019
5160 Clouds 28 1017 51 10000 1.5 0 16:19 28.10.2019
5161 Clouds 28 1018 51 10000 1.5 0 15:56 28.10.2019
5162 Clouds 29 1018 51 10000 2.1 0 15:37 28.10.2019
5163 Clouds 28 1018 51 10000 2.1 0 15:18 28.10.2019
5164 Clouds 28 1018 51 10000 1.5 0 14:54 28.10.2019
5165 Clouds 28 1019 51 10000 2.1 0 14:36 28.10.2019
5166 Clouds 28 1019 51 10000 2.1 0 14:18 28.10.2019
5167 Clouds 28 1019 51 10000 1.5 0 13:41 28.10.2019
5168 Clouds 28 1019 51 10000 1.5 0 13:19 28.10.2019
5169 Clouds 28 1020 51 10000 2.1 180 12:59 28.10.2019
5170 Clouds 28 1019 51 10000 2.1 0 12:40 28.10.2019
5171 Clouds 28 1019 51 10000 2.1 0 12:19 28.10.2019
5172 Clouds 27 1019 54 10000 1.5 0 11:38 28.10.2019
5173 Clouds 26 1019 54 10000 1.5 0 11:20 28.10.2019
5174 Clouds 26 1019 51 10000 2.6 180 10:42 28.10.2019
5175 Clouds 27 1019 54 10000 0.5 0 10:24 28.10.2019
5176 Clouds 26 1018 57 10000 2.6 200 09:58 28.10.2019
5177 Clouds 25 1018 61 10000 2.1 230 09:39 28.10.2019
5178 Clouds 25 1018 61 10000 2.1 230 09:20 28.10.2019
5179 Clouds 25 1018 60 10000 2.6 250 08:58 28.10.2019
5180 Clouds 25 1017 57 10000 1.5 230 08:39 28.10.2019
5181 Clouds 25 1017 57 10000 1.5 230 08:19 28.10.2019
5182 Clouds 25 1017 57 10000 1.5 250 07:59 28.10.2019
5183 Clouds 25 1017 53 10000 1.5 260 07:40 28.10.2019
5184 Clouds 24 1017 53 10000 1.5 260 07:20 28.10.2019
5185 Clouds 25 1017 60 10000 1.5 270 06:40 28.10.2019
5186 Clouds 25 1017 60 10000 1.5 270 06:19 28.10.2019
5187 Clouds 24 1017 60 10000 1 0 04:29 28.10.2019
5188 Clouds 24 1018 64 10000 1.5 230 03:41 28.10.2019
5189 Clouds 25 1018 61 10000 1.1 31 02:45 28.10.2019
5190 Clouds 25 1018 57 10000 2.1 320 01:27 28.10.2019
5191 Clouds 26 1018 57 10000 0.5 0 00:46 28.10.2019
5192 Clouds 25 1019 57 10000 1.5 330 00:22 28.10.2019
5193 Clouds 25 1019 54 10000 1 0 23:43 27.10.2019
5194 Rain 25 1018 54 10000 0.5 0 23:21 27.10.2019
5195 Rain 27 1018 51 10000 0.93 9 22:55 27.10.2019
5196 Rain 26 1018 51 10000 1.5 220 22:36 27.10.2019
5197 Rain 27 1018 51 10000 1.5 220 22:18 27.10.2019
5198 Rain 25 1018 65 10000 1.5 0 21:40 27.10.2019
5199 Rain 25 1018 65 10000 1.5 0 21:21 27.10.2019
5200 Clouds 26 1018 61 10000 1.5 0 20:58 27.10.2019
5201 Rain 25 1017 65 10000 2.1 170 20:40 27.10.2019
5202 Rain 25 1017 65 10000 2.1 170 20:40 27.10.2019
5203 Rain 26 1017 65 10000 2.1 170 20:22 27.10.2019
5204 Rain 25 1018 69 10000 0.5 0 19:56 27.10.2019
5205 Rain 25 1018 69 10000 0.5 0 19:56 27.10.2019
5206 Rain 26 1018 69 10000 2.6 60 19:37 27.10.2019
5207 Rain 25 1018 69 10000 2.6 60 19:19 27.10.2019
5208 Rain 26 1018 69 10000 4.1 40 18:55 27.10.2019
5209 Rain 26 1019 61 10000 4.1 20 18:37 27.10.2019
5210 Rain 26 1019 61 10000 4.1 20 18:19 27.10.2019
5211 Rain 25 1019 54 10000 3.6 20 17:41 27.10.2019
5212 Rain 26 1019 54 10000 3.6 20 17:21 27.10.2019
5213 Rain 28 1019 54 10000 1.5 20 16:59 27.10.2019
5214 Rain 28 1019 61 10000 2.1 60 16:40 27.10.2019
5215 Rain 27 1019 61 10000 2.1 60 16:22 27.10.2019
5216 Rain 26 1019 69 10000 2.6 80 15:58 27.10.2019
5217 Rain 27 1019 65 10000 2.6 80 15:39 27.10.2019
5218 Rain 27 1019 65 10000 2.6 80 15:20 27.10.2019
5219 Rain 28 1019 45 10000 2.1 100 14:44 27.10.2019
5220 Rain 29 1019 42 10000 2.6 140 14:24 27.10.2019
5221 Rain 28 1019 54 10000 2.6 160 13:59 27.10.2019
5222 Rain 29 1020 45 10000 3.1 190 13:40 27.10.2019
5223 Clouds 28 1020 45 10000 3.1 190 13:22 27.10.2019
5224 Clouds 28 1020 45 10000 4.6 190 12:59 27.10.2019
5225 Clouds 28 1020 45 10000 4.1 200 12:41 27.10.2019
5226 Clouds 28 1020 45 10000 4.1 200 12:23 27.10.2019
5227 Clouds 27 1019 45 10000 4.1 170 11:43 27.10.2019
5228 Clouds 27 1020 45 10000 3.6 190 11:24 27.10.2019
5229 Clouds 27 1019 51 10000 3.1 180 10:57 27.10.2019
5230 Clouds 27 1019 48 10000 3.1 210 10:38 27.10.2019
5231 Clouds 27 1019 48 10000 3.1 210 10:38 27.10.2019
5232 Clouds 26 1019 48 10000 3.1 210 10:19 27.10.2019
5233 Clouds 27 1019 54 10000 2.1 190 09:43 27.10.2019
5234 Clouds 26 1019 57 10000 2.6 220 09:19 27.10.2019
5235 Clouds 25 1019 57 10000 2.6 220 09:19 27.10.2019
5236 Clouds 25 1018 57 10000 2.6 240 08:57 27.10.2019
5237 Clouds 24 1018 64 10000 2.6 240 08:37 27.10.2019
5238 Clouds 24 1018 64 10000 2.6 240 08:19 27.10.2019
5239 Clouds 24 1018 64 10000 2.1 220 07:45 27.10.2019
5240 Clouds 24 1018 69 10000 2.1 250 07:26 27.10.2019
5241 Clouds 24 1018 69 10000 2.6 240 06:52 27.10.2019
5242 Clouds 24 1018 73 10000 2.1 240 06:29 27.10.2019
5243 Clouds 23 1018 73 10000 1.5 250 05:54 27.10.2019
5244 Clouds 23 1018 73 10000 1.5 240 05:34 27.10.2019
5245 Clouds 23 1019 88 10000 1.5 110 03:35 27.10.2019
5246 Rain 24 1019 88 10000 1.5 350 02:28 27.10.2019
5247 Rain 23 1019 83 10000 2.6 20 01:25 27.10.2019
5248 Rain 23 1019 83 10000 4.1 20 00:52 27.10.2019
5249 Rain 25 1020 73 10000 4.1 20 00:33 27.10.2019
5250 Rain 24 1020 83 10000 5.1 30 23:58 26.10.2019
5251 Rain 23 1020 83 10000 4.1 20 23:39 26.10.2019
5252 Rain 23 1020 83 10000 4.1 20 23:21 26.10.2019
5253 Rain 24 1019 83 10000 4.6 20 22:57 26.10.2019
5254 Rain 24 1019 83 10000 4.1 30 22:38 26.10.2019
5255 Rain 23 1019 83 10000 4.1 30 22:19 26.10.2019
5256 Clouds 25 1019 78 10000 4.1 30 21:44 26.10.2019
5257 Clouds 24 1018 78 10000 4.1 30 21:23 26.10.2019
5258 Clouds 25 1018 61 10000 3.6 360 20:59 26.10.2019
5259 Clouds 26 1018 57 10000 4.1 10 20:40 26.10.2019
5260 Clouds 26 1018 57 10000 4.1 10 20:19 26.10.2019
5261 Clouds 25 1018 73 10000 5.1 20 19:42 26.10.2019
5262 Clouds 25 1018 73 10000 6.2 30 19:21 26.10.2019
5263 Clouds 25 1018 73 10000 6.2 20 18:58 26.10.2019
5264 Clouds 25 1018 69 10000 6.2 30 18:39 26.10.2019
5265 Clouds 26 1018 69 10000 6.2 30 18:20 26.10.2019
5266 Clouds 25 1018 78 10000 7.2 20 17:57 26.10.2019
5267 Clouds 25 1018 78 10000 6.7 10 17:38 26.10.2019
5268 Clouds 25 1018 78 10000 6.7 10 17:20 26.10.2019
5269 Rain 24 1019 78 10000 7.2 10 16:46 26.10.2019
5270 Rain 24 1019 78 10000 7.2 10 16:25 26.10.2019
5271 Clouds 24 1019 61 10000 6.7 20 15:59 26.10.2019
5272 Clouds 24 1019 61 10000 7.2 20 15:39 26.10.2019
5273 Clouds 25 1019 61 10000 7.2 20 15:18 26.10.2019
5274 Rain 29 1019 47 10000 8.7 30 14:39 26.10.2019
5275 Clouds 27 1019 47 10000 8.7 30 14:19 26.10.2019
5276 Clouds 26 1019 48 0 1.37 79 13:56 26.10.2019
5277 Clouds 26 1019 48 0 1.37 79 13:56 26.10.2019
5278 Clouds 26 1019 48 0 1.37 79 13:36 26.10.2019
5279 Clouds 26 1019 47 10000 7.7 30 13:18 26.10.2019
5280 Clouds 23 1023 51 0 0.45 135 12:42 26.10.2019
5281 Clouds 25 1020 73 10000 7.7 20 12:19 26.10.2019
5282 Clouds 24 1020 73 10000 6.2 10 11:47 26.10.2019
5283 Clouds 24 1020 73 10000 6.2 10 11:25 26.10.2019
5284 Clouds 23 1019 78 10000 4.6 30 10:47 26.10.2019
5285 Clouds 23 1019 78 10000 4.6 30 10:47 26.10.2019
5286 Clouds 23 1018 64 10000 3.6 10 10:26 26.10.2019
5287 Clouds 22 1017 68 10000 3.1 330 09:49 26.10.2019
5288 Rain 22 1017 64 10000 2.1 320 09:30 26.10.2019
5289 Clouds 23 1017 69 10000 0.36 204 08:55 26.10.2019
5290 Clouds 22 1017 60 10000 0.36 204 08:36 26.10.2019
5291 Clouds 22 1017 60 10000 0.36 204 08:18 26.10.2019
5292 Clouds 22 1016 56 10000 2.1 350 07:42 26.10.2019
5293 Clouds 22 1016 56 10000 2.1 350 07:22 26.10.2019
5294 Clouds 22 1016 64 10000 2.6 340 06:40 26.10.2019
5295 Rain 22 1017 64 10000 1.5 350 05:56 26.10.2019
5296 Rain 22 1017 68 10000 1.5 360 05:19 26.10.2019
5297 Clouds 22 1017 68 10000 2.1 350 03:45 26.10.2019
5298 Clouds 22 1018 78 10000 2.1 340 02:29 26.10.2019
5299 Rain 22 1018 78 10000 2.1 330 01:46 26.10.2019
5300 Rain 22 1018 78 10000 2.1 40 00:52 26.10.2019
5301 Clouds 22 1017 78 10000 1 0 23:55 25.10.2019
5302 Clouds 22 1017 83 10000 0.5 0 23:37 25.10.2019
5303 Clouds 22 1017 83 10000 0.5 0 23:18 25.10.2019
5304 Clouds 22 1016 83 10000 2.1 40 22:39 25.10.2019
5305 Clouds 22 1016 83 10000 2.1 40 22:21 25.10.2019
5306 Clouds 23 1016 78 10000 0.53 224 21:55 25.10.2019
5307 Rain 23 1016 73 10000 0.41 276 21:37 25.10.2019
5308 Clouds 23 1016 73 10000 1.03 288 21:19 25.10.2019
5309 Clouds 23 1016 73 10000 1.03 288 20:43 25.10.2019
5310 Clouds 23 1015 73 10000 1 0 20:19 25.10.2019
5311 Clouds 23 1015 73 10000 1.03 288 19:47 25.10.2019
5312 Clouds 23 1015 73 10000 1.03 288 19:47 25.10.2019
5313 Clouds 23 1015 73 10000 1 0 19:27 25.10.2019
5314 Clouds 23 1015 73 10000 1 0 18:56 25.10.2019
5315 Clouds 24 1015 73 10000 2.6 130 18:37 25.10.2019
5316 Clouds 23 1015 73 10000 2.6 130 18:19 25.10.2019
5317 Clouds 24 1015 61 10000 4.1 180 17:39 25.10.2019
5318 Clouds 25 1015 61 10000 4.1 180 17:20 25.10.2019
5319 Clouds 25 1015 60 10000 3.6 180 16:46 25.10.2019
5320 Clouds 25 1015 60 10000 3.1 180 16:23 25.10.2019
5321 Clouds 24 1016 57 10000 2.1 170 15:57 25.10.2019
5322 Clouds 24 1016 53 10000 1.5 140 15:38 25.10.2019
5323 Clouds 24 1016 53 10000 1.5 140 15:20 25.10.2019
5324 Clouds 24 1016 53 10000 1.5 140 15:20 25.10.2019
5325 Clouds 24 1016 53 10000 1.5 140 15:20 25.10.2019
5326 Clouds 24 1017 69 10000 1.5 160 14:42 25.10.2019
5327 Clouds 24 1017 69 10000 1.5 160 14:23 25.10.2019
5328 Clouds 24 1017 73 10000 1.5 140 13:59 25.10.2019
5329 Clouds 24 1017 73 10000 1 0 13:38 25.10.2019
5330 Clouds 24 1017 73 10000 1 0 13:20 25.10.2019
5331 Clouds 23 1017 73 10000 1.5 0 12:43 25.10.2019
5332 Clouds 23 1017 73 10000 1 0 12:22 25.10.2019
5333 Clouds 23 1017 73 10000 2.72 185 11:58 25.10.2019
5334 Clouds 23 1017 73 10000 1 0 11:38 25.10.2019
5335 Clouds 23 1017 73 10000 1 0 11:19 25.10.2019
5336 Clouds 21 1016 68 10000 2.6 330 10:41 25.10.2019
5337 Clouds 21 1016 68 10000 2.6 330 10:22 25.10.2019
5338 Clouds 21 1016 64 10000 2.6 320 09:58 25.10.2019
5339 Clouds 21 1016 72 10000 2.6 310 09:38 25.10.2019
5340 Clouds 21 1016 72 10000 2.6 310 09:19 25.10.2019
5341 Clouds 20 1016 77 10000 2.6 320 08:50 25.10.2019
5342 Clouds 19 1016 77 10000 2.6 330 08:32 25.10.2019
5343 Clouds 20 1015 77 10000 2.1 330 07:56 25.10.2019
5344 Clouds 20 1015 77 10000 3.6 320 07:34 25.10.2019
5345 Clouds 19 1015 72 10000 3.1 330 06:42 25.10.2019
5346 Clouds 20 1016 68 10000 3.1 330 05:57 25.10.2019
5347 Clouds 20 1016 64 10000 3.6 340 05:37 25.10.2019
5348 Clouds 20 1016 68 10000 3.6 350 04:52 25.10.2019
5349 Clouds 20 1016 72 10000 2.6 350 03:37 25.10.2019
5350 Clouds 20 1017 72 10000 2.1 280 01:54 25.10.2019
5351 Clouds 19 1018 72 10000 3.1 300 00:59 25.10.2019
5352 Clouds 19 1018 72 10000 2.6 310 00:20 25.10.2019
5353 Clouds 19 1017 68 10000 3.1 310 23:40 24.10.2019
5354 Clouds 20 1017 68 10000 3.1 310 23:22 24.10.2019
5355 Clouds 20 1017 68 10000 2.6 310 22:56 24.10.2019
5356 Clouds 20 1017 68 10000 2.6 340 22:37 24.10.2019
5357 Clouds 20 1017 68 10000 2.6 340 22:18 24.10.2019
5358 Clouds 20 1017 64 10000 2.6 340 21:56 24.10.2019
5359 Clouds 21 1016 64 10000 3.1 340 21:37 24.10.2019
5360 Clouds 19 1016 64 10000 3.1 340 21:37 24.10.2019
5361 Clouds 19 1016 64 10000 3.1 340 21:19 24.10.2019
5362 Clouds 19 1016 64 10000 2.6 340 20:56 24.10.2019
5363 Clouds 19 1016 64 10000 3.6 10 20:38 24.10.2019
5364 Clouds 20 1016 64 10000 3.6 10 20:19 24.10.2019
5365 Clouds 22 1016 60 10000 2.6 40 19:44 24.10.2019
5366 Clouds 21 1016 60 10000 2.6 40 19:23 24.10.2019
5367 Clouds 21 1016 60 10000 3.1 40 18:58 24.10.2019
5368 Clouds 22 1016 60 10000 3.6 50 18:40 24.10.2019
5369 Clouds 21 1016 60 10000 3.6 50 18:21 24.10.2019
5370 Clouds 21 1016 60 10000 3.1 0 17:57 24.10.2019
5371 Clouds 21 1017 60 10000 3.1 90 17:38 24.10.2019
5372 Clouds 21 1017 60 10000 3.1 90 17:38 24.10.2019
5373 Clouds 21 1017 60 10000 3.1 90 17:19 24.10.2019
5374 Clouds 21 1017 56 10000 4.1 90 16:54 24.10.2019
5375 Clouds 21 1017 60 10000 3.6 90 16:36 24.10.2019
5376 Clouds 21 1017 60 10000 3.6 90 16:18 24.10.2019
5377 Clouds 21 1017 60 10000 3.6 90 16:18 24.10.2019
5378 -273 0 0 0 0 0 15:54 24.10.2019
5379 Clouds 22 1018 56 10000 4.1 60 15:36 24.10.2019
5380 Clouds 22 1018 56 10000 4.1 60 15:18 24.10.2019
5381 Clouds 23 1019 56 10000 3.1 70 14:42 24.10.2019
5382 Clouds 21 1019 56 10000 3.1 70 14:23 24.10.2019
5383 Clouds 21 1019 53 10000 3.6 70 13:57 24.10.2019
5384 Clouds 21 1019 56 10000 3.6 60 13:37 24.10.2019
5385 Clouds 21 1019 56 10000 3.6 60 13:18 24.10.2019
5386 Clouds 22 1019 56 10000 3.6 60 12:55 24.10.2019
5387 Clouds 21 1019 56 10000 4.1 70 12:37 24.10.2019
5388 Clouds 22 1019 56 10000 4.1 70 12:18 24.10.2019
5389 Clouds 21 1019 56 10000 3.6 70 11:54 24.10.2019
5390 Clouds 21 1019 56 10000 4.1 50 11:36 24.10.2019
5391 Clouds 21 1019 56 10000 4.1 50 11:18 24.10.2019
5392 Clouds 21 1018 60 10000 4.6 50 10:41 24.10.2019
5393 Clouds 20 1018 60 10000 4.6 50 10:23 24.10.2019
5394 Clouds 20 1017 60 10000 4.6 70 09:39 24.10.2019
5395 Clouds 19 1017 60 10000 4.6 70 09:19 24.10.2019
5396 Clouds 20 1017 56 10000 4.6 50 08:57 24.10.2019
5397 Clouds 20 1017 64 10000 4.6 50 08:38 24.10.2019
5398 Clouds 20 1017 64 10000 4.6 50 08:19 24.10.2019
5399 Clouds 20 1017 64 10000 4.6 50 08:19 24.10.2019
5400 Clouds 20 1017 68 10000 5.7 50 07:46 24.10.2019
5401 Clouds 20 1017 68 10000 5.7 50 07:23 24.10.2019
5402 Clouds 20 1017 64 10000 3.6 20 06:50 24.10.2019
5403 Clouds 19 1017 60 10000 4.1 350 06:32 24.10.2019
5404 Clouds 20 1017 60 10000 3.6 350 05:53 24.10.2019
5405 Clouds 19 1017 63 10000 3.1 340 05:30 24.10.2019
5406 Clouds 20 1018 60 10000 5.1 40 03:51 24.10.2019
5407 Clouds 20 1018 60 10000 5.1 40 03:26 24.10.2019
5408 Clouds 20 1018 60 10000 4.1 30 02:29 24.10.2019
5409 Clouds 20 1019 60 10000 5.1 30 01:57 24.10.2019
5410 Clouds 20 1019 64 10000 3.6 20 01:30 24.10.2019
5411 Clouds 20 1019 60 10000 3.6 20 00:51 24.10.2019
5412 Clouds 20 1018 64 10000 5.1 30 00:23 24.10.2019
5413 Clouds 20 1018 56 10000 6.2 30 23:44 23.10.2019
5414 Clouds 20 1018 64 10000 6.2 40 23:24 23.10.2019
5415 Clouds 20 1018 64 10000 6.7 40 22:57 23.10.2019
5416 Clouds 20 1017 64 10000 6.7 40 22:39 23.10.2019
5417 Clouds 20 1017 64 10000 6.7 40 22:19 23.10.2019
5418 Clouds 21 1017 60 10000 7.2 30 21:58 23.10.2019
5419 Clouds 21 1017 64 10000 6.7 40 21:39 23.10.2019
5420 Clouds 20 1017 64 10000 6.7 40 21:20 23.10.2019
5421 Clouds 21 1017 64 10000 6.7 30 20:58 23.10.2019
5422 Clouds 21 1017 64 10000 6.2 20 20:39 23.10.2019
5423 Clouds 21 1017 64 10000 6.2 20 20:39 23.10.2019
5424 Clouds 21 1017 64 10000 6.2 20 20:21 23.10.2019
5425 Clouds 21 1017 64 10000 7.2 20 19:58 23.10.2019
5426 Clouds 22 1017 64 10000 6.7 30 19:40 23.10.2019
5427 Clouds 22 1017 64 10000 6.7 30 19:19 23.10.2019
5428 Clouds 22 1017 64 10000 6.7 40 18:55 23.10.2019
5429 Clouds 22 1017 60 10000 7.2 30 18:36 23.10.2019
5430 Clouds 23 1017 60 10000 7.2 30 18:18 23.10.2019
5431 Clouds 22 1017 60 10000 6.2 10 17:45 23.10.2019
5432 Clouds 23 1017 56 10000 6.2 30 17:20 23.10.2019
5433 Clouds 23 1017 60 10000 6.7 30 16:58 23.10.2019
5434 Clouds 23 1017 56 10000 6.7 20 16:39 23.10.2019
5435 Clouds 23 1017 56 10000 6.7 20 16:20 23.10.2019
5436 Clouds 24 1018 50 10000 6.7 30 15:42 23.10.2019
5437 Clouds 23 1018 50 10000 6.7 30 15:23 23.10.2019
5438 Clouds 23 1018 50 10000 6.2 30 14:58 23.10.2019
5439 Clouds 23 1018 56 10000 6.2 30 14:39 23.10.2019
5440 Clouds 23 1018 56 10000 6.2 30 14:20 23.10.2019
5441 Clouds 23 1019 53 10000 6.7 30 13:59 23.10.2019
5442 Clouds 22 1019 60 10000 6.7 30 13:40 23.10.2019
5443 Clouds 22 1019 60 10000 6.7 30 13:22 23.10.2019
5444 Clouds 20 1019 77 10000 4.1 340 12:56 23.10.2019
5445 Rain 20 1019 68 10000 3.6 350 12:37 23.10.2019
5446 Rain 20 1019 68 10000 3.6 350 12:18 23.10.2019
5447 Clouds 20 1019 77 10000 4.6 340 11:56 23.10.2019
5448 Clouds 19 1018 82 10000 5.1 330 11:37 23.10.2019
5449 Clouds 19 1018 82 10000 5.1 330 11:19 23.10.2019
5450 Clouds 19 1018 82 10000 5.1 330 11:19 23.10.2019
5451 Drizzle 19 1018 82 10000 3.6 340 10:45 23.10.2019
5452 Clouds 19 1018 77 10000 5.7 30 10:25 23.10.2019
5453 Clouds 19 1018 77 10000 5.1 350 09:55 23.10.2019
5454 Clouds 19 1017 82 10000 4.6 360 09:36 23.10.2019
5455 Clouds 19 1017 82 10000 4.6 360 09:18 23.10.2019
5456 Clouds 19 1017 77 10000 4.6 330 08:41 23.10.2019
5457 Clouds 19 1017 77 10000 4.6 330 08:23 23.10.2019
5458 Clouds 19 1017 72 10000 7.7 20 07:46 23.10.2019
5459 Clouds 19 1017 77 10000 4.1 330 07:22 23.10.2019
5460 Clouds 19 1017 88 10000 2.1 330 06:47 23.10.2019
5461 Rain 19 1017 88 10000 2.6 30 06:22 23.10.2019
5462 Clouds 20 1018 72 10000 7.2 30 05:45 23.10.2019
5463 Clouds 19 1018 68 10000 3.6 340 04:41 23.10.2019
5464 Clouds 19 1018 68 10000 4.1 350 03:34 23.10.2019
5465 Clouds 20 1018 64 10000 4.6 360 02:40 23.10.2019
5466 Clouds 21 1019 60 10000 6.2 360 01:28 23.10.2019
5467 Clouds 21 1019 60 10000 6.7 10 00:48 23.10.2019
5468 Clouds 21 1019 64 10000 6.2 10 00:28 23.10.2019
5469 Drizzle 21 1019 56 10000 4.6 340 23:39 22.10.2019
5470 Drizzle 21 1019 56 10000 4.6 340 23:18 22.10.2019
5471 Clouds 21 1018 60 10000 4.6 340 22:56 22.10.2019
5472 Clouds 21 1018 56 10000 6.2 350 22:37 22.10.2019
5473 Clouds 21 1018 56 10000 6.2 350 22:19 22.10.2019
5474 Clouds 21 1018 60 10000 5.1 350 21:56 22.10.2019
5475 Clouds 21 1018 64 10000 7.2 360 21:36 22.10.2019
5476 Clouds 21 1018 64 10000 7.2 360 21:18 22.10.2019
5477 Clouds 21 1018 64 10000 7.2 360 21:18 22.10.2019
5478 Clouds 21 1017 64 10000 7.2 350 20:55 22.10.2019
5479 Clouds 21 1017 64 10000 7.2 350 20:37 22.10.2019
5480 Clouds 21 1017 64 10000 7.2 350 20:37 22.10.2019
5481 Clouds 21 1017 64 10000 7.2 350 20:18 22.10.2019
5482 Clouds 22 1017 56 10000 7.2 350 19:43 22.10.2019
5483 Clouds 22 1017 56 10000 8.2 20 19:24 22.10.2019
5484 Clouds 23 1017 49 10000 9.3 20 18:57 22.10.2019
5485 Clouds 23 1017 49 10000 9.3 20 18:39 22.10.2019
5486 Clouds 23 1017 49 10000 9.3 20 18:21 22.10.2019
5487 Clouds 23 1017 46 10000 10.3 20 17:56 22.10.2019
5488 Clouds 23 1017 46 10000 10.3 20 17:56 22.10.2019
5489 Clouds 23 1017 43 10000 10.8 20 17:38 22.10.2019
5490 Clouds 23 1017 43 10000 10.8 20 17:19 22.10.2019
5491 Clouds 23 1017 47 10000 9.3 20 16:57 22.10.2019
5492 Clouds 23 1018 49 10000 9.8 20 16:37 22.10.2019
5493 Clouds 23 1018 49 10000 9.8 20 16:18 22.10.2019
5494 Clouds 23 1018 43 10000 8.7 20 15:43 22.10.2019
5495 Clouds 23 1018 49 10000 8.2 10 15:21 22.10.2019
5496 Rain 22 1019 53 10000 7.2 360 14:57 22.10.2019
5497 -273 0 0 0 0 0 14:39 22.10.2019
5498 Clouds 22 1019 56 10000 7.2 330 14:18 22.10.2019
5499 Clouds 22 1019 47 10000 9.8 20 13:41 22.10.2019
5500 Clouds 24 1019 47 10000 9.8 20 13:20 22.10.2019
5501 Clouds 23 1019 46 10000 8.2 10 12:57 22.10.2019
5502 Clouds 23 1020 46 10000 7.7 10 12:38 22.10.2019
5503 Clouds 23 1020 46 10000 7.7 10 12:19 22.10.2019
5504 Clouds 20 1019 60 10000 6.2 340 11:41 22.10.2019
5505 Clouds 20 1019 60 10000 6.2 340 11:22 22.10.2019
5506 Clouds 20 1019 60 10000 5.7 340 10:59 22.10.2019
5507 Clouds 20 1019 59 10000 4.6 340 10:38 22.10.2019
5508 Clouds 20 1019 59 10000 4.6 340 10:19 22.10.2019
5509 Clouds 20 1019 59 10000 4.6 340 10:19 22.10.2019
5510 Clouds 20 1018 63 10000 4.6 330 09:58 22.10.2019
5511 Clouds 19 1018 68 10000 5.7 340 09:40 22.10.2019
5512 Clouds 19 1018 68 10000 5.7 340 09:21 22.10.2019
5513 Clouds 19 1018 68 10000 5.7 340 08:55 22.10.2019
5514 Rain 18 1018 77 10000 4.6 320 08:37 22.10.2019
5515 Rain 18 1018 77 10000 4.6 320 08:18 22.10.2019
5516 Rain 19 1018 56 10000 4.1 340 07:42 22.10.2019
5517 Rain 19 1018 56 10000 4.1 340 07:24 22.10.2019
5518 Clouds 19 1018 63 10000 5.1 340 06:40 22.10.2019
5519 Clouds 19 1018 63 10000 5.1 340 06:21 22.10.2019
5520 Clouds 19 1018 60 10000 5.1 350 05:34 22.10.2019
5521 Clouds 19 1018 64 10000 6.2 360 04:22 22.10.2019
5522 Clouds 19 1019 64 10000 5.1 350 02:30 22.10.2019
5523 Clouds 20 1019 64 10000 4.6 360 01:38 22.10.2019
5524 Clouds 20 1019 64 10000 4.6 360 01:18 22.10.2019
5525 Clouds 20 1020 64 10000 6.7 360 00:42 22.10.2019
5526 Clouds 20 1020 64 10000 6.7 360 00:24 22.10.2019
5527 Rain 20 1019 68 10000 6.2 360 23:58 21.10.2019
5528 Clouds 21 1019 56 10000 5.1 350 23:38 21.10.2019
5529 Clouds 20 1019 56 10000 5.1 350 23:19 21.10.2019
5530 Clouds 21 1019 56 10000 6.2 360 22:58 21.10.2019
5531 Clouds 21 1019 56 10000 8.7 10 22:38 21.10.2019
5532 Clouds 20 1019 56 10000 8.7 10 22:20 21.10.2019
5533 Clouds 21 1018 56 10000 8.7 20 21:56 21.10.2019
5534 Clouds 21 1018 56 10000 8.2 10 21:37 21.10.2019
5535 Clouds 21 1018 56 10000 8.2 10 21:19 21.10.2019
5536 Clouds 21 1018 60 10000 8.7 20 20:57 21.10.2019
5537 Clouds 21 1018 60 10000 8.7 20 20:57 21.10.2019
5538 Clouds 21 1018 53 10000 8.7 10 20:38 21.10.2019
5539 Clouds 21 1018 53 10000 8.7 10 20:38 21.10.2019
5540 Clouds 22 1018 53 10000 8.7 10 20:19 21.10.2019
5541 Clouds 22 1018 53 10000 9.3 20 19:55 21.10.2019
5542 Clouds 22 1018 53 10000 9.8 20 19:36 21.10.2019
5543 Clouds 22 1018 53 10000 9.8 20 19:18 21.10.2019
5544 Clouds 23 1018 53 10000 9.3 20 18:54 21.10.2019
5545 Clouds 23 1018 53 10000 8.7 20 18:36 21.10.2019
5546 Clouds 23 1018 53 10000 8.7 20 18:36 21.10.2019
5547 Clouds 23 1018 53 10000 8.7 20 18:18 21.10.2019
5548 Clouds 23 1018 53 10000 8.7 20 18:18 21.10.2019
5549 Clouds 23 1018 60 10000 9.3 10 17:39 21.10.2019
5550 Clouds 23 1018 60 10000 9.3 10 17:19 21.10.2019
5551 Clouds 23 1018 53 10000 9.3 10 16:58 21.10.2019
5552 Clouds 23 1018 49 10000 9.3 10 16:40 21.10.2019
5553 Clouds 23 1018 49 10000 9.3 10 16:21 21.10.2019
5554 Clouds 23 1018 49 10000 9.3 20 15:57 21.10.2019
5555 Clouds 23 1019 53 10000 7.2 350 15:38 21.10.2019
5556 Clouds 23 1019 53 10000 7.2 350 15:18 21.10.2019
5557 Clouds 23 1019 56 10000 7.7 20 14:40 21.10.2019
5558 Clouds 23 1019 56 10000 7.7 20 14:21 21.10.2019
5559 Clouds 23 1019 60 10000 8.2 20 13:59 21.10.2019
5560 Clouds 23 1019 60 10000 8.2 20 13:40 21.10.2019
5561 Clouds 23 1019 60 10000 8.2 20 13:20 21.10.2019
5562 Clouds 22 1019 60 10000 7.2 10 12:57 21.10.2019
5563 Clouds 22 1019 64 10000 9.8 10 12:39 21.10.2019
5564 Clouds 22 1019 64 10000 9.8 10 12:20 21.10.2019
5565 Clouds 22 1019 64 10000 9.8 10 12:20 21.10.2019
5566 Clouds 22 1018 60 10000 8.2 20 11:42 21.10.2019
5567 Clouds 23 1018 60 10000 8.2 20 11:23 21.10.2019
5568 Clouds 22 1018 60 10000 7.2 10 10:58 21.10.2019
5569 Clouds 22 1018 64 10000 8.2 10 10:40 21.10.2019
5570 Clouds 21 1018 64 10000 8.2 10 10:20 21.10.2019
5571 Clouds 21 1017 64 10000 7.2 20 09:57 21.10.2019
5572 Clouds 20 1017 68 10000 6.2 10 09:37 21.10.2019
5573 Clouds 20 1017 68 10000 6.2 10 09:19 21.10.2019
5574 Clouds 20 1017 68 10000 5.1 340 08:40 21.10.2019
5575 Clouds 20 1017 68 10000 5.1 340 08:22 21.10.2019
5576 Clouds 20 1016 72 10000 5.7 340 07:45 21.10.2019
5577 Rain 20 1016 68 10000 6.7 350 07:23 21.10.2019
5578 Clouds 20 1016 68 10000 5.7 340 06:59 21.10.2019
5579 Clouds 20 1016 68 10000 5.7 340 06:41 21.10.2019
5580 Clouds 20 1016 68 10000 5.7 340 06:18 21.10.2019
5581 Clouds 20 1016 68 10000 7.2 360 05:21 21.10.2019
5582 Clouds 20 1017 82 10000 5.1 340 03:39 21.10.2019
5583 Clouds 20 1017 77 10000 5.7 340 02:39 21.10.2019
5584 Clouds 20 1017 77 10000 5.7 340 02:19 21.10.2019
5585 Clouds 20 1017 77 10000 5.7 340 02:19 21.10.2019
5586 Clouds 21 1017 73 10000 6.2 10 01:43 21.10.2019
5587 Rain 20 1017 82 10000 6.2 350 00:51 21.10.2019
5588 Clouds 21 1017 77 10000 5.7 340 00:28 21.10.2019
5589 Clouds 21 1017 73 10000 5.7 360 23:57 20.10.2019
5590 Clouds 21 1017 77 10000 5.7 360 23:38 20.10.2019
5591 Clouds 21 1017 77 10000 5.7 360 23:20 20.10.2019
5592 Clouds 21 1017 83 10000 6.2 340 22:41 20.10.2019
5593 Clouds 21 1017 83 10000 6.2 340 22:23 20.10.2019
5594 Clouds 22 1016 73 10000 6.7 10 21:59 20.10.2019
5595 Clouds 22 1016 78 10000 6.7 10 21:39 20.10.2019
5596 Clouds 22 1016 78 10000 6.7 10 21:21 20.10.2019
5597 Rain 22 1016 83 8000 6.2 360 20:55 20.10.2019
5598 Rain 22 1016 83 7000 6.7 360 20:37 20.10.2019
5599 Rain 22 1016 83 7000 6.7 360 20:18 20.10.2019
5600 Clouds 22 1016 78 10000 8.7 30 19:55 20.10.2019
5601 Rain 22 1016 83 10000 8.7 40 19:36 20.10.2019
5602 Rain 22 1016 83 10000 8.7 40 19:18 20.10.2019
5603 Rain 21 1016 94 8000 6.2 360 18:40 20.10.2019
5604 Rain 21 1016 94 8000 6.2 360 18:20 20.10.2019
5605 Rain 21 1016 88 2000 8.2 10 17:56 20.10.2019
5606 Rain 21 1016 88 2000 8.2 10 17:56 20.10.2019
5607 Clouds 23 1015 73 10000 10.3 30 17:38 20.10.2019
5608 Clouds 23 1015 73 10000 10.3 30 17:19 20.10.2019
5609 Clouds 24 1016 73 10000 10.3 30 16:43 20.10.2019
5610 Clouds 23 1016 73 10000 10.3 20 16:24 20.10.2019
5611 Clouds 23 1016 73 10000 10.3 20 16:24 20.10.2019
5612 Clouds 23 1016 73 10000 10.3 20 15:59 20.10.2019
5613 Clouds 25 1016 69 10000 10.3 30 15:39 20.10.2019
5614 Clouds 25 1016 69 10000 10.3 30 15:20 20.10.2019
5615 Clouds 24 1016 61 10000 9.3 30 14:58 20.10.2019
5616 Clouds 24 1016 65 10000 9.8 30 14:38 20.10.2019
5617 Clouds 24 1016 65 10000 9.8 30 14:38 20.10.2019
5618 Clouds 23 1016 65 10000 9.8 30 14:19 20.10.2019
5619 Clouds 25 1017 69 10000 9.8 30 13:56 20.10.2019
5620 Clouds 23 1017 69 10000 9.3 30 13:37 20.10.2019
5621 Clouds 23 1017 69 10000 9.3 30 13:18 20.10.2019
5622 Clouds 23 1017 65 10000 8.7 30 12:56 20.10.2019
5623 Clouds 24 1016 61 10000 8.7 20 12:38 20.10.2019
5624 Clouds 24 1016 61 10000 8.7 20 12:20 20.10.2019
5625 Clouds 24 1016 65 10000 7.7 20 11:57 20.10.2019
5626 Clouds 23 1016 69 10000 7.7 10 11:38 20.10.2019
5627 Clouds 24 1016 69 10000 7.7 10 11:20 20.10.2019
5628 Clouds 22 1016 69 10000 6.7 360 10:41 20.10.2019
5629 Clouds 22 1016 69 10000 6.7 360 10:41 20.10.2019
5630 Clouds 22 1016 69 10000 6.7 360 10:22 20.10.2019
5631 Clouds 21 1015 73 10000 5.7 360 09:59 20.10.2019
5632 Clouds 21 1015 73 10000 6.2 360 09:41 20.10.2019
5633 Clouds 21 1015 73 10000 6.2 360 09:21 20.10.2019
5634 Clouds 21 1015 68 10000 6.2 360 08:49 20.10.2019
5635 Clouds 21 1015 68 10000 7.2 350 08:24 20.10.2019
5636 -273 0 0 0 0 0 08:24 20.10.2019
5637 Clouds 21 1015 68 10000 6.2 360 07:50 20.10.2019
5638 Clouds 21 1015 64 10000 6.2 360 07:31 20.10.2019
5639 Clouds 21 1015 64 10000 6.2 350 06:57 20.10.2019
5640 Clouds 20 1014 64 10000 6.7 350 06:20 20.10.2019
5641 Clouds 21 1015 73 10000 6.7 360 04:27 20.10.2019
5642 Clouds 21 1015 73 10000 5.7 360 03:46 20.10.2019
5643 Clouds 21 1016 78 10000 7.2 360 03:20 20.10.2019
5644 Clouds 21 1016 68 10000 5.7 360 02:40 20.10.2019
5645 Clouds 21 1016 68 10000 5.7 350 01:58 20.10.2019
5646 Clouds 22 1017 68 10000 6.2 350 01:23 20.10.2019
5647 Clouds 22 1017 64 10000 7.2 350 00:56 20.10.2019
5648 Clouds 22 1017 64 10000 7.2 350 00:56 20.10.2019
5649 Clouds 22 1017 68 10000 7.2 350 00:38 20.10.2019
5650 Clouds 22 1017 68 10000 7.2 350 00:19 20.10.2019
5651 Clouds 22 1016 69 10000 8.2 360 23:42 19.10.2019
5652 Clouds 23 1016 69 10000 8.2 360 23:22 19.10.2019
5653 Clouds 22 1016 64 10000 6.7 360 22:56 19.10.2019
5654 Clouds 22 1016 69 10000 7.2 360 22:37 19.10.2019
5655 Clouds 22 1016 69 10000 7.2 360 22:19 19.10.2019
5656 Clouds 23 1015 64 10000 6.7 360 21:45 19.10.2019
5657 Clouds 21 1015 64 10000 8.2 360 21:23 19.10.2019
5658 Clouds 24 1015 60 10000 7.7 360 20:45 19.10.2019
5659 Clouds 22 1015 57 10000 8.2 350 20:23 19.10.2019
5660 Clouds 24 1015 57 10000 8.7 10 19:59 19.10.2019
5661 Clouds 24 1015 57 10000 9.3 10 19:39 19.10.2019
5662 Clouds 23 1015 57 10000 9.3 10 19:21 19.10.2019
5663 Clouds 24 1015 57 10000 10.8 20 18:42 19.10.2019
5664 Clouds 25 1015 57 10000 10.8 20 18:24 19.10.2019
5665 Clouds 25 1015 57 10000 11.8 20 17:55 19.10.2019
5666 Clouds 24 1015 57 10000 11.3 20 17:37 19.10.2019
5667 Clouds 24 1015 57 10000 11.3 20 17:19 19.10.2019
5668 Clouds 25 1015 54 10000 11.8 20 16:39 19.10.2019
5669 Clouds 25 1015 54 10000 11.8 20 16:20 19.10.2019
5670 Clouds 26 1016 54 10000 11.8 30 15:45 19.10.2019
5671 Clouds 26 1016 54 10000 11.8 30 15:26 19.10.2019
5672 Clouds 24 1017 57 10000 11.8 30 14:56 19.10.2019
5673 Clouds 25 1017 54 10000 10.3 20 14:38 19.10.2019
5674 Clouds 24 1017 54 10000 10.3 20 14:19 19.10.2019
5675 Clouds 24 1017 57 10000 11.3 20 13:54 19.10.2019
5676 Clouds 24 1017 57 10000 9.8 30 13:36 19.10.2019
5677 Clouds 24 1017 57 10000 9.8 30 13:18 19.10.2019
5678 Clouds 24 1018 64 10000 8.7 10 12:39 19.10.2019
5679 Clouds 23 1018 64 10000 8.7 10 12:21 19.10.2019
5680 Clouds 24 1018 64 10000 7.7 10 11:56 19.10.2019
5681 Clouds 22 1017 69 10000 6.2 20 11:36 19.10.2019
5682 Clouds 23 1017 69 10000 6.2 20 11:18 19.10.2019
5683 Clouds 21 1017 73 10000 4.6 350 10:40 19.10.2019
5684 Clouds 21 1017 73 10000 4.6 350 10:22 19.10.2019
5685 Clouds 21 1017 73 10000 4.1 350 09:57 19.10.2019
5686 Clouds 20 1017 77 10000 6.2 350 09:39 19.10.2019
5687 Clouds 20 1016 77 10000 5.1 360 09:20 19.10.2019
5688 Clouds 20 1016 77 10000 5.7 360 08:41 19.10.2019
5689 Clouds 20 1016 77 10000 5.7 360 08:22 19.10.2019
5690 Clouds 20 1016 73 10000 6.7 360 07:46 19.10.2019
5691 Clouds 20 1016 73 10000 6.7 360 07:26 19.10.2019
5692 Clouds 20 1016 73 10000 7.7 10 06:52 19.10.2019
5693 Clouds 21 1016 68 10000 6.2 360 06:32 19.10.2019
5694 Clouds 20 1017 64 10000 5.7 330 05:35 19.10.2019
5695 Clouds 20 1017 68 10000 5.7 360 04:26 19.10.2019
5696 Clouds 20 1018 73 10000 5.7 350 02:56 19.10.2019
5697 Clouds 21 1018 77 10000 6.2 360 01:56 19.10.2019
5698 Clouds 21 1018 73 10000 6.2 360 01:37 19.10.2019
5699 Clouds 21 1019 68 10000 6.2 360 00:51 19.10.2019
5700 Clouds 21 1018 68 10000 6.2 360 00:28 19.10.2019
5701 Clouds 21 1018 68 10000 6.2 360 23:56 18.10.2019
5702 Clouds 21 1018 68 10000 6.2 360 23:56 18.10.2019
5703 Clouds 21 1018 68 10000 6.7 350 23:38 18.10.2019
5704 Clouds 22 1018 68 10000 6.7 350 23:19 18.10.2019
5705 Clouds 22 1018 68 10000 7.2 350 22:54 18.10.2019
5706 Clouds 22 1018 68 10000 6.2 360 22:36 18.10.2019
5707 Clouds 22 1018 68 10000 6.2 360 22:18 18.10.2019
5708 Clouds 22 1018 68 10000 8.2 10 21:54 18.10.2019
5709 Clouds 22 1018 68 10000 8.2 10 21:36 18.10.2019
5710 Clouds 21 1018 68 10000 8.2 10 21:18 18.10.2019
5711 Clouds 22 1017 69 10000 10.3 20 20:41 18.10.2019
5712 Clouds 22 1017 69 10000 10.3 20 20:22 18.10.2019
5713 Clouds 23 1017 64 10000 9.8 20 19:58 18.10.2019
5714 Clouds 23 1017 64 10000 10.8 20 19:40 18.10.2019
5715 Clouds 23 1017 64 10000 10.8 20 19:40 18.10.2019
5716 Clouds 23 1017 64 10000 10.8 20 19:40 18.10.2019
5717 Clouds 22 1017 64 10000 10.8 20 19:21 18.10.2019
5718 Clouds 24 1018 60 10000 11.3 20 18:58 18.10.2019
5719 Clouds 24 1018 60 10000 11.3 30 18:39 18.10.2019
5720 Clouds 24 1018 60 10000 11.3 30 18:21 18.10.2019
5721 Clouds 24 1018 60 10000 11.3 20 17:40 18.10.2019
5722 Clouds 24 1018 60 10000 11.3 20 17:21 18.10.2019
5723 Clouds 24 1018 61 10000 11.8 30 16:59 18.10.2019
5724 Clouds 24 1019 61 10000 11.8 30 16:38 18.10.2019
5725 Clouds 25 1019 61 10000 11.8 30 16:20 18.10.2019
5726 Clouds 25 1019 57 10000 11.8 30 15:55 18.10.2019
5727 Clouds 24 1019 57 10000 11.8 30 15:36 18.10.2019
5728 Clouds 25 1019 57 10000 11.8 30 15:18 18.10.2019
5729 Clouds 25 1019 53 10000 10.3 20 14:56 18.10.2019
5730 Clouds 24 1020 54 10000 10.3 30 14:38 18.10.2019
5731 Clouds 23 1020 54 10000 10.3 30 14:18 18.10.2019
5732 Clouds 23 1020 57 10000 8.7 30 13:42 18.10.2019
5733 Clouds 24 1020 57 10000 8.7 30 13:23 18.10.2019
5734 Clouds 24 1020 50 10000 7.7 350 12:58 18.10.2019
5735 Clouds 24 1020 60 10000 9.3 20 12:39 18.10.2019
5736 Clouds 24 1020 60 10000 9.3 20 12:21 18.10.2019
5737 Clouds 22 1020 64 10000 9.3 20 11:57 18.10.2019
5738 Clouds 22 1020 64 10000 9.3 20 11:57 18.10.2019
5739 Clouds 23 1020 69 10000 7.2 360 11:39 18.10.2019
5740 Clouds 23 1020 69 10000 7.2 360 11:20 18.10.2019
5741 Clouds 22 1020 73 10000 4.6 350 10:56 18.10.2019
5742 Clouds 22 1020 73 10000 4.6 350 10:56 18.10.2019
5743 -273 0 0 0 0 0 10:55 18.10.2019
5744 Clouds 22 1020 73 10000 4.6 350 10:55 18.10.2019
5745 Clouds 22 1020 73 10000 4.6 350 10:55 18.10.2019
5746 Clouds 21 1020 77 10000 4.1 360 10:37 18.10.2019
5747 Clouds 21 1020 77 10000 4.1 360 10:18 18.10.2019
5748 Clouds 21 1020 77 10000 5.1 350 09:54 18.10.2019
5749 Clouds 20 1020 77 10000 4.6 360 09:36 18.10.2019
5750 Clouds 20 1020 77 10000 4.6 360 09:18 18.10.2019
5751 Clouds 18 1019 73 10000 5.1 10 08:42 18.10.2019
5752 Clouds 18 1019 73 10000 5.1 10 08:21 18.10.2019
5753 Clouds 18 1019 73 10000 5.1 10 08:21 18.10.2019
5754 Clouds 19 1019 68 10000 6.7 10 07:43 18.10.2019
5755 Clouds 20 1019 64 10000 4.1 360 07:25 18.10.2019
5756 Clouds 20 1019 64 10000 6.2 340 06:40 18.10.2019
5757 Clouds 19 1019 64 10000 6.2 340 06:22 18.10.2019
5758 Clouds 19 1019 64 10000 5.1 340 05:57 18.10.2019
5759 Clouds 19 1019 64 10000 5.7 330 05:24 18.10.2019
5760 Clouds 20 1020 68 10000 6.7 330 04:47 18.10.2019
5761 Clouds 21 1021 64 10000 5.1 340 03:33 18.10.2019
5762 Clouds 21 1021 64 10000 5.1 350 02:34 18.10.2019
5763 Clouds 21 1021 68 10000 5.1 340 01:47 18.10.2019
5764 Clouds 21 1021 68 10000 5.1 340 01:28 18.10.2019
5765 Clouds 21 1021 68 10000 4.6 350 00:46 18.10.2019
5766 Clouds 22 1021 64 10000 5.1 350 00:21 18.10.2019
5767 Clouds 22 1021 64 10000 5.1 350 00:21 18.10.2019
5768 Clouds 22 1021 64 10000 5.7 350 23:57 17.10.2019
5769 Clouds 22 1021 64 10000 5.7 350 23:38 17.10.2019
5770 Clouds 22 1021 64 10000 5.7 350 23:19 17.10.2019
5771 Clouds 22 1021 64 10000 5.7 350 22:55 17.10.2019
5772 Clouds 22 1020 64 10000 5.1 360 22:37 17.10.2019
5773 Clouds 22 1020 64 10000 5.1 360 22:18 17.10.2019
5774 Clouds 22 1020 64 10000 6.7 10 21:55 17.10.2019
5775 Clouds 20 1020 64 10000 7.2 10 21:37 17.10.2019
5776 Clouds 21 1020 64 10000 7.2 10 21:19 17.10.2019
5777 Clouds 22 1020 60 10000 6.7 10 20:56 17.10.2019
5778 -273 0 0 0 0 0 20:56 17.10.2019
5779 Clouds 21 1020 56 10000 6.7 10 20:37 17.10.2019
5780 Clouds 22 1020 56 10000 6.7 10 20:18 17.10.2019
5781 Clouds 22 1020 53 10000 7.7 20 19:42 17.10.2019
5782 Clouds 22 1020 53 10000 7.7 20 19:42 17.10.2019
5783 -273 0 0 0 0 0 19:42 17.10.2019
5784 Clouds 22 1020 53 10000 7.7 20 19:20 17.10.2019
5785 Clouds 23 1020 53 10000 8.2 30 18:59 17.10.2019
5786 Clouds 23 1020 53 10000 8.7 30 18:39 17.10.2019
5787 Clouds 23 1020 53 10000 8.7 30 18:21 17.10.2019
5788 Clouds 23 1020 53 10000 9.8 20 17:44 17.10.2019
5789 Clouds 24 1020 47 10000 9.8 30 17:25 17.10.2019
5790 Clouds 23 1020 57 10000 9.8 30 16:59 17.10.2019
5791 Clouds 24 1020 50 10000 9.8 30 16:41 17.10.2019
5792 Clouds 23 1020 50 10000 9.8 30 16:19 17.10.2019
5793 Clouds 24 1020 50 10000 10.3 30 15:57 17.10.2019
5794 Clouds 24 1021 53 10000 9.3 30 15:39 17.10.2019
5795 Clouds 24 1021 53 10000 9.3 30 15:20 17.10.2019
5796 Clouds 24 1022 50 10000 9.8 30 14:57 17.10.2019
5797 Clouds 24 1022 57 10000 8.7 30 14:38 17.10.2019
5798 -273 0 0 0 0 0 14:20 17.10.2019
5799 Clouds 25 1022 57 10000 9.8 20 13:41 17.10.2019
5800 Clouds 23 1022 57 10000 9.8 20 13:20 17.10.2019
5801 Clouds 23 1022 57 10000 9.3 20 12:58 17.10.2019
5802 Clouds 23 1022 57 10000 8.7 20 12:38 17.10.2019
5803 Clouds 23 1022 57 10000 8.7 20 12:19 17.10.2019
5804 Clouds 22 1022 60 10000 8.2 10 11:55 17.10.2019
5805 Clouds 22 1022 60 10000 8.2 10 11:55 17.10.2019
5806 Clouds 22 1022 60 10000 8.2 10 11:55 17.10.2019
5807 Clouds 22 1021 60 10000 8.7 20 11:37 17.10.2019
5808 Clouds 22 1021 60 10000 8.7 20 11:18 17.10.2019
5809 Clouds 22 1020 64 10000 7.7 10 10:42 17.10.2019
5810 Clouds 22 1020 64 10000 7.7 10 10:42 17.10.2019
5811 Clouds 21 1020 64 10000 7.7 10 10:20 17.10.2019
5812 Clouds 20 1020 68 10000 5.1 10 09:57 17.10.2019
5813 Clouds 20 1021 68 10000 3.6 360 09:38 17.10.2019
5814 Clouds 20 1021 68 10000 3.6 360 09:19 17.10.2019
5815 -273 0 0 0 0 0 08:49 17.10.2019
5816 Clouds 21 1020 64 10000 4.6 350 08:27 17.10.2019
5817 Clouds 21 1020 73 10000 4.1 350 07:59 17.10.2019
5818 Clouds 21 1020 68 10000 4.1 340 07:41 17.10.2019
5819 Clouds 21 1020 68 10000 4.1 340 07:21 17.10.2019
5820 Clouds 21 1020 68 10000 4.6 340 06:51 17.10.2019
5821 Clouds 21 1020 64 10000 4.6 350 06:31 17.10.2019
5822 Clouds 22 1020 64 10000 4.6 350 05:59 17.10.2019
5823 Clouds 22 1020 68 10000 6.2 10 05:37 17.10.2019
5824 Clouds 21 1020 68 10000 6.2 10 05:19 17.10.2019
5825 Clouds 20 1020 68 10000 6.2 10 04:46 17.10.2019
5826 Clouds 20 1020 68 10000 7.7 10 03:45 17.10.2019
5827 Clouds 22 1021 73 10000 6.2 20 01:57 17.10.2019
5828 Clouds 22 1021 73 10000 6.2 20 01:57 17.10.2019
5829 Clouds 20 1022 73 10000 4.1 10 00:42 17.10.2019
5830 Clouds 22 1022 73 10000 4.1 10 00:21 17.10.2019
5831 Clouds 22 1022 68 10000 3.6 10 23:59 16.10.2019
5832 Clouds 22 1022 68 10000 4.1 10 23:40 16.10.2019
5833 Clouds 22 1022 68 10000 4.1 10 23:18 16.10.2019
5834 Clouds 22 1021 73 10000 4.1 10 22:54 16.10.2019
5835 Clouds 22 1021 73 10000 5.1 20 22:36 16.10.2019
5836 Clouds 22 1021 73 10000 5.1 20 22:18 16.10.2019
5837 Clouds 22 1020 73 10000 5.7 20 21:54 16.10.2019
5838 Clouds 22 1020 73 10000 5.7 20 21:54 16.10.2019
5839 -273 0 0 0 0 0 21:54 16.10.2019
5840 Clouds 21 1020 73 10000 5.7 10 21:36 16.10.2019
5841 Clouds 21 1020 73 10000 5.7 10 21:18 16.10.2019
5842 Clouds 22 1020 69 10000 5.7 20 20:56 16.10.2019
5843 Clouds 22 1020 69 10000 5.7 20 20:55 16.10.2019
5844 Clouds 21 1020 64 10000 4.6 10 20:37 16.10.2019
5845 Clouds 21 1020 64 10000 4.6 10 20:37 16.10.2019
5846 Clouds 21 1020 64 10000 4.6 10 20:37 16.10.2019
5847 Clouds 21 1020 64 10000 4.6 10 20:19 16.10.2019
5848 Clouds 23 1020 64 10000 5.7 20 19:40 16.10.2019
5849 Clouds 23 1020 64 10000 5.7 20 19:21 16.10.2019
5850 Clouds 23 1020 69 10000 5.1 20 18:58 16.10.2019
5851 Clouds 23 1020 69 10000 5.1 20 18:58 16.10.2019
5852 Clouds 23 1020 69 10000 6.2 20 18:38 16.10.2019
5853 Clouds 23 1020 69 10000 6.2 20 18:18 16.10.2019
5854 Clouds 23 1020 69 10000 6.2 20 18:18 16.10.2019
5855 Clouds 23 1020 69 10000 6.2 20 18:18 16.10.2019
5856 Clouds 23 1020 64 10000 6.2 20 17:55 16.10.2019
5857 Clouds 23 1020 69 10000 6.7 20 17:37 16.10.2019
5858 Clouds 23 1020 69 10000 6.7 20 17:37 16.10.2019
5859 Clouds 23 1020 69 10000 6.7 20 17:37 16.10.2019
5860 Clouds 23 1020 69 10000 6.7 20 17:19 16.10.2019
5861 Clouds 21 1020 73 10000 7.2 30 16:56 16.10.2019
5862 Clouds 23 1020 69 10000 5.7 40 16:38 16.10.2019
5863 Clouds 24 1020 69 10000 5.7 40 16:19 16.10.2019
5864 -273 0 0 0 0 0 15:40 16.10.2019
5865 Clouds 23 1021 73 10000 6.7 30 15:40 16.10.2019
5866 Clouds 22 1021 73 10000 6.7 30 15:19 16.10.2019
5867 Clouds 22 1021 73 10000 6.7 30 15:19 16.10.2019
5868 Rain 22 1022 69 10000 7.2 30 14:58 16.10.2019
5869 Rain 23 1022 69 10000 7.2 30 14:40 16.10.2019
5870 Rain 23 1022 69 10000 7.2 30 14:21 16.10.2019
5871 Rain 21 1022 69 10000 6.7 30 13:58 16.10.2019
5872 Clouds 22 1022 64 10000 7.7 30 13:39 16.10.2019
5873 Clouds 23 1022 64 10000 7.7 30 13:21 16.10.2019
5874 Clouds 22 1022 69 10000 8.2 30 12:44 16.10.2019
5875 Clouds 23 1022 69 10000 7.2 20 12:20 16.10.2019
5876 Clouds 23 1021 64 10000 7.7 20 11:55 16.10.2019
5877 Clouds 23 1021 69 10000 7.2 20 11:37 16.10.2019
5878 Clouds 21 1021 69 10000 7.2 20 11:18 16.10.2019
5879 Clouds 20 1020 73 10000 5.7 10 10:36 16.10.2019
5880 Clouds 22 1020 73 10000 5.7 10 10:18 16.10.2019
5881 -273 0 0 0 0 0 09:41 16.10.2019
5882 -273 0 0 0 0 0 09:40 16.10.2019
5883 Clouds 21 1020 73 10000 5.1 10 09:22 16.10.2019
5884 Clouds 21 1020 73 10000 4.6 10 08:56 16.10.2019
5885 Clouds 21 1020 73 10000 4.6 10 08:56 16.10.2019
5886 Clouds 19 1020 73 10000 4.6 350 08:38 16.10.2019
5887 Clouds 19 1020 73 10000 4.6 350 08:19 16.10.2019
5888 Clouds 21 1020 73 10000 4.1 350 07:41 16.10.2019
5889 Clouds 21 1020 73 10000 4.1 350 07:23 16.10.2019
5890 Clouds 21 1020 73 10000 4.1 10 06:48 16.10.2019
5891 Clouds 20 1020 73 10000 4.6 20 06:29 16.10.2019
5892 Clouds 22 1021 68 10000 5.7 30 04:31 16.10.2019
5893 Clouds 22 1021 73 10000 6.7 30 02:51 16.10.2019
5894 Clouds 21 1022 68 10000 6.7 20 01:20 16.10.2019
5895 Clouds 22 1021 68 10000 7.7 20 00:59 16.10.2019
5896 Clouds 22 1021 68 10000 7.7 20 00:40 16.10.2019
5897 Clouds 20 1021 68 10000 7.2 30 23:58 15.10.2019
5898 Clouds 20 1021 68 10000 7.2 30 23:38 15.10.2019
5899 Clouds 20 1021 68 10000 7.2 30 23:19 15.10.2019
5900 Clouds 22 1021 68 10000 6.2 20 22:55 15.10.2019
5901 Clouds 22 1021 68 10000 6.2 20 22:55 15.10.2019
5902 Clouds 22 1021 68 10000 6.2 20 22:37 15.10.2019
5903 Clouds 21 1021 68 10000 6.2 20 22:18 15.10.2019
5904 Clouds 22 1021 68 10000 6.2 20 21:54 15.10.2019
5905 Clouds 21 1020 64 10000 7.2 20 21:36 15.10.2019
5906 Clouds 21 1020 64 10000 7.2 20 21:18 15.10.2019
5907 Clouds 23 1020 64 10000 6.7 20 20:54 15.10.2019
5908 Clouds 22 1020 60 10000 7.7 20 20:36 15.10.2019
5909 Clouds 22 1020 60 10000 7.7 20 20:18 15.10.2019
5910 Clouds 23 1020 60 10000 7.7 20 19:41 15.10.2019
5911 Clouds 23 1020 60 10000 7.7 20 19:41 15.10.2019
5912 Clouds 22 1020 60 10000 7.7 20 19:20 15.10.2019
5913 Clouds 22 1020 60 10000 7.7 20 19:20 15.10.2019
5914 Clouds 23 1020 56 10000 8.2 20 18:57 15.10.2019
5915 Clouds 23 1020 53 10000 9.3 20 18:39 15.10.2019
5916 Clouds 23 1020 53 10000 9.3 20 18:20 15.10.2019
5917 Clouds 24 1020 53 10000 8.7 20 17:43 15.10.2019
5918 Clouds 24 1020 57 10000 9.8 20 17:21 15.10.2019
5919 Clouds 24 1020 57 10000 7.7 20 16:59 15.10.2019
5920 Clouds 24 1020 60 10000 5.1 40 16:41 15.10.2019
5921 Clouds 25 1020 60 10000 5.1 40 16:21 15.10.2019
5922 Clouds 23 1021 69 10000 4.6 50 15:56 15.10.2019
5923 Clouds 23 1022 69 10000 4.6 80 15:37 15.10.2019
5924 Clouds 23 1022 69 10000 4.6 80 15:19 15.10.2019
5925 Clouds 24 1022 64 10000 5.1 70 14:55 15.10.2019
5926 Clouds 23 1022 64 10000 5.1 60 14:36 15.10.2019
5927 Clouds 23 1022 64 10000 5.1 60 14:18 15.10.2019
5928 Clouds 25 1022 61 10000 5.7 50 13:43 15.10.2019
5929 Clouds 23 1022 60 10000 6.2 40 13:20 15.10.2019
5930 Clouds 25 1022 60 10000 6.7 30 12:46 15.10.2019
5931 Clouds 22 1022 60 10000 6.7 20 12:23 15.10.2019
5932 Clouds 24 1022 60 10000 7.2 30 11:59 15.10.2019
5933 Clouds 24 1022 57 10000 6.2 30 11:41 15.10.2019
5934 Clouds 22 1022 57 10000 6.2 30 11:20 15.10.2019
5935 Clouds 23 1021 60 10000 6.7 30 10:46 15.10.2019
5936 Clouds 21 1021 68 10000 6.2 30 10:24 15.10.2019
5937 Clouds 21 1021 68 10000 5.7 10 09:59 15.10.2019
5938 Clouds 21 1021 77 10000 4.6 10 09:40 15.10.2019
5939 Clouds 21 1021 77 10000 4.6 10 09:21 15.10.2019
5940 Clouds 21 1021 77 10000 4.6 10 09:21 15.10.2019
5941 Clouds 20 1021 77 10000 4.6 20 08:58 15.10.2019
5942 Clouds 19 1021 77 10000 4.6 20 08:39 15.10.2019
5943 Clouds 21 1021 77 10000 5.7 360 08:19 15.10.2019
5944 Clouds 21 1020 73 10000 5.7 360 07:43 15.10.2019
5945 Clouds 21 1020 73 10000 4.1 360 07:23 15.10.2019
5946 Clouds 21 1020 68 10000 5.1 360 06:57 15.10.2019
5947 Clouds 21 1020 73 10000 5.1 360 06:39 15.10.2019
5948 Clouds 21 1020 77 10000 5.7 10 05:56 15.10.2019
5949 Clouds 21 1020 73 10000 6.2 350 05:36 15.10.2019
5950 Clouds 21 1020 73 10000 6.2 360 04:48 15.10.2019
5951 Clouds 20 1021 73 10000 6.7 350 04:18 15.10.2019
5952 Clouds 21 1021 73 10000 6.2 350 03:35 15.10.2019
5953 Clouds 21 1021 73 10000 6.2 350 03:35 15.10.2019
5954 Clouds 21 1022 73 10000 6.2 350 01:52 15.10.2019
5955 Clouds 21 1022 73 10000 6.2 350 01:52 15.10.2019
5956 Clouds 20 1022 73 10000 5.7 360 01:31 15.10.2019
5957 Clouds 22 1022 68 10000 5.7 360 00:59 15.10.2019
5958 Clouds 22 1022 64 10000 7.2 350 00:25 15.10.2019
5959 Clouds 20 1021 68 10000 6.2 350 23:58 14.10.2019
5960 Clouds 22 1022 68 10000 5.1 360 23:37 14.10.2019
5961 Clouds 22 1022 68 10000 5.1 360 23:37 14.10.2019
5962 Clouds 20 1022 68 10000 5.1 360 23:18 14.10.2019
5963 Clouds 20 1021 68 10000 7.7 10 22:39 14.10.2019
5964 Clouds 21 1021 68 10000 7.7 10 22:20 14.10.2019
5965 Clouds 21 1020 68 10000 7.7 10 21:57 14.10.2019
5966 Clouds 21 1020 73 10000 7.7 10 21:39 14.10.2019
5967 Clouds 20 1020 73 10000 7.7 10 21:20 14.10.2019
5968 Clouds 23 1020 69 10000 8.2 20 20:57 14.10.2019
5969 Clouds 23 1020 69 10000 8.2 10 20:38 14.10.2019
5970 Clouds 23 1020 69 10000 8.2 10 20:19 14.10.2019
5971 Clouds 24 1019 64 10000 10.3 10 19:44 14.10.2019
5972 Clouds 24 1019 64 10000 11.3 10 19:25 14.10.2019
5973 Clouds 23 1020 64 10000 10.3 10 18:59 14.10.2019
5974 Clouds 25 1020 61 10000 10.3 20 18:40 14.10.2019
5975 Clouds 24 1020 61 10000 10.3 20 18:21 14.10.2019
5976 Clouds 24 1020 64 10000 11.3 20 17:59 14.10.2019
5977 Clouds 25 1020 61 10000 10.8 20 17:41 14.10.2019
5978 Clouds 25 1020 61 10000 10.8 20 17:22 14.10.2019
5979 Clouds 24 1020 61 10000 10.8 20 16:45 14.10.2019
5980 Clouds 24 1020 61 10000 11.3 30 16:22 14.10.2019
5981 Clouds 25 1020 57 10000 11.3 30 15:58 14.10.2019
5982 Clouds 25 1021 57 10000 11.3 30 15:38 14.10.2019
5983 Clouds 23 1021 57 10000 11.3 30 15:20 14.10.2019
5984 Clouds 24 1021 61 10000 10.3 30 14:43 14.10.2019
5985 Clouds 25 1021 61 10000 10.3 30 14:24 14.10.2019
5986 Clouds 23 1021 61 10000 9.8 30 13:57 14.10.2019
5987 Clouds 25 1021 65 10000 9.3 10 13:39 14.10.2019
5988 Clouds 24 1021 65 10000 9.3 10 13:20 14.10.2019
5989 Clouds 22 1021 64 10000 9.3 20 12:41 14.10.2019
5990 Clouds 24 1021 64 10000 9.3 20 12:19 14.10.2019
5991 Clouds 23 1021 69 10000 8.7 20 11:48 14.10.2019
5992 Clouds 23 1021 69 10000 9.3 20 11:27 14.10.2019
5993 Clouds 23 1020 69 10000 8.7 20 10:59 14.10.2019
5994 Clouds 22 1020 73 10000 8.2 10 10:41 14.10.2019
5995 Clouds 21 1020 73 10000 8.2 10 10:21 14.10.2019
5996 Clouds 20 1019 77 10000 5.7 360 09:57 14.10.2019
5997 Clouds 21 1019 73 10000 5.7 10 09:38 14.10.2019
5998 Clouds 19 1019 73 10000 5.7 10 09:19 14.10.2019
5999 Clouds 20 1019 77 10000 6.2 350 08:45 14.10.2019
6000 Clouds 20 1019 77 10000 6.2 350 08:22 14.10.2019
6001 Clouds 19 1019 77 10000 7.2 360 07:44 14.10.2019
6002 Clouds 19 1018 73 10000 5.7 10 07:19 14.10.2019
6003 Clouds 20 1018 73 10000 4.6 360 06:54 14.10.2019
6004 -273 0 0 0 0 0 06:27 14.10.2019
6005 Clouds 20 1018 73 10000 5.7 10 05:50 14.10.2019
6006 Clouds 20 1018 68 10000 4.1 10 04:49 14.10.2019
6007 Clear 20 1019 68 10000 3.6 350 03:28 14.10.2019
6008 Clear 21 1019 64 10000 3.1 350 02:56 14.10.2019
6009 Clear 21 1019 64 10000 3.1 350 01:25 14.10.2019
6010 Clear 21 1019 68 10000 2.6 330 00:59 14.10.2019
6011 Clear 21 1019 68 10000 2.6 330 00:21 14.10.2019
6012 Clear 21 1019 68 10000 2.6 330 00:21 14.10.2019
6013 Clouds 22 1019 68 10000 2.6 330 23:46 13.10.2019
6014 Clouds 21 1019 68 10000 2.1 340 23:21 13.10.2019
6015 Clouds 22 1018 64 10000 1.5 350 22:59 13.10.2019
6016 Clouds 22 1018 68 10000 2.1 30 22:41 13.10.2019
6017 Clouds 22 1018 68 10000 2.1 30 22:21 13.10.2019
6018 Clouds 23 1018 64 10000 2.6 50 21:58 13.10.2019
6019 Clouds 23 1018 64 10000 1.5 60 21:38 13.10.2019
6020 Clouds 21 1018 64 10000 1.5 60 21:19 13.10.2019
6021 Clouds 23 1017 64 10000 2.1 50 20:58 13.10.2019
6022 Clouds 23 1017 64 10000 2.1 50 20:58 13.10.2019
6023 Clouds 23 1017 64 10000 2.1 50 20:58 13.10.2019
6024 Clouds 23 1017 64 10000 2.6 60 20:39 13.10.2019
6025 Clouds 23 1017 64 10000 2.6 60 20:39 13.10.2019
6026 Clouds 22 1017 64 10000 2.6 60 20:21 13.10.2019
6027 Clouds 22 1017 60 10000 3.1 60 19:59 13.10.2019
6028 Clouds 24 1017 60 10000 3.6 50 19:39 13.10.2019
6029 Clouds 24 1017 60 10000 3.6 50 19:39 13.10.2019
6030 Clouds 22 1017 60 10000 3.6 50 19:21 13.10.2019
6031 Clouds 24 1017 60 10000 3.6 50 18:58 13.10.2019
6032 Clouds 24 1017 60 10000 2.6 70 18:37 13.10.2019
6033 Clouds 22 1017 60 10000 2.6 70 18:19 13.10.2019
6034 Clouds 24 1017 64 10000 1.5 100 17:57 13.10.2019
6035 Clouds 23 1017 64 10000 2.1 110 17:39 13.10.2019
6036 Clouds 23 1017 64 10000 2.1 110 17:21 13.10.2019
6037 Clouds 23 1016 60 10000 3.1 100 16:43 13.10.2019
6038 Clouds 23 1016 57 10000 3.1 100 16:19 13.10.2019
6039 Clouds 25 1016 53 10000 3.1 100 15:57 13.10.2019
6040 Clouds 25 1016 53 10000 3.1 100 15:57 13.10.2019
6041 Clouds 24 1017 57 10000 3.1 100 15:38 13.10.2019
6042 Clouds 24 1017 57 10000 3.1 100 15:18 13.10.2019
6043 Clouds 24 1017 57 10000 3.1 90 14:57 13.10.2019
6044 Clouds 23 1017 53 10000 3.6 110 14:38 13.10.2019
6045 Clouds 24 1017 53 10000 3.6 110 14:19 13.10.2019
6046 Clouds 24 1017 53 10000 3.6 80 13:41 13.10.2019
6047 Clouds 24 1017 53 10000 3.6 80 13:23 13.10.2019
6048 Clouds 24 1017 53 10000 3.6 80 13:23 13.10.2019
6049 Clouds 24 1017 53 10000 3.6 90 12:59 13.10.2019
6050 Clouds 24 1017 53 10000 3.1 70 12:39 13.10.2019
6051 Clouds 21 1017 53 10000 3.1 70 12:21 13.10.2019
6052 Clouds 23 1017 50 10000 2.1 350 11:58 13.10.2019
6053 Clouds 23 1016 53 10000 2.6 360 11:39 13.10.2019
6054 Clouds 23 1016 53 10000 2.6 360 11:20 13.10.2019
6055 Clouds 22 1016 56 10000 3.1 340 10:56 13.10.2019
6056 Clouds 21 1016 56 10000 2.6 300 10:38 13.10.2019
6057 Clouds 21 1016 56 10000 2.6 300 10:19 13.10.2019
6058 Clouds 21 1016 60 10000 3.6 300 09:39 13.10.2019
6059 Clouds 21 1016 60 10000 3.6 300 09:21 13.10.2019
6060 Clouds 21 1015 64 10000 3.1 300 08:43 13.10.2019
6061 Clouds 21 1015 60 10000 1.5 310 08:25 13.10.2019
6062 Clouds 21 1015 60 10000 1 0 07:51 13.10.2019
6063 Clouds 21 1015 64 10000 1.47 348.415 07:33 13.10.2019
6064 Clouds 21 1015 64 10000 1.5 340 06:53 13.10.2019
6065 Clouds 21 1015 64 10000 1.5 310 06:23 13.10.2019
6066 Clouds 22 1015 68 10000 2.1 340 05:19 13.10.2019
6067 Clouds 21 1015 68 10000 2.6 360 04:34 13.10.2019
6068 Clouds 21 1015 68 10000 2.6 360 04:34 13.10.2019
6069 Clouds 21 1016 73 10000 3.1 10 02:53 13.10.2019
6070 Clouds 21 1016 73 10000 3.6 10 02:30 13.10.2019
6071 Clouds 21 1016 73 10000 5.7 30 01:36 13.10.2019
6072 Clouds 21 1016 73 10000 5.7 30 01:36 13.10.2019
6073 Clouds 22 1016 73 10000 4.6 20 00:55 13.10.2019
6074 Clouds 22 1016 69 10000 5.1 10 00:37 13.10.2019
6075 Clouds 22 1016 69 10000 5.1 10 00:37 13.10.2019
6076 Clouds 22 1016 69 10000 5.1 10 00:18 13.10.2019
6077 Clouds 23 1016 69 10000 5.7 20 23:41 12.10.2019
6078 Clouds 22 1016 69 10000 5.7 20 23:22 12.10.2019
6079 Clouds 22 1016 69 10000 5.7 10 22:58 12.10.2019
6080 Clouds 22 1016 69 10000 5.7 10 22:58 12.10.2019
6081 Clouds 23 1015 69 10000 6.2 10 22:40 12.10.2019
6082 Clouds 23 1015 69 10000 6.2 10 22:40 12.10.2019
6083 Clouds 20 1015 69 10000 6.2 10 22:22 12.10.2019
6084 Clouds 20 1015 69 10000 6.7 20 21:57 12.10.2019
6085 Clouds 20 1015 69 10000 7.2 30 21:39 12.10.2019
6086 Clouds 23 1015 69 10000 7.2 30 21:20 12.10.2019
6087 Clouds 21 1015 69 10000 7.2 20 20:45 12.10.2019
6088 Clouds 21 1015 69 10000 7.2 20 20:45 12.10.2019
6089 Clouds 21 1015 69 10000 7.7 30 20:27 12.10.2019
6090 Clouds 23 1015 69 10000 7.7 30 19:56 12.10.2019
6091 Clouds 21 1015 64 10000 7.7 30 19:36 12.10.2019
6092 Clouds 23 1015 64 10000 7.7 30 19:18 12.10.2019
6093 Clouds 22 1015 64 10000 6.7 20 18:41 12.10.2019
6094 Clouds 22 1015 64 10000 6.7 20 18:23 12.10.2019
6095 Clouds 23 1015 61 10000 5.1 40 17:45 12.10.2019
6096 Clouds 23 1015 61 10000 5.1 40 17:21 12.10.2019
6097 Clouds 23 1015 57 10000 5.1 60 16:58 12.10.2019
6098 Clouds 24 1015 61 10000 5.1 60 16:40 12.10.2019
6099 Clouds 23 1015 61 10000 5.1 60 16:19 12.10.2019
6100 Clouds 23 1016 61 10000 5.1 60 15:45 12.10.2019
6101 Clouds 23 1016 61 10000 5.1 60 15:26 12.10.2019
6102 Clouds 24 1017 65 10000 6.2 60 14:59 12.10.2019
6103 Clouds 23 1017 65 10000 5.1 50 14:38 12.10.2019
6104 Clouds 23 1017 65 10000 5.1 50 14:20 12.10.2019
6105 Clouds 23 1017 61 10000 5.1 40 13:49 12.10.2019
6106 Clouds 24 1017 65 10000 5.7 60 13:31 12.10.2019
6107 Clouds 22 1018 61 10000 6.2 50 12:55 12.10.2019
6108 Clouds 24 1018 61 10000 6.2 50 12:37 12.10.2019
6109 Clouds 22 1018 61 10000 6.2 50 12:18 12.10.2019
6110 Clouds 23 1017 64 10000 6.2 40 11:40 12.10.2019
6111 Clouds 23 1017 64 10000 6.2 40 11:22 12.10.2019
6112 Clouds 23 1017 69 10000 6.2 30 10:57 12.10.2019
6113 Clouds 22 1017 64 10000 4.1 20 10:37 12.10.2019
6114 Clouds 22 1017 64 10000 4.1 20 10:19 12.10.2019
6115 Clouds 21 1016 73 10000 3.6 10 09:56 12.10.2019
6116 Clouds 21 1016 73 10000 3.6 10 09:55 12.10.2019
6117 Clouds 21 1016 68 10000 4.1 10 09:37 12.10.2019
6118 Clouds 21 1016 68 10000 4.1 10 09:19 12.10.2019
6119 Clouds 21 1016 73 10000 3.6 350 08:42 12.10.2019
6120 Clouds 21 1016 73 10000 3.6 350 08:22 12.10.2019
6121 Clouds 20 1016 77 10000 3.6 360 07:37 12.10.2019
6122 Clouds 20 1016 77 10000 3.6 360 07:18 12.10.2019
6123 Clouds 21 1016 73 10000 5.7 10 05:53 12.10.2019
6124 Clouds 21 1016 73 10000 5.7 10 05:25 12.10.2019
6125 Clouds 21 1017 73 10000 3.6 360 04:29 12.10.2019
6126 Clouds 21 1017 64 10000 4.1 360 03:42 12.10.2019
6127 Clouds 21 1017 68 10000 4.1 350 02:37 12.10.2019
6128 Clouds 22 1018 68 10000 5.1 350 01:30 12.10.2019
6129 Clouds 22 1018 73 10000 5.7 350 00:44 12.10.2019
6130 Clouds 22 1018 69 10000 5.7 350 00:24 12.10.2019
6131 Clouds 22 1017 69 10000 6.2 10 23:40 11.10.2019
6132 Clouds 22 1017 69 10000 6.2 10 23:40 11.10.2019
6133 Clouds 22 1017 69 10000 6.2 10 23:21 11.10.2019
6134 Clouds 20 1017 69 10000 6.2 10 22:56 11.10.2019
6135 Clouds 21 1017 69 10000 6.7 360 22:37 11.10.2019
6136 Clouds 23 1017 69 10000 6.7 360 22:18 11.10.2019
6137 Clouds 23 1016 69 10000 8.7 20 21:40 11.10.2019
6138 Clouds 21 1016 69 10000 8.7 20 21:21 11.10.2019
6139 Clouds 23 1016 69 10000 8.7 20 20:54 11.10.2019
6140 Clouds 24 1016 69 10000 9.3 20 20:36 11.10.2019
6141 Clouds 22 1016 69 10000 9.3 20 20:18 11.10.2019
6142 Clouds 22 1015 69 10000 10.3 30 19:54 11.10.2019
6143 Clouds 22 1015 69 10000 10.3 30 19:54 11.10.2019
6144 Clouds 24 1015 69 10000 9.8 30 19:36 11.10.2019
6145 Clouds 23 1015 69 10000 9.8 30 19:18 11.10.2019
6146 Clouds 23 1015 69 10000 9.8 30 19:18 11.10.2019
6147 Clouds 23 1015 61 10000 10.3 30 18:39 11.10.2019
6148 Clouds 23 1015 61 10000 10.3 30 18:19 11.10.2019
6149 Clouds 24 1015 61 10000 9.3 30 17:59 11.10.2019
6150 Clouds 24 1015 61 10000 8.7 30 17:38 11.10.2019
6151 Clouds 25 1015 61 10000 8.7 30 17:19 11.10.2019
6152 Clouds 25 1016 65 10000 8.2 30 16:59 11.10.2019
6153 Clouds 25 1016 57 10000 7.2 40 16:39 11.10.2019
6154 Clouds 25 1016 57 10000 7.2 40 16:39 11.10.2019
6155 Clouds 25 1016 57 10000 7.2 40 16:19 11.10.2019
6156 Clouds 25 1016 65 10000 6.7 40 15:55 11.10.2019
6157 Clouds 25 1017 61 10000 8.2 40 15:36 11.10.2019
6158 Clouds 25 1017 61 10000 8.2 40 15:18 11.10.2019
6159 Clouds 25 1017 65 10000 8.2 30 14:41 11.10.2019
6160 Clouds 25 1017 65 10000 8.2 30 14:21 11.10.2019
6161 Clouds 25 1018 61 10000 7.7 30 13:46 11.10.2019
6162 Clouds 25 1018 61 10000 7.7 30 13:26 11.10.2019
6163 Clouds 24 1018 61 10000 7.7 30 12:58 11.10.2019
6164 Clouds 24 1018 61 10000 7.7 30 12:40 11.10.2019
6165 Clouds 24 1018 61 10000 7.7 30 12:21 11.10.2019
6166 Clouds 24 1018 53 10000 6.7 10 11:59 11.10.2019
6167 Clouds 24 1018 57 10000 6.7 10 11:39 11.10.2019
6168 Clouds 24 1018 57 10000 6.7 10 11:21 11.10.2019
6169 Clouds 23 1017 56 10000 5.7 10 10:56 11.10.2019
6170 Clouds 23 1017 56 10000 5.7 10 10:56 11.10.2019
6171 Clouds 22 1017 60 10000 3.6 360 10:36 11.10.2019
6172 Clouds 22 1017 60 10000 3.6 360 10:18 11.10.2019
6173 Clouds 21 1016 60 10000 4.1 350 09:42 11.10.2019
6174 Clouds 20 1016 60 10000 4.1 350 09:21 11.10.2019
6175 Clouds 20 1016 60 10000 4.6 360 08:59 11.10.2019
6176 Clear 20 1016 64 10000 4.1 350 08:38 11.10.2019
6177 Clear 20 1016 64 10000 4.1 350 08:20 11.10.2019
6178 Clear 20 1016 64 10000 3.6 360 07:53 11.10.2019
6179 Clear 21 1016 60 10000 3.6 360 07:34 11.10.2019
6180 Clear 20 1016 60 10000 3.6 350 06:50 11.10.2019
6181 Clear 20 1016 60 10000 4.1 360 06:25 11.10.2019
6182 Clear 21 1016 64 10000 3.1 360 05:47 11.10.2019
6183 Clear 21 1016 64 10000 3.1 360 05:47 11.10.2019
6184 Clouds 20 1016 64 10000 2.6 340 05:29 11.10.2019
6185 Clouds 21 1016 64 10000 2.1 350 04:58 11.10.2019
6186 Clouds 21 1017 77 10000 3.1 350 03:40 11.10.2019
6187 Clouds 22 1017 78 10000 5.1 10 01:26 11.10.2019
6188 Clouds 23 1017 73 10000 4.6 10 00:31 11.10.2019
6189 Clouds 23 1017 73 10000 6.2 10 23:58 10.10.2019
6190 Clouds 23 1017 73 10000 5.7 20 23:40 10.10.2019
6191 Clouds 23 1017 73 10000 5.7 20 23:19 10.10.2019
6192 Clouds 23 1016 73 10000 5.7 20 22:56 10.10.2019
6193 Clouds 21 1016 78 10000 6.2 20 22:36 10.10.2019
6194 Clouds 21 1016 78 10000 6.2 20 22:18 10.10.2019
6195 Clouds 21 1016 78 10000 6.2 20 22:18 10.10.2019
6196 Clouds 21 1015 78 10000 6.2 20 21:42 10.10.2019
6197 Clouds 23 1015 78 10000 6.2 20 21:42 10.10.2019
6198 Clouds 21 1015 78 10000 6.2 20 21:22 10.10.2019
6199 Clouds 24 1016 73 10000 6.2 30 20:59 10.10.2019
6200 Clouds 24 1015 73 10000 6.2 20 20:40 10.10.2019
6201 Clouds 24 1015 73 10000 6.2 20 20:20 10.10.2019
6202 Clouds 23 1015 73 10000 7.2 30 19:57 10.10.2019
6203 Clouds 23 1015 73 10000 7.7 30 19:39 10.10.2019
6204 Clouds 24 1015 73 10000 7.7 30 19:19 10.10.2019
6205 Clouds 24 1015 73 10000 7.7 30 19:19 10.10.2019
6206 Clouds 25 1015 69 10000 8.2 30 18:42 10.10.2019
6207 Clouds 24 1015 69 10000 8.2 30 18:21 10.10.2019
6208 Clouds 25 1015 69 10000 8.7 30 17:59 10.10.2019
6209 Clouds 25 1015 69 10000 8.7 30 17:40 10.10.2019
6210 Clouds 25 1015 69 10000 8.7 30 17:19 10.10.2019
6211 Clouds 25 1015 65 10000 8.2 40 16:57 10.10.2019
6212 Clouds 26 1015 65 10000 8.2 40 16:37 10.10.2019
6213 Clouds 25 1015 65 10000 8.2 40 16:19 10.10.2019
6214 Clouds 24 1016 69 10000 8.2 30 15:42 10.10.2019
6215 Clouds 24 1016 69 10000 8.2 30 15:23 10.10.2019
6216 Clouds 25 1017 61 10000 7.7 30 14:58 10.10.2019
6217 Clouds 24 1017 65 10000 8.2 30 14:37 10.10.2019
6218 Clouds 24 1017 65 10000 8.2 30 14:19 10.10.2019
6219 Clouds 24 1017 65 10000 7.2 40 13:58 10.10.2019
6220 Clouds 24 1018 69 10000 7.2 30 13:39 10.10.2019
6221 Clouds 23 1018 69 10000 7.2 30 13:18 10.10.2019
6222 Clouds 25 1017 69 10000 8.2 20 12:42 10.10.2019
6223 Clouds 25 1017 69 10000 8.2 20 12:21 10.10.2019
6224 Clouds 24 1017 61 10000 7.7 20 11:58 10.10.2019
6225 Clouds 23 1017 60 10000 7.2 360 11:40 10.10.2019
6226 Clouds 23 1017 60 10000 7.2 360 11:19 10.10.2019
6227 Clouds 22 1016 60 10000 5.7 360 10:47 10.10.2019
6228 Clouds 22 1016 60 10000 4.6 350 10:28 10.10.2019
6229 Clouds 22 1016 60 10000 4.6 350 10:28 10.10.2019
6230 Clouds 21 1016 64 10000 4.6 350 09:59 10.10.2019
6231 Clouds 21 1016 64 10000 4.6 350 09:41 10.10.2019
6232 Clouds 21 1016 64 10000 4.6 350 09:23 10.10.2019
6233 Clouds 20 1016 68 10000 4.6 350 08:59 10.10.2019
6234 Clouds 20 1016 73 10000 4.6 350 08:40 10.10.2019
6235 Clouds 19 1016 73 10000 4.6 350 08:20 10.10.2019
6236 Clouds 20 1015 68 10000 5.7 350 07:47 10.10.2019
6237 Clouds 21 1015 68 10000 5.7 350 07:26 10.10.2019
6238 Clouds 21 1015 64 10000 4.6 350 06:55 10.10.2019
6239 Clouds 20 1015 68 10000 5.1 350 06:36 10.10.2019
6240 Clouds 20 1016 68 10000 5.1 360 05:39 10.10.2019
6241 Clouds 21 1016 68 10000 5.1 360 05:18 10.10.2019
6242 Clouds 21 1016 68 10000 5.1 360 04:34 10.10.2019
6243 Clouds 21 1017 73 10000 6.2 360 02:29 10.10.2019
6244 Clouds 22 1017 69 10000 6.7 10 01:37 10.10.2019
6245 Clouds 22 1017 69 10000 6.7 10 01:37 10.10.2019
6246 Clouds 22 1017 69 10000 6.7 10 01:18 10.10.2019
6247 Clouds 22 1017 64 10000 6.2 10 00:29 10.10.2019
6248 Clouds 22 1017 64 10000 6.2 360 23:42 09.10.2019
6249 Clouds 22 1017 64 10000 6.2 360 23:24 09.10.2019
6250 Clouds 22 1017 64 10000 7.2 360 22:59 09.10.2019
6251 Clouds 23 1017 64 10000 6.7 10 22:41 09.10.2019
6252 Clouds 22 1017 64 10000 6.7 10 22:22 09.10.2019
6253 Clouds 22 1017 64 10000 6.7 10 22:22 09.10.2019
6254 Clouds 22 1016 64 10000 7.7 350 21:56 09.10.2019
6255 Clouds 22 1016 64 10000 7.2 360 21:38 09.10.2019
6256 Clouds 22 1016 64 10000 7.2 360 21:38 09.10.2019
6257 Clouds 22 1016 64 10000 7.2 360 21:18 09.10.2019
6258 Clouds 22 1016 64 10000 8.2 10 20:54 09.10.2019
6259 Clouds 23 1016 69 10000 10.3 20 20:36 09.10.2019
6260 Clouds 23 1016 69 10000 10.3 20 20:18 09.10.2019
6261 Clouds 24 1015 64 10000 10.8 20 19:43 09.10.2019
6262 Clouds 24 1015 57 10000 11.3 20 19:22 09.10.2019
6263 Clouds 24 1015 61 10000 11.8 30 18:39 09.10.2019
6264 Clouds 25 1015 61 10000 11.8 30 18:21 09.10.2019
6265 Clouds 25 1016 61 10000 10.8 30 17:58 09.10.2019
6266 Clouds 25 1016 57 10000 11.3 30 17:40 09.10.2019
6267 Clouds 25 1016 57 10000 11.3 30 17:22 09.10.2019
6268 Clouds 25 1016 57 10000 11.3 20 16:57 09.10.2019
6269 Clouds 25 1016 61 10000 11.3 30 16:38 09.10.2019
6270 Clouds 25 1016 61 10000 11.3 30 16:20 09.10.2019
6271 Clouds 25 1016 61 10000 11.3 30 15:55 09.10.2019
6272 Clouds 25 1016 57 10000 11.3 30 15:37 09.10.2019
6273 Clouds 25 1016 57 10000 11.3 30 15:18 09.10.2019
6274 Clouds 25 1017 61 10000 11.8 30 14:44 09.10.2019
6275 Clouds 25 1017 57 10000 11.8 30 14:19 09.10.2019
6276 Clouds 25 1017 57 10000 12.3 30 13:59 09.10.2019
6277 Clouds 25 1017 57 10000 11.8 20 13:38 09.10.2019
6278 Clouds 25 1017 57 10000 11.8 20 13:18 09.10.2019
6279 Clouds 24 1017 60 10000 11.8 10 12:44 09.10.2019
6280 Clouds 24 1017 60 10000 11.8 10 12:44 09.10.2019
6281 Clouds 24 1017 60 10000 11.8 10 12:23 09.10.2019
6282 Clouds 24 1017 60 10000 10.8 10 11:58 09.10.2019
6283 Clouds 23 1016 64 10000 12.3 10 11:40 09.10.2019
6284 Clouds 23 1016 64 10000 12.3 10 11:20 09.10.2019
6285 Clouds 23 1016 64 10000 9.3 360 10:58 09.10.2019
6286 Clouds 22 1016 68 10000 10.3 10 10:40 09.10.2019
6287 Clouds 22 1016 68 10000 10.3 10 10:40 09.10.2019
6288 Clouds 21 1016 68 10000 10.3 10 10:18 09.10.2019
6289 Clouds 21 1016 68 10000 8.2 360 09:43 09.10.2019
6290 Clouds 20 1016 73 10000 7.7 360 09:20 09.10.2019
6291 Clouds 21 1016 68 10000 8.2 360 08:58 09.10.2019
6292 Clouds 21 1016 68 10000 8.2 360 08:38 09.10.2019
6293 Clouds 21 1016 68 10000 8.2 360 08:19 09.10.2019
6294 Clouds 21 1016 68 10000 9.3 10 07:47 09.10.2019
6295 Clouds 21 1016 68 10000 9.3 10 07:47 09.10.2019
6296 Clouds 21 1016 68 10000 10.3 10 07:24 09.10.2019
6297 Clouds 21 1016 73 10000 9.3 10 06:57 09.10.2019
6298 Clouds 21 1016 68 10000 8.7 360 06:34 09.10.2019
6299 Clouds 21 1016 68 10000 8.7 10 05:51 09.10.2019
6300 Clouds 21 1016 68 10000 8.7 10 04:50 09.10.2019
6301 Clouds 21 1016 68 10000 8.7 10 03:43 09.10.2019
6302 Clouds 22 1017 73 10000 7.7 360 02:27 09.10.2019
6303 Clouds 21 1017 73 10000 7.7 20 01:22 09.10.2019
6304 Clouds 22 1017 73 10000 8.2 10 00:59 09.10.2019
6305 Clouds 22 1017 73 10000 9.8 10 00:40 09.10.2019
6306 Clouds 22 1017 73 10000 9.8 10 00:22 09.10.2019
6307 Clouds 22 1017 73 10000 8.2 360 23:58 08.10.2019
6308 Clouds 22 1017 73 10000 8.2 360 23:37 08.10.2019
6309 Clouds 22 1017 73 10000 8.2 360 23:18 08.10.2019
6310 Clouds 22 1016 69 10000 8.2 360 22:41 08.10.2019
6311 Clouds 22 1016 69 10000 8.2 360 22:41 08.10.2019
6312 Clouds 23 1016 69 10000 8.2 360 22:21 08.10.2019
6313 Clouds 23 1016 69 10000 8.2 360 21:58 08.10.2019
6314 Clouds 23 1016 69 10000 7.7 10 21:39 08.10.2019
6315 Clouds 23 1016 69 10000 7.7 10 21:20 08.10.2019
6316 Clouds 23 1015 69 10000 9.3 20 20:57 08.10.2019
6317 Clouds 23 1016 64 10000 9.8 20 20:39 08.10.2019
6318 Clouds 24 1016 64 10000 9.8 20 20:21 08.10.2019
6319 Clouds 24 1016 64 10000 9.8 20 19:58 08.10.2019
6320 Clouds 24 1016 64 10000 9.8 20 19:58 08.10.2019
6321 Clouds 24 1016 65 10000 9.8 20 19:40 08.10.2019
6322 Clouds 24 1016 65 10000 9.8 20 19:22 08.10.2019
6323 Clouds 25 1015 65 10000 10.8 10 18:55 08.10.2019
6324 -273 0 0 0 0 0 18:55 08.10.2019
6325 Clouds 25 1015 65 10000 12.9 20 18:36 08.10.2019
6326 Clouds 25 1015 65 10000 12.9 20 18:18 08.10.2019
6327 Clouds 25 1015 65 10000 11.3 30 17:40 08.10.2019
6328 Clouds 25 1015 65 10000 11.3 30 17:21 08.10.2019
6329 Clouds 25 1016 65 10000 9.8 30 16:58 08.10.2019
6330 Clouds 25 1016 65 10000 10.3 30 16:39 08.10.2019
6331 Clouds 25 1016 65 10000 10.3 30 16:21 08.10.2019
6332 Clouds 25 1016 65 10000 11.3 30 15:41 08.10.2019
6333 Clouds 25 1016 65 10000 11.3 30 15:41 08.10.2019
6334 Clouds 25 1016 65 10000 11.3 30 15:21 08.10.2019
6335 Clouds 25 1017 61 10000 11.8 30 14:58 08.10.2019
6336 Clouds 25 1017 61 10000 11.8 30 14:58 08.10.2019
6337 Clouds 25 1017 61 10000 11.8 30 14:39 08.10.2019
6338 Clouds 25 1017 61 10000 11.8 30 14:20 08.10.2019
6339 Clouds 25 1017 65 10000 11.8 20 13:57 08.10.2019
6340 Clouds 25 1017 65 10000 12.3 20 13:38 08.10.2019
6341 Clouds 25 1017 65 10000 12.3 20 13:19 08.10.2019
6342 Clouds 25 1017 65 10000 12.3 20 13:19 08.10.2019
6343 Clouds 25 1017 65 10000 12.3 20 12:58 08.10.2019
6344 Clouds 24 1017 69 10000 11.8 20 12:37 08.10.2019
6345 Clouds 24 1017 69 10000 11.8 20 12:37 08.10.2019
6346 Clouds 24 1017 69 10000 11.8 20 12:18 08.10.2019
6347 Clouds 23 1017 73 10000 11.3 10 11:41 08.10.2019
6348 Clouds 23 1017 73 10000 11.3 10 11:41 08.10.2019
6349 Clouds 23 1017 73 10000 11.3 10 11:23 08.10.2019
6350 Clouds 23 1017 69 10000 9.3 360 10:56 08.10.2019
6351 Clouds 23 1017 73 10000 8.2 360 10:36 08.10.2019
6352 Clouds 22 1017 73 10000 8.2 360 10:18 08.10.2019
6353 Clouds 22 1016 73 10000 8.2 360 09:41 08.10.2019
6354 Clouds 22 1016 73 10000 8.2 360 09:23 08.10.2019
6355 Clouds 21 1016 73 10000 8.2 360 08:59 08.10.2019
6356 Clouds 21 1016 78 10000 8.2 360 08:41 08.10.2019
6357 Clouds 21 1016 78 10000 8.2 360 08:22 08.10.2019
6358 Clouds 21 1016 78 10000 8.2 10 07:42 08.10.2019
6359 Clouds 22 1016 78 10000 8.2 10 07:21 08.10.2019
6360 Clouds 22 1016 78 10000 8.2 10 07:21 08.10.2019
6361 Clouds 22 1015 78 10000 6.2 360 06:49 08.10.2019
6362 Clouds 21 1016 73 10000 6.7 360 06:28 08.10.2019
6363 Clouds 21 1016 78 10000 8.7 10 05:45 08.10.2019
6364 Clouds 21 1016 78 10000 8.7 10 05:45 08.10.2019
6365 Clouds 22 1016 73 10000 6.7 360 05:25 08.10.2019
6366 Clouds 22 1016 78 10000 7.2 10 03:33 08.10.2019
6367 Clouds 22 1016 78 10000 8.2 360 02:48 08.10.2019
6368 Clouds 22 1017 73 10000 7.2 360 02:29 08.10.2019
6369 Clouds 22 1017 73 10000 7.7 10 01:43 08.10.2019
6370 Clouds 22 1017 73 10000 8.2 360 01:25 08.10.2019
6371 Clouds 22 1017 69 10000 9.8 10 00:38 08.10.2019
6372 Clouds 22 1017 69 10000 9.8 10 00:19 08.10.2019
6373 Clouds 23 1017 69 10000 10.8 10 23:39 07.10.2019
6374 Clouds 23 1017 69 10000 10.8 10 23:19 07.10.2019
6375 Clouds 23 1016 73 10000 9.8 10 22:55 07.10.2019
6376 Clouds 23 1016 73 10000 9.8 10 22:55 07.10.2019
6377 Clouds 23 1016 73 10000 9.8 360 22:37 07.10.2019
6378 Clouds 23 1016 73 10000 9.8 360 22:19 07.10.2019
6379 Clouds 23 1016 73 10000 9.3 360 21:55 07.10.2019
6380 Clouds 23 1016 73 10000 10.3 10 21:37 07.10.2019
6381 Clouds 23 1016 73 10000 10.3 10 21:18 07.10.2019
6382 Clouds 23 1015 73 10000 10.8 10 20:56 07.10.2019
6383 Clouds 23 1015 73 10000 10.8 10 20:56 07.10.2019
6384 Clouds 24 1015 69 10000 10.8 20 20:38 07.10.2019
6385 Clouds 24 1015 69 10000 10.8 20 20:18 07.10.2019
6386 Clouds 24 1015 69 10000 11.8 20 19:54 07.10.2019
6387 Clouds 24 1015 69 10000 11.8 20 19:54 07.10.2019
6388 Clouds 25 1015 65 10000 11.3 20 19:36 07.10.2019
6389 Clouds 25 1015 65 10000 11.3 20 19:18 07.10.2019
6390 Clouds 25 1015 69 10000 11.3 20 18:41 07.10.2019
6391 Clouds 25 1015 69 10000 11.3 20 18:19 07.10.2019
6392 Clear 25 1016 65 10000 10.8 20 17:58 07.10.2019
6393 Clear 25 1016 69 10000 10.8 30 17:40 07.10.2019
6394 Clear 25 1016 69 10000 10.8 30 17:18 07.10.2019
6395 Clear 25 1016 65 10000 9.8 30 16:44 07.10.2019
6396 Clouds 25 1016 65 10000 9.3 30 16:26 07.10.2019
6397 Clouds 26 1016 65 10000 8.2 30 15:57 07.10.2019
6398 Clouds 26 1016 65 10000 8.2 30 15:57 07.10.2019
6399 Clouds 25 1017 69 10000 8.2 30 15:38 07.10.2019
6400 Clouds 25 1017 69 10000 8.2 30 15:20 07.10.2019
6401 Clouds 25 1017 61 10000 8.2 30 14:41 07.10.2019
6402 Clouds 25 1017 61 10000 8.2 30 14:23 07.10.2019
6403 Clouds 25 1018 65 10000 9.3 30 13:45 07.10.2019
6404 Clouds 25 1018 65 10000 9.3 30 13:21 07.10.2019
6405 Clouds 25 1018 65 10000 8.7 30 12:58 07.10.2019
6406 Clouds 25 1018 65 10000 8.7 30 12:58 07.10.2019
6407 Clouds 25 1018 61 10000 8.2 30 12:39 07.10.2019
6408 Clouds 24 1018 61 10000 8.2 30 12:20 07.10.2019
6409 Clouds 24 1018 69 10000 7.7 10 11:59 07.10.2019
6410 Clouds 23 1018 69 10000 9.3 20 11:40 07.10.2019
6411 Clouds 23 1018 69 10000 9.3 20 11:40 07.10.2019
6412 Clouds 23 1018 69 10000 9.3 20 11:21 07.10.2019
6413 Clouds 22 1017 73 10000 9.3 10 10:44 07.10.2019
6414 Clouds 23 1017 69 10000 7.2 10 10:23 07.10.2019
6415 Clouds 22 1017 73 10000 8.2 360 09:58 07.10.2019
6416 Clouds 22 1016 73 10000 9.3 360 09:38 07.10.2019
6417 Clouds 21 1016 73 10000 9.3 360 09:20 07.10.2019
6418 Clouds 21 1016 73 10000 10.3 10 08:43 07.10.2019
6419 Clouds 21 1016 73 10000 9.3 360 08:20 07.10.2019
6420 Clouds 21 1016 73 10000 7.7 360 07:49 07.10.2019
6421 Clouds 21 1016 73 10000 9.8 10 07:28 07.10.2019
6422 Clouds 21 1016 73 10000 8.7 350 06:58 07.10.2019
6423 Clouds 21 1016 73 10000 9.8 10 06:39 07.10.2019
6424 Clouds 21 1016 73 10000 9.8 10 06:19 07.10.2019
6425 Clouds 21 1016 73 10000 9.8 10 05:26 07.10.2019
6426 Clouds 21 1016 73 10000 9.8 10 04:50 07.10.2019
6427 Clouds 23 1017 69 10000 9.3 10 03:48 07.10.2019
6428 Clouds 22 1017 69 10000 10.3 10 03:30 07.10.2019
6429 Clouds 22 1017 73 10000 10.3 10 02:37 07.10.2019
6430 Clouds 22 1017 73 10000 10.3 10 02:19 07.10.2019
6431 Clouds 22 1017 73 10000 10.3 10 02:19 07.10.2019
6432 Clouds 23 1018 69 10000 10.3 350 01:23 07.10.2019
6433 Clouds 22 1018 73 10000 9.3 10 00:51 07.10.2019
6434 Clouds 23 1018 73 10000 10.8 10 00:26 07.10.2019
6435 Clouds 23 1018 69 10000 9.8 10 23:59 06.10.2019
6436 Clouds 22 1018 69 10000 9.8 10 23:40 06.10.2019
6437 Clouds 23 1018 69 10000 9.8 10 23:20 06.10.2019
6438 Clouds 23 1017 64 10000 9.3 360 22:56 06.10.2019
6439 Clouds 22 1017 69 10000 9.8 360 22:37 06.10.2019
6440 Clouds 22 1017 69 10000 9.8 360 22:18 06.10.2019
6441 Clouds 22 1017 69 10000 10.3 10 21:55 06.10.2019
6442 Clouds 22 1017 69 10000 10.8 10 21:36 06.10.2019
6443 Clouds 22 1017 69 10000 10.8 10 21:18 06.10.2019
6444 Clouds 24 1017 69 10000 10.3 10 20:54 06.10.2019
6445 Clouds 23 1017 69 10000 11.8 20 20:36 06.10.2019
6446 Clouds 23 1017 69 10000 11.8 20 20:36 06.10.2019
6447 Clouds 23 1017 69 10000 11.8 20 20:36 06.10.2019
6448 Clouds 24 1017 69 10000 11.8 20 20:18 06.10.2019
6449 Clouds 24 1017 69 10000 12.3 20 19:55 06.10.2019
6450 Clouds 24 1017 69 10000 12.3 20 19:55 06.10.2019
6451 Clouds 25 1017 65 10000 12.3 20 19:36 06.10.2019
6452 Clouds 25 1017 65 10000 12.3 20 19:18 06.10.2019
6453 Clouds 25 1017 61 10000 12.3 20 18:55 06.10.2019
6454 Clouds 25 1017 61 10000 12.3 20 18:55 06.10.2019
6455 Clouds 25 1017 61 10000 12.3 20 18:36 06.10.2019
6456 Clouds 25 1017 61 10000 12.3 20 18:18 06.10.2019
6457 Clouds 25 1017 65 10000 11.8 20 17:42 06.10.2019
6458 Clouds 25 1017 65 10000 11.8 20 17:20 06.10.2019
6459 Clouds 26 1017 61 10000 11.8 20 16:55 06.10.2019
6460 Clouds 26 1017 61 10000 11.8 20 16:55 06.10.2019
6461 Clouds 26 1017 61 10000 11.8 30 16:37 06.10.2019
6462 Clouds 26 1017 61 10000 11.8 30 16:18 06.10.2019
6463 Clouds 26 1018 61 10000 12.3 20 15:42 06.10.2019
6464 Clouds 26 1018 61 10000 12.3 20 15:21 06.10.2019
6465 Clouds 26 1018 61 10000 11.3 20 14:44 06.10.2019
6466 Clouds 26 1018 61 10000 10.8 30 14:26 06.10.2019
6467 Clouds 26 1018 57 10000 10.8 20 13:59 06.10.2019
6468 Clouds 26 1018 54 10000 11.8 20 13:40 06.10.2019
6469 Clouds 25 1018 54 10000 11.8 20 13:21 06.10.2019
6470 Clouds 25 1018 57 10000 11.8 10 12:58 06.10.2019
6471 Clouds 25 1018 61 10000 12.3 10 12:39 06.10.2019
6472 Clouds 25 1018 61 10000 12.3 10 12:21 06.10.2019
6473 Clouds 24 1018 64 10000 11.3 360 11:58 06.10.2019
6474 Clouds 24 1018 64 10000 10.3 360 11:39 06.10.2019
6475 Clouds 24 1018 64 10000 10.3 360 11:20 06.10.2019
6476 Clouds 23 1017 69 10000 9.3 360 10:46 06.10.2019
6477 Clouds 23 1017 69 10000 9.3 360 10:27 06.10.2019
6478 Clouds 22 1017 69 10000 8.2 360 09:58 06.10.2019
6479 Clouds 22 1017 69 10000 10.3 10 09:40 06.10.2019
6480 Clouds 21 1017 69 10000 10.3 10 09:19 06.10.2019
6481 Clouds 21 1017 69 10000 10.3 10 09:19 06.10.2019
6482 Clouds 21 1017 78 10000 9.8 10 08:45 06.10.2019
6483 Clouds 21 1016 78 10000 9.3 350 08:21 06.10.2019
6484 Clouds 21 1016 78 10000 9.3 360 07:57 06.10.2019
6485 Clouds 21 1016 78 10000 9.3 360 07:38 06.10.2019
6486 Clouds 21 1016 78 10000 10.3 360 06:32 06.10.2019
6487 Clouds 21 1017 78 10000 9.8 360 05:35 06.10.2019
6488 Clouds 22 1017 73 10000 10.8 360 04:27 06.10.2019
6489 Clouds 22 1017 73 10000 10.3 10 02:47 06.10.2019
6490 Clouds 22 1017 73 10000 9.3 360 02:27 06.10.2019
6491 Clouds 22 1017 73 10000 9.3 360 01:46 06.10.2019
6492 Clouds 22 1018 69 10000 9.8 360 01:27 06.10.2019
6493 Clouds 22 1018 73 10000 9.3 360 00:57 06.10.2019
6494 Clouds 22 1018 73 10000 9.3 360 00:57 06.10.2019
6495 Clouds 22 1018 69 10000 9.3 360 00:28 06.10.2019
6496 Clouds 23 1017 73 10000 10.8 10 23:45 05.10.2019
6497 Clouds 22 1017 73 10000 11.8 10 23:23 05.10.2019
6498 Clouds 23 1017 73 10000 11.3 10 22:59 05.10.2019
6499 Clouds 23 1016 69 10000 9.8 360 22:40 05.10.2019
6500 Clouds 24 1016 69 10000 9.8 360 22:20 05.10.2019
6501 Clouds 24 1016 64 10000 10.3 360 21:57 05.10.2019
6502 Clouds 23 1016 73 10000 12.3 10 21:39 05.10.2019
6503 Clouds 23 1016 73 10000 12.3 10 21:39 05.10.2019
6504 Clouds 23 1016 73 10000 12.3 10 21:20 05.10.2019
6505 Clouds 24 1016 73 10000 13.4 10 20:56 05.10.2019
6506 Clouds 24 1016 73 10000 13.9 20 20:38 05.10.2019
6507 Clouds 24 1016 73 10000 13.9 20 20:19 05.10.2019
6508 Clouds 24 1016 73 10000 13.9 20 20:19 05.10.2019
6509 Clouds 25 1015 69 10000 13.9 20 19:38 05.10.2019
6510 Clouds 25 1015 69 10000 13.9 20 19:20 05.10.2019
6511 Clouds 26 1015 65 10000 12.9 10 18:56 05.10.2019
6512 Clouds 26 1015 61 10000 13.4 10 18:38 05.10.2019
6513 Clouds 26 1015 61 10000 13.4 10 18:20 05.10.2019
6514 Clouds 26 1015 65 10000 14.4 10 17:46 05.10.2019
6515 Clouds 26 1016 65 10000 14.4 10 17:27 05.10.2019
6516 Clouds 27 1016 57 10000 14.9 10 16:59 05.10.2019
6517 Clouds 27 1016 61 10000 14.9 20 16:41 05.10.2019
6518 Clouds 26 1016 61 10000 14.9 20 16:21 05.10.2019
6519 Clouds 27 1016 61 10000 14.9 20 15:57 05.10.2019
6520 Clouds 27 1016 57 10000 14.4 10 15:39 05.10.2019
6521 Clouds 27 1016 57 10000 14.4 10 15:21 05.10.2019
6522 Clouds 27 1016 57 10000 14.9 10 14:56 05.10.2019
6523 Clouds 26 1016 57 10000 14.9 10 14:56 05.10.2019
6524 Clouds 26 1017 61 10000 13.4 10 14:38 05.10.2019
6525 Clouds 26 1017 61 10000 13.4 10 14:19 05.10.2019
6526 Clouds 26 1017 61 10000 12.9 360 13:41 05.10.2019
6527 Clouds 26 1017 61 10000 12.9 360 13:21 05.10.2019
6528 Clouds 25 1017 61 10000 13.4 10 12:46 05.10.2019
6529 Clouds 25 1017 61 10000 13.9 10 12:20 05.10.2019
6530 Clouds 25 1017 69 10000 12.3 360 11:54 05.10.2019
6531 Clouds 24 1017 73 10000 12.3 360 11:36 05.10.2019
6532 Clouds 24 1017 73 10000 12.3 360 11:18 05.10.2019
6533 Clouds 24 1016 73 10000 10.8 360 10:44 05.10.2019
6534 Clouds 23 1016 78 10000 11.8 360 10:24 05.10.2019
6535 Clouds 22 1016 78 10000 11.8 10 09:57 05.10.2019
6536 Clouds 22 1015 73 10000 9.8 10 09:38 05.10.2019
6537 Clouds 22 1015 73 10000 9.8 10 09:38 05.10.2019
6538 Clouds 22 1015 73 10000 9.8 10 09:20 05.10.2019
6539 Clouds 22 1015 73 10000 11.3 350 08:39 05.10.2019
6540 Clouds 22 1015 73 10000 11.3 350 08:19 05.10.2019
6541 Clouds 22 1015 73 10000 10.8 350 07:53 05.10.2019
6542 Clouds 22 1015 73 10000 10.3 360 07:32 05.10.2019
6543 Clouds 22 1015 78 10000 10.8 10 06:57 05.10.2019
6544 Clouds 22 1015 73 10000 10.3 350 06:26 05.10.2019
6545 Clouds 22 1015 73 10000 11.3 10 05:40 05.10.2019
6546 Clouds 22 1016 69 10000 9.8 360 03:39 05.10.2019
6547 Clouds 22 1016 69 10000 9.8 360 03:39 05.10.2019
6548 Clouds 22 1016 69 10000 9.8 360 03:20 05.10.2019
6549 Clouds 22 1016 73 10000 11.8 360 01:30 05.10.2019
6550 Clouds 23 1016 69 10000 11.8 360 00:51 05.10.2019
6551 Clouds 23 1016 69 10000 11.8 360 00:51 05.10.2019
6552 Clouds 23 1016 73 10000 11.8 10 00:28 05.10.2019
6553 Clouds 23 1016 69 10000 12.3 10 23:59 04.10.2019
6554 Clouds 23 1016 69 10000 13.4 10 23:41 04.10.2019
6555 Clouds 23 1016 69 10000 13.4 10 23:23 04.10.2019
6556 Clouds 23 1016 69 10000 12.3 360 22:58 04.10.2019
6557 Clouds 23 1016 69 10000 12.9 360 22:38 04.10.2019
6558 Clouds 23 1016 69 10000 12.9 360 22:38 04.10.2019
6559 Clouds 23 1016 69 10000 12.9 360 22:19 04.10.2019
6560 Clouds 23 1016 69 10000 12.9 360 21:55 04.10.2019
6561 Clouds 23 1015 73 10000 11.8 10 21:36 04.10.2019
6562 Clouds 24 1015 73 10000 11.8 10 21:18 04.10.2019
6563 Clouds 24 1015 69 10000 12.9 10 20:42 04.10.2019
6564 Clouds 25 1015 69 10000 12.9 10 20:23 04.10.2019
6565 Clouds 26 1016 65 10000 13.4 10 19:57 04.10.2019
6566 Clouds 25 1015 65 10000 13.9 10 19:39 04.10.2019
6567 Clouds 26 1015 65 10000 13.9 10 19:20 04.10.2019
6568 Clouds 26 1015 61 10000 13.4 10 18:56 04.10.2019
6569 Clouds 26 1015 61 10000 13.9 10 18:37 04.10.2019
6570 Clouds 26 1015 61 10000 13.9 10 18:18 04.10.2019
6571 Clouds 26 1015 61 10000 14.4 10 17:40 04.10.2019
6572 Clouds 27 1015 61 10000 14.4 10 17:22 04.10.2019
6573 Clouds 27 1015 61 10000 14.4 10 17:22 04.10.2019
6574 Clouds 27 1015 57 10000 15.4 10 16:58 04.10.2019
6575 Clouds 27 1016 65 10000 14.4 20 16:39 04.10.2019
6576 Clouds 27 1016 65 10000 14.4 20 16:39 04.10.2019
6577 Clouds 27 1016 65 10000 14.4 20 16:18 04.10.2019
6578 Clouds 27 1016 65 10000 14.4 20 16:18 04.10.2019
6579 Clouds 27 1016 61 10000 15.4 20 15:56 04.10.2019
6580 Clouds 28 1017 57 10000 14.4 20 15:38 04.10.2019
6581 Clouds 27 1017 57 10000 14.4 20 15:19 04.10.2019
6582 Clouds 26 1017 65 10000 13.9 10 14:55 04.10.2019
6583 Clouds 26 1018 65 10000 14.9 20 14:37 04.10.2019
6584 Clouds 26 1018 65 10000 14.9 20 14:19 04.10.2019
6585 Clouds 27 1018 57 10000 13.9 10 13:44 04.10.2019
6586 Clouds 27 1018 57 10000 13.9 10 13:44 04.10.2019
6587 Clouds 26 1018 61 10000 14.4 10 13:21 04.10.2019
6588 Clouds 25 1018 65 10000 13.9 360 12:49 04.10.2019
6589 Clouds 25 1018 69 10000 13.4 10 12:30 04.10.2019
6590 Clouds 25 1018 65 10000 13.4 10 12:00 04.10.2019
6591 Clouds 24 1018 73 10000 11.3 360 11:41 04.10.2019
6592 Clouds 24 1018 73 10000 11.3 360 11:41 04.10.2019
6593 Clouds 24 1018 73 10000 11.3 360 11:41 04.10.2019
6594 Clouds 24 1018 73 10000 11.3 360 11:21 04.10.2019
6595 Clouds 23 1018 73 10000 11.8 10 10:41 04.10.2019
6596 Clouds 23 1018 73 10000 11.8 10 10:21 04.10.2019
6597 Clouds 23 1018 73 10000 11.8 10 10:21 04.10.2019
6598 Clouds 22 1017 78 10000 11.8 360 09:50 04.10.2019
6599 Clouds 22 1017 78 10000 11.8 10 09:32 04.10.2019
6600 Clouds 22 1017 78 10000 11.3 360 08:59 04.10.2019
6601 Clouds 21 1017 78 10000 11.8 360 08:41 04.10.2019
6602 Clouds 22 1017 78 10000 11.8 360 08:23 04.10.2019
6603 Clouds 21 1017 78 10000 11.8 360 07:47 04.10.2019
6604 Clouds 22 1017 78 10000 11.8 360 07:23 04.10.2019
6605 Clouds 22 1017 78 10000 11.3 10 06:48 04.10.2019
6606 Clouds 22 1017 78 10000 11.8 360 06:27 04.10.2019
6607 Clouds 22 1017 78 10000 11.8 360 06:27 04.10.2019
6608 Clouds 22 1017 78 10000 11.3 360 05:52 04.10.2019
6609 Clouds 21 1017 83 10000 11.3 10 05:19 04.10.2019
6610 Clouds 22 1017 83 10000 11.3 10 03:56 04.10.2019
6611 Clouds 22 1018 78 10000 10.8 360 02:54 04.10.2019
6612 Clouds 22 1018 78 10000 10.8 10 02:21 04.10.2019
6613 Clouds 23 1019 73 10000 10.8 10 01:43 04.10.2019
6614 Clouds 23 1019 78 10000 10.3 10 01:24 04.10.2019
6615 Clouds 23 1019 78 10000 9.8 10 00:18 04.10.2019
6616 Clouds 23 1018 78 10000 10.3 10 23:37 03.10.2019
6617 Clouds 23 1018 78 10000 10.3 10 23:18 03.10.2019
6618 Clouds 23 1018 78 10000 10.3 10 23:18 03.10.2019
6619 Clouds 23 1018 78 10000 10.8 10 22:56 03.10.2019
6620 Clouds 23 1018 78 10000 11.3 10 22:38 03.10.2019
6621 Clouds 23 1018 78 10000 11.3 10 22:38 03.10.2019
6622 Clouds 23 1018 78 10000 11.3 10 22:20 03.10.2019
6623 Clouds 23 1018 78 10000 11.8 20 21:56 03.10.2019
6624 Clouds 24 1018 73 10000 10.8 10 21:37 03.10.2019
6625 Clouds 24 1018 73 10000 10.8 10 21:19 03.10.2019
6626 Clouds 24 1018 73 10000 11.3 10 20:56 03.10.2019
6627 Clouds 24 1018 73 10000 12.3 10 20:37 03.10.2019
6628 Clouds 24 1018 73 10000 12.3 10 20:37 03.10.2019
6629 Clouds 24 1018 73 10000 12.3 10 20:19 03.10.2019
6630 Clouds 25 1018 69 10000 12.9 20 19:41 03.10.2019
6631 Clouds 26 1018 69 10000 12.9 20 19:22 03.10.2019
6632 Clouds 26 1018 69 10000 12.9 20 18:59 03.10.2019
6633 Clouds 26 1018 73 10000 13.9 30 18:39 03.10.2019
6634 Clouds 26 1018 73 10000 13.9 30 18:39 03.10.2019
6635 Clouds 26 1018 73 10000 13.9 30 18:19 03.10.2019
6636 Clouds 26 1018 69 10000 12.9 20 17:59 03.10.2019
6637 Clouds 26 1018 69 10000 12.9 20 17:59 03.10.2019
6638 Clouds 26 1019 69 10000 13.9 30 17:41 03.10.2019
6639 Clouds 27 1019 69 10000 13.9 30 17:19 03.10.2019
6640 Clouds 26 1019 65 10000 13.9 30 16:44 03.10.2019
6641 Clouds 26 1019 69 10000 13.9 30 16:26 03.10.2019
6642 Clouds 26 1020 65 10000 13.4 20 15:56 03.10.2019
6643 Clouds 26 1020 69 10000 12.9 30 15:38 03.10.2019
6644 Clouds 26 1020 69 10000 12.9 30 15:20 03.10.2019
6645 Clouds 27 1020 69 10000 12.3 30 14:46 03.10.2019
6646 Clouds 26 1020 69 10000 12.3 30 14:26 03.10.2019
6647 Clouds 26 1021 65 10000 12.9 30 13:59 03.10.2019
6648 Clouds 26 1021 73 10000 13.4 30 13:41 03.10.2019
6649 Clouds 26 1021 73 10000 13.4 30 13:19 03.10.2019
6650 Clouds 26 1021 69 10000 10.8 20 12:56 03.10.2019
6651 Clouds 26 1021 69 10000 10.3 20 12:37 03.10.2019
6652 Clouds 26 1021 69 10000 10.3 20 12:19 03.10.2019
6653 Clouds 26 1021 69 10000 10.3 20 12:19 03.10.2019
6654 Clouds 25 1021 78 10000 10.8 10 11:41 03.10.2019
6655 Clouds 25 1021 78 10000 10.8 10 11:41 03.10.2019
6656 Clouds 25 1021 78 10000 10.8 10 11:23 03.10.2019
6657 Clouds 25 1020 78 10000 9.8 20 10:58 03.10.2019
6658 Clouds 25 1020 73 10000 9.3 20 10:40 03.10.2019
6659 Clouds 25 1020 73 10000 9.3 20 10:19 03.10.2019
6660 Clouds 25 1020 57 10000 8.2 360 09:58 03.10.2019
6661 Clouds 24 1019 53 10000 7.7 360 09:39 03.10.2019
6662 Clouds